<?xml version="1.0" encoding="UTF-8" standalone="no" ?>
<gpx xmlns="http://www.topografix.com/GPX/1/1" xmlns:xsi="http://www.w3.org/2001/XMLSchema-instance" xsi:schemaLocation="http://www.topografix.com/GPX/1/1 http://www.topografix.com/GPX/1/1/gpx.xsd" version="1.1" creator="VisuGPX - https://www.visugpx.com">
  <metadata>
    <name>vallée du Scorff et Vallée de l'Ellé</name>
    <desc><![CDATA[3j de rando nature le long du Scorff et de l'Ellé]]></desc>
  </metadata>
  <trk>
    <name><![CDATA[St Coal (Guilligomarc'h - Quimperlé - Locunolé 35 km]]></name>
    <trkseg>
      <trkpt lat="47.93812" lon="-3.45048">
        <ele>112.22</ele>
        <time>2018-05-30T08:05:01Z</time>
      </trkpt>
      <trkpt lat="47.93813" lon="-3.45048">
        <ele>112.31</ele>
        <time>2018-05-30T08:06:16Z</time>
      </trkpt>
      <trkpt lat="47.93814" lon="-3.45041">
        <ele>112.54</ele>
        <time>2018-05-30T08:06:45Z</time>
      </trkpt>
      <trkpt lat="47.93814" lon="-3.45033">
        <ele>113.02</ele>
        <time>2018-05-30T08:07:04Z</time>
      </trkpt>
      <trkpt lat="47.93814" lon="-3.45029">
        <ele>113.15</ele>
        <time>2018-05-30T08:07:25Z</time>
      </trkpt>
      <trkpt lat="47.93814" lon="-3.45032">
        <ele>112.89</ele>
        <time>2018-05-30T08:07:49Z</time>
      </trkpt>
      <trkpt lat="47.93815" lon="-3.45031">
        <ele>112.86</ele>
        <time>2018-05-30T08:08:13Z</time>
      </trkpt>
      <trkpt lat="47.93807" lon="-3.45029">
        <ele>112.76</ele>
        <time>2018-05-30T08:08:31Z</time>
      </trkpt>
      <trkpt lat="47.93798" lon="-3.45028">
        <ele>113.16</ele>
        <time>2018-05-30T08:08:41Z</time>
      </trkpt>
      <trkpt lat="47.93787" lon="-3.45027">
        <ele>113.52</ele>
        <time>2018-05-30T08:08:59Z</time>
      </trkpt>
      <trkpt lat="47.93787" lon="-3.45027">
        <ele>113.49</ele>
        <time>2018-05-30T08:09:28Z</time>
      </trkpt>
      <trkpt lat="47.93787" lon="-3.45027">
        <ele>113.25</ele>
        <time>2018-05-30T08:09:55Z</time>
      </trkpt>
      <trkpt lat="47.93787" lon="-3.45028">
        <ele>113.42</ele>
        <time>2018-05-30T08:10:22Z</time>
      </trkpt>
      <trkpt lat="47.93786" lon="-3.45029">
        <ele>113.47</ele>
        <time>2018-05-30T08:10:47Z</time>
      </trkpt>
      <trkpt lat="47.93786" lon="-3.45029">
        <ele>113.47</ele>
        <time>2018-05-30T08:11:16Z</time>
      </trkpt>
      <trkpt lat="47.93786" lon="-3.45029">
        <ele>113.19</ele>
        <time>2018-05-30T08:11:46Z</time>
      </trkpt>
      <trkpt lat="47.93786" lon="-3.45028">
        <ele>113.1</ele>
        <time>2018-05-30T08:12:22Z</time>
      </trkpt>
      <trkpt lat="47.93783" lon="-3.45026">
        <ele>113.05</ele>
        <time>2018-05-30T08:12:34Z</time>
      </trkpt>
      <trkpt lat="47.93779" lon="-3.45023">
        <ele>112.92</ele>
        <time>2018-05-30T08:12:38Z</time>
      </trkpt>
      <trkpt lat="47.93756" lon="-3.45011">
        <ele>112.43</ele>
        <time>2018-05-30T08:12:55Z</time>
      </trkpt>
      <trkpt lat="47.93729" lon="-3.45001">
        <ele>112.51</ele>
        <time>2018-05-30T08:13:13Z</time>
      </trkpt>
      <trkpt lat="47.93711" lon="-3.44991">
        <ele>111.71</ele>
        <time>2018-05-30T08:13:29Z</time>
      </trkpt>
      <trkpt lat="47.93692" lon="-3.44981">
        <ele>110.63</ele>
        <time>2018-05-30T08:13:47Z</time>
      </trkpt>
      <trkpt lat="47.93664" lon="-3.44961">
        <ele>110</ele>
        <time>2018-05-30T08:14:06Z</time>
      </trkpt>
      <trkpt lat="47.9364" lon="-3.44941">
        <ele>110.11</ele>
        <time>2018-05-30T08:14:24Z</time>
      </trkpt>
      <trkpt lat="47.93622" lon="-3.44928">
        <ele>110.89</ele>
        <time>2018-05-30T08:14:38Z</time>
      </trkpt>
      <trkpt lat="47.93601" lon="-3.44911">
        <ele>111.74</ele>
        <time>2018-05-30T08:14:54Z</time>
      </trkpt>
      <trkpt lat="47.93582" lon="-3.449">
        <ele>112.65</ele>
        <time>2018-05-30T08:15:09Z</time>
      </trkpt>
      <trkpt lat="47.93559" lon="-3.44881">
        <ele>113.4</ele>
        <time>2018-05-30T08:15:24Z</time>
      </trkpt>
      <trkpt lat="47.93535" lon="-3.44857">
        <ele>114.05</ele>
        <time>2018-05-30T08:15:42Z</time>
      </trkpt>
      <trkpt lat="47.9352" lon="-3.4484">
        <ele>114.21</ele>
        <time>2018-05-30T08:15:55Z</time>
      </trkpt>
      <trkpt lat="47.93513" lon="-3.44832">
        <ele>114.45</ele>
        <time>2018-05-30T08:16:01Z</time>
      </trkpt>
      <trkpt lat="47.93491" lon="-3.4481">
        <ele>114.32</ele>
        <time>2018-05-30T08:16:19Z</time>
      </trkpt>
      <trkpt lat="47.93469" lon="-3.44785">
        <ele>113.61</ele>
        <time>2018-05-30T08:16:37Z</time>
      </trkpt>
      <trkpt lat="47.93454" lon="-3.44777">
        <ele>113.06</ele>
        <time>2018-05-30T08:16:52Z</time>
      </trkpt>
      <trkpt lat="47.93448" lon="-3.44784">
        <ele>111.91</ele>
        <time>2018-05-30T08:17:00Z</time>
      </trkpt>
      <trkpt lat="47.93439" lon="-3.44794">
        <ele>110.69</ele>
        <time>2018-05-30T08:17:14Z</time>
      </trkpt>
      <trkpt lat="47.93421" lon="-3.44813">
        <ele>109.73</ele>
        <time>2018-05-30T08:17:36Z</time>
      </trkpt>
      <trkpt lat="47.93399" lon="-3.44839">
        <ele>107.99</ele>
        <time>2018-05-30T08:17:58Z</time>
      </trkpt>
      <trkpt lat="47.93375" lon="-3.44863">
        <ele>106.96</ele>
        <time>2018-05-30T08:18:19Z</time>
      </trkpt>
      <trkpt lat="47.93372" lon="-3.44866">
        <ele>106.84</ele>
        <time>2018-05-30T08:18:23Z</time>
      </trkpt>
      <trkpt lat="47.93365" lon="-3.44872">
        <ele>106.64</ele>
        <time>2018-05-30T08:18:27Z</time>
      </trkpt>
      <trkpt lat="47.93343" lon="-3.44889">
        <ele>106.14</ele>
        <time>2018-05-30T08:18:45Z</time>
      </trkpt>
      <trkpt lat="47.93328" lon="-3.44892">
        <ele>105.87</ele>
        <time>2018-05-30T08:19:06Z</time>
      </trkpt>
      <trkpt lat="47.93327" lon="-3.44893">
        <ele>106.08</ele>
        <time>2018-05-30T08:19:07Z</time>
      </trkpt>
      <trkpt lat="47.93317" lon="-3.44893">
        <ele>106.04</ele>
        <time>2018-05-30T08:19:35Z</time>
      </trkpt>
      <trkpt lat="47.93315" lon="-3.44895">
        <ele>106.07</ele>
        <time>2018-05-30T08:20:06Z</time>
      </trkpt>
      <trkpt lat="47.93311" lon="-3.449">
        <ele>105.8</ele>
        <time>2018-05-30T08:20:29Z</time>
      </trkpt>
      <trkpt lat="47.93304" lon="-3.44922">
        <ele>103.74</ele>
        <time>2018-05-30T08:20:50Z</time>
      </trkpt>
      <trkpt lat="47.93295" lon="-3.44948">
        <ele>101.83</ele>
        <time>2018-05-30T08:21:07Z</time>
      </trkpt>
      <trkpt lat="47.93283" lon="-3.44995">
        <ele>100.31</ele>
        <time>2018-05-30T08:21:29Z</time>
      </trkpt>
      <trkpt lat="47.93273" lon="-3.45032">
        <ele>99.43</ele>
        <time>2018-05-30T08:21:51Z</time>
      </trkpt>
      <trkpt lat="47.93263" lon="-3.45056">
        <ele>98.9</ele>
        <time>2018-05-30T08:22:09Z</time>
      </trkpt>
      <trkpt lat="47.93263" lon="-3.45057">
        <ele>98.95</ele>
        <time>2018-05-30T08:22:10Z</time>
      </trkpt>
      <trkpt lat="47.93257" lon="-3.45079">
        <ele>98.98</ele>
        <time>2018-05-30T08:22:31Z</time>
      </trkpt>
      <trkpt lat="47.93254" lon="-3.45101">
        <ele>98.06</ele>
        <time>2018-05-30T08:22:53Z</time>
      </trkpt>
      <trkpt lat="47.93251" lon="-3.45119">
        <ele>98.8</ele>
        <time>2018-05-30T08:23:11Z</time>
      </trkpt>
      <trkpt lat="47.93254" lon="-3.45136">
        <ele>97.63</ele>
        <time>2018-05-30T08:23:21Z</time>
      </trkpt>
      <trkpt lat="47.93252" lon="-3.4515">
        <ele>97.38</ele>
        <time>2018-05-30T08:23:27Z</time>
      </trkpt>
      <trkpt lat="47.93247" lon="-3.45168">
        <ele>95.91</ele>
        <time>2018-05-30T08:23:41Z</time>
      </trkpt>
      <trkpt lat="47.93228" lon="-3.45186">
        <ele>92.9</ele>
        <time>2018-05-30T08:24:02Z</time>
      </trkpt>
      <trkpt lat="47.93212" lon="-3.45201">
        <ele>89.75</ele>
        <time>2018-05-30T08:24:17Z</time>
      </trkpt>
      <trkpt lat="47.9319" lon="-3.45217">
        <ele>86.66</ele>
        <time>2018-05-30T08:24:32Z</time>
      </trkpt>
      <trkpt lat="47.93162" lon="-3.45241">
        <ele>86.36</ele>
        <time>2018-05-30T08:24:53Z</time>
      </trkpt>
      <trkpt lat="47.9315" lon="-3.45268">
        <ele>84.83</ele>
        <time>2018-05-30T08:25:09Z</time>
      </trkpt>
      <trkpt lat="47.93139" lon="-3.45308">
        <ele>81.81</ele>
        <time>2018-05-30T08:25:26Z</time>
      </trkpt>
      <trkpt lat="47.93137" lon="-3.45317">
        <ele>81.27</ele>
        <time>2018-05-30T08:25:30Z</time>
      </trkpt>
      <trkpt lat="47.93127" lon="-3.45342">
        <ele>80.58</ele>
        <time>2018-05-30T08:25:41Z</time>
      </trkpt>
      <trkpt lat="47.93109" lon="-3.45382">
        <ele>79.43</ele>
        <time>2018-05-30T08:25:58Z</time>
      </trkpt>
      <trkpt lat="47.93086" lon="-3.45404">
        <ele>77.47</ele>
        <time>2018-05-30T08:26:11Z</time>
      </trkpt>
      <trkpt lat="47.93073" lon="-3.45427">
        <ele>75.55</ele>
        <time>2018-05-30T08:26:25Z</time>
      </trkpt>
      <trkpt lat="47.93063" lon="-3.45447">
        <ele>74.05</ele>
        <time>2018-05-30T08:26:37Z</time>
      </trkpt>
      <trkpt lat="47.93045" lon="-3.45494">
        <ele>72.32</ele>
        <time>2018-05-30T08:26:57Z</time>
      </trkpt>
      <trkpt lat="47.93017" lon="-3.45512">
        <ele>72.19</ele>
        <time>2018-05-30T08:27:12Z</time>
      </trkpt>
      <trkpt lat="47.92995" lon="-3.45528">
        <ele>71.25</ele>
        <time>2018-05-30T08:27:28Z</time>
      </trkpt>
      <trkpt lat="47.92983" lon="-3.4553">
        <ele>69.14</ele>
        <time>2018-05-30T08:27:40Z</time>
      </trkpt>
      <trkpt lat="47.92981" lon="-3.4553">
        <ele>69.03</ele>
        <time>2018-05-30T08:27:41Z</time>
      </trkpt>
      <trkpt lat="47.92969" lon="-3.45532">
        <ele>68.52</ele>
        <time>2018-05-30T08:27:51Z</time>
      </trkpt>
      <trkpt lat="47.92958" lon="-3.45535">
        <ele>68.35</ele>
        <time>2018-05-30T08:27:56Z</time>
      </trkpt>
      <trkpt lat="47.92945" lon="-3.4554">
        <ele>68.18</ele>
        <time>2018-05-30T08:28:07Z</time>
      </trkpt>
      <trkpt lat="47.92938" lon="-3.45552">
        <ele>67.83</ele>
        <time>2018-05-30T08:28:13Z</time>
      </trkpt>
      <trkpt lat="47.92933" lon="-3.45558">
        <ele>67.57</ele>
        <time>2018-05-30T08:28:17Z</time>
      </trkpt>
      <trkpt lat="47.92917" lon="-3.45596">
        <ele>65.87</ele>
        <time>2018-05-30T08:28:36Z</time>
      </trkpt>
      <trkpt lat="47.9291" lon="-3.45617">
        <ele>64.94</ele>
        <time>2018-05-30T08:28:47Z</time>
      </trkpt>
      <trkpt lat="47.92907" lon="-3.45619">
        <ele>64.7</ele>
        <time>2018-05-30T08:28:49Z</time>
      </trkpt>
      <trkpt lat="47.92904" lon="-3.45633">
        <ele>64.08</ele>
        <time>2018-05-30T08:28:57Z</time>
      </trkpt>
      <trkpt lat="47.92904" lon="-3.45647">
        <ele>63.15</ele>
        <time>2018-05-30T08:29:08Z</time>
      </trkpt>
      <trkpt lat="47.92905" lon="-3.45649">
        <ele>63.04</ele>
        <time>2018-05-30T08:29:10Z</time>
      </trkpt>
      <trkpt lat="47.92906" lon="-3.45654">
        <ele>62.74</ele>
        <time>2018-05-30T08:29:13Z</time>
      </trkpt>
      <trkpt lat="47.92902" lon="-3.45693">
        <ele>61.8</ele>
        <time>2018-05-30T08:29:28Z</time>
      </trkpt>
      <trkpt lat="47.92894" lon="-3.45729">
        <ele>60.7</ele>
        <time>2018-05-30T08:29:42Z</time>
      </trkpt>
      <trkpt lat="47.92882" lon="-3.45762">
        <ele>59.61</ele>
        <time>2018-05-30T08:29:58Z</time>
      </trkpt>
      <trkpt lat="47.9287" lon="-3.45789">
        <ele>59.17</ele>
        <time>2018-05-30T08:30:11Z</time>
      </trkpt>
      <trkpt lat="47.92867" lon="-3.45807">
        <ele>59.06</ele>
        <time>2018-05-30T08:30:18Z</time>
      </trkpt>
      <trkpt lat="47.9286" lon="-3.45828">
        <ele>58.37</ele>
        <time>2018-05-30T08:30:33Z</time>
      </trkpt>
      <trkpt lat="47.92859" lon="-3.45829">
        <ele>58.31</ele>
        <time>2018-05-30T08:30:34Z</time>
      </trkpt>
      <trkpt lat="47.92858" lon="-3.45837">
        <ele>58.28</ele>
        <time>2018-05-30T08:30:37Z</time>
      </trkpt>
      <trkpt lat="47.92857" lon="-3.4584">
        <ele>58.29</ele>
        <time>2018-05-30T08:30:38Z</time>
      </trkpt>
      <trkpt lat="47.92856" lon="-3.45842">
        <ele>58.3</ele>
        <time>2018-05-30T08:30:39Z</time>
      </trkpt>
      <trkpt lat="47.92857" lon="-3.45864">
        <ele>58.14</ele>
        <time>2018-05-30T08:30:54Z</time>
      </trkpt>
      <trkpt lat="47.92845" lon="-3.45893">
        <ele>57.91</ele>
        <time>2018-05-30T08:31:12Z</time>
      </trkpt>
      <trkpt lat="47.92837" lon="-3.45894">
        <ele>57.79</ele>
        <time>2018-05-30T08:31:19Z</time>
      </trkpt>
      <trkpt lat="47.92825" lon="-3.45898">
        <ele>57.88</ele>
        <time>2018-05-30T08:31:26Z</time>
      </trkpt>
      <trkpt lat="47.92823" lon="-3.45898">
        <ele>57.9</ele>
        <time>2018-05-30T08:31:27Z</time>
      </trkpt>
      <trkpt lat="47.92797" lon="-3.45911">
        <ele>57.83</ele>
        <time>2018-05-30T08:31:41Z</time>
      </trkpt>
      <trkpt lat="47.92773" lon="-3.45913">
        <ele>56.74</ele>
        <time>2018-05-30T08:31:56Z</time>
      </trkpt>
      <trkpt lat="47.92764" lon="-3.45913">
        <ele>55.95</ele>
        <time>2018-05-30T08:32:01Z</time>
      </trkpt>
      <trkpt lat="47.92763" lon="-3.45913">
        <ele>55.76</ele>
        <time>2018-05-30T08:32:02Z</time>
      </trkpt>
      <trkpt lat="47.92761" lon="-3.45913">
        <ele>55.58</ele>
        <time>2018-05-30T08:32:03Z</time>
      </trkpt>
      <trkpt lat="47.9276" lon="-3.45913">
        <ele>55.37</ele>
        <time>2018-05-30T08:32:04Z</time>
      </trkpt>
      <trkpt lat="47.92758" lon="-3.45913">
        <ele>55.14</ele>
        <time>2018-05-30T08:32:05Z</time>
      </trkpt>
      <trkpt lat="47.92756" lon="-3.45913">
        <ele>54.92</ele>
        <time>2018-05-30T08:32:06Z</time>
      </trkpt>
      <trkpt lat="47.92755" lon="-3.45913">
        <ele>54.73</ele>
        <time>2018-05-30T08:32:07Z</time>
      </trkpt>
      <trkpt lat="47.92753" lon="-3.45913">
        <ele>54.51</ele>
        <time>2018-05-30T08:32:08Z</time>
      </trkpt>
      <trkpt lat="47.92752" lon="-3.45914">
        <ele>54.28</ele>
        <time>2018-05-30T08:32:09Z</time>
      </trkpt>
      <trkpt lat="47.9275" lon="-3.45914">
        <ele>54.05</ele>
        <time>2018-05-30T08:32:10Z</time>
      </trkpt>
      <trkpt lat="47.92748" lon="-3.45915">
        <ele>53.84</ele>
        <time>2018-05-30T08:32:11Z</time>
      </trkpt>
      <trkpt lat="47.92747" lon="-3.45915">
        <ele>53.63</ele>
        <time>2018-05-30T08:32:12Z</time>
      </trkpt>
      <trkpt lat="47.92745" lon="-3.45915">
        <ele>53.39</ele>
        <time>2018-05-30T08:32:13Z</time>
      </trkpt>
      <trkpt lat="47.92743" lon="-3.45916">
        <ele>53.13</ele>
        <time>2018-05-30T08:32:14Z</time>
      </trkpt>
      <trkpt lat="47.92733" lon="-3.45923">
        <ele>50.05</ele>
        <time>2018-05-30T08:32:27Z</time>
      </trkpt>
      <trkpt lat="47.92728" lon="-3.45924">
        <ele>49.43</ele>
        <time>2018-05-30T08:32:31Z</time>
      </trkpt>
      <trkpt lat="47.92716" lon="-3.45918">
        <ele>48.77</ele>
        <time>2018-05-30T08:32:40Z</time>
      </trkpt>
      <trkpt lat="47.92703" lon="-3.45916">
        <ele>48.5</ele>
        <time>2018-05-30T08:32:49Z</time>
      </trkpt>
      <trkpt lat="47.92671" lon="-3.45915">
        <ele>48.74</ele>
        <time>2018-05-30T08:33:08Z</time>
      </trkpt>
      <trkpt lat="47.92643" lon="-3.45904">
        <ele>48.83</ele>
        <time>2018-05-30T08:33:23Z</time>
      </trkpt>
      <trkpt lat="47.92641" lon="-3.45902">
        <ele>48.82</ele>
        <time>2018-05-30T08:33:24Z</time>
      </trkpt>
      <trkpt lat="47.92638" lon="-3.45899">
        <ele>48.81</ele>
        <time>2018-05-30T08:33:25Z</time>
      </trkpt>
      <trkpt lat="47.9262" lon="-3.45894">
        <ele>48.9</ele>
        <time>2018-05-30T08:33:37Z</time>
      </trkpt>
      <trkpt lat="47.92598" lon="-3.45889">
        <ele>48.7</ele>
        <time>2018-05-30T08:33:53Z</time>
      </trkpt>
      <trkpt lat="47.92591" lon="-3.45889">
        <ele>48.67</ele>
        <time>2018-05-30T08:33:58Z</time>
      </trkpt>
      <trkpt lat="47.9259" lon="-3.45889">
        <ele>48.64</ele>
        <time>2018-05-30T08:33:59Z</time>
      </trkpt>
      <trkpt lat="47.92588" lon="-3.45889">
        <ele>48.61</ele>
        <time>2018-05-30T08:34:00Z</time>
      </trkpt>
      <trkpt lat="47.92585" lon="-3.4589">
        <ele>48.57</ele>
        <time>2018-05-30T08:34:01Z</time>
      </trkpt>
      <trkpt lat="47.92583" lon="-3.4589">
        <ele>48.53</ele>
        <time>2018-05-30T08:34:02Z</time>
      </trkpt>
      <trkpt lat="47.92564" lon="-3.45883">
        <ele>47.79</ele>
        <time>2018-05-30T08:34:15Z</time>
      </trkpt>
      <trkpt lat="47.92527" lon="-3.45857">
        <ele>47.22</ele>
        <time>2018-05-30T08:34:31Z</time>
      </trkpt>
      <trkpt lat="47.92505" lon="-3.45851">
        <ele>46.87</ele>
        <time>2018-05-30T08:34:46Z</time>
      </trkpt>
      <trkpt lat="47.92502" lon="-3.4585">
        <ele>46.7</ele>
        <time>2018-05-30T08:34:49Z</time>
      </trkpt>
      <trkpt lat="47.92498" lon="-3.45851">
        <ele>46.55</ele>
        <time>2018-05-30T08:34:52Z</time>
      </trkpt>
      <trkpt lat="47.92495" lon="-3.45849">
        <ele>46.51</ele>
        <time>2018-05-30T08:34:53Z</time>
      </trkpt>
      <trkpt lat="47.92494" lon="-3.45848">
        <ele>46.47</ele>
        <time>2018-05-30T08:34:54Z</time>
      </trkpt>
      <trkpt lat="47.92468" lon="-3.45837">
        <ele>46.49</ele>
        <time>2018-05-30T08:35:11Z</time>
      </trkpt>
      <trkpt lat="47.9244" lon="-3.45831">
        <ele>45.99</ele>
        <time>2018-05-30T08:35:27Z</time>
      </trkpt>
      <trkpt lat="47.92423" lon="-3.45833">
        <ele>44.68</ele>
        <time>2018-05-30T08:35:41Z</time>
      </trkpt>
      <trkpt lat="47.924" lon="-3.45833">
        <ele>42.25</ele>
        <time>2018-05-30T08:36:00Z</time>
      </trkpt>
      <trkpt lat="47.92383" lon="-3.45836">
        <ele>41.56</ele>
        <time>2018-05-30T08:36:24Z</time>
      </trkpt>
      <trkpt lat="47.92372" lon="-3.45823">
        <ele>41.89</ele>
        <time>2018-05-30T08:36:39Z</time>
      </trkpt>
      <trkpt lat="47.92359" lon="-3.45818">
        <ele>42.17</ele>
        <time>2018-05-30T08:36:57Z</time>
      </trkpt>
      <trkpt lat="47.9235" lon="-3.45815">
        <ele>42.62</ele>
        <time>2018-05-30T08:37:05Z</time>
      </trkpt>
      <trkpt lat="47.92334" lon="-3.45817">
        <ele>42.97</ele>
        <time>2018-05-30T08:37:19Z</time>
      </trkpt>
      <trkpt lat="47.9232" lon="-3.45823">
        <ele>42.75</ele>
        <time>2018-05-30T08:37:41Z</time>
      </trkpt>
      <trkpt lat="47.92313" lon="-3.45822">
        <ele>41.83</ele>
        <time>2018-05-30T08:37:53Z</time>
      </trkpt>
      <trkpt lat="47.92311" lon="-3.45818">
        <ele>41.45</ele>
        <time>2018-05-30T08:38:17Z</time>
      </trkpt>
      <trkpt lat="47.9231" lon="-3.45816">
        <ele>41.29</ele>
        <time>2018-05-30T08:38:38Z</time>
      </trkpt>
      <trkpt lat="47.9231" lon="-3.45821">
        <ele>41.73</ele>
        <time>2018-05-30T08:38:56Z</time>
      </trkpt>
      <trkpt lat="47.92307" lon="-3.45815">
        <ele>41.19</ele>
        <time>2018-05-30T08:39:15Z</time>
      </trkpt>
      <trkpt lat="47.92302" lon="-3.458">
        <ele>40.65</ele>
        <time>2018-05-30T08:39:36Z</time>
      </trkpt>
      <trkpt lat="47.92299" lon="-3.45792">
        <ele>41.36</ele>
        <time>2018-05-30T08:39:54Z</time>
      </trkpt>
      <trkpt lat="47.92302" lon="-3.45789">
        <ele>42.24</ele>
        <time>2018-05-30T08:40:14Z</time>
      </trkpt>
      <trkpt lat="47.92303" lon="-3.45788">
        <ele>42.42</ele>
        <time>2018-05-30T08:40:21Z</time>
      </trkpt>
      <trkpt lat="47.92301" lon="-3.45774">
        <ele>42.33</ele>
        <time>2018-05-30T08:40:37Z</time>
      </trkpt>
      <trkpt lat="47.92297" lon="-3.45759">
        <ele>42.28</ele>
        <time>2018-05-30T08:40:44Z</time>
      </trkpt>
      <trkpt lat="47.92295" lon="-3.45741">
        <ele>42.4</ele>
        <time>2018-05-30T08:40:51Z</time>
      </trkpt>
      <trkpt lat="47.92294" lon="-3.45735">
        <ele>42.32</ele>
        <time>2018-05-30T08:40:54Z</time>
      </trkpt>
      <trkpt lat="47.92291" lon="-3.4571">
        <ele>41.96</ele>
        <time>2018-05-30T08:41:06Z</time>
      </trkpt>
      <trkpt lat="47.92285" lon="-3.45685">
        <ele>41.92</ele>
        <time>2018-05-30T08:41:17Z</time>
      </trkpt>
      <trkpt lat="47.92278" lon="-3.45661">
        <ele>41.68</ele>
        <time>2018-05-30T08:41:26Z</time>
      </trkpt>
      <trkpt lat="47.92271" lon="-3.45641">
        <ele>41.6</ele>
        <time>2018-05-30T08:41:36Z</time>
      </trkpt>
      <trkpt lat="47.92259" lon="-3.45614">
        <ele>41.68</ele>
        <time>2018-05-30T08:41:49Z</time>
      </trkpt>
      <trkpt lat="47.92248" lon="-3.45591">
        <ele>41.73</ele>
        <time>2018-05-30T08:42:02Z</time>
      </trkpt>
      <trkpt lat="47.92243" lon="-3.45588">
        <ele>41.91</ele>
        <time>2018-05-30T08:42:07Z</time>
      </trkpt>
      <trkpt lat="47.92241" lon="-3.45588">
        <ele>41.96</ele>
        <time>2018-05-30T08:42:09Z</time>
      </trkpt>
      <trkpt lat="47.92233" lon="-3.45582">
        <ele>42.19</ele>
        <time>2018-05-30T08:42:16Z</time>
      </trkpt>
      <trkpt lat="47.92227" lon="-3.45568">
        <ele>42.52</ele>
        <time>2018-05-30T08:42:30Z</time>
      </trkpt>
      <trkpt lat="47.92224" lon="-3.45562">
        <ele>42.68</ele>
        <time>2018-05-30T08:42:38Z</time>
      </trkpt>
      <trkpt lat="47.92223" lon="-3.45558">
        <ele>43</ele>
        <time>2018-05-30T08:42:42Z</time>
      </trkpt>
      <trkpt lat="47.92219" lon="-3.45545">
        <ele>43.41</ele>
        <time>2018-05-30T08:42:54Z</time>
      </trkpt>
      <trkpt lat="47.92205" lon="-3.45529">
        <ele>44.27</ele>
        <time>2018-05-30T08:43:12Z</time>
      </trkpt>
      <trkpt lat="47.92202" lon="-3.45528">
        <ele>44.49</ele>
        <time>2018-05-30T08:43:18Z</time>
      </trkpt>
      <trkpt lat="47.92178" lon="-3.45513">
        <ele>45.14</ele>
        <time>2018-05-30T08:43:34Z</time>
      </trkpt>
      <trkpt lat="47.92157" lon="-3.45495">
        <ele>45.98</ele>
        <time>2018-05-30T08:43:49Z</time>
      </trkpt>
      <trkpt lat="47.92131" lon="-3.45494">
        <ele>47.36</ele>
        <time>2018-05-30T08:44:08Z</time>
      </trkpt>
      <trkpt lat="47.92114" lon="-3.45516">
        <ele>48.44</ele>
        <time>2018-05-30T08:44:24Z</time>
      </trkpt>
      <trkpt lat="47.92106" lon="-3.45524">
        <ele>49.25</ele>
        <time>2018-05-30T08:44:31Z</time>
      </trkpt>
      <trkpt lat="47.92098" lon="-3.45542">
        <ele>51.3</ele>
        <time>2018-05-30T08:44:45Z</time>
      </trkpt>
      <trkpt lat="47.92086" lon="-3.4557">
        <ele>53.93</ele>
        <time>2018-05-30T08:45:04Z</time>
      </trkpt>
      <trkpt lat="47.92079" lon="-3.45586">
        <ele>56.4</ele>
        <time>2018-05-30T08:45:17Z</time>
      </trkpt>
      <trkpt lat="47.92074" lon="-3.45584">
        <ele>57.15</ele>
        <time>2018-05-30T08:45:21Z</time>
      </trkpt>
      <trkpt lat="47.92074" lon="-3.45589">
        <ele>57.71</ele>
        <time>2018-05-30T08:45:24Z</time>
      </trkpt>
      <trkpt lat="47.92077" lon="-3.45606">
        <ele>59.37</ele>
        <time>2018-05-30T08:45:33Z</time>
      </trkpt>
      <trkpt lat="47.92077" lon="-3.45609">
        <ele>59.6</ele>
        <time>2018-05-30T08:45:35Z</time>
      </trkpt>
      <trkpt lat="47.92076" lon="-3.45613">
        <ele>60.34</ele>
        <time>2018-05-30T08:45:39Z</time>
      </trkpt>
      <trkpt lat="47.92078" lon="-3.45641">
        <ele>63.04</ele>
        <time>2018-05-30T08:45:54Z</time>
      </trkpt>
      <trkpt lat="47.92079" lon="-3.45646">
        <ele>63.52</ele>
        <time>2018-05-30T08:45:56Z</time>
      </trkpt>
      <trkpt lat="47.92079" lon="-3.45654">
        <ele>64.11</ele>
        <time>2018-05-30T08:46:01Z</time>
      </trkpt>
      <trkpt lat="47.92078" lon="-3.4566">
        <ele>64.63</ele>
        <time>2018-05-30T08:46:06Z</time>
      </trkpt>
      <trkpt lat="47.92076" lon="-3.4568">
        <ele>65.96</ele>
        <time>2018-05-30T08:46:18Z</time>
      </trkpt>
      <trkpt lat="47.92062" lon="-3.45704">
        <ele>67.7</ele>
        <time>2018-05-30T08:46:32Z</time>
      </trkpt>
      <trkpt lat="47.92062" lon="-3.45707">
        <ele>67.83</ele>
        <time>2018-05-30T08:46:33Z</time>
      </trkpt>
      <trkpt lat="47.92049" lon="-3.45725">
        <ele>69.28</ele>
        <time>2018-05-30T08:46:47Z</time>
      </trkpt>
      <trkpt lat="47.92031" lon="-3.45745">
        <ele>69.85</ele>
        <time>2018-05-30T08:46:59Z</time>
      </trkpt>
      <trkpt lat="47.92008" lon="-3.4578">
        <ele>70.72</ele>
        <time>2018-05-30T08:47:19Z</time>
      </trkpt>
      <trkpt lat="47.92" lon="-3.45804">
        <ele>71.35</ele>
        <time>2018-05-30T08:47:33Z</time>
      </trkpt>
      <trkpt lat="47.91997" lon="-3.45813">
        <ele>71.68</ele>
        <time>2018-05-30T08:47:38Z</time>
      </trkpt>
      <trkpt lat="47.91994" lon="-3.45842">
        <ele>72.63</ele>
        <time>2018-05-30T08:47:51Z</time>
      </trkpt>
      <trkpt lat="47.91988" lon="-3.45867">
        <ele>74.08</ele>
        <time>2018-05-30T08:48:03Z</time>
      </trkpt>
      <trkpt lat="47.9198" lon="-3.45874">
        <ele>74.51</ele>
        <time>2018-05-30T08:48:11Z</time>
      </trkpt>
      <trkpt lat="47.91973" lon="-3.4589">
        <ele>75.52</ele>
        <time>2018-05-30T08:48:20Z</time>
      </trkpt>
      <trkpt lat="47.9197" lon="-3.45903">
        <ele>76.53</ele>
        <time>2018-05-30T08:48:27Z</time>
      </trkpt>
      <trkpt lat="47.91965" lon="-3.45936">
        <ele>78.64</ele>
        <time>2018-05-30T08:48:44Z</time>
      </trkpt>
      <trkpt lat="47.91959" lon="-3.4596">
        <ele>81.03</ele>
        <time>2018-05-30T08:48:55Z</time>
      </trkpt>
      <trkpt lat="47.91955" lon="-3.45978">
        <ele>82.97</ele>
        <time>2018-05-30T08:49:03Z</time>
      </trkpt>
      <trkpt lat="47.91953" lon="-3.45984">
        <ele>83.58</ele>
        <time>2018-05-30T08:49:07Z</time>
      </trkpt>
      <trkpt lat="47.9195" lon="-3.45988">
        <ele>84.13</ele>
        <time>2018-05-30T08:49:11Z</time>
      </trkpt>
      <trkpt lat="47.91947" lon="-3.45996">
        <ele>85.06</ele>
        <time>2018-05-30T08:49:16Z</time>
      </trkpt>
      <trkpt lat="47.91943" lon="-3.46008">
        <ele>86.1</ele>
        <time>2018-05-30T08:49:22Z</time>
      </trkpt>
      <trkpt lat="47.91914" lon="-3.46029">
        <ele>89.33</ele>
        <time>2018-05-30T08:49:42Z</time>
      </trkpt>
      <trkpt lat="47.91895" lon="-3.46067">
        <ele>92.61</ele>
        <time>2018-05-30T08:50:01Z</time>
      </trkpt>
      <trkpt lat="47.91884" lon="-3.46104">
        <ele>95.3</ele>
        <time>2018-05-30T08:50:20Z</time>
      </trkpt>
      <trkpt lat="47.91882" lon="-3.46156">
        <ele>96.63</ele>
        <time>2018-05-30T08:50:43Z</time>
      </trkpt>
      <trkpt lat="47.91881" lon="-3.46206">
        <ele>97.79</ele>
        <time>2018-05-30T08:51:04Z</time>
      </trkpt>
      <trkpt lat="47.91881" lon="-3.46212">
        <ele>97.95</ele>
        <time>2018-05-30T08:51:07Z</time>
      </trkpt>
      <trkpt lat="47.91879" lon="-3.46255">
        <ele>99.64</ele>
        <time>2018-05-30T08:51:28Z</time>
      </trkpt>
      <trkpt lat="47.91876" lon="-3.46282">
        <ele>100.43</ele>
        <time>2018-05-30T08:51:41Z</time>
      </trkpt>
      <trkpt lat="47.91861" lon="-3.46332">
        <ele>99.51</ele>
        <time>2018-05-30T08:51:53Z</time>
      </trkpt>
      <trkpt lat="47.9186" lon="-3.46335">
        <ele>99.47</ele>
        <time>2018-05-30T08:51:54Z</time>
      </trkpt>
      <trkpt lat="47.91859" lon="-3.46351">
        <ele>99.47</ele>
        <time>2018-05-30T08:51:58Z</time>
      </trkpt>
      <trkpt lat="47.9183" lon="-3.46415">
        <ele>98.48</ele>
        <time>2018-05-30T08:52:12Z</time>
      </trkpt>
      <trkpt lat="47.91823" lon="-3.46424">
        <ele>98.1</ele>
        <time>2018-05-30T08:52:14Z</time>
      </trkpt>
      <trkpt lat="47.91792" lon="-3.4645">
        <ele>97.26</ele>
        <time>2018-05-30T08:52:23Z</time>
      </trkpt>
      <trkpt lat="47.91783" lon="-3.46469">
        <ele>97.14</ele>
        <time>2018-05-30T08:52:27Z</time>
      </trkpt>
      <trkpt lat="47.91754" lon="-3.46504">
        <ele>97.07</ele>
        <time>2018-05-30T08:52:36Z</time>
      </trkpt>
      <trkpt lat="47.91737" lon="-3.46524">
        <ele>97.56</ele>
        <time>2018-05-30T08:52:42Z</time>
      </trkpt>
      <trkpt lat="47.91698" lon="-3.46572">
        <ele>99.12</ele>
        <time>2018-05-30T08:52:54Z</time>
      </trkpt>
      <trkpt lat="47.91669" lon="-3.46607">
        <ele>100.32</ele>
        <time>2018-05-30T08:53:04Z</time>
      </trkpt>
      <trkpt lat="47.91665" lon="-3.46614">
        <ele>100.81</ele>
        <time>2018-05-30T08:53:07Z</time>
      </trkpt>
      <trkpt lat="47.91663" lon="-3.46615">
        <ele>100.9</ele>
        <time>2018-05-30T08:53:08Z</time>
      </trkpt>
      <trkpt lat="47.91648" lon="-3.46625">
        <ele>101.05</ele>
        <time>2018-05-30T08:53:15Z</time>
      </trkpt>
      <trkpt lat="47.91633" lon="-3.46627">
        <ele>99.72</ele>
        <time>2018-05-30T08:53:25Z</time>
      </trkpt>
      <trkpt lat="47.91611" lon="-3.46636">
        <ele>96.32</ele>
        <time>2018-05-30T08:53:37Z</time>
      </trkpt>
      <trkpt lat="47.91591" lon="-3.46634">
        <ele>93.2</ele>
        <time>2018-05-30T08:53:49Z</time>
      </trkpt>
      <trkpt lat="47.91584" lon="-3.46606">
        <ele>90.1</ele>
        <time>2018-05-30T08:54:02Z</time>
      </trkpt>
      <trkpt lat="47.91582" lon="-3.46594">
        <ele>88.8</ele>
        <time>2018-05-30T08:54:08Z</time>
      </trkpt>
      <trkpt lat="47.91577" lon="-3.46559">
        <ele>85.73</ele>
        <time>2018-05-30T08:54:24Z</time>
      </trkpt>
      <trkpt lat="47.91576" lon="-3.46523">
        <ele>83.17</ele>
        <time>2018-05-30T08:54:40Z</time>
      </trkpt>
      <trkpt lat="47.91576" lon="-3.46507">
        <ele>80.13</ele>
        <time>2018-05-30T08:54:51Z</time>
      </trkpt>
      <trkpt lat="47.91574" lon="-3.46489">
        <ele>79.52</ele>
        <time>2018-05-30T08:55:00Z</time>
      </trkpt>
      <trkpt lat="47.91577" lon="-3.46477">
        <ele>80.07</ele>
        <time>2018-05-30T08:55:06Z</time>
      </trkpt>
      <trkpt lat="47.91584" lon="-3.46455">
        <ele>79.19</ele>
        <time>2018-05-30T08:55:18Z</time>
      </trkpt>
      <trkpt lat="47.91589" lon="-3.46419">
        <ele>76.13</ele>
        <time>2018-05-30T08:55:34Z</time>
      </trkpt>
      <trkpt lat="47.91592" lon="-3.4639">
        <ele>72.99</ele>
        <time>2018-05-30T08:55:49Z</time>
      </trkpt>
      <trkpt lat="47.9159" lon="-3.46369">
        <ele>69.87</ele>
        <time>2018-05-30T08:55:59Z</time>
      </trkpt>
      <trkpt lat="47.91593" lon="-3.46338">
        <ele>66.86</ele>
        <time>2018-05-30T08:56:08Z</time>
      </trkpt>
      <trkpt lat="47.91591" lon="-3.46302">
        <ele>63.63</ele>
        <time>2018-05-30T08:56:21Z</time>
      </trkpt>
      <trkpt lat="47.91592" lon="-3.46281">
        <ele>60.36</ele>
        <time>2018-05-30T08:56:33Z</time>
      </trkpt>
      <trkpt lat="47.91588" lon="-3.46266">
        <ele>57.2</ele>
        <time>2018-05-30T08:56:44Z</time>
      </trkpt>
      <trkpt lat="47.91586" lon="-3.4626">
        <ele>55.82</ele>
        <time>2018-05-30T08:56:49Z</time>
      </trkpt>
      <trkpt lat="47.91581" lon="-3.46253">
        <ele>54.15</ele>
        <time>2018-05-30T08:56:54Z</time>
      </trkpt>
      <trkpt lat="47.91571" lon="-3.46244">
        <ele>51.11</ele>
        <time>2018-05-30T08:57:09Z</time>
      </trkpt>
      <trkpt lat="47.91554" lon="-3.46225">
        <ele>47.84</ele>
        <time>2018-05-30T08:57:27Z</time>
      </trkpt>
      <trkpt lat="47.91544" lon="-3.4621">
        <ele>46.38</ele>
        <time>2018-05-30T08:57:35Z</time>
      </trkpt>
      <trkpt lat="47.91537" lon="-3.46202">
        <ele>45.96</ele>
        <time>2018-05-30T08:57:39Z</time>
      </trkpt>
      <trkpt lat="47.91511" lon="-3.46164">
        <ele>44.4</ele>
        <time>2018-05-30T08:57:59Z</time>
      </trkpt>
      <trkpt lat="47.91497" lon="-3.46148">
        <ele>43.53</ele>
        <time>2018-05-30T08:58:11Z</time>
      </trkpt>
      <trkpt lat="47.91477" lon="-3.46142">
        <ele>42.83</ele>
        <time>2018-05-30T08:58:21Z</time>
      </trkpt>
      <trkpt lat="47.91453" lon="-3.46129">
        <ele>42.38</ele>
        <time>2018-05-30T08:58:36Z</time>
      </trkpt>
      <trkpt lat="47.9143" lon="-3.46126">
        <ele>42.29</ele>
        <time>2018-05-30T08:58:51Z</time>
      </trkpt>
      <trkpt lat="47.91426" lon="-3.46127">
        <ele>42.55</ele>
        <time>2018-05-30T08:58:55Z</time>
      </trkpt>
      <trkpt lat="47.9142" lon="-3.46128">
        <ele>44.21</ele>
        <time>2018-05-30T08:59:06Z</time>
      </trkpt>
      <trkpt lat="47.91418" lon="-3.46126">
        <ele>44.59</ele>
        <time>2018-05-30T08:59:13Z</time>
      </trkpt>
      <trkpt lat="47.91399" lon="-3.46124">
        <ele>45.57</ele>
        <time>2018-05-30T08:59:30Z</time>
      </trkpt>
      <trkpt lat="47.91393" lon="-3.46123">
        <ele>46.04</ele>
        <time>2018-05-30T08:59:34Z</time>
      </trkpt>
      <trkpt lat="47.91356" lon="-3.46114">
        <ele>44.83</ele>
        <time>2018-05-30T08:59:55Z</time>
      </trkpt>
      <trkpt lat="47.91329" lon="-3.46109">
        <ele>42.88</ele>
        <time>2018-05-30T09:00:15Z</time>
      </trkpt>
      <trkpt lat="47.91327" lon="-3.46109">
        <ele>42.73</ele>
        <time>2018-05-30T09:00:16Z</time>
      </trkpt>
      <trkpt lat="47.91317" lon="-3.4611">
        <ele>42.14</ele>
        <time>2018-05-30T09:00:21Z</time>
      </trkpt>
      <trkpt lat="47.9129" lon="-3.4609">
        <ele>42.61</ele>
        <time>2018-05-30T09:00:43Z</time>
      </trkpt>
      <trkpt lat="47.91268" lon="-3.46079">
        <ele>42.65</ele>
        <time>2018-05-30T09:00:58Z</time>
      </trkpt>
      <trkpt lat="47.91266" lon="-3.46077">
        <ele>42.68</ele>
        <time>2018-05-30T09:01:00Z</time>
      </trkpt>
      <trkpt lat="47.91261" lon="-3.46074">
        <ele>42.66</ele>
        <time>2018-05-30T09:01:03Z</time>
      </trkpt>
      <trkpt lat="47.91251" lon="-3.46072">
        <ele>42.42</ele>
        <time>2018-05-30T09:01:11Z</time>
      </trkpt>
      <trkpt lat="47.91237" lon="-3.46073">
        <ele>41.47</ele>
        <time>2018-05-30T09:01:23Z</time>
      </trkpt>
      <trkpt lat="47.91213" lon="-3.4607">
        <ele>39.8</ele>
        <time>2018-05-30T09:01:42Z</time>
      </trkpt>
      <trkpt lat="47.91183" lon="-3.46071">
        <ele>39.8</ele>
        <time>2018-05-30T09:02:01Z</time>
      </trkpt>
      <trkpt lat="47.91164" lon="-3.46064">
        <ele>40.43</ele>
        <time>2018-05-30T09:02:16Z</time>
      </trkpt>
      <trkpt lat="47.9113" lon="-3.4607">
        <ele>40.61</ele>
        <time>2018-05-30T09:02:39Z</time>
      </trkpt>
      <trkpt lat="47.91103" lon="-3.46069">
        <ele>41.54</ele>
        <time>2018-05-30T09:02:59Z</time>
      </trkpt>
      <trkpt lat="47.91097" lon="-3.46071">
        <ele>41.88</ele>
        <time>2018-05-30T09:03:05Z</time>
      </trkpt>
      <trkpt lat="47.91059" lon="-3.46073">
        <ele>41.53</ele>
        <time>2018-05-30T09:03:26Z</time>
      </trkpt>
      <trkpt lat="47.91037" lon="-3.46072">
        <ele>40.52</ele>
        <time>2018-05-30T09:03:43Z</time>
      </trkpt>
      <trkpt lat="47.91034" lon="-3.46072">
        <ele>40.38</ele>
        <time>2018-05-30T09:03:44Z</time>
      </trkpt>
      <trkpt lat="47.91026" lon="-3.46073">
        <ele>40</ele>
        <time>2018-05-30T09:03:48Z</time>
      </trkpt>
      <trkpt lat="47.91023" lon="-3.46072">
        <ele>39.77</ele>
        <time>2018-05-30T09:03:50Z</time>
      </trkpt>
      <trkpt lat="47.91007" lon="-3.46067">
        <ele>38.63</ele>
        <time>2018-05-30T09:04:02Z</time>
      </trkpt>
      <trkpt lat="47.9099" lon="-3.46064">
        <ele>38.11</ele>
        <time>2018-05-30T09:04:12Z</time>
      </trkpt>
      <trkpt lat="47.90964" lon="-3.46058">
        <ele>37.61</ele>
        <time>2018-05-30T09:04:33Z</time>
      </trkpt>
      <trkpt lat="47.90959" lon="-3.4606">
        <ele>37.53</ele>
        <time>2018-05-30T09:04:37Z</time>
      </trkpt>
      <trkpt lat="47.90926" lon="-3.46066">
        <ele>38.32</ele>
        <time>2018-05-30T09:04:57Z</time>
      </trkpt>
      <trkpt lat="47.90882" lon="-3.46067">
        <ele>37.72</ele>
        <time>2018-05-30T09:05:14Z</time>
      </trkpt>
      <trkpt lat="47.90873" lon="-3.46064">
        <ele>37.47</ele>
        <time>2018-05-30T09:05:18Z</time>
      </trkpt>
      <trkpt lat="47.90864" lon="-3.46061">
        <ele>37.39</ele>
        <time>2018-05-30T09:05:23Z</time>
      </trkpt>
      <trkpt lat="47.90851" lon="-3.46065">
        <ele>37.43</ele>
        <time>2018-05-30T09:05:30Z</time>
      </trkpt>
      <trkpt lat="47.90849" lon="-3.46066">
        <ele>37.5</ele>
        <time>2018-05-30T09:05:31Z</time>
      </trkpt>
      <trkpt lat="47.90847" lon="-3.46066">
        <ele>37.51</ele>
        <time>2018-05-30T09:05:32Z</time>
      </trkpt>
      <trkpt lat="47.90845" lon="-3.46068">
        <ele>37.5</ele>
        <time>2018-05-30T09:05:34Z</time>
      </trkpt>
      <trkpt lat="47.90843" lon="-3.4607">
        <ele>37.52</ele>
        <time>2018-05-30T09:05:35Z</time>
      </trkpt>
      <trkpt lat="47.90842" lon="-3.46072">
        <ele>37.53</ele>
        <time>2018-05-30T09:05:36Z</time>
      </trkpt>
      <trkpt lat="47.90839" lon="-3.46075">
        <ele>37.55</ele>
        <time>2018-05-30T09:05:37Z</time>
      </trkpt>
      <trkpt lat="47.90837" lon="-3.46077">
        <ele>37.58</ele>
        <time>2018-05-30T09:05:38Z</time>
      </trkpt>
      <trkpt lat="47.90834" lon="-3.46079">
        <ele>37.64</ele>
        <time>2018-05-30T09:05:39Z</time>
      </trkpt>
      <trkpt lat="47.9082" lon="-3.46072">
        <ele>37.73</ele>
        <time>2018-05-30T09:05:40Z</time>
      </trkpt>
      <trkpt lat="47.90814" lon="-3.46071">
        <ele>37.86</ele>
        <time>2018-05-30T09:05:41Z</time>
      </trkpt>
      <trkpt lat="47.9081" lon="-3.46073">
        <ele>38.02</ele>
        <time>2018-05-30T09:05:42Z</time>
      </trkpt>
      <trkpt lat="47.90765" lon="-3.46104">
        <ele>39.69</ele>
        <time>2018-05-30T09:05:51Z</time>
      </trkpt>
      <trkpt lat="47.90757" lon="-3.46106">
        <ele>39.87</ele>
        <time>2018-05-30T09:05:52Z</time>
      </trkpt>
      <trkpt lat="47.90749" lon="-3.46111">
        <ele>40.11</ele>
        <time>2018-05-30T09:05:53Z</time>
      </trkpt>
      <trkpt lat="47.9074" lon="-3.46123">
        <ele>40.7</ele>
        <time>2018-05-30T09:05:55Z</time>
      </trkpt>
      <trkpt lat="47.90735" lon="-3.46129">
        <ele>41.07</ele>
        <time>2018-05-30T09:05:56Z</time>
      </trkpt>
      <trkpt lat="47.90718" lon="-3.46149">
        <ele>42.54</ele>
        <time>2018-05-30T09:05:59Z</time>
      </trkpt>
      <trkpt lat="47.90713" lon="-3.46155">
        <ele>42.54</ele>
        <time>2018-05-30T09:06:00Z</time>
      </trkpt>
      <trkpt lat="47.90708" lon="-3.46161">
        <ele>43.23</ele>
        <time>2018-05-30T09:06:01Z</time>
      </trkpt>
      <trkpt lat="47.90686" lon="-3.46184">
        <ele>46.67</ele>
        <time>2018-05-30T09:06:07Z</time>
      </trkpt>
      <trkpt lat="47.9066" lon="-3.46207">
        <ele>49.97</ele>
        <time>2018-05-30T09:06:14Z</time>
      </trkpt>
      <trkpt lat="47.90631" lon="-3.46226">
        <ele>53.11</ele>
        <time>2018-05-30T09:06:23Z</time>
      </trkpt>
      <trkpt lat="47.90629" lon="-3.46229">
        <ele>53.39</ele>
        <time>2018-05-30T09:06:24Z</time>
      </trkpt>
      <trkpt lat="47.90625" lon="-3.46238">
        <ele>54.37</ele>
        <time>2018-05-30T09:06:28Z</time>
      </trkpt>
      <trkpt lat="47.90625" lon="-3.46243">
        <ele>54.92</ele>
        <time>2018-05-30T09:06:31Z</time>
      </trkpt>
      <trkpt lat="47.90627" lon="-3.46249">
        <ele>55.63</ele>
        <time>2018-05-30T09:06:35Z</time>
      </trkpt>
      <trkpt lat="47.90631" lon="-3.46251">
        <ele>56.49</ele>
        <time>2018-05-30T09:06:40Z</time>
      </trkpt>
      <trkpt lat="47.90633" lon="-3.46255">
        <ele>56.8</ele>
        <time>2018-05-30T09:06:42Z</time>
      </trkpt>
      <trkpt lat="47.90634" lon="-3.46258">
        <ele>56.95</ele>
        <time>2018-05-30T09:06:43Z</time>
      </trkpt>
      <trkpt lat="47.90634" lon="-3.46262">
        <ele>57.1</ele>
        <time>2018-05-30T09:06:44Z</time>
      </trkpt>
      <trkpt lat="47.90634" lon="-3.46266">
        <ele>57.24</ele>
        <time>2018-05-30T09:06:45Z</time>
      </trkpt>
      <trkpt lat="47.90634" lon="-3.46271">
        <ele>57.35</ele>
        <time>2018-05-30T09:06:46Z</time>
      </trkpt>
      <trkpt lat="47.90634" lon="-3.46276">
        <ele>57.43</ele>
        <time>2018-05-30T09:06:47Z</time>
      </trkpt>
      <trkpt lat="47.90635" lon="-3.46281">
        <ele>57.5</ele>
        <time>2018-05-30T09:06:48Z</time>
      </trkpt>
      <trkpt lat="47.90634" lon="-3.46331">
        <ele>57.63</ele>
        <time>2018-05-30T09:06:58Z</time>
      </trkpt>
      <trkpt lat="47.90638" lon="-3.46365">
        <ele>57.25</ele>
        <time>2018-05-30T09:07:10Z</time>
      </trkpt>
      <trkpt lat="47.90634" lon="-3.46394">
        <ele>55.46</ele>
        <time>2018-05-30T09:07:24Z</time>
      </trkpt>
      <trkpt lat="47.90634" lon="-3.46427">
        <ele>52.6</ele>
        <time>2018-05-30T09:07:38Z</time>
      </trkpt>
      <trkpt lat="47.90642" lon="-3.46447">
        <ele>51.02</ele>
        <time>2018-05-30T09:07:47Z</time>
      </trkpt>
      <trkpt lat="47.90643" lon="-3.46457">
        <ele>50.43</ele>
        <time>2018-05-30T09:07:53Z</time>
      </trkpt>
      <trkpt lat="47.90643" lon="-3.46461">
        <ele>50.33</ele>
        <time>2018-05-30T09:07:54Z</time>
      </trkpt>
      <trkpt lat="47.90643" lon="-3.46464">
        <ele>50.24</ele>
        <time>2018-05-30T09:07:55Z</time>
      </trkpt>
      <trkpt lat="47.90644" lon="-3.46472">
        <ele>49.98</ele>
        <time>2018-05-30T09:07:58Z</time>
      </trkpt>
      <trkpt lat="47.90652" lon="-3.46489">
        <ele>48.21</ele>
        <time>2018-05-30T09:08:07Z</time>
      </trkpt>
      <trkpt lat="47.90654" lon="-3.4649">
        <ele>47.93</ele>
        <time>2018-05-30T09:08:08Z</time>
      </trkpt>
      <trkpt lat="47.9066" lon="-3.46497">
        <ele>44.67</ele>
        <time>2018-05-30T09:08:18Z</time>
      </trkpt>
      <trkpt lat="47.90664" lon="-3.46502">
        <ele>41.41</ele>
        <time>2018-05-30T09:08:27Z</time>
      </trkpt>
      <trkpt lat="47.9068" lon="-3.46517">
        <ele>39.37</ele>
        <time>2018-05-30T09:08:47Z</time>
      </trkpt>
      <trkpt lat="47.90686" lon="-3.4652">
        <ele>39.4</ele>
        <time>2018-05-30T09:08:52Z</time>
      </trkpt>
      <trkpt lat="47.90689" lon="-3.46522">
        <ele>39.36</ele>
        <time>2018-05-30T09:08:53Z</time>
      </trkpt>
      <trkpt lat="47.9069" lon="-3.46522">
        <ele>39.26</ele>
        <time>2018-05-30T09:08:54Z</time>
      </trkpt>
      <trkpt lat="47.90692" lon="-3.46523">
        <ele>39.22</ele>
        <time>2018-05-30T09:08:55Z</time>
      </trkpt>
      <trkpt lat="47.90723" lon="-3.46547">
        <ele>38.74</ele>
        <time>2018-05-30T09:09:18Z</time>
      </trkpt>
      <trkpt lat="47.90733" lon="-3.46556">
        <ele>38.77</ele>
        <time>2018-05-30T09:09:26Z</time>
      </trkpt>
      <trkpt lat="47.90759" lon="-3.46574">
        <ele>38.5</ele>
        <time>2018-05-30T09:09:44Z</time>
      </trkpt>
      <trkpt lat="47.90761" lon="-3.46571">
        <ele>38.59</ele>
        <time>2018-05-30T09:09:47Z</time>
      </trkpt>
      <trkpt lat="47.90771" lon="-3.46577">
        <ele>38.66</ele>
        <time>2018-05-30T09:09:59Z</time>
      </trkpt>
      <trkpt lat="47.90786" lon="-3.46591">
        <ele>38.61</ele>
        <time>2018-05-30T09:10:13Z</time>
      </trkpt>
      <trkpt lat="47.90796" lon="-3.46612">
        <ele>38.37</ele>
        <time>2018-05-30T09:10:23Z</time>
      </trkpt>
      <trkpt lat="47.90811" lon="-3.46641">
        <ele>38.75</ele>
        <time>2018-05-30T09:10:39Z</time>
      </trkpt>
      <trkpt lat="47.90817" lon="-3.46649">
        <ele>39.6</ele>
        <time>2018-05-30T09:10:47Z</time>
      </trkpt>
      <trkpt lat="47.90823" lon="-3.46656">
        <ele>40</ele>
        <time>2018-05-30T09:10:52Z</time>
      </trkpt>
      <trkpt lat="47.90829" lon="-3.4667">
        <ele>40.65</ele>
        <time>2018-05-30T09:11:04Z</time>
      </trkpt>
      <trkpt lat="47.90842" lon="-3.46702">
        <ele>41.48</ele>
        <time>2018-05-30T09:11:20Z</time>
      </trkpt>
      <trkpt lat="47.90845" lon="-3.46708">
        <ele>41.52</ele>
        <time>2018-05-30T09:11:22Z</time>
      </trkpt>
      <trkpt lat="47.9085" lon="-3.46731">
        <ele>40.92</ele>
        <time>2018-05-30T09:11:31Z</time>
      </trkpt>
      <trkpt lat="47.9085" lon="-3.46745">
        <ele>40.27</ele>
        <time>2018-05-30T09:11:42Z</time>
      </trkpt>
      <trkpt lat="47.90849" lon="-3.46747">
        <ele>40.11</ele>
        <time>2018-05-30T09:11:52Z</time>
      </trkpt>
      <trkpt lat="47.90846" lon="-3.46749">
        <ele>40.02</ele>
        <time>2018-05-30T09:11:58Z</time>
      </trkpt>
      <trkpt lat="47.90836" lon="-3.46759">
        <ele>39.41</ele>
        <time>2018-05-30T09:12:14Z</time>
      </trkpt>
      <trkpt lat="47.90837" lon="-3.46808">
        <ele>38.79</ele>
        <time>2018-05-30T09:12:35Z</time>
      </trkpt>
      <trkpt lat="47.90836" lon="-3.46816">
        <ele>38.7</ele>
        <time>2018-05-30T09:12:38Z</time>
      </trkpt>
      <trkpt lat="47.90835" lon="-3.4686">
        <ele>38.4</ele>
        <time>2018-05-30T09:12:58Z</time>
      </trkpt>
      <trkpt lat="47.90827" lon="-3.46894">
        <ele>38.89</ele>
        <time>2018-05-30T09:13:14Z</time>
      </trkpt>
      <trkpt lat="47.90817" lon="-3.46941">
        <ele>39.87</ele>
        <time>2018-05-30T09:13:32Z</time>
      </trkpt>
      <trkpt lat="47.90812" lon="-3.46951">
        <ele>39.87</ele>
        <time>2018-05-30T09:13:35Z</time>
      </trkpt>
      <trkpt lat="47.90804" lon="-3.46973">
        <ele>39.48</ele>
        <time>2018-05-30T09:13:46Z</time>
      </trkpt>
      <trkpt lat="47.908" lon="-3.46978">
        <ele>39.82</ele>
        <time>2018-05-30T09:13:49Z</time>
      </trkpt>
      <trkpt lat="47.90791" lon="-3.46991">
        <ele>40.08</ele>
        <time>2018-05-30T09:13:59Z</time>
      </trkpt>
      <trkpt lat="47.90789" lon="-3.46994">
        <ele>39.78</ele>
        <time>2018-05-30T09:14:01Z</time>
      </trkpt>
      <trkpt lat="47.90784" lon="-3.46999">
        <ele>38.94</ele>
        <time>2018-05-30T09:14:06Z</time>
      </trkpt>
      <trkpt lat="47.90777" lon="-3.47004">
        <ele>38.18</ele>
        <time>2018-05-30T09:14:11Z</time>
      </trkpt>
      <trkpt lat="47.90771" lon="-3.47009">
        <ele>37.74</ele>
        <time>2018-05-30T09:14:15Z</time>
      </trkpt>
      <trkpt lat="47.90768" lon="-3.47013">
        <ele>37.65</ele>
        <time>2018-05-30T09:14:18Z</time>
      </trkpt>
      <trkpt lat="47.90756" lon="-3.47027">
        <ele>37.99</ele>
        <time>2018-05-30T09:14:30Z</time>
      </trkpt>
      <trkpt lat="47.90745" lon="-3.47035">
        <ele>38.38</ele>
        <time>2018-05-30T09:14:34Z</time>
      </trkpt>
      <trkpt lat="47.90733" lon="-3.47042">
        <ele>39.09</ele>
        <time>2018-05-30T09:14:39Z</time>
      </trkpt>
      <trkpt lat="47.90724" lon="-3.47045">
        <ele>39.17</ele>
        <time>2018-05-30T09:14:42Z</time>
      </trkpt>
      <trkpt lat="47.90714" lon="-3.47052">
        <ele>39.18</ele>
        <time>2018-05-30T09:14:46Z</time>
      </trkpt>
      <trkpt lat="47.90686" lon="-3.47049">
        <ele>38.57</ele>
        <time>2018-05-30T09:15:02Z</time>
      </trkpt>
      <trkpt lat="47.90681" lon="-3.47042">
        <ele>37.43</ele>
        <time>2018-05-30T09:15:09Z</time>
      </trkpt>
      <trkpt lat="47.90664" lon="-3.4702">
        <ele>36.97</ele>
        <time>2018-05-30T09:15:25Z</time>
      </trkpt>
      <trkpt lat="47.90648" lon="-3.47001">
        <ele>36.3</ele>
        <time>2018-05-30T09:15:38Z</time>
      </trkpt>
      <trkpt lat="47.90644" lon="-3.46996">
        <ele>36.06</ele>
        <time>2018-05-30T09:15:42Z</time>
      </trkpt>
      <trkpt lat="47.90628" lon="-3.46971">
        <ele>36.02</ele>
        <time>2018-05-30T09:15:59Z</time>
      </trkpt>
      <trkpt lat="47.90626" lon="-3.46967">
        <ele>35.97</ele>
        <time>2018-05-30T09:16:01Z</time>
      </trkpt>
      <trkpt lat="47.90601" lon="-3.46936">
        <ele>35.95</ele>
        <time>2018-05-30T09:16:22Z</time>
      </trkpt>
      <trkpt lat="47.90594" lon="-3.4695">
        <ele>37.48</ele>
        <time>2018-05-30T09:16:33Z</time>
      </trkpt>
      <trkpt lat="47.90585" lon="-3.46969">
        <ele>41.3</ele>
        <time>2018-05-30T09:16:43Z</time>
      </trkpt>
      <trkpt lat="47.90579" lon="-3.46982">
        <ele>44.37</ele>
        <time>2018-05-30T09:16:53Z</time>
      </trkpt>
      <trkpt lat="47.90577" lon="-3.47">
        <ele>47.48</ele>
        <time>2018-05-30T09:17:06Z</time>
      </trkpt>
      <trkpt lat="47.90577" lon="-3.47005">
        <ele>48.53</ele>
        <time>2018-05-30T09:17:09Z</time>
      </trkpt>
      <trkpt lat="47.90571" lon="-3.47048">
        <ele>50.93</ele>
        <time>2018-05-30T09:17:28Z</time>
      </trkpt>
      <trkpt lat="47.90562" lon="-3.47097">
        <ele>51.74</ele>
        <time>2018-05-30T09:17:51Z</time>
      </trkpt>
      <trkpt lat="47.90557" lon="-3.47123">
        <ele>51.72</ele>
        <time>2018-05-30T09:18:03Z</time>
      </trkpt>
      <trkpt lat="47.90545" lon="-3.47162">
        <ele>52.1</ele>
        <time>2018-05-30T09:18:21Z</time>
      </trkpt>
      <trkpt lat="47.90531" lon="-3.47202">
        <ele>52.74</ele>
        <time>2018-05-30T09:18:39Z</time>
      </trkpt>
      <trkpt lat="47.90518" lon="-3.47214">
        <ele>50.97</ele>
        <time>2018-05-30T09:18:56Z</time>
      </trkpt>
      <trkpt lat="47.90509" lon="-3.47214">
        <ele>50.1</ele>
        <time>2018-05-30T09:19:01Z</time>
      </trkpt>
      <trkpt lat="47.9049" lon="-3.47207">
        <ele>47.94</ele>
        <time>2018-05-30T09:19:13Z</time>
      </trkpt>
      <trkpt lat="47.90489" lon="-3.47207">
        <ele>47.81</ele>
        <time>2018-05-30T09:19:14Z</time>
      </trkpt>
      <trkpt lat="47.90476" lon="-3.472">
        <ele>46.97</ele>
        <time>2018-05-30T09:19:23Z</time>
      </trkpt>
      <trkpt lat="47.90459" lon="-3.4719">
        <ele>45.76</ele>
        <time>2018-05-30T09:19:34Z</time>
      </trkpt>
      <trkpt lat="47.90442" lon="-3.47183">
        <ele>44.03</ele>
        <time>2018-05-30T09:19:47Z</time>
      </trkpt>
      <trkpt lat="47.90437" lon="-3.47173">
        <ele>43.39</ele>
        <time>2018-05-30T09:20:07Z</time>
      </trkpt>
      <trkpt lat="47.90432" lon="-3.47162">
        <ele>43.02</ele>
        <time>2018-05-30T09:20:33Z</time>
      </trkpt>
      <trkpt lat="47.90432" lon="-3.47153">
        <ele>42.92</ele>
        <time>2018-05-30T09:20:52Z</time>
      </trkpt>
      <trkpt lat="47.90432" lon="-3.47149">
        <ele>42.44</ele>
        <time>2018-05-30T09:21:22Z</time>
      </trkpt>
      <trkpt lat="47.90433" lon="-3.4714">
        <ele>42.49</ele>
        <time>2018-05-30T09:21:37Z</time>
      </trkpt>
      <trkpt lat="47.90433" lon="-3.4713">
        <ele>42.36</ele>
        <time>2018-05-30T09:21:42Z</time>
      </trkpt>
      <trkpt lat="47.90432" lon="-3.47101">
        <ele>42.03</ele>
        <time>2018-05-30T09:21:57Z</time>
      </trkpt>
      <trkpt lat="47.90432" lon="-3.47091">
        <ele>41.93</ele>
        <time>2018-05-30T09:22:01Z</time>
      </trkpt>
      <trkpt lat="47.90431" lon="-3.47063">
        <ele>40.7</ele>
        <time>2018-05-30T09:22:17Z</time>
      </trkpt>
      <trkpt lat="47.90431" lon="-3.47061">
        <ele>40.59</ele>
        <time>2018-05-30T09:22:18Z</time>
      </trkpt>
      <trkpt lat="47.90431" lon="-3.47052">
        <ele>40.11</ele>
        <time>2018-05-30T09:22:24Z</time>
      </trkpt>
      <trkpt lat="47.9043" lon="-3.47025">
        <ele>39.27</ele>
        <time>2018-05-30T09:22:38Z</time>
      </trkpt>
      <trkpt lat="47.90429" lon="-3.47">
        <ele>38.44</ele>
        <time>2018-05-30T09:22:50Z</time>
      </trkpt>
      <trkpt lat="47.90429" lon="-3.46973">
        <ele>37.56</ele>
        <time>2018-05-30T09:23:04Z</time>
      </trkpt>
      <trkpt lat="47.90429" lon="-3.46971">
        <ele>37.56</ele>
        <time>2018-05-30T09:23:05Z</time>
      </trkpt>
      <trkpt lat="47.90432" lon="-3.46938">
        <ele>37.22</ele>
        <time>2018-05-30T09:23:22Z</time>
      </trkpt>
      <trkpt lat="47.90431" lon="-3.46899">
        <ele>37.32</ele>
        <time>2018-05-30T09:23:38Z</time>
      </trkpt>
      <trkpt lat="47.90432" lon="-3.46895">
        <ele>37.3</ele>
        <time>2018-05-30T09:23:40Z</time>
      </trkpt>
      <trkpt lat="47.90433" lon="-3.4689">
        <ele>37.27</ele>
        <time>2018-05-30T09:23:42Z</time>
      </trkpt>
      <trkpt lat="47.90429" lon="-3.46868">
        <ele>37.43</ele>
        <time>2018-05-30T09:23:54Z</time>
      </trkpt>
      <trkpt lat="47.90428" lon="-3.46868">
        <ele>37.43</ele>
        <time>2018-05-30T09:23:55Z</time>
      </trkpt>
      <trkpt lat="47.90416" lon="-3.46866">
        <ele>34.96</ele>
        <time>2018-05-30T09:24:14Z</time>
      </trkpt>
      <trkpt lat="47.90408" lon="-3.46864">
        <ele>35.14</ele>
        <time>2018-05-30T09:24:36Z</time>
      </trkpt>
      <trkpt lat="47.90413" lon="-3.46872">
        <ele>35.22</ele>
        <time>2018-05-30T09:25:07Z</time>
      </trkpt>
      <trkpt lat="47.90406" lon="-3.46868">
        <ele>35.08</ele>
        <time>2018-05-30T09:25:40Z</time>
      </trkpt>
      <trkpt lat="47.90407" lon="-3.4687">
        <ele>35.09</ele>
        <time>2018-05-30T09:26:06Z</time>
      </trkpt>
      <trkpt lat="47.90398" lon="-3.46872">
        <ele>35.12</ele>
        <time>2018-05-30T09:26:18Z</time>
      </trkpt>
      <trkpt lat="47.90386" lon="-3.46877">
        <ele>34.85</ele>
        <time>2018-05-30T09:26:28Z</time>
      </trkpt>
      <trkpt lat="47.90371" lon="-3.46883">
        <ele>34.89</ele>
        <time>2018-05-30T09:26:41Z</time>
      </trkpt>
      <trkpt lat="47.90367" lon="-3.46884">
        <ele>34.94</ele>
        <time>2018-05-30T09:26:43Z</time>
      </trkpt>
      <trkpt lat="47.90333" lon="-3.46895">
        <ele>35.46</ele>
        <time>2018-05-30T09:27:07Z</time>
      </trkpt>
      <trkpt lat="47.90305" lon="-3.46909">
        <ele>36.39</ele>
        <time>2018-05-30T09:27:27Z</time>
      </trkpt>
      <trkpt lat="47.90283" lon="-3.46934">
        <ele>35.59</ele>
        <time>2018-05-30T09:27:46Z</time>
      </trkpt>
      <trkpt lat="47.9027" lon="-3.46961">
        <ele>35.81</ele>
        <time>2018-05-30T09:28:05Z</time>
      </trkpt>
      <trkpt lat="47.90262" lon="-3.46973">
        <ele>36.34</ele>
        <time>2018-05-30T09:28:20Z</time>
      </trkpt>
      <trkpt lat="47.90247" lon="-3.46979">
        <ele>37.7</ele>
        <time>2018-05-30T09:28:40Z</time>
      </trkpt>
      <trkpt lat="47.90219" lon="-3.46976">
        <ele>39.44</ele>
        <time>2018-05-30T09:28:56Z</time>
      </trkpt>
      <trkpt lat="47.90208" lon="-3.46977">
        <ele>40.42</ele>
        <time>2018-05-30T09:29:01Z</time>
      </trkpt>
      <trkpt lat="47.90195" lon="-3.46975">
        <ele>41.56</ele>
        <time>2018-05-30T09:29:09Z</time>
      </trkpt>
      <trkpt lat="47.9018" lon="-3.46966">
        <ele>42.26</ele>
        <time>2018-05-30T09:29:17Z</time>
      </trkpt>
      <trkpt lat="47.90155" lon="-3.46949">
        <ele>43.48</ele>
        <time>2018-05-30T09:29:26Z</time>
      </trkpt>
      <trkpt lat="47.90122" lon="-3.46941">
        <ele>46.09</ele>
        <time>2018-05-30T09:29:34Z</time>
      </trkpt>
      <trkpt lat="47.90119" lon="-3.46939">
        <ele>46.09</ele>
        <time>2018-05-30T09:29:35Z</time>
      </trkpt>
      <trkpt lat="47.901" lon="-3.46937">
        <ele>49.14</ele>
        <time>2018-05-30T09:29:41Z</time>
      </trkpt>
      <trkpt lat="47.90079" lon="-3.46942">
        <ele>50.95</ele>
        <time>2018-05-30T09:29:46Z</time>
      </trkpt>
      <trkpt lat="47.90074" lon="-3.46943">
        <ele>51.3</ele>
        <time>2018-05-30T09:29:47Z</time>
      </trkpt>
      <trkpt lat="47.90067" lon="-3.46943">
        <ele>51.68</ele>
        <time>2018-05-30T09:29:48Z</time>
      </trkpt>
      <trkpt lat="47.9006" lon="-3.46944">
        <ele>52.03</ele>
        <time>2018-05-30T09:29:49Z</time>
      </trkpt>
      <trkpt lat="47.90054" lon="-3.46946">
        <ele>52.31</ele>
        <time>2018-05-30T09:29:50Z</time>
      </trkpt>
      <trkpt lat="47.9005" lon="-3.46945">
        <ele>52.56</ele>
        <time>2018-05-30T09:29:51Z</time>
      </trkpt>
      <trkpt lat="47.90045" lon="-3.46946">
        <ele>52.77</ele>
        <time>2018-05-30T09:29:52Z</time>
      </trkpt>
      <trkpt lat="47.9004" lon="-3.46946">
        <ele>52.96</ele>
        <time>2018-05-30T09:29:53Z</time>
      </trkpt>
      <trkpt lat="47.90035" lon="-3.46948">
        <ele>53.15</ele>
        <time>2018-05-30T09:29:54Z</time>
      </trkpt>
      <trkpt lat="47.9003" lon="-3.46951">
        <ele>53.33</ele>
        <time>2018-05-30T09:29:55Z</time>
      </trkpt>
      <trkpt lat="47.90021" lon="-3.46957">
        <ele>53.67</ele>
        <time>2018-05-30T09:29:57Z</time>
      </trkpt>
      <trkpt lat="47.90016" lon="-3.46959">
        <ele>53.82</ele>
        <time>2018-05-30T09:29:58Z</time>
      </trkpt>
      <trkpt lat="47.89996" lon="-3.46972">
        <ele>55.82</ele>
        <time>2018-05-30T09:30:04Z</time>
      </trkpt>
      <trkpt lat="47.89989" lon="-3.46987">
        <ele>57.88</ele>
        <time>2018-05-30T09:30:08Z</time>
      </trkpt>
      <trkpt lat="47.89976" lon="-3.47011">
        <ele>58.83</ele>
        <time>2018-05-30T09:30:13Z</time>
      </trkpt>
      <trkpt lat="47.89967" lon="-3.47035">
        <ele>59.42</ele>
        <time>2018-05-30T09:30:17Z</time>
      </trkpt>
      <trkpt lat="47.89959" lon="-3.47069">
        <ele>60.08</ele>
        <time>2018-05-30T09:30:21Z</time>
      </trkpt>
      <trkpt lat="47.89958" lon="-3.47078">
        <ele>60.2</ele>
        <time>2018-05-30T09:30:22Z</time>
      </trkpt>
      <trkpt lat="47.89957" lon="-3.47095">
        <ele>60.39</ele>
        <time>2018-05-30T09:30:24Z</time>
      </trkpt>
      <trkpt lat="47.89955" lon="-3.47171">
        <ele>62.6</ele>
        <time>2018-05-30T09:30:33Z</time>
      </trkpt>
      <trkpt lat="47.89955" lon="-3.47178">
        <ele>62.9</ele>
        <time>2018-05-30T09:30:34Z</time>
      </trkpt>
      <trkpt lat="47.89954" lon="-3.47183">
        <ele>63.22</ele>
        <time>2018-05-30T09:30:35Z</time>
      </trkpt>
      <trkpt lat="47.89954" lon="-3.47188">
        <ele>63.55</ele>
        <time>2018-05-30T09:30:36Z</time>
      </trkpt>
      <trkpt lat="47.89954" lon="-3.47193">
        <ele>63.92</ele>
        <time>2018-05-30T09:30:37Z</time>
      </trkpt>
      <trkpt lat="47.89958" lon="-3.47234">
        <ele>67.14</ele>
        <time>2018-05-30T09:30:48Z</time>
      </trkpt>
      <trkpt lat="47.89961" lon="-3.47264">
        <ele>68.8</ele>
        <time>2018-05-30T09:31:00Z</time>
      </trkpt>
      <trkpt lat="47.89965" lon="-3.47299">
        <ele>70.22</ele>
        <time>2018-05-30T09:31:14Z</time>
      </trkpt>
      <trkpt lat="47.89965" lon="-3.47301">
        <ele>70.26</ele>
        <time>2018-05-30T09:31:15Z</time>
      </trkpt>
      <trkpt lat="47.89966" lon="-3.47303">
        <ele>70.29</ele>
        <time>2018-05-30T09:31:16Z</time>
      </trkpt>
      <trkpt lat="47.89966" lon="-3.47305">
        <ele>70.31</ele>
        <time>2018-05-30T09:31:17Z</time>
      </trkpt>
      <trkpt lat="47.89965" lon="-3.47309">
        <ele>70.36</ele>
        <time>2018-05-30T09:31:19Z</time>
      </trkpt>
      <trkpt lat="47.89964" lon="-3.47312">
        <ele>70.54</ele>
        <time>2018-05-30T09:31:20Z</time>
      </trkpt>
      <trkpt lat="47.89965" lon="-3.47314">
        <ele>70.54</ele>
        <time>2018-05-30T09:31:21Z</time>
      </trkpt>
      <trkpt lat="47.89965" lon="-3.47316">
        <ele>70.75</ele>
        <time>2018-05-30T09:31:22Z</time>
      </trkpt>
      <trkpt lat="47.89965" lon="-3.47318">
        <ele>70.87</ele>
        <time>2018-05-30T09:31:23Z</time>
      </trkpt>
      <trkpt lat="47.89965" lon="-3.4732">
        <ele>70.96</ele>
        <time>2018-05-30T09:31:24Z</time>
      </trkpt>
      <trkpt lat="47.89964" lon="-3.47322">
        <ele>71.06</ele>
        <time>2018-05-30T09:31:25Z</time>
      </trkpt>
      <trkpt lat="47.89963" lon="-3.47325">
        <ele>71.15</ele>
        <time>2018-05-30T09:31:26Z</time>
      </trkpt>
      <trkpt lat="47.89963" lon="-3.47328">
        <ele>71.23</ele>
        <time>2018-05-30T09:31:27Z</time>
      </trkpt>
      <trkpt lat="47.89962" lon="-3.47331">
        <ele>71.29</ele>
        <time>2018-05-30T09:31:28Z</time>
      </trkpt>
      <trkpt lat="47.89961" lon="-3.47333">
        <ele>71.36</ele>
        <time>2018-05-30T09:31:29Z</time>
      </trkpt>
      <trkpt lat="47.89961" lon="-3.47336">
        <ele>71.4</ele>
        <time>2018-05-30T09:31:30Z</time>
      </trkpt>
      <trkpt lat="47.89961" lon="-3.47338">
        <ele>71.46</ele>
        <time>2018-05-30T09:31:31Z</time>
      </trkpt>
      <trkpt lat="47.89961" lon="-3.47341">
        <ele>71.51</ele>
        <time>2018-05-30T09:31:32Z</time>
      </trkpt>
      <trkpt lat="47.89952" lon="-3.47388">
        <ele>72.07</ele>
        <time>2018-05-30T09:31:45Z</time>
      </trkpt>
      <trkpt lat="47.89938" lon="-3.47449">
        <ele>72.83</ele>
        <time>2018-05-30T09:32:00Z</time>
      </trkpt>
      <trkpt lat="47.89927" lon="-3.47513">
        <ele>72.85</ele>
        <time>2018-05-30T09:32:15Z</time>
      </trkpt>
      <trkpt lat="47.89912" lon="-3.47572">
        <ele>71.82</ele>
        <time>2018-05-30T09:32:27Z</time>
      </trkpt>
      <trkpt lat="47.89901" lon="-3.47628">
        <ele>69.47</ele>
        <time>2018-05-30T09:32:42Z</time>
      </trkpt>
      <trkpt lat="47.899" lon="-3.47664">
        <ele>67.55</ele>
        <time>2018-05-30T09:32:57Z</time>
      </trkpt>
      <trkpt lat="47.89894" lon="-3.47703">
        <ele>64.95</ele>
        <time>2018-05-30T09:33:13Z</time>
      </trkpt>
      <trkpt lat="47.89893" lon="-3.47751">
        <ele>62.17</ele>
        <time>2018-05-30T09:33:33Z</time>
      </trkpt>
      <trkpt lat="47.89891" lon="-3.47794">
        <ele>60.43</ele>
        <time>2018-05-30T09:33:51Z</time>
      </trkpt>
      <trkpt lat="47.89889" lon="-3.47826">
        <ele>59.38</ele>
        <time>2018-05-30T09:34:06Z</time>
      </trkpt>
      <trkpt lat="47.8989" lon="-3.47865">
        <ele>58.21</ele>
        <time>2018-05-30T09:34:21Z</time>
      </trkpt>
      <trkpt lat="47.89892" lon="-3.4789">
        <ele>56.64</ele>
        <time>2018-05-30T09:34:35Z</time>
      </trkpt>
      <trkpt lat="47.89894" lon="-3.47915">
        <ele>55.23</ele>
        <time>2018-05-30T09:34:49Z</time>
      </trkpt>
      <trkpt lat="47.89897" lon="-3.47952">
        <ele>53.73</ele>
        <time>2018-05-30T09:35:03Z</time>
      </trkpt>
      <trkpt lat="47.89897" lon="-3.47956">
        <ele>53.5</ele>
        <time>2018-05-30T09:35:05Z</time>
      </trkpt>
      <trkpt lat="47.89896" lon="-3.47958">
        <ele>53.3</ele>
        <time>2018-05-30T09:35:06Z</time>
      </trkpt>
      <trkpt lat="47.89896" lon="-3.47961">
        <ele>52.8</ele>
        <time>2018-05-30T09:35:07Z</time>
      </trkpt>
      <trkpt lat="47.89895" lon="-3.47965">
        <ele>52.6</ele>
        <time>2018-05-30T09:35:08Z</time>
      </trkpt>
      <trkpt lat="47.89895" lon="-3.47969">
        <ele>52.44</ele>
        <time>2018-05-30T09:35:09Z</time>
      </trkpt>
      <trkpt lat="47.89894" lon="-3.47973">
        <ele>52.27</ele>
        <time>2018-05-30T09:35:10Z</time>
      </trkpt>
      <trkpt lat="47.89894" lon="-3.47976">
        <ele>52.07</ele>
        <time>2018-05-30T09:35:11Z</time>
      </trkpt>
      <trkpt lat="47.89893" lon="-3.47979">
        <ele>51.87</ele>
        <time>2018-05-30T09:35:12Z</time>
      </trkpt>
      <trkpt lat="47.89893" lon="-3.47982">
        <ele>51.71</ele>
        <time>2018-05-30T09:35:13Z</time>
      </trkpt>
      <trkpt lat="47.89893" lon="-3.47986">
        <ele>51.54</ele>
        <time>2018-05-30T09:35:14Z</time>
      </trkpt>
      <trkpt lat="47.89893" lon="-3.47989">
        <ele>51.37</ele>
        <time>2018-05-30T09:35:15Z</time>
      </trkpt>
      <trkpt lat="47.89893" lon="-3.47992">
        <ele>51.21</ele>
        <time>2018-05-30T09:35:16Z</time>
      </trkpt>
      <trkpt lat="47.89893" lon="-3.47994">
        <ele>51.04</ele>
        <time>2018-05-30T09:35:17Z</time>
      </trkpt>
      <trkpt lat="47.89894" lon="-3.47996">
        <ele>50.84</ele>
        <time>2018-05-30T09:35:18Z</time>
      </trkpt>
      <trkpt lat="47.89894" lon="-3.47998">
        <ele>50.6</ele>
        <time>2018-05-30T09:35:19Z</time>
      </trkpt>
      <trkpt lat="47.89894" lon="-3.48">
        <ele>50.37</ele>
        <time>2018-05-30T09:35:20Z</time>
      </trkpt>
      <trkpt lat="47.89894" lon="-3.48002">
        <ele>50.15</ele>
        <time>2018-05-30T09:35:21Z</time>
      </trkpt>
      <trkpt lat="47.89895" lon="-3.48007">
        <ele>49.36</ele>
        <time>2018-05-30T09:35:24Z</time>
      </trkpt>
      <trkpt lat="47.89896" lon="-3.48012">
        <ele>48.93</ele>
        <time>2018-05-30T09:35:26Z</time>
      </trkpt>
      <trkpt lat="47.89905" lon="-3.48023">
        <ele>46.91</ele>
        <time>2018-05-30T09:35:39Z</time>
      </trkpt>
      <trkpt lat="47.89907" lon="-3.48025">
        <ele>46.26</ele>
        <time>2018-05-30T09:35:59Z</time>
      </trkpt>
      <trkpt lat="47.89908" lon="-3.48027">
        <ele>46</ele>
        <time>2018-05-30T09:36:19Z</time>
      </trkpt>
      <trkpt lat="47.89901" lon="-3.48028">
        <ele>46.77</ele>
        <time>2018-05-30T09:36:43Z</time>
      </trkpt>
      <trkpt lat="47.89901" lon="-3.48034">
        <ele>46.94</ele>
        <time>2018-05-30T09:37:03Z</time>
      </trkpt>
      <trkpt lat="47.89899" lon="-3.48043">
        <ele>46.91</ele>
        <time>2018-05-30T09:37:14Z</time>
      </trkpt>
      <trkpt lat="47.89898" lon="-3.48043">
        <ele>46.78</ele>
        <time>2018-05-30T09:37:20Z</time>
      </trkpt>
      <trkpt lat="47.89898" lon="-3.48041">
        <ele>46.74</ele>
        <time>2018-05-30T09:37:24Z</time>
      </trkpt>
      <trkpt lat="47.89899" lon="-3.48037">
        <ele>46.7</ele>
        <time>2018-05-30T09:37:50Z</time>
      </trkpt>
      <trkpt lat="47.89905" lon="-3.4803">
        <ele>46.73</ele>
        <time>2018-05-30T09:38:16Z</time>
      </trkpt>
      <trkpt lat="47.899" lon="-3.48038">
        <ele>46.63</ele>
        <time>2018-05-30T09:38:39Z</time>
      </trkpt>
      <trkpt lat="47.89897" lon="-3.48035">
        <ele>46.66</ele>
        <time>2018-05-30T09:39:07Z</time>
      </trkpt>
      <trkpt lat="47.89893" lon="-3.48037">
        <ele>47.12</ele>
        <time>2018-05-30T09:39:31Z</time>
      </trkpt>
      <trkpt lat="47.89878" lon="-3.48041">
        <ele>48.82</ele>
        <time>2018-05-30T09:39:52Z</time>
      </trkpt>
      <trkpt lat="47.89862" lon="-3.48052">
        <ele>51.85</ele>
        <time>2018-05-30T09:40:08Z</time>
      </trkpt>
      <trkpt lat="47.89852" lon="-3.48065">
        <ele>54.9</ele>
        <time>2018-05-30T09:40:25Z</time>
      </trkpt>
      <trkpt lat="47.8985" lon="-3.48069">
        <ele>55.39</ele>
        <time>2018-05-30T09:40:30Z</time>
      </trkpt>
      <trkpt lat="47.89859" lon="-3.48081">
        <ele>55.82</ele>
        <time>2018-05-30T09:40:56Z</time>
      </trkpt>
      <trkpt lat="47.89872" lon="-3.48085">
        <ele>57.26</ele>
        <time>2018-05-30T09:41:13Z</time>
      </trkpt>
      <trkpt lat="47.89884" lon="-3.48087">
        <ele>57.75</ele>
        <time>2018-05-30T09:41:23Z</time>
      </trkpt>
      <trkpt lat="47.899" lon="-3.4809">
        <ele>57.95</ele>
        <time>2018-05-30T09:41:33Z</time>
      </trkpt>
      <trkpt lat="47.89909" lon="-3.48092">
        <ele>58.26</ele>
        <time>2018-05-30T09:41:37Z</time>
      </trkpt>
      <trkpt lat="47.89911" lon="-3.48094">
        <ele>58.38</ele>
        <time>2018-05-30T09:41:38Z</time>
      </trkpt>
      <trkpt lat="47.89913" lon="-3.48098">
        <ele>58.52</ele>
        <time>2018-05-30T09:41:39Z</time>
      </trkpt>
      <trkpt lat="47.89918" lon="-3.48127">
        <ele>59.78</ele>
        <time>2018-05-30T09:41:44Z</time>
      </trkpt>
      <trkpt lat="47.89915" lon="-3.48139">
        <ele>60.74</ele>
        <time>2018-05-30T09:41:47Z</time>
      </trkpt>
      <trkpt lat="47.89914" lon="-3.48141">
        <ele>61.08</ele>
        <time>2018-05-30T09:41:48Z</time>
      </trkpt>
      <trkpt lat="47.89913" lon="-3.48143">
        <ele>61.48</ele>
        <time>2018-05-30T09:41:49Z</time>
      </trkpt>
      <trkpt lat="47.89911" lon="-3.48145">
        <ele>61.98</ele>
        <time>2018-05-30T09:41:50Z</time>
      </trkpt>
      <trkpt lat="47.8991" lon="-3.48147">
        <ele>62.52</ele>
        <time>2018-05-30T09:41:51Z</time>
      </trkpt>
      <trkpt lat="47.8991" lon="-3.4815">
        <ele>63.05</ele>
        <time>2018-05-30T09:41:52Z</time>
      </trkpt>
      <trkpt lat="47.89918" lon="-3.48174">
        <ele>66.6</ele>
        <time>2018-05-30T09:42:01Z</time>
      </trkpt>
      <trkpt lat="47.89922" lon="-3.48181">
        <ele>66.75</ele>
        <time>2018-05-30T09:42:03Z</time>
      </trkpt>
      <trkpt lat="47.89937" lon="-3.48234">
        <ele>67.47</ele>
        <time>2018-05-30T09:42:13Z</time>
      </trkpt>
      <trkpt lat="47.89938" lon="-3.48244">
        <ele>68.03</ele>
        <time>2018-05-30T09:42:15Z</time>
      </trkpt>
      <trkpt lat="47.89951" lon="-3.48284">
        <ele>69.84</ele>
        <time>2018-05-30T09:42:25Z</time>
      </trkpt>
      <trkpt lat="47.8995" lon="-3.48338">
        <ele>69.2</ele>
        <time>2018-05-30T09:42:36Z</time>
      </trkpt>
      <trkpt lat="47.89944" lon="-3.48357">
        <ele>68.27</ele>
        <time>2018-05-30T09:42:40Z</time>
      </trkpt>
      <trkpt lat="47.89931" lon="-3.48421">
        <ele>66.63</ele>
        <time>2018-05-30T09:42:48Z</time>
      </trkpt>
      <trkpt lat="47.89921" lon="-3.48461">
        <ele>68.06</ele>
        <time>2018-05-30T09:42:53Z</time>
      </trkpt>
      <trkpt lat="47.89913" lon="-3.485">
        <ele>72.11</ele>
        <time>2018-05-30T09:42:59Z</time>
      </trkpt>
      <trkpt lat="47.89912" lon="-3.48533">
        <ele>74.37</ele>
        <time>2018-05-30T09:43:06Z</time>
      </trkpt>
      <trkpt lat="47.89906" lon="-3.48542">
        <ele>74.9</ele>
        <time>2018-05-30T09:43:09Z</time>
      </trkpt>
      <trkpt lat="47.89905" lon="-3.48583">
        <ele>75.79</ele>
        <time>2018-05-30T09:43:20Z</time>
      </trkpt>
      <trkpt lat="47.89905" lon="-3.48586">
        <ele>75.89</ele>
        <time>2018-05-30T09:43:21Z</time>
      </trkpt>
      <trkpt lat="47.89902" lon="-3.48605">
        <ele>76.44</ele>
        <time>2018-05-30T09:43:27Z</time>
      </trkpt>
      <trkpt lat="47.89897" lon="-3.48609">
        <ele>76.98</ele>
        <time>2018-05-30T09:43:30Z</time>
      </trkpt>
      <trkpt lat="47.89891" lon="-3.48618">
        <ele>78.37</ele>
        <time>2018-05-30T09:43:35Z</time>
      </trkpt>
      <trkpt lat="47.89886" lon="-3.48632">
        <ele>80.01</ele>
        <time>2018-05-30T09:43:40Z</time>
      </trkpt>
      <trkpt lat="47.89875" lon="-3.48639">
        <ele>81.23</ele>
        <time>2018-05-30T09:43:48Z</time>
      </trkpt>
      <trkpt lat="47.8987" lon="-3.4865">
        <ele>81.43</ele>
        <time>2018-05-30T09:43:53Z</time>
      </trkpt>
      <trkpt lat="47.89863" lon="-3.4866">
        <ele>81.2</ele>
        <time>2018-05-30T09:43:58Z</time>
      </trkpt>
      <trkpt lat="47.89841" lon="-3.48694">
        <ele>80.02</ele>
        <time>2018-05-30T09:44:11Z</time>
      </trkpt>
      <trkpt lat="47.89838" lon="-3.48698">
        <ele>79.2</ele>
        <time>2018-05-30T09:44:15Z</time>
      </trkpt>
      <trkpt lat="47.89835" lon="-3.48703">
        <ele>78.68</ele>
        <time>2018-05-30T09:44:22Z</time>
      </trkpt>
      <trkpt lat="47.89824" lon="-3.48718">
        <ele>77.02</ele>
        <time>2018-05-30T09:44:39Z</time>
      </trkpt>
      <trkpt lat="47.89814" lon="-3.48727">
        <ele>77.04</ele>
        <time>2018-05-30T09:44:57Z</time>
      </trkpt>
      <trkpt lat="47.8981" lon="-3.48725">
        <ele>76.92</ele>
        <time>2018-05-30T09:45:06Z</time>
      </trkpt>
      <trkpt lat="47.89804" lon="-3.48721">
        <ele>77.15</ele>
        <time>2018-05-30T09:45:10Z</time>
      </trkpt>
      <trkpt lat="47.89784" lon="-3.48704">
        <ele>77.88</ele>
        <time>2018-05-30T09:45:24Z</time>
      </trkpt>
      <trkpt lat="47.89758" lon="-3.48683">
        <ele>77.48</ele>
        <time>2018-05-30T09:45:39Z</time>
      </trkpt>
      <trkpt lat="47.89729" lon="-3.48653">
        <ele>78.14</ele>
        <time>2018-05-30T09:45:56Z</time>
      </trkpt>
      <trkpt lat="47.89702" lon="-3.48623">
        <ele>78.97</ele>
        <time>2018-05-30T09:46:14Z</time>
      </trkpt>
      <trkpt lat="47.897" lon="-3.48585">
        <ele>79.76</ele>
        <time>2018-05-30T09:46:31Z</time>
      </trkpt>
      <trkpt lat="47.89694" lon="-3.48541">
        <ele>79.66</ele>
        <time>2018-05-30T09:46:47Z</time>
      </trkpt>
      <trkpt lat="47.89673" lon="-3.48526">
        <ele>79.44</ele>
        <time>2018-05-30T09:46:53Z</time>
      </trkpt>
      <trkpt lat="47.8961" lon="-3.48486">
        <ele>80.71</ele>
        <time>2018-05-30T09:47:06Z</time>
      </trkpt>
      <trkpt lat="47.89564" lon="-3.48458">
        <ele>82.28</ele>
        <time>2018-05-30T09:47:14Z</time>
      </trkpt>
      <trkpt lat="47.89559" lon="-3.48455">
        <ele>82.39</ele>
        <time>2018-05-30T09:47:15Z</time>
      </trkpt>
      <trkpt lat="47.89523" lon="-3.48434">
        <ele>83.33</ele>
        <time>2018-05-30T09:47:22Z</time>
      </trkpt>
      <trkpt lat="47.89518" lon="-3.4843">
        <ele>83.37</ele>
        <time>2018-05-30T09:47:23Z</time>
      </trkpt>
      <trkpt lat="47.89499" lon="-3.48395">
        <ele>86.01</ele>
        <time>2018-05-30T09:47:32Z</time>
      </trkpt>
      <trkpt lat="47.89505" lon="-3.48364">
        <ele>89.04</ele>
        <time>2018-05-30T09:47:43Z</time>
      </trkpt>
      <trkpt lat="47.89514" lon="-3.4834">
        <ele>89.55</ele>
        <time>2018-05-30T09:47:57Z</time>
      </trkpt>
      <trkpt lat="47.89515" lon="-3.48338">
        <ele>89.83</ele>
        <time>2018-05-30T09:48:20Z</time>
      </trkpt>
      <trkpt lat="47.89513" lon="-3.48339">
        <ele>89.41</ele>
        <time>2018-05-30T09:48:48Z</time>
      </trkpt>
      <trkpt lat="47.89516" lon="-3.4834">
        <ele>88.83</ele>
        <time>2018-05-30T09:49:15Z</time>
      </trkpt>
      <trkpt lat="47.89517" lon="-3.4834">
        <ele>88.84</ele>
        <time>2018-05-30T09:49:40Z</time>
      </trkpt>
      <trkpt lat="47.89518" lon="-3.4834">
        <ele>88.81</ele>
        <time>2018-05-30T09:50:05Z</time>
      </trkpt>
      <trkpt lat="47.89518" lon="-3.4834">
        <ele>89.08</ele>
        <time>2018-05-30T09:50:32Z</time>
      </trkpt>
      <trkpt lat="47.89518" lon="-3.48338">
        <ele>89.02</ele>
        <time>2018-05-30T09:51:01Z</time>
      </trkpt>
      <trkpt lat="47.89516" lon="-3.48339">
        <ele>89.12</ele>
        <time>2018-05-30T09:51:26Z</time>
      </trkpt>
      <trkpt lat="47.89517" lon="-3.48333">
        <ele>89.06</ele>
        <time>2018-05-30T09:51:44Z</time>
      </trkpt>
      <trkpt lat="47.89517" lon="-3.48331">
        <ele>89.06</ele>
        <time>2018-05-30T09:51:45Z</time>
      </trkpt>
      <trkpt lat="47.89517" lon="-3.48329">
        <ele>89.06</ele>
        <time>2018-05-30T09:51:46Z</time>
      </trkpt>
      <trkpt lat="47.89522" lon="-3.48318">
        <ele>88.99</ele>
        <time>2018-05-30T09:52:02Z</time>
      </trkpt>
      <trkpt lat="47.89519" lon="-3.48315">
        <ele>89.36</ele>
        <time>2018-05-30T09:52:23Z</time>
      </trkpt>
      <trkpt lat="47.89519" lon="-3.48316">
        <ele>89.3</ele>
        <time>2018-05-30T09:52:45Z</time>
      </trkpt>
      <trkpt lat="47.89518" lon="-3.4831">
        <ele>89.39</ele>
        <time>2018-05-30T09:52:49Z</time>
      </trkpt>
      <trkpt lat="47.89517" lon="-3.48308">
        <ele>89.41</ele>
        <time>2018-05-30T09:52:50Z</time>
      </trkpt>
      <trkpt lat="47.89516" lon="-3.48306">
        <ele>89.43</ele>
        <time>2018-05-30T09:52:51Z</time>
      </trkpt>
      <trkpt lat="47.89515" lon="-3.48304">
        <ele>89.44</ele>
        <time>2018-05-30T09:52:52Z</time>
      </trkpt>
      <trkpt lat="47.89514" lon="-3.48303">
        <ele>89.45</ele>
        <time>2018-05-30T09:52:53Z</time>
      </trkpt>
      <trkpt lat="47.89513" lon="-3.48302">
        <ele>89.46</ele>
        <time>2018-05-30T09:52:54Z</time>
      </trkpt>
      <trkpt lat="47.89494" lon="-3.48292">
        <ele>89.57</ele>
        <time>2018-05-30T09:53:07Z</time>
      </trkpt>
      <trkpt lat="47.8947" lon="-3.48287">
        <ele>90.32</ele>
        <time>2018-05-30T09:53:21Z</time>
      </trkpt>
      <trkpt lat="47.89445" lon="-3.48282">
        <ele>91.27</ele>
        <time>2018-05-30T09:53:36Z</time>
      </trkpt>
      <trkpt lat="47.89418" lon="-3.48272">
        <ele>91.57</ele>
        <time>2018-05-30T09:53:52Z</time>
      </trkpt>
      <trkpt lat="47.89398" lon="-3.48263">
        <ele>92.11</ele>
        <time>2018-05-30T09:54:05Z</time>
      </trkpt>
      <trkpt lat="47.89366" lon="-3.48239">
        <ele>92.28</ele>
        <time>2018-05-30T09:54:25Z</time>
      </trkpt>
      <trkpt lat="47.89328" lon="-3.48209">
        <ele>92.95</ele>
        <time>2018-05-30T09:54:50Z</time>
      </trkpt>
      <trkpt lat="47.89293" lon="-3.48183">
        <ele>92.98</ele>
        <time>2018-05-30T09:55:15Z</time>
      </trkpt>
      <trkpt lat="47.89264" lon="-3.4816">
        <ele>93.38</ele>
        <time>2018-05-30T09:55:34Z</time>
      </trkpt>
      <trkpt lat="47.89235" lon="-3.48133">
        <ele>93.68</ele>
        <time>2018-05-30T09:55:56Z</time>
      </trkpt>
      <trkpt lat="47.89202" lon="-3.48108">
        <ele>93.68</ele>
        <time>2018-05-30T09:56:18Z</time>
      </trkpt>
      <trkpt lat="47.89178" lon="-3.48091">
        <ele>94.1</ele>
        <time>2018-05-30T09:56:36Z</time>
      </trkpt>
      <trkpt lat="47.89149" lon="-3.48078">
        <ele>94.87</ele>
        <time>2018-05-30T09:56:54Z</time>
      </trkpt>
      <trkpt lat="47.89131" lon="-3.48068">
        <ele>94.64</ele>
        <time>2018-05-30T09:57:05Z</time>
      </trkpt>
      <trkpt lat="47.89129" lon="-3.48068">
        <ele>94.64</ele>
        <time>2018-05-30T09:57:07Z</time>
      </trkpt>
      <trkpt lat="47.89127" lon="-3.48067">
        <ele>94.64</ele>
        <time>2018-05-30T09:57:08Z</time>
      </trkpt>
      <trkpt lat="47.89126" lon="-3.48067">
        <ele>94.65</ele>
        <time>2018-05-30T09:57:09Z</time>
      </trkpt>
      <trkpt lat="47.89125" lon="-3.48067">
        <ele>94.66</ele>
        <time>2018-05-30T09:57:10Z</time>
      </trkpt>
      <trkpt lat="47.89124" lon="-3.48067">
        <ele>94.67</ele>
        <time>2018-05-30T09:57:11Z</time>
      </trkpt>
      <trkpt lat="47.89123" lon="-3.48068">
        <ele>94.71</ele>
        <time>2018-05-30T09:57:12Z</time>
      </trkpt>
      <trkpt lat="47.89106" lon="-3.48087">
        <ele>95.63</ele>
        <time>2018-05-30T09:57:26Z</time>
      </trkpt>
      <trkpt lat="47.89092" lon="-3.4812">
        <ele>97.06</ele>
        <time>2018-05-30T09:57:39Z</time>
      </trkpt>
      <trkpt lat="47.89082" lon="-3.48144">
        <ele>97.68</ele>
        <time>2018-05-30T09:57:51Z</time>
      </trkpt>
      <trkpt lat="47.89063" lon="-3.48174">
        <ele>98.39</ele>
        <time>2018-05-30T09:58:07Z</time>
      </trkpt>
      <trkpt lat="47.89045" lon="-3.48211">
        <ele>98.09</ele>
        <time>2018-05-30T09:58:24Z</time>
      </trkpt>
      <trkpt lat="47.89033" lon="-3.48244">
        <ele>97.83</ele>
        <time>2018-05-30T09:58:39Z</time>
      </trkpt>
      <trkpt lat="47.89021" lon="-3.48275">
        <ele>97.3</ele>
        <time>2018-05-30T09:58:53Z</time>
      </trkpt>
      <trkpt lat="47.89021" lon="-3.48277">
        <ele>97.29</ele>
        <time>2018-05-30T09:58:54Z</time>
      </trkpt>
      <trkpt lat="47.89019" lon="-3.48281">
        <ele>97.27</ele>
        <time>2018-05-30T09:58:57Z</time>
      </trkpt>
      <trkpt lat="47.89018" lon="-3.48283">
        <ele>97.28</ele>
        <time>2018-05-30T09:58:58Z</time>
      </trkpt>
      <trkpt lat="47.89017" lon="-3.48285">
        <ele>97.27</ele>
        <time>2018-05-30T09:58:59Z</time>
      </trkpt>
      <trkpt lat="47.89016" lon="-3.48287">
        <ele>97.27</ele>
        <time>2018-05-30T09:59:00Z</time>
      </trkpt>
      <trkpt lat="47.89015" lon="-3.48288">
        <ele>97.27</ele>
        <time>2018-05-30T09:59:01Z</time>
      </trkpt>
      <trkpt lat="47.89014" lon="-3.4829">
        <ele>97.28</ele>
        <time>2018-05-30T09:59:02Z</time>
      </trkpt>
      <trkpt lat="47.89006" lon="-3.48305">
        <ele>97.19</ele>
        <time>2018-05-30T09:59:10Z</time>
      </trkpt>
      <trkpt lat="47.89005" lon="-3.48307">
        <ele>97.18</ele>
        <time>2018-05-30T09:59:11Z</time>
      </trkpt>
      <trkpt lat="47.89004" lon="-3.48309">
        <ele>97.19</ele>
        <time>2018-05-30T09:59:12Z</time>
      </trkpt>
      <trkpt lat="47.88995" lon="-3.48338">
        <ele>97.36</ele>
        <time>2018-05-30T09:59:25Z</time>
      </trkpt>
      <trkpt lat="47.8899" lon="-3.48358">
        <ele>97.76</ele>
        <time>2018-05-30T09:59:35Z</time>
      </trkpt>
      <trkpt lat="47.8899" lon="-3.4836">
        <ele>97.82</ele>
        <time>2018-05-30T09:59:36Z</time>
      </trkpt>
      <trkpt lat="47.88989" lon="-3.48362">
        <ele>97.87</ele>
        <time>2018-05-30T09:59:37Z</time>
      </trkpt>
      <trkpt lat="47.88989" lon="-3.48364">
        <ele>97.91</ele>
        <time>2018-05-30T09:59:38Z</time>
      </trkpt>
      <trkpt lat="47.88989" lon="-3.48366">
        <ele>97.93</ele>
        <time>2018-05-30T09:59:39Z</time>
      </trkpt>
      <trkpt lat="47.88988" lon="-3.48368">
        <ele>97.94</ele>
        <time>2018-05-30T09:59:40Z</time>
      </trkpt>
      <trkpt lat="47.88986" lon="-3.48378">
        <ele>97.94</ele>
        <time>2018-05-30T09:59:45Z</time>
      </trkpt>
      <trkpt lat="47.88986" lon="-3.48381">
        <ele>97.93</ele>
        <time>2018-05-30T09:59:46Z</time>
      </trkpt>
      <trkpt lat="47.88978" lon="-3.48427">
        <ele>98.06</ele>
        <time>2018-05-30T10:00:03Z</time>
      </trkpt>
      <trkpt lat="47.88971" lon="-3.48475">
        <ele>98.18</ele>
        <time>2018-05-30T10:00:21Z</time>
      </trkpt>
      <trkpt lat="47.88964" lon="-3.48522">
        <ele>98</ele>
        <time>2018-05-30T10:00:41Z</time>
      </trkpt>
      <trkpt lat="47.88958" lon="-3.48578">
        <ele>97.18</ele>
        <time>2018-05-30T10:01:02Z</time>
      </trkpt>
      <trkpt lat="47.88957" lon="-3.48625">
        <ele>96.94</ele>
        <time>2018-05-30T10:01:20Z</time>
      </trkpt>
      <trkpt lat="47.88957" lon="-3.48653">
        <ele>96.63</ele>
        <time>2018-05-30T10:01:32Z</time>
      </trkpt>
      <trkpt lat="47.88957" lon="-3.48656">
        <ele>96.66</ele>
        <time>2018-05-30T10:01:33Z</time>
      </trkpt>
      <trkpt lat="47.88956" lon="-3.48682">
        <ele>96.42</ele>
        <time>2018-05-30T10:01:43Z</time>
      </trkpt>
      <trkpt lat="47.88956" lon="-3.48685">
        <ele>96.37</ele>
        <time>2018-05-30T10:01:44Z</time>
      </trkpt>
      <trkpt lat="47.88955" lon="-3.48742">
        <ele>95.71</ele>
        <time>2018-05-30T10:02:06Z</time>
      </trkpt>
      <trkpt lat="47.88954" lon="-3.48777">
        <ele>95.01</ele>
        <time>2018-05-30T10:02:20Z</time>
      </trkpt>
      <trkpt lat="47.88955" lon="-3.48813">
        <ele>94.31</ele>
        <time>2018-05-30T10:02:35Z</time>
      </trkpt>
      <trkpt lat="47.88958" lon="-3.48853">
        <ele>93.01</ele>
        <time>2018-05-30T10:02:51Z</time>
      </trkpt>
      <trkpt lat="47.88966" lon="-3.48904">
        <ele>91.53</ele>
        <time>2018-05-30T10:03:11Z</time>
      </trkpt>
      <trkpt lat="47.88969" lon="-3.48946">
        <ele>89.62</ele>
        <time>2018-05-30T10:03:30Z</time>
      </trkpt>
      <trkpt lat="47.8897" lon="-3.48955">
        <ele>89.09</ele>
        <time>2018-05-30T10:03:35Z</time>
      </trkpt>
      <trkpt lat="47.8897" lon="-3.48957">
        <ele>88.94</ele>
        <time>2018-05-30T10:03:36Z</time>
      </trkpt>
      <trkpt lat="47.88974" lon="-3.48974">
        <ele>87.97</ele>
        <time>2018-05-30T10:03:46Z</time>
      </trkpt>
      <trkpt lat="47.88974" lon="-3.48977">
        <ele>87.79</ele>
        <time>2018-05-30T10:03:48Z</time>
      </trkpt>
      <trkpt lat="47.88973" lon="-3.48992">
        <ele>86.93</ele>
        <time>2018-05-30T10:04:01Z</time>
      </trkpt>
      <trkpt lat="47.88973" lon="-3.48995">
        <ele>86.88</ele>
        <time>2018-05-30T10:04:02Z</time>
      </trkpt>
      <trkpt lat="47.88973" lon="-3.48997">
        <ele>86.82</ele>
        <time>2018-05-30T10:04:03Z</time>
      </trkpt>
      <trkpt lat="47.88974" lon="-3.49">
        <ele>86.73</ele>
        <time>2018-05-30T10:04:04Z</time>
      </trkpt>
      <trkpt lat="47.88973" lon="-3.49003">
        <ele>86.67</ele>
        <time>2018-05-30T10:04:05Z</time>
      </trkpt>
      <trkpt lat="47.88974" lon="-3.4903">
        <ele>85.23</ele>
        <time>2018-05-30T10:04:16Z</time>
      </trkpt>
      <trkpt lat="47.88974" lon="-3.49032">
        <ele>85.09</ele>
        <time>2018-05-30T10:04:17Z</time>
      </trkpt>
      <trkpt lat="47.88976" lon="-3.49063">
        <ele>84.23</ele>
        <time>2018-05-30T10:04:30Z</time>
      </trkpt>
      <trkpt lat="47.88977" lon="-3.49093">
        <ele>83.52</ele>
        <time>2018-05-30T10:04:42Z</time>
      </trkpt>
      <trkpt lat="47.88977" lon="-3.49095">
        <ele>83.47</ele>
        <time>2018-05-30T10:04:43Z</time>
      </trkpt>
      <trkpt lat="47.88977" lon="-3.49098">
        <ele>83.41</ele>
        <time>2018-05-30T10:04:44Z</time>
      </trkpt>
      <trkpt lat="47.88977" lon="-3.491">
        <ele>83.37</ele>
        <time>2018-05-30T10:04:45Z</time>
      </trkpt>
      <trkpt lat="47.88977" lon="-3.49103">
        <ele>83.35</ele>
        <time>2018-05-30T10:04:46Z</time>
      </trkpt>
      <trkpt lat="47.88977" lon="-3.49105">
        <ele>83.31</ele>
        <time>2018-05-30T10:04:47Z</time>
      </trkpt>
      <trkpt lat="47.88977" lon="-3.49107">
        <ele>83.3</ele>
        <time>2018-05-30T10:04:48Z</time>
      </trkpt>
      <trkpt lat="47.88973" lon="-3.4914">
        <ele>82.88</ele>
        <time>2018-05-30T10:05:01Z</time>
      </trkpt>
      <trkpt lat="47.88972" lon="-3.49141">
        <ele>82.87</ele>
        <time>2018-05-30T10:05:02Z</time>
      </trkpt>
      <trkpt lat="47.88964" lon="-3.4914">
        <ele>82.7</ele>
        <time>2018-05-30T10:05:10Z</time>
      </trkpt>
      <trkpt lat="47.88961" lon="-3.4914">
        <ele>82.52</ele>
        <time>2018-05-30T10:05:14Z</time>
      </trkpt>
      <trkpt lat="47.88959" lon="-3.49141">
        <ele>82.47</ele>
        <time>2018-05-30T10:05:15Z</time>
      </trkpt>
      <trkpt lat="47.88958" lon="-3.49141">
        <ele>82.41</ele>
        <time>2018-05-30T10:05:16Z</time>
      </trkpt>
      <trkpt lat="47.88957" lon="-3.49141">
        <ele>82.35</ele>
        <time>2018-05-30T10:05:17Z</time>
      </trkpt>
      <trkpt lat="47.88942" lon="-3.4914">
        <ele>81.12</ele>
        <time>2018-05-30T10:05:30Z</time>
      </trkpt>
      <trkpt lat="47.88939" lon="-3.4914">
        <ele>80.76</ele>
        <time>2018-05-30T10:05:32Z</time>
      </trkpt>
      <trkpt lat="47.88922" lon="-3.49135">
        <ele>77.33</ele>
        <time>2018-05-30T10:05:45Z</time>
      </trkpt>
      <trkpt lat="47.88909" lon="-3.49127">
        <ele>75.02</ele>
        <time>2018-05-30T10:05:54Z</time>
      </trkpt>
      <trkpt lat="47.88892" lon="-3.49116">
        <ele>71.67</ele>
        <time>2018-05-30T10:06:06Z</time>
      </trkpt>
      <trkpt lat="47.88885" lon="-3.4912">
        <ele>68.47</ele>
        <time>2018-05-30T10:06:15Z</time>
      </trkpt>
      <trkpt lat="47.88877" lon="-3.49131">
        <ele>65.52</ele>
        <time>2018-05-30T10:06:30Z</time>
      </trkpt>
      <trkpt lat="47.8887" lon="-3.49141">
        <ele>64.37</ele>
        <time>2018-05-30T10:06:40Z</time>
      </trkpt>
      <trkpt lat="47.88863" lon="-3.49162">
        <ele>61.26</ele>
        <time>2018-05-30T10:06:55Z</time>
      </trkpt>
      <trkpt lat="47.88858" lon="-3.49193">
        <ele>58.52</ele>
        <time>2018-05-30T10:07:16Z</time>
      </trkpt>
      <trkpt lat="47.88852" lon="-3.49198">
        <ele>57.74</ele>
        <time>2018-05-30T10:07:21Z</time>
      </trkpt>
      <trkpt lat="47.88849" lon="-3.49204">
        <ele>57.56</ele>
        <time>2018-05-30T10:07:24Z</time>
      </trkpt>
      <trkpt lat="47.8883" lon="-3.49224">
        <ele>57.11</ele>
        <time>2018-05-30T10:07:46Z</time>
      </trkpt>
      <trkpt lat="47.88816" lon="-3.4925">
        <ele>58.35</ele>
        <time>2018-05-30T10:08:06Z</time>
      </trkpt>
      <trkpt lat="47.88812" lon="-3.49254">
        <ele>58.57</ele>
        <time>2018-05-30T10:08:09Z</time>
      </trkpt>
      <trkpt lat="47.88806" lon="-3.49264">
        <ele>59.31</ele>
        <time>2018-05-30T10:08:13Z</time>
      </trkpt>
      <trkpt lat="47.88772" lon="-3.49295">
        <ele>62.34</ele>
        <time>2018-05-30T10:08:28Z</time>
      </trkpt>
      <trkpt lat="47.88758" lon="-3.49308">
        <ele>64.55</ele>
        <time>2018-05-30T10:08:35Z</time>
      </trkpt>
      <trkpt lat="47.88742" lon="-3.49315">
        <ele>67.28</ele>
        <time>2018-05-30T10:08:42Z</time>
      </trkpt>
      <trkpt lat="47.88732" lon="-3.49317">
        <ele>68.85</ele>
        <time>2018-05-30T10:08:47Z</time>
      </trkpt>
      <trkpt lat="47.88723" lon="-3.49316">
        <ele>70.26</ele>
        <time>2018-05-30T10:08:52Z</time>
      </trkpt>
      <trkpt lat="47.88703" lon="-3.49321">
        <ele>71.65</ele>
        <time>2018-05-30T10:08:59Z</time>
      </trkpt>
      <trkpt lat="47.88686" lon="-3.49324">
        <ele>71.41</ele>
        <time>2018-05-30T10:09:06Z</time>
      </trkpt>
      <trkpt lat="47.88658" lon="-3.49329">
        <ele>70.2</ele>
        <time>2018-05-30T10:09:16Z</time>
      </trkpt>
      <trkpt lat="47.88648" lon="-3.49335">
        <ele>69.13</ele>
        <time>2018-05-30T10:09:20Z</time>
      </trkpt>
      <trkpt lat="47.88627" lon="-3.49345">
        <ele>66.45</ele>
        <time>2018-05-30T10:09:32Z</time>
      </trkpt>
      <trkpt lat="47.88615" lon="-3.49347">
        <ele>65.63</ele>
        <time>2018-05-30T10:09:36Z</time>
      </trkpt>
      <trkpt lat="47.88601" lon="-3.4934">
        <ele>64.36</ele>
        <time>2018-05-30T10:09:45Z</time>
      </trkpt>
      <trkpt lat="47.88554" lon="-3.49341">
        <ele>63.87</ele>
        <time>2018-05-30T10:09:59Z</time>
      </trkpt>
      <trkpt lat="47.8855" lon="-3.49344">
        <ele>63.8</ele>
        <time>2018-05-30T10:10:03Z</time>
      </trkpt>
      <trkpt lat="47.88545" lon="-3.49346">
        <ele>63.69</ele>
        <time>2018-05-30T10:10:08Z</time>
      </trkpt>
      <trkpt lat="47.8853" lon="-3.49344">
        <ele>63.62</ele>
        <time>2018-05-30T10:10:12Z</time>
      </trkpt>
      <trkpt lat="47.88516" lon="-3.49367">
        <ele>63.89</ele>
        <time>2018-05-30T10:10:21Z</time>
      </trkpt>
      <trkpt lat="47.8851" lon="-3.49381">
        <ele>64.91</ele>
        <time>2018-05-30T10:10:26Z</time>
      </trkpt>
      <trkpt lat="47.88481" lon="-3.49413">
        <ele>67.45</ele>
        <time>2018-05-30T10:10:35Z</time>
      </trkpt>
      <trkpt lat="47.88453" lon="-3.49444">
        <ele>70.75</ele>
        <time>2018-05-30T10:10:43Z</time>
      </trkpt>
      <trkpt lat="47.88434" lon="-3.49466">
        <ele>73.87</ele>
        <time>2018-05-30T10:10:48Z</time>
      </trkpt>
      <trkpt lat="47.88393" lon="-3.49522">
        <ele>76.56</ele>
        <time>2018-05-30T10:10:55Z</time>
      </trkpt>
      <trkpt lat="47.88388" lon="-3.49531">
        <ele>76.91</ele>
        <time>2018-05-30T10:10:56Z</time>
      </trkpt>
      <trkpt lat="47.88365" lon="-3.49578">
        <ele>79.46</ele>
        <time>2018-05-30T10:11:02Z</time>
      </trkpt>
      <trkpt lat="47.88339" lon="-3.4963">
        <ele>82.81</ele>
        <time>2018-05-30T10:11:09Z</time>
      </trkpt>
      <trkpt lat="47.88281" lon="-3.49736">
        <ele>85.64</ele>
        <time>2018-05-30T10:11:24Z</time>
      </trkpt>
      <trkpt lat="47.88266" lon="-3.49762">
        <ele>85.69</ele>
        <time>2018-05-30T10:11:28Z</time>
      </trkpt>
      <trkpt lat="47.88262" lon="-3.49769">
        <ele>85.7</ele>
        <time>2018-05-30T10:11:29Z</time>
      </trkpt>
      <trkpt lat="47.88208" lon="-3.49852">
        <ele>87.13</ele>
        <time>2018-05-30T10:11:43Z</time>
      </trkpt>
      <trkpt lat="47.88197" lon="-3.49896">
        <ele>88.26</ele>
        <time>2018-05-30T10:11:54Z</time>
      </trkpt>
      <trkpt lat="47.88195" lon="-3.49933">
        <ele>88.82</ele>
        <time>2018-05-30T10:12:08Z</time>
      </trkpt>
      <trkpt lat="47.88194" lon="-3.49941">
        <ele>88.84</ele>
        <time>2018-05-30T10:12:11Z</time>
      </trkpt>
      <trkpt lat="47.88194" lon="-3.49943">
        <ele>88.89</ele>
        <time>2018-05-30T10:12:12Z</time>
      </trkpt>
      <trkpt lat="47.88193" lon="-3.49945">
        <ele>88.94</ele>
        <time>2018-05-30T10:12:13Z</time>
      </trkpt>
      <trkpt lat="47.88193" lon="-3.49948">
        <ele>88.96</ele>
        <time>2018-05-30T10:12:14Z</time>
      </trkpt>
      <trkpt lat="47.88193" lon="-3.49951">
        <ele>88.99</ele>
        <time>2018-05-30T10:12:15Z</time>
      </trkpt>
      <trkpt lat="47.88192" lon="-3.49954">
        <ele>89.02</ele>
        <time>2018-05-30T10:12:16Z</time>
      </trkpt>
      <trkpt lat="47.88192" lon="-3.49957">
        <ele>89.03</ele>
        <time>2018-05-30T10:12:17Z</time>
      </trkpt>
      <trkpt lat="47.88192" lon="-3.4996">
        <ele>89.02</ele>
        <time>2018-05-30T10:12:18Z</time>
      </trkpt>
      <trkpt lat="47.8819" lon="-3.50013">
        <ele>88.72</ele>
        <time>2018-05-30T10:12:36Z</time>
      </trkpt>
      <trkpt lat="47.8819" lon="-3.50015">
        <ele>88.7</ele>
        <time>2018-05-30T10:12:37Z</time>
      </trkpt>
      <trkpt lat="47.88191" lon="-3.50016">
        <ele>88.69</ele>
        <time>2018-05-30T10:12:38Z</time>
      </trkpt>
      <trkpt lat="47.88193" lon="-3.50016">
        <ele>88.68</ele>
        <time>2018-05-30T10:12:39Z</time>
      </trkpt>
      <trkpt lat="47.88194" lon="-3.50016">
        <ele>88.65</ele>
        <time>2018-05-30T10:12:40Z</time>
      </trkpt>
      <trkpt lat="47.88196" lon="-3.50018">
        <ele>88.59</ele>
        <time>2018-05-30T10:12:41Z</time>
      </trkpt>
      <trkpt lat="47.88198" lon="-3.50018">
        <ele>88.53</ele>
        <time>2018-05-30T10:12:42Z</time>
      </trkpt>
      <trkpt lat="47.8823" lon="-3.50018">
        <ele>87.27</ele>
        <time>2018-05-30T10:12:59Z</time>
      </trkpt>
      <trkpt lat="47.88267" lon="-3.50025">
        <ele>87.47</ele>
        <time>2018-05-30T10:13:13Z</time>
      </trkpt>
      <trkpt lat="47.88284" lon="-3.50054">
        <ele>87.99</ele>
        <time>2018-05-30T10:13:26Z</time>
      </trkpt>
      <trkpt lat="47.88273" lon="-3.50096">
        <ele>87</ele>
        <time>2018-05-30T10:13:35Z</time>
      </trkpt>
      <trkpt lat="47.88265" lon="-3.50122">
        <ele>84.92</ele>
        <time>2018-05-30T10:13:45Z</time>
      </trkpt>
      <trkpt lat="47.88264" lon="-3.50126">
        <ele>84.18</ele>
        <time>2018-05-30T10:13:48Z</time>
      </trkpt>
      <trkpt lat="47.88254" lon="-3.50142">
        <ele>80.84</ele>
        <time>2018-05-30T10:14:01Z</time>
      </trkpt>
      <trkpt lat="47.88251" lon="-3.50146">
        <ele>79.19</ele>
        <time>2018-05-30T10:14:05Z</time>
      </trkpt>
      <trkpt lat="47.88238" lon="-3.50164">
        <ele>77.12</ele>
        <time>2018-05-30T10:14:14Z</time>
      </trkpt>
      <trkpt lat="47.8824" lon="-3.5018">
        <ele>76.39</ele>
        <time>2018-05-30T10:14:20Z</time>
      </trkpt>
      <trkpt lat="47.88242" lon="-3.50186">
        <ele>76.11</ele>
        <time>2018-05-30T10:14:23Z</time>
      </trkpt>
      <trkpt lat="47.88244" lon="-3.50205">
        <ele>75.91</ele>
        <time>2018-05-30T10:14:29Z</time>
      </trkpt>
      <trkpt lat="47.8825" lon="-3.5024">
        <ele>76.56</ele>
        <time>2018-05-30T10:14:40Z</time>
      </trkpt>
      <trkpt lat="47.8825" lon="-3.50243">
        <ele>76.54</ele>
        <time>2018-05-30T10:14:41Z</time>
      </trkpt>
      <trkpt lat="47.88248" lon="-3.50256">
        <ele>76.53</ele>
        <time>2018-05-30T10:14:45Z</time>
      </trkpt>
      <trkpt lat="47.88242" lon="-3.50277">
        <ele>76.68</ele>
        <time>2018-05-30T10:14:52Z</time>
      </trkpt>
      <trkpt lat="47.88238" lon="-3.50297">
        <ele>76.71</ele>
        <time>2018-05-30T10:14:59Z</time>
      </trkpt>
      <trkpt lat="47.88237" lon="-3.50307">
        <ele>76.36</ele>
        <time>2018-05-30T10:15:07Z</time>
      </trkpt>
      <trkpt lat="47.88237" lon="-3.50311">
        <ele>76.27</ele>
        <time>2018-05-30T10:15:10Z</time>
      </trkpt>
      <trkpt lat="47.88235" lon="-3.50337">
        <ele>76.02</ele>
        <time>2018-05-30T10:15:25Z</time>
      </trkpt>
      <trkpt lat="47.88235" lon="-3.5034">
        <ele>76.11</ele>
        <time>2018-05-30T10:15:29Z</time>
      </trkpt>
      <trkpt lat="47.88234" lon="-3.50354">
        <ele>76.31</ele>
        <time>2018-05-30T10:15:42Z</time>
      </trkpt>
      <trkpt lat="47.88235" lon="-3.50388">
        <ele>74.73</ele>
        <time>2018-05-30T10:16:02Z</time>
      </trkpt>
      <trkpt lat="47.88241" lon="-3.50425">
        <ele>72.93</ele>
        <time>2018-05-30T10:16:19Z</time>
      </trkpt>
      <trkpt lat="47.88242" lon="-3.50466">
        <ele>72.35</ele>
        <time>2018-05-30T10:16:41Z</time>
      </trkpt>
      <trkpt lat="47.88243" lon="-3.50481">
        <ele>72.42</ele>
        <time>2018-05-30T10:16:48Z</time>
      </trkpt>
      <trkpt lat="47.88244" lon="-3.50486">
        <ele>72.57</ele>
        <time>2018-05-30T10:16:50Z</time>
      </trkpt>
      <trkpt lat="47.88255" lon="-3.50509">
        <ele>73.12</ele>
        <time>2018-05-30T10:16:56Z</time>
      </trkpt>
      <trkpt lat="47.88255" lon="-3.50522">
        <ele>73.89</ele>
        <time>2018-05-30T10:17:02Z</time>
      </trkpt>
      <trkpt lat="47.8825" lon="-3.50529">
        <ele>75.03</ele>
        <time>2018-05-30T10:17:06Z</time>
      </trkpt>
      <trkpt lat="47.88234" lon="-3.50549">
        <ele>78.55</ele>
        <time>2018-05-30T10:17:14Z</time>
      </trkpt>
      <trkpt lat="47.88213" lon="-3.50563">
        <ele>81.7</ele>
        <time>2018-05-30T10:17:21Z</time>
      </trkpt>
      <trkpt lat="47.88197" lon="-3.50585">
        <ele>85.24</ele>
        <time>2018-05-30T10:17:28Z</time>
      </trkpt>
      <trkpt lat="47.88188" lon="-3.50594">
        <ele>87.55</ele>
        <time>2018-05-30T10:17:32Z</time>
      </trkpt>
      <trkpt lat="47.88174" lon="-3.50603">
        <ele>90.8</ele>
        <time>2018-05-30T10:17:39Z</time>
      </trkpt>
      <trkpt lat="47.88169" lon="-3.50602">
        <ele>91.03</ele>
        <time>2018-05-30T10:17:40Z</time>
      </trkpt>
      <trkpt lat="47.88165" lon="-3.50604">
        <ele>91.21</ele>
        <time>2018-05-30T10:17:41Z</time>
      </trkpt>
      <trkpt lat="47.88163" lon="-3.50605">
        <ele>91.37</ele>
        <time>2018-05-30T10:17:42Z</time>
      </trkpt>
      <trkpt lat="47.88159" lon="-3.50607">
        <ele>91.51</ele>
        <time>2018-05-30T10:17:43Z</time>
      </trkpt>
      <trkpt lat="47.88155" lon="-3.50608">
        <ele>91.74</ele>
        <time>2018-05-30T10:17:45Z</time>
      </trkpt>
      <trkpt lat="47.88153" lon="-3.50608">
        <ele>91.87</ele>
        <time>2018-05-30T10:17:46Z</time>
      </trkpt>
      <trkpt lat="47.8813" lon="-3.50636">
        <ele>93.09</ele>
        <time>2018-05-30T10:18:00Z</time>
      </trkpt>
      <trkpt lat="47.88126" lon="-3.50638">
        <ele>93.08</ele>
        <time>2018-05-30T10:18:02Z</time>
      </trkpt>
      <trkpt lat="47.88122" lon="-3.50646">
        <ele>93.01</ele>
        <time>2018-05-30T10:18:05Z</time>
      </trkpt>
      <trkpt lat="47.88121" lon="-3.50648">
        <ele>93.02</ele>
        <time>2018-05-30T10:18:06Z</time>
      </trkpt>
      <trkpt lat="47.88119" lon="-3.50648">
        <ele>93.01</ele>
        <time>2018-05-30T10:18:07Z</time>
      </trkpt>
      <trkpt lat="47.88117" lon="-3.50648">
        <ele>93</ele>
        <time>2018-05-30T10:18:08Z</time>
      </trkpt>
      <trkpt lat="47.88116" lon="-3.50649">
        <ele>93.01</ele>
        <time>2018-05-30T10:18:09Z</time>
      </trkpt>
      <trkpt lat="47.88097" lon="-3.50659">
        <ele>93.14</ele>
        <time>2018-05-30T10:18:18Z</time>
      </trkpt>
      <trkpt lat="47.88094" lon="-3.50659">
        <ele>93.14</ele>
        <time>2018-05-30T10:18:19Z</time>
      </trkpt>
      <trkpt lat="47.88086" lon="-3.5066">
        <ele>92.88</ele>
        <time>2018-05-30T10:18:24Z</time>
      </trkpt>
      <trkpt lat="47.88085" lon="-3.5066">
        <ele>92.84</ele>
        <time>2018-05-30T10:18:25Z</time>
      </trkpt>
      <trkpt lat="47.88083" lon="-3.5066">
        <ele>92.8</ele>
        <time>2018-05-30T10:18:26Z</time>
      </trkpt>
      <trkpt lat="47.88082" lon="-3.5066">
        <ele>92.77</ele>
        <time>2018-05-30T10:18:27Z</time>
      </trkpt>
      <trkpt lat="47.88081" lon="-3.50659">
        <ele>92.74</ele>
        <time>2018-05-30T10:18:28Z</time>
      </trkpt>
      <trkpt lat="47.88079" lon="-3.50659">
        <ele>92.7</ele>
        <time>2018-05-30T10:18:29Z</time>
      </trkpt>
      <trkpt lat="47.88078" lon="-3.50659">
        <ele>92.67</ele>
        <time>2018-05-30T10:18:30Z</time>
      </trkpt>
      <trkpt lat="47.88074" lon="-3.50659">
        <ele>92.62</ele>
        <time>2018-05-30T10:18:31Z</time>
      </trkpt>
      <trkpt lat="47.88052" lon="-3.50658">
        <ele>92.28</ele>
        <time>2018-05-30T10:18:38Z</time>
      </trkpt>
      <trkpt lat="47.8805" lon="-3.50658">
        <ele>92.15</ele>
        <time>2018-05-30T10:18:39Z</time>
      </trkpt>
      <trkpt lat="47.88048" lon="-3.50657">
        <ele>92.04</ele>
        <time>2018-05-30T10:18:40Z</time>
      </trkpt>
      <trkpt lat="47.88046" lon="-3.50655">
        <ele>91.96</ele>
        <time>2018-05-30T10:18:41Z</time>
      </trkpt>
      <trkpt lat="47.88043" lon="-3.50653">
        <ele>91.88</ele>
        <time>2018-05-30T10:18:42Z</time>
      </trkpt>
      <trkpt lat="47.88041" lon="-3.50652">
        <ele>91.85</ele>
        <time>2018-05-30T10:18:43Z</time>
      </trkpt>
      <trkpt lat="47.8802" lon="-3.50638">
        <ele>91.23</ele>
        <time>2018-05-30T10:18:58Z</time>
      </trkpt>
      <trkpt lat="47.88014" lon="-3.50625">
        <ele>90.38</ele>
        <time>2018-05-30T10:19:06Z</time>
      </trkpt>
      <trkpt lat="47.88013" lon="-3.50623">
        <ele>90.29</ele>
        <time>2018-05-30T10:19:07Z</time>
      </trkpt>
      <trkpt lat="47.88012" lon="-3.50621">
        <ele>90.2</ele>
        <time>2018-05-30T10:19:08Z</time>
      </trkpt>
      <trkpt lat="47.88011" lon="-3.50619">
        <ele>90.12</ele>
        <time>2018-05-30T10:19:09Z</time>
      </trkpt>
      <trkpt lat="47.8801" lon="-3.50616">
        <ele>90.05</ele>
        <time>2018-05-30T10:19:10Z</time>
      </trkpt>
      <trkpt lat="47.88008" lon="-3.50614">
        <ele>89.97</ele>
        <time>2018-05-30T10:19:11Z</time>
      </trkpt>
      <trkpt lat="47.8799" lon="-3.50586">
        <ele>88.66</ele>
        <time>2018-05-30T10:19:26Z</time>
      </trkpt>
      <trkpt lat="47.87981" lon="-3.50573">
        <ele>88.07</ele>
        <time>2018-05-30T10:19:34Z</time>
      </trkpt>
      <trkpt lat="47.87979" lon="-3.50571">
        <ele>87.99</ele>
        <time>2018-05-30T10:19:35Z</time>
      </trkpt>
      <trkpt lat="47.87978" lon="-3.5057">
        <ele>87.92</ele>
        <time>2018-05-30T10:19:36Z</time>
      </trkpt>
      <trkpt lat="47.87977" lon="-3.50569">
        <ele>87.85</ele>
        <time>2018-05-30T10:19:37Z</time>
      </trkpt>
      <trkpt lat="47.87963" lon="-3.50568">
        <ele>86.28</ele>
        <time>2018-05-30T10:19:47Z</time>
      </trkpt>
      <trkpt lat="47.87952" lon="-3.50582">
        <ele>83.18</ele>
        <time>2018-05-30T10:20:00Z</time>
      </trkpt>
      <trkpt lat="47.87947" lon="-3.50595">
        <ele>81.46</ele>
        <time>2018-05-30T10:20:05Z</time>
      </trkpt>
      <trkpt lat="47.87937" lon="-3.50624">
        <ele>77.89</ele>
        <time>2018-05-30T10:20:16Z</time>
      </trkpt>
      <trkpt lat="47.8793" lon="-3.50656">
        <ele>75.28</ele>
        <time>2018-05-30T10:20:28Z</time>
      </trkpt>
      <trkpt lat="47.87922" lon="-3.50688">
        <ele>74.25</ele>
        <time>2018-05-30T10:20:40Z</time>
      </trkpt>
      <trkpt lat="47.87921" lon="-3.50703">
        <ele>73.86</ele>
        <time>2018-05-30T10:20:46Z</time>
      </trkpt>
      <trkpt lat="47.87922" lon="-3.50718">
        <ele>73.38</ele>
        <time>2018-05-30T10:20:52Z</time>
      </trkpt>
      <trkpt lat="47.87914" lon="-3.50752">
        <ele>72.51</ele>
        <time>2018-05-30T10:21:07Z</time>
      </trkpt>
      <trkpt lat="47.8791" lon="-3.50756">
        <ele>72.27</ele>
        <time>2018-05-30T10:21:12Z</time>
      </trkpt>
      <trkpt lat="47.87906" lon="-3.50792">
        <ele>70.78</ele>
        <time>2018-05-30T10:21:27Z</time>
      </trkpt>
      <trkpt lat="47.87896" lon="-3.50828">
        <ele>70.3</ele>
        <time>2018-05-30T10:21:40Z</time>
      </trkpt>
      <trkpt lat="47.87886" lon="-3.50868">
        <ele>69.26</ele>
        <time>2018-05-30T10:21:54Z</time>
      </trkpt>
      <trkpt lat="47.87878" lon="-3.50895">
        <ele>68.44</ele>
        <time>2018-05-30T10:22:05Z</time>
      </trkpt>
      <trkpt lat="47.87878" lon="-3.50897">
        <ele>68.37</ele>
        <time>2018-05-30T10:22:06Z</time>
      </trkpt>
      <trkpt lat="47.87878" lon="-3.50899">
        <ele>68.31</ele>
        <time>2018-05-30T10:22:07Z</time>
      </trkpt>
      <trkpt lat="47.87877" lon="-3.50901">
        <ele>68.27</ele>
        <time>2018-05-30T10:22:08Z</time>
      </trkpt>
      <trkpt lat="47.87877" lon="-3.50903">
        <ele>68.23</ele>
        <time>2018-05-30T10:22:09Z</time>
      </trkpt>
      <trkpt lat="47.87876" lon="-3.50906">
        <ele>68.18</ele>
        <time>2018-05-30T10:22:10Z</time>
      </trkpt>
      <trkpt lat="47.87876" lon="-3.50908">
        <ele>68.17</ele>
        <time>2018-05-30T10:22:11Z</time>
      </trkpt>
      <trkpt lat="47.87875" lon="-3.5091">
        <ele>68.14</ele>
        <time>2018-05-30T10:22:12Z</time>
      </trkpt>
      <trkpt lat="47.87874" lon="-3.50914">
        <ele>68.12</ele>
        <time>2018-05-30T10:22:13Z</time>
      </trkpt>
      <trkpt lat="47.8787" lon="-3.50928">
        <ele>68.05</ele>
        <time>2018-05-30T10:22:19Z</time>
      </trkpt>
      <trkpt lat="47.87868" lon="-3.50934">
        <ele>67.99</ele>
        <time>2018-05-30T10:22:22Z</time>
      </trkpt>
      <trkpt lat="47.87867" lon="-3.50937">
        <ele>67.99</ele>
        <time>2018-05-30T10:22:23Z</time>
      </trkpt>
      <trkpt lat="47.87866" lon="-3.50939">
        <ele>67.98</ele>
        <time>2018-05-30T10:22:24Z</time>
      </trkpt>
      <trkpt lat="47.87865" lon="-3.50942">
        <ele>68</ele>
        <time>2018-05-30T10:22:25Z</time>
      </trkpt>
      <trkpt lat="47.87864" lon="-3.50946">
        <ele>68.01</ele>
        <time>2018-05-30T10:22:26Z</time>
      </trkpt>
      <trkpt lat="47.87863" lon="-3.5095">
        <ele>68</ele>
        <time>2018-05-30T10:22:27Z</time>
      </trkpt>
      <trkpt lat="47.87854" lon="-3.50968">
        <ele>67.48</ele>
        <time>2018-05-30T10:22:36Z</time>
      </trkpt>
      <trkpt lat="47.87854" lon="-3.50971">
        <ele>67.43</ele>
        <time>2018-05-30T10:22:37Z</time>
      </trkpt>
      <trkpt lat="47.87853" lon="-3.50973">
        <ele>67.37</ele>
        <time>2018-05-30T10:22:38Z</time>
      </trkpt>
      <trkpt lat="47.87852" lon="-3.50976">
        <ele>67.33</ele>
        <time>2018-05-30T10:22:39Z</time>
      </trkpt>
      <trkpt lat="47.87851" lon="-3.50979">
        <ele>67.31</ele>
        <time>2018-05-30T10:22:40Z</time>
      </trkpt>
      <trkpt lat="47.87851" lon="-3.50982">
        <ele>67.3</ele>
        <time>2018-05-30T10:22:41Z</time>
      </trkpt>
      <trkpt lat="47.87845" lon="-3.51005">
        <ele>67.02</ele>
        <time>2018-05-30T10:22:49Z</time>
      </trkpt>
      <trkpt lat="47.87845" lon="-3.51008">
        <ele>66.99</ele>
        <time>2018-05-30T10:22:50Z</time>
      </trkpt>
      <trkpt lat="47.87844" lon="-3.51011">
        <ele>66.97</ele>
        <time>2018-05-30T10:22:51Z</time>
      </trkpt>
      <trkpt lat="47.87844" lon="-3.51013">
        <ele>66.96</ele>
        <time>2018-05-30T10:22:52Z</time>
      </trkpt>
      <trkpt lat="47.87843" lon="-3.51017">
        <ele>66.95</ele>
        <time>2018-05-30T10:22:53Z</time>
      </trkpt>
      <trkpt lat="47.87833" lon="-3.51044">
        <ele>66.8</ele>
        <time>2018-05-30T10:23:06Z</time>
      </trkpt>
      <trkpt lat="47.87821" lon="-3.5107">
        <ele>66.38</ele>
        <time>2018-05-30T10:23:19Z</time>
      </trkpt>
      <trkpt lat="47.87807" lon="-3.51104">
        <ele>66.03</ele>
        <time>2018-05-30T10:23:33Z</time>
      </trkpt>
      <trkpt lat="47.87793" lon="-3.51138">
        <ele>66.01</ele>
        <time>2018-05-30T10:23:48Z</time>
      </trkpt>
      <trkpt lat="47.87783" lon="-3.51173">
        <ele>66.55</ele>
        <time>2018-05-30T10:24:03Z</time>
      </trkpt>
      <trkpt lat="47.87771" lon="-3.51211">
        <ele>67.54</ele>
        <time>2018-05-30T10:24:20Z</time>
      </trkpt>
      <trkpt lat="47.87764" lon="-3.5123">
        <ele>67.89</ele>
        <time>2018-05-30T10:24:29Z</time>
      </trkpt>
      <trkpt lat="47.87763" lon="-3.51232">
        <ele>67.93</ele>
        <time>2018-05-30T10:24:30Z</time>
      </trkpt>
      <trkpt lat="47.87752" lon="-3.51264">
        <ele>68.55</ele>
        <time>2018-05-30T10:24:41Z</time>
      </trkpt>
      <trkpt lat="47.87735" lon="-3.51319">
        <ele>70.08</ele>
        <time>2018-05-30T10:24:53Z</time>
      </trkpt>
      <trkpt lat="47.87723" lon="-3.51383">
        <ele>71.9</ele>
        <time>2018-05-30T10:25:05Z</time>
      </trkpt>
      <trkpt lat="47.87711" lon="-3.51448">
        <ele>72.89</ele>
        <time>2018-05-30T10:25:18Z</time>
      </trkpt>
      <trkpt lat="47.87701" lon="-3.51503">
        <ele>73.6</ele>
        <time>2018-05-30T10:25:29Z</time>
      </trkpt>
      <trkpt lat="47.8769" lon="-3.51566">
        <ele>74.94</ele>
        <time>2018-05-30T10:25:42Z</time>
      </trkpt>
      <trkpt lat="47.87682" lon="-3.51613">
        <ele>75.25</ele>
        <time>2018-05-30T10:25:52Z</time>
      </trkpt>
      <trkpt lat="47.87673" lon="-3.51658">
        <ele>75.53</ele>
        <time>2018-05-30T10:26:03Z</time>
      </trkpt>
      <trkpt lat="47.87662" lon="-3.51723">
        <ele>75.97</ele>
        <time>2018-05-30T10:26:18Z</time>
      </trkpt>
      <trkpt lat="47.87658" lon="-3.51761">
        <ele>76.16</ele>
        <time>2018-05-30T10:26:31Z</time>
      </trkpt>
      <trkpt lat="47.87652" lon="-3.51807">
        <ele>76.49</ele>
        <time>2018-05-30T10:26:49Z</time>
      </trkpt>
      <trkpt lat="47.87644" lon="-3.51845">
        <ele>76.79</ele>
        <time>2018-05-30T10:27:07Z</time>
      </trkpt>
      <trkpt lat="47.87634" lon="-3.51891">
        <ele>76.57</ele>
        <time>2018-05-30T10:27:26Z</time>
      </trkpt>
      <trkpt lat="47.87634" lon="-3.51893">
        <ele>76.59</ele>
        <time>2018-05-30T10:27:27Z</time>
      </trkpt>
      <trkpt lat="47.87621" lon="-3.51935">
        <ele>77.02</ele>
        <time>2018-05-30T10:27:45Z</time>
      </trkpt>
      <trkpt lat="47.8761" lon="-3.51969">
        <ele>77.32</ele>
        <time>2018-05-30T10:28:00Z</time>
      </trkpt>
      <trkpt lat="47.87604" lon="-3.51981">
        <ele>77.29</ele>
        <time>2018-05-30T10:28:06Z</time>
      </trkpt>
      <trkpt lat="47.87602" lon="-3.51982">
        <ele>77.27</ele>
        <time>2018-05-30T10:28:07Z</time>
      </trkpt>
      <trkpt lat="47.87601" lon="-3.51984">
        <ele>77.23</ele>
        <time>2018-05-30T10:28:08Z</time>
      </trkpt>
      <trkpt lat="47.876" lon="-3.51985">
        <ele>77.19</ele>
        <time>2018-05-30T10:28:09Z</time>
      </trkpt>
      <trkpt lat="47.876" lon="-3.51987">
        <ele>77.19</ele>
        <time>2018-05-30T10:28:10Z</time>
      </trkpt>
      <trkpt lat="47.87599" lon="-3.51989">
        <ele>77.23</ele>
        <time>2018-05-30T10:28:11Z</time>
      </trkpt>
      <trkpt lat="47.87587" lon="-3.52028">
        <ele>77.65</ele>
        <time>2018-05-30T10:28:28Z</time>
      </trkpt>
      <trkpt lat="47.87572" lon="-3.5206">
        <ele>78.1</ele>
        <time>2018-05-30T10:28:44Z</time>
      </trkpt>
      <trkpt lat="47.87559" lon="-3.52091">
        <ele>78.67</ele>
        <time>2018-05-30T10:28:59Z</time>
      </trkpt>
      <trkpt lat="47.87537" lon="-3.52137">
        <ele>78.9</ele>
        <time>2018-05-30T10:29:21Z</time>
      </trkpt>
      <trkpt lat="47.8752" lon="-3.52178">
        <ele>79.43</ele>
        <time>2018-05-30T10:29:40Z</time>
      </trkpt>
      <trkpt lat="47.87503" lon="-3.52214">
        <ele>79.82</ele>
        <time>2018-05-30T10:29:58Z</time>
      </trkpt>
      <trkpt lat="47.87495" lon="-3.52251">
        <ele>80.22</ele>
        <time>2018-05-30T10:30:15Z</time>
      </trkpt>
      <trkpt lat="47.87498" lon="-3.52265">
        <ele>80.16</ele>
        <time>2018-05-30T10:30:22Z</time>
      </trkpt>
      <trkpt lat="47.87499" lon="-3.52266">
        <ele>80.15</ele>
        <time>2018-05-30T10:30:23Z</time>
      </trkpt>
      <trkpt lat="47.87523" lon="-3.52292">
        <ele>79.14</ele>
        <time>2018-05-30T10:30:41Z</time>
      </trkpt>
      <trkpt lat="47.8755" lon="-3.52321">
        <ele>77.43</ele>
        <time>2018-05-30T10:31:00Z</time>
      </trkpt>
      <trkpt lat="47.87571" lon="-3.52343">
        <ele>75.69</ele>
        <time>2018-05-30T10:31:15Z</time>
      </trkpt>
      <trkpt lat="47.8758" lon="-3.52355">
        <ele>74.86</ele>
        <time>2018-05-30T10:31:22Z</time>
      </trkpt>
      <trkpt lat="47.87581" lon="-3.52356">
        <ele>74.76</ele>
        <time>2018-05-30T10:31:23Z</time>
      </trkpt>
      <trkpt lat="47.87583" lon="-3.52357">
        <ele>74.67</ele>
        <time>2018-05-30T10:31:24Z</time>
      </trkpt>
      <trkpt lat="47.87611" lon="-3.52387">
        <ele>73.36</ele>
        <time>2018-05-30T10:31:42Z</time>
      </trkpt>
      <trkpt lat="47.87634" lon="-3.52412">
        <ele>71.86</ele>
        <time>2018-05-30T10:31:58Z</time>
      </trkpt>
      <trkpt lat="47.8767" lon="-3.52453">
        <ele>70.37</ele>
        <time>2018-05-30T10:32:24Z</time>
      </trkpt>
      <trkpt lat="47.87698" lon="-3.52482">
        <ele>68.7</ele>
        <time>2018-05-30T10:32:44Z</time>
      </trkpt>
      <trkpt lat="47.8772" lon="-3.52509">
        <ele>67.98</ele>
        <time>2018-05-30T10:33:02Z</time>
      </trkpt>
      <trkpt lat="47.87724" lon="-3.52542">
        <ele>66.73</ele>
        <time>2018-05-30T10:33:19Z</time>
      </trkpt>
      <trkpt lat="47.87723" lon="-3.5254">
        <ele>66.62</ele>
        <time>2018-05-30T10:33:57Z</time>
      </trkpt>
      <trkpt lat="47.87723" lon="-3.52541">
        <ele>66.91</ele>
        <time>2018-05-30T10:34:21Z</time>
      </trkpt>
      <trkpt lat="47.87722" lon="-3.52541">
        <ele>66.44</ele>
        <time>2018-05-30T10:34:41Z</time>
      </trkpt>
      <trkpt lat="47.87722" lon="-3.52545">
        <ele>66.35</ele>
        <time>2018-05-30T10:34:50Z</time>
      </trkpt>
      <trkpt lat="47.87722" lon="-3.52547">
        <ele>66.36</ele>
        <time>2018-05-30T10:34:51Z</time>
      </trkpt>
      <trkpt lat="47.87721" lon="-3.52549">
        <ele>66.37</ele>
        <time>2018-05-30T10:34:52Z</time>
      </trkpt>
      <trkpt lat="47.87721" lon="-3.52551">
        <ele>66.4</ele>
        <time>2018-05-30T10:34:53Z</time>
      </trkpt>
      <trkpt lat="47.87721" lon="-3.52553">
        <ele>66.39</ele>
        <time>2018-05-30T10:34:54Z</time>
      </trkpt>
      <trkpt lat="47.8772" lon="-3.52569">
        <ele>65.24</ele>
        <time>2018-05-30T10:35:09Z</time>
      </trkpt>
      <trkpt lat="47.87717" lon="-3.52579">
        <ele>64.62</ele>
        <time>2018-05-30T10:35:23Z</time>
      </trkpt>
      <trkpt lat="47.87717" lon="-3.5258">
        <ele>64.61</ele>
        <time>2018-05-30T10:35:24Z</time>
      </trkpt>
      <trkpt lat="47.87716" lon="-3.52581">
        <ele>64.58</ele>
        <time>2018-05-30T10:35:25Z</time>
      </trkpt>
      <trkpt lat="47.87715" lon="-3.52583">
        <ele>64.54</ele>
        <time>2018-05-30T10:35:26Z</time>
      </trkpt>
      <trkpt lat="47.87714" lon="-3.52584">
        <ele>64.5</ele>
        <time>2018-05-30T10:35:27Z</time>
      </trkpt>
      <trkpt lat="47.87713" lon="-3.52586">
        <ele>64.43</ele>
        <time>2018-05-30T10:35:28Z</time>
      </trkpt>
      <trkpt lat="47.87712" lon="-3.52587">
        <ele>64.38</ele>
        <time>2018-05-30T10:35:29Z</time>
      </trkpt>
      <trkpt lat="47.87711" lon="-3.5259">
        <ele>64.26</ele>
        <time>2018-05-30T10:35:30Z</time>
      </trkpt>
      <trkpt lat="47.87711" lon="-3.52591">
        <ele>64.08</ele>
        <time>2018-05-30T10:35:31Z</time>
      </trkpt>
      <trkpt lat="47.8771" lon="-3.52593">
        <ele>63.71</ele>
        <time>2018-05-30T10:35:32Z</time>
      </trkpt>
      <trkpt lat="47.87709" lon="-3.52594">
        <ele>63.57</ele>
        <time>2018-05-30T10:35:33Z</time>
      </trkpt>
      <trkpt lat="47.87708" lon="-3.52597">
        <ele>63.45</ele>
        <time>2018-05-30T10:35:34Z</time>
      </trkpt>
      <trkpt lat="47.8769" lon="-3.52638">
        <ele>62.71</ele>
        <time>2018-05-30T10:35:52Z</time>
      </trkpt>
      <trkpt lat="47.87676" lon="-3.52667">
        <ele>62.43</ele>
        <time>2018-05-30T10:36:06Z</time>
      </trkpt>
      <trkpt lat="47.87661" lon="-3.527">
        <ele>61.29</ele>
        <time>2018-05-30T10:36:21Z</time>
      </trkpt>
      <trkpt lat="47.87654" lon="-3.52723">
        <ele>60.98</ele>
        <time>2018-05-30T10:36:35Z</time>
      </trkpt>
      <trkpt lat="47.87642" lon="-3.52752">
        <ele>60.81</ele>
        <time>2018-05-30T10:36:48Z</time>
      </trkpt>
      <trkpt lat="47.87633" lon="-3.5277">
        <ele>60.93</ele>
        <time>2018-05-30T10:36:51Z</time>
      </trkpt>
      <trkpt lat="47.87608" lon="-3.52876">
        <ele>61.7</ele>
        <time>2018-05-30T10:37:03Z</time>
      </trkpt>
      <trkpt lat="47.8759" lon="-3.5295">
        <ele>63.22</ele>
        <time>2018-05-30T10:37:11Z</time>
      </trkpt>
      <trkpt lat="47.87579" lon="-3.52977">
        <ele>64.55</ele>
        <time>2018-05-30T10:37:15Z</time>
      </trkpt>
      <trkpt lat="47.87559" lon="-3.53014">
        <ele>67.71</ele>
        <time>2018-05-30T10:37:22Z</time>
      </trkpt>
      <trkpt lat="47.87547" lon="-3.53034">
        <ele>70.89</ele>
        <time>2018-05-30T10:37:28Z</time>
      </trkpt>
      <trkpt lat="47.87529" lon="-3.53077">
        <ele>74.06</ele>
        <time>2018-05-30T10:37:37Z</time>
      </trkpt>
      <trkpt lat="47.87502" lon="-3.53129">
        <ele>76.24</ele>
        <time>2018-05-30T10:37:48Z</time>
      </trkpt>
      <trkpt lat="47.87462" lon="-3.53194">
        <ele>77.72</ele>
        <time>2018-05-30T10:37:58Z</time>
      </trkpt>
      <trkpt lat="47.87442" lon="-3.53254">
        <ele>77.76</ele>
        <time>2018-05-30T10:38:09Z</time>
      </trkpt>
      <trkpt lat="47.87425" lon="-3.53295">
        <ele>76.95</ele>
        <time>2018-05-30T10:38:21Z</time>
      </trkpt>
      <trkpt lat="47.87425" lon="-3.53297">
        <ele>76.79</ele>
        <time>2018-05-30T10:38:30Z</time>
      </trkpt>
      <trkpt lat="47.87427" lon="-3.53296">
        <ele>76.78</ele>
        <time>2018-05-30T10:38:32Z</time>
      </trkpt>
      <trkpt lat="47.87428" lon="-3.53296">
        <ele>76.78</ele>
        <time>2018-05-30T10:38:33Z</time>
      </trkpt>
      <trkpt lat="47.87429" lon="-3.53296">
        <ele>76.78</ele>
        <time>2018-05-30T10:38:34Z</time>
      </trkpt>
      <trkpt lat="47.87447" lon="-3.53317">
        <ele>76.17</ele>
        <time>2018-05-30T10:38:50Z</time>
      </trkpt>
      <trkpt lat="47.87467" lon="-3.53352">
        <ele>74.86</ele>
        <time>2018-05-30T10:39:07Z</time>
      </trkpt>
      <trkpt lat="47.87474" lon="-3.53371">
        <ele>74.16</ele>
        <time>2018-05-30T10:39:16Z</time>
      </trkpt>
      <trkpt lat="47.87474" lon="-3.53373">
        <ele>74.11</ele>
        <time>2018-05-30T10:39:17Z</time>
      </trkpt>
      <trkpt lat="47.87474" lon="-3.53375">
        <ele>74.1</ele>
        <time>2018-05-30T10:39:18Z</time>
      </trkpt>
      <trkpt lat="47.87475" lon="-3.53377">
        <ele>74.09</ele>
        <time>2018-05-30T10:39:19Z</time>
      </trkpt>
      <trkpt lat="47.87476" lon="-3.5338">
        <ele>74.08</ele>
        <time>2018-05-30T10:39:20Z</time>
      </trkpt>
      <trkpt lat="47.8749" lon="-3.53416">
        <ele>72.63</ele>
        <time>2018-05-30T10:39:36Z</time>
      </trkpt>
      <trkpt lat="47.87502" lon="-3.53453">
        <ele>70.55</ele>
        <time>2018-05-30T10:39:53Z</time>
      </trkpt>
      <trkpt lat="47.87503" lon="-3.53481">
        <ele>68.57</ele>
        <time>2018-05-30T10:40:07Z</time>
      </trkpt>
      <trkpt lat="47.87501" lon="-3.53515">
        <ele>68.02</ele>
        <time>2018-05-30T10:40:19Z</time>
      </trkpt>
      <trkpt lat="47.87497" lon="-3.53558">
        <ele>68.04</ele>
        <time>2018-05-30T10:40:33Z</time>
      </trkpt>
      <trkpt lat="47.87493" lon="-3.53596">
        <ele>67.73</ele>
        <time>2018-05-30T10:40:48Z</time>
      </trkpt>
      <trkpt lat="47.87491" lon="-3.53635">
        <ele>67.24</ele>
        <time>2018-05-30T10:41:03Z</time>
      </trkpt>
      <trkpt lat="47.87491" lon="-3.53637">
        <ele>67.19</ele>
        <time>2018-05-30T10:41:04Z</time>
      </trkpt>
      <trkpt lat="47.8749" lon="-3.53639">
        <ele>67.14</ele>
        <time>2018-05-30T10:41:05Z</time>
      </trkpt>
      <trkpt lat="47.8749" lon="-3.53641">
        <ele>67.08</ele>
        <time>2018-05-30T10:41:06Z</time>
      </trkpt>
      <trkpt lat="47.8749" lon="-3.53643">
        <ele>67.02</ele>
        <time>2018-05-30T10:41:07Z</time>
      </trkpt>
      <trkpt lat="47.8749" lon="-3.53646">
        <ele>66.94</ele>
        <time>2018-05-30T10:41:08Z</time>
      </trkpt>
      <trkpt lat="47.8749" lon="-3.53648">
        <ele>66.85</ele>
        <time>2018-05-30T10:41:09Z</time>
      </trkpt>
      <trkpt lat="47.8749" lon="-3.5365">
        <ele>66.75</ele>
        <time>2018-05-30T10:41:10Z</time>
      </trkpt>
      <trkpt lat="47.87489" lon="-3.53652">
        <ele>66.67</ele>
        <time>2018-05-30T10:41:11Z</time>
      </trkpt>
      <trkpt lat="47.87489" lon="-3.53654">
        <ele>66.61</ele>
        <time>2018-05-30T10:41:12Z</time>
      </trkpt>
      <trkpt lat="47.87488" lon="-3.53659">
        <ele>66.5</ele>
        <time>2018-05-30T10:41:14Z</time>
      </trkpt>
      <trkpt lat="47.87488" lon="-3.53662">
        <ele>66.46</ele>
        <time>2018-05-30T10:41:15Z</time>
      </trkpt>
      <trkpt lat="47.87487" lon="-3.53665">
        <ele>66.42</ele>
        <time>2018-05-30T10:41:16Z</time>
      </trkpt>
      <trkpt lat="47.87487" lon="-3.53667">
        <ele>66.38</ele>
        <time>2018-05-30T10:41:17Z</time>
      </trkpt>
      <trkpt lat="47.87486" lon="-3.53669">
        <ele>66.35</ele>
        <time>2018-05-30T10:41:18Z</time>
      </trkpt>
      <trkpt lat="47.87482" lon="-3.53712">
        <ele>66.21</ele>
        <time>2018-05-30T10:41:33Z</time>
      </trkpt>
      <trkpt lat="47.87481" lon="-3.53755">
        <ele>65.85</ele>
        <time>2018-05-30T10:41:49Z</time>
      </trkpt>
      <trkpt lat="47.87493" lon="-3.53799">
        <ele>64.54</ele>
        <time>2018-05-30T10:42:07Z</time>
      </trkpt>
      <trkpt lat="47.87507" lon="-3.53827">
        <ele>62.41</ele>
        <time>2018-05-30T10:42:20Z</time>
      </trkpt>
      <trkpt lat="47.87508" lon="-3.53828">
        <ele>62.17</ele>
        <time>2018-05-30T10:42:21Z</time>
      </trkpt>
      <trkpt lat="47.87512" lon="-3.53834">
        <ele>61.22</ele>
        <time>2018-05-30T10:42:25Z</time>
      </trkpt>
      <trkpt lat="47.87512" lon="-3.53837">
        <ele>61.01</ele>
        <time>2018-05-30T10:42:26Z</time>
      </trkpt>
      <trkpt lat="47.87513" lon="-3.53839">
        <ele>60.79</ele>
        <time>2018-05-30T10:42:27Z</time>
      </trkpt>
      <trkpt lat="47.8752" lon="-3.53878">
        <ele>58.38</ele>
        <time>2018-05-30T10:42:43Z</time>
      </trkpt>
      <trkpt lat="47.8752" lon="-3.53881">
        <ele>58.36</ele>
        <time>2018-05-30T10:42:44Z</time>
      </trkpt>
      <trkpt lat="47.8752" lon="-3.53884">
        <ele>58.34</ele>
        <time>2018-05-30T10:42:45Z</time>
      </trkpt>
      <trkpt lat="47.8752" lon="-3.53886">
        <ele>58.27</ele>
        <time>2018-05-30T10:42:46Z</time>
      </trkpt>
      <trkpt lat="47.8752" lon="-3.53889">
        <ele>58.18</ele>
        <time>2018-05-30T10:42:47Z</time>
      </trkpt>
      <trkpt lat="47.87507" lon="-3.53932">
        <ele>57.66</ele>
        <time>2018-05-30T10:43:03Z</time>
      </trkpt>
      <trkpt lat="47.8749" lon="-3.53959">
        <ele>57.43</ele>
        <time>2018-05-30T10:43:17Z</time>
      </trkpt>
      <trkpt lat="47.87473" lon="-3.5399">
        <ele>57.01</ele>
        <time>2018-05-30T10:43:32Z</time>
      </trkpt>
      <trkpt lat="47.87459" lon="-3.54028">
        <ele>56.64</ele>
        <time>2018-05-30T10:43:49Z</time>
      </trkpt>
      <trkpt lat="47.87447" lon="-3.54071">
        <ele>55.92</ele>
        <time>2018-05-30T10:44:07Z</time>
      </trkpt>
      <trkpt lat="47.8744" lon="-3.54097">
        <ele>55.68</ele>
        <time>2018-05-30T10:44:19Z</time>
      </trkpt>
      <trkpt lat="47.87422" lon="-3.54121">
        <ele>54.07</ele>
        <time>2018-05-30T10:44:33Z</time>
      </trkpt>
      <trkpt lat="47.87408" lon="-3.54144">
        <ele>53.06</ele>
        <time>2018-05-30T10:44:46Z</time>
      </trkpt>
      <trkpt lat="47.87401" lon="-3.54156">
        <ele>51.69</ele>
        <time>2018-05-30T10:45:00Z</time>
      </trkpt>
      <trkpt lat="47.874" lon="-3.5416">
        <ele>51.27</ele>
        <time>2018-05-30T10:45:02Z</time>
      </trkpt>
      <trkpt lat="47.87394" lon="-3.54203">
        <ele>48.16</ele>
        <time>2018-05-30T10:45:18Z</time>
      </trkpt>
      <trkpt lat="47.87391" lon="-3.5423">
        <ele>45.09</ele>
        <time>2018-05-30T10:45:30Z</time>
      </trkpt>
      <trkpt lat="47.8739" lon="-3.54232">
        <ele>44.88</ele>
        <time>2018-05-30T10:45:31Z</time>
      </trkpt>
      <trkpt lat="47.87389" lon="-3.54235">
        <ele>44.68</ele>
        <time>2018-05-30T10:45:32Z</time>
      </trkpt>
      <trkpt lat="47.87389" lon="-3.54237">
        <ele>44.49</ele>
        <time>2018-05-30T10:45:33Z</time>
      </trkpt>
      <trkpt lat="47.87388" lon="-3.54239">
        <ele>44.31</ele>
        <time>2018-05-30T10:45:34Z</time>
      </trkpt>
      <trkpt lat="47.87388" lon="-3.54241">
        <ele>44.16</ele>
        <time>2018-05-30T10:45:35Z</time>
      </trkpt>
      <trkpt lat="47.87383" lon="-3.54252">
        <ele>42.1</ele>
        <time>2018-05-30T10:45:51Z</time>
      </trkpt>
      <trkpt lat="47.8738" lon="-3.54255">
        <ele>41.18</ele>
        <time>2018-05-30T10:46:08Z</time>
      </trkpt>
      <trkpt lat="47.87376" lon="-3.54255">
        <ele>39.8</ele>
        <time>2018-05-30T10:46:29Z</time>
      </trkpt>
      <trkpt lat="47.87371" lon="-3.54262">
        <ele>38.97</ele>
        <time>2018-05-30T10:46:50Z</time>
      </trkpt>
      <trkpt lat="47.87364" lon="-3.54265">
        <ele>37.81</ele>
        <time>2018-05-30T10:46:59Z</time>
      </trkpt>
      <trkpt lat="47.87354" lon="-3.54264">
        <ele>36</ele>
        <time>2018-05-30T10:47:12Z</time>
      </trkpt>
      <trkpt lat="47.87353" lon="-3.54266">
        <ele>35.57</ele>
        <time>2018-05-30T10:47:32Z</time>
      </trkpt>
      <trkpt lat="47.87348" lon="-3.54266">
        <ele>35.29</ele>
        <time>2018-05-30T10:47:40Z</time>
      </trkpt>
      <trkpt lat="47.87337" lon="-3.5427">
        <ele>34.19</ele>
        <time>2018-05-30T10:47:48Z</time>
      </trkpt>
      <trkpt lat="47.87325" lon="-3.54269">
        <ele>30.86</ele>
        <time>2018-05-30T10:48:02Z</time>
      </trkpt>
      <trkpt lat="47.87322" lon="-3.54268">
        <ele>30.13</ele>
        <time>2018-05-30T10:48:16Z</time>
      </trkpt>
      <trkpt lat="47.87318" lon="-3.54268">
        <ele>30.03</ele>
        <time>2018-05-30T10:48:19Z</time>
      </trkpt>
      <trkpt lat="47.87316" lon="-3.5427">
        <ele>29.87</ele>
        <time>2018-05-30T10:48:21Z</time>
      </trkpt>
      <trkpt lat="47.87308" lon="-3.5427">
        <ele>27.7</ele>
        <time>2018-05-30T10:48:29Z</time>
      </trkpt>
      <trkpt lat="47.87302" lon="-3.54292">
        <ele>24.23</ele>
        <time>2018-05-30T10:48:41Z</time>
      </trkpt>
      <trkpt lat="47.87298" lon="-3.54302">
        <ele>22.46</ele>
        <time>2018-05-30T10:48:47Z</time>
      </trkpt>
      <trkpt lat="47.87292" lon="-3.54318">
        <ele>19.49</ele>
        <time>2018-05-30T10:49:00Z</time>
      </trkpt>
      <trkpt lat="47.8729" lon="-3.54318">
        <ele>19.17</ele>
        <time>2018-05-30T10:49:05Z</time>
      </trkpt>
      <trkpt lat="47.87289" lon="-3.54328">
        <ele>19.32</ele>
        <time>2018-05-30T10:49:24Z</time>
      </trkpt>
      <trkpt lat="47.87291" lon="-3.5433">
        <ele>19.28</ele>
        <time>2018-05-30T10:49:43Z</time>
      </trkpt>
      <trkpt lat="47.87292" lon="-3.54329">
        <ele>18.87</ele>
        <time>2018-05-30T10:49:57Z</time>
      </trkpt>
      <trkpt lat="47.87293" lon="-3.54332">
        <ele>18.41</ele>
        <time>2018-05-30T10:50:12Z</time>
      </trkpt>
      <trkpt lat="47.87286" lon="-3.54327">
        <ele>18.61</ele>
        <time>2018-05-30T10:50:35Z</time>
      </trkpt>
      <trkpt lat="47.87282" lon="-3.54331">
        <ele>18.93</ele>
        <time>2018-05-30T10:50:49Z</time>
      </trkpt>
      <trkpt lat="47.87281" lon="-3.54337">
        <ele>18.95</ele>
        <time>2018-05-30T10:50:53Z</time>
      </trkpt>
      <trkpt lat="47.87277" lon="-3.54365">
        <ele>19.93</ele>
        <time>2018-05-30T10:51:09Z</time>
      </trkpt>
      <trkpt lat="47.87275" lon="-3.54375">
        <ele>19.33</ele>
        <time>2018-05-30T10:51:14Z</time>
      </trkpt>
      <trkpt lat="47.87272" lon="-3.54382">
        <ele>18.59</ele>
        <time>2018-05-30T10:51:22Z</time>
      </trkpt>
      <trkpt lat="47.87272" lon="-3.54391">
        <ele>18.54</ele>
        <time>2018-05-30T10:51:27Z</time>
      </trkpt>
      <trkpt lat="47.87271" lon="-3.54398">
        <ele>18.54</ele>
        <time>2018-05-30T10:51:31Z</time>
      </trkpt>
      <trkpt lat="47.87271" lon="-3.54403">
        <ele>18.71</ele>
        <time>2018-05-30T10:51:34Z</time>
      </trkpt>
      <trkpt lat="47.87267" lon="-3.54418">
        <ele>19.16</ele>
        <time>2018-05-30T10:51:42Z</time>
      </trkpt>
      <trkpt lat="47.87266" lon="-3.54426">
        <ele>19.35</ele>
        <time>2018-05-30T10:51:47Z</time>
      </trkpt>
      <trkpt lat="47.87263" lon="-3.54444">
        <ele>19.69</ele>
        <time>2018-05-30T10:51:58Z</time>
      </trkpt>
      <trkpt lat="47.87261" lon="-3.54465">
        <ele>19.88</ele>
        <time>2018-05-30T10:52:11Z</time>
      </trkpt>
      <trkpt lat="47.87261" lon="-3.54468">
        <ele>19.99</ele>
        <time>2018-05-30T10:52:16Z</time>
      </trkpt>
      <trkpt lat="47.87261" lon="-3.54481">
        <ele>20.05</ele>
        <time>2018-05-30T10:52:24Z</time>
      </trkpt>
      <trkpt lat="47.87273" lon="-3.5449">
        <ele>19.96</ele>
        <time>2018-05-30T10:52:37Z</time>
      </trkpt>
      <trkpt lat="47.87279" lon="-3.54498">
        <ele>20.1</ele>
        <time>2018-05-30T10:52:46Z</time>
      </trkpt>
      <trkpt lat="47.87286" lon="-3.54502">
        <ele>20.16</ele>
        <time>2018-05-30T10:52:52Z</time>
      </trkpt>
      <trkpt lat="47.87298" lon="-3.54521">
        <ele>20.29</ele>
        <time>2018-05-30T10:53:04Z</time>
      </trkpt>
      <trkpt lat="47.87307" lon="-3.5453">
        <ele>20.2</ele>
        <time>2018-05-30T10:53:11Z</time>
      </trkpt>
      <trkpt lat="47.87316" lon="-3.54534">
        <ele>20.45</ele>
        <time>2018-05-30T10:53:18Z</time>
      </trkpt>
      <trkpt lat="47.87335" lon="-3.54543">
        <ele>20.52</ele>
        <time>2018-05-30T10:53:33Z</time>
      </trkpt>
      <trkpt lat="47.87354" lon="-3.54546">
        <ele>20.65</ele>
        <time>2018-05-30T10:53:45Z</time>
      </trkpt>
      <trkpt lat="47.87371" lon="-3.54552">
        <ele>20.83</ele>
        <time>2018-05-30T10:53:57Z</time>
      </trkpt>
      <trkpt lat="47.87385" lon="-3.5456">
        <ele>20.82</ele>
        <time>2018-05-30T10:54:08Z</time>
      </trkpt>
      <trkpt lat="47.87405" lon="-3.54561">
        <ele>20.49</ele>
        <time>2018-05-30T10:54:21Z</time>
      </trkpt>
      <trkpt lat="47.87411" lon="-3.54562">
        <ele>20.34</ele>
        <time>2018-05-30T10:54:26Z</time>
      </trkpt>
      <trkpt lat="47.87415" lon="-3.54564">
        <ele>20.21</ele>
        <time>2018-05-30T10:54:29Z</time>
      </trkpt>
      <trkpt lat="47.87433" lon="-3.54563">
        <ele>19.93</ele>
        <time>2018-05-30T10:54:43Z</time>
      </trkpt>
      <trkpt lat="47.87438" lon="-3.54563">
        <ele>19.91</ele>
        <time>2018-05-30T10:54:46Z</time>
      </trkpt>
      <trkpt lat="47.87464" lon="-3.54556">
        <ele>19.55</ele>
        <time>2018-05-30T10:55:01Z</time>
      </trkpt>
      <trkpt lat="47.87482" lon="-3.54549">
        <ele>19.69</ele>
        <time>2018-05-30T10:55:12Z</time>
      </trkpt>
      <trkpt lat="47.875" lon="-3.54535">
        <ele>19.67</ele>
        <time>2018-05-30T10:55:26Z</time>
      </trkpt>
      <trkpt lat="47.8752" lon="-3.54512">
        <ele>19.31</ele>
        <time>2018-05-30T10:55:42Z</time>
      </trkpt>
      <trkpt lat="47.87521" lon="-3.54511">
        <ele>19.24</ele>
        <time>2018-05-30T10:55:43Z</time>
      </trkpt>
      <trkpt lat="47.87537" lon="-3.54498">
        <ele>19</ele>
        <time>2018-05-30T10:55:54Z</time>
      </trkpt>
      <trkpt lat="47.87554" lon="-3.54484">
        <ele>18.94</ele>
        <time>2018-05-30T10:56:08Z</time>
      </trkpt>
      <trkpt lat="47.87559" lon="-3.54483">
        <ele>19.01</ele>
        <time>2018-05-30T10:56:12Z</time>
      </trkpt>
      <trkpt lat="47.87562" lon="-3.54481">
        <ele>19.1</ele>
        <time>2018-05-30T10:56:14Z</time>
      </trkpt>
      <trkpt lat="47.87572" lon="-3.54476">
        <ele>19.33</ele>
        <time>2018-05-30T10:56:20Z</time>
      </trkpt>
      <trkpt lat="47.87582" lon="-3.54464">
        <ele>19.58</ele>
        <time>2018-05-30T10:56:29Z</time>
      </trkpt>
      <trkpt lat="47.87603" lon="-3.5445">
        <ele>19.83</ele>
        <time>2018-05-30T10:56:44Z</time>
      </trkpt>
      <trkpt lat="47.87623" lon="-3.54438">
        <ele>19.98</ele>
        <time>2018-05-30T10:56:58Z</time>
      </trkpt>
      <trkpt lat="47.87639" lon="-3.54426">
        <ele>20.49</ele>
        <time>2018-05-30T10:57:12Z</time>
      </trkpt>
      <trkpt lat="47.87651" lon="-3.54419">
        <ele>21.14</ele>
        <time>2018-05-30T10:57:25Z</time>
      </trkpt>
      <trkpt lat="47.87658" lon="-3.54415">
        <ele>21.36</ele>
        <time>2018-05-30T10:57:30Z</time>
      </trkpt>
      <trkpt lat="47.87666" lon="-3.54399">
        <ele>22.03</ele>
        <time>2018-05-30T10:57:45Z</time>
      </trkpt>
      <trkpt lat="47.87667" lon="-3.54395">
        <ele>22.2</ele>
        <time>2018-05-30T10:58:01Z</time>
      </trkpt>
      <trkpt lat="47.87668" lon="-3.54391">
        <ele>22.77</ele>
        <time>2018-05-30T10:58:13Z</time>
      </trkpt>
      <trkpt lat="47.87671" lon="-3.54386">
        <ele>22.94</ele>
        <time>2018-05-30T10:58:29Z</time>
      </trkpt>
      <trkpt lat="47.87675" lon="-3.54385">
        <ele>23.04</ele>
        <time>2018-05-30T10:58:43Z</time>
      </trkpt>
      <trkpt lat="47.87686" lon="-3.54377">
        <ele>24.17</ele>
        <time>2018-05-30T10:58:58Z</time>
      </trkpt>
      <trkpt lat="47.8769" lon="-3.54371">
        <ele>24.38</ele>
        <time>2018-05-30T10:59:02Z</time>
      </trkpt>
      <trkpt lat="47.87713" lon="-3.54349">
        <ele>26.6</ele>
        <time>2018-05-30T10:59:18Z</time>
      </trkpt>
      <trkpt lat="47.87721" lon="-3.54333">
        <ele>27.72</ele>
        <time>2018-05-30T10:59:25Z</time>
      </trkpt>
      <trkpt lat="47.87722" lon="-3.54331">
        <ele>27.94</ele>
        <time>2018-05-30T10:59:26Z</time>
      </trkpt>
      <trkpt lat="47.87728" lon="-3.54318">
        <ele>29.16</ele>
        <time>2018-05-30T10:59:32Z</time>
      </trkpt>
      <trkpt lat="47.87728" lon="-3.54316">
        <ele>29.27</ele>
        <time>2018-05-30T10:59:33Z</time>
      </trkpt>
      <trkpt lat="47.87729" lon="-3.54314">
        <ele>29.37</ele>
        <time>2018-05-30T10:59:34Z</time>
      </trkpt>
      <trkpt lat="47.8773" lon="-3.54312">
        <ele>29.49</ele>
        <time>2018-05-30T10:59:35Z</time>
      </trkpt>
      <trkpt lat="47.87731" lon="-3.5431">
        <ele>29.63</ele>
        <time>2018-05-30T10:59:36Z</time>
      </trkpt>
      <trkpt lat="47.87732" lon="-3.54308">
        <ele>29.77</ele>
        <time>2018-05-30T10:59:37Z</time>
      </trkpt>
      <trkpt lat="47.87733" lon="-3.54305">
        <ele>29.9</ele>
        <time>2018-05-30T10:59:38Z</time>
      </trkpt>
      <trkpt lat="47.87733" lon="-3.54303">
        <ele>30.01</ele>
        <time>2018-05-30T10:59:39Z</time>
      </trkpt>
      <trkpt lat="47.87734" lon="-3.54301">
        <ele>30.13</ele>
        <time>2018-05-30T10:59:40Z</time>
      </trkpt>
      <trkpt lat="47.87735" lon="-3.54299">
        <ele>30.24</ele>
        <time>2018-05-30T10:59:41Z</time>
      </trkpt>
      <trkpt lat="47.87737" lon="-3.5429">
        <ele>30.69</ele>
        <time>2018-05-30T10:59:45Z</time>
      </trkpt>
      <trkpt lat="47.87738" lon="-3.54288">
        <ele>30.8</ele>
        <time>2018-05-30T10:59:46Z</time>
      </trkpt>
      <trkpt lat="47.87742" lon="-3.54278">
        <ele>31.61</ele>
        <time>2018-05-30T10:59:52Z</time>
      </trkpt>
      <trkpt lat="47.87743" lon="-3.54276">
        <ele>31.75</ele>
        <time>2018-05-30T10:59:53Z</time>
      </trkpt>
      <trkpt lat="47.87743" lon="-3.54274">
        <ele>31.87</ele>
        <time>2018-05-30T10:59:54Z</time>
      </trkpt>
      <trkpt lat="47.87743" lon="-3.54271">
        <ele>31.99</ele>
        <time>2018-05-30T10:59:55Z</time>
      </trkpt>
      <trkpt lat="47.87744" lon="-3.5427">
        <ele>32.11</ele>
        <time>2018-05-30T10:59:56Z</time>
      </trkpt>
      <trkpt lat="47.87745" lon="-3.54268">
        <ele>32.37</ele>
        <time>2018-05-30T10:59:57Z</time>
      </trkpt>
      <trkpt lat="47.87746" lon="-3.54266">
        <ele>32.37</ele>
        <time>2018-05-30T10:59:58Z</time>
      </trkpt>
      <trkpt lat="47.8775" lon="-3.54251">
        <ele>33.28</ele>
        <time>2018-05-30T11:00:05Z</time>
      </trkpt>
      <trkpt lat="47.8775" lon="-3.54249">
        <ele>33.41</ele>
        <time>2018-05-30T11:00:06Z</time>
      </trkpt>
      <trkpt lat="47.8775" lon="-3.54247">
        <ele>33.54</ele>
        <time>2018-05-30T11:00:07Z</time>
      </trkpt>
      <trkpt lat="47.87749" lon="-3.54244">
        <ele>33.65</ele>
        <time>2018-05-30T11:00:08Z</time>
      </trkpt>
      <trkpt lat="47.87749" lon="-3.54242">
        <ele>33.75</ele>
        <time>2018-05-30T11:00:09Z</time>
      </trkpt>
      <trkpt lat="47.87748" lon="-3.5424">
        <ele>33.84</ele>
        <time>2018-05-30T11:00:10Z</time>
      </trkpt>
      <trkpt lat="47.87757" lon="-3.54204">
        <ele>35.73</ele>
        <time>2018-05-30T11:00:25Z</time>
      </trkpt>
      <trkpt lat="47.87754" lon="-3.54165">
        <ele>38.6</ele>
        <time>2018-05-30T11:00:41Z</time>
      </trkpt>
      <trkpt lat="47.87752" lon="-3.5413">
        <ele>41.43</ele>
        <time>2018-05-30T11:00:56Z</time>
      </trkpt>
      <trkpt lat="47.87754" lon="-3.5409">
        <ele>44.14</ele>
        <time>2018-05-30T11:01:12Z</time>
      </trkpt>
      <trkpt lat="47.87765" lon="-3.5406">
        <ele>46.88</ele>
        <time>2018-05-30T11:01:26Z</time>
      </trkpt>
      <trkpt lat="47.87771" lon="-3.54035">
        <ele>48.77</ele>
        <time>2018-05-30T11:01:38Z</time>
      </trkpt>
      <trkpt lat="47.8778" lon="-3.54007">
        <ele>51.28</ele>
        <time>2018-05-30T11:01:52Z</time>
      </trkpt>
      <trkpt lat="47.87785" lon="-3.53997">
        <ele>52.13</ele>
        <time>2018-05-30T11:01:57Z</time>
      </trkpt>
      <trkpt lat="47.87786" lon="-3.53994">
        <ele>52.33</ele>
        <time>2018-05-30T11:01:58Z</time>
      </trkpt>
      <trkpt lat="47.87787" lon="-3.53992">
        <ele>52.53</ele>
        <time>2018-05-30T11:01:59Z</time>
      </trkpt>
      <trkpt lat="47.87788" lon="-3.5399">
        <ele>52.71</ele>
        <time>2018-05-30T11:02:00Z</time>
      </trkpt>
      <trkpt lat="47.87789" lon="-3.53988">
        <ele>52.9</ele>
        <time>2018-05-30T11:02:01Z</time>
      </trkpt>
      <trkpt lat="47.8779" lon="-3.53986">
        <ele>53.07</ele>
        <time>2018-05-30T11:02:02Z</time>
      </trkpt>
      <trkpt lat="47.8779" lon="-3.53984">
        <ele>53.22</ele>
        <time>2018-05-30T11:02:03Z</time>
      </trkpt>
      <trkpt lat="47.87791" lon="-3.53982">
        <ele>53.37</ele>
        <time>2018-05-30T11:02:04Z</time>
      </trkpt>
      <trkpt lat="47.87795" lon="-3.53958">
        <ele>55.71</ele>
        <time>2018-05-30T11:02:14Z</time>
      </trkpt>
      <trkpt lat="47.87796" lon="-3.53956">
        <ele>55.93</ele>
        <time>2018-05-30T11:02:15Z</time>
      </trkpt>
      <trkpt lat="47.87797" lon="-3.53954">
        <ele>56.11</ele>
        <time>2018-05-30T11:02:16Z</time>
      </trkpt>
      <trkpt lat="47.87798" lon="-3.53952">
        <ele>56.26</ele>
        <time>2018-05-30T11:02:17Z</time>
      </trkpt>
      <trkpt lat="47.87798" lon="-3.5395">
        <ele>56.38</ele>
        <time>2018-05-30T11:02:18Z</time>
      </trkpt>
      <trkpt lat="47.87799" lon="-3.53948">
        <ele>56.5</ele>
        <time>2018-05-30T11:02:19Z</time>
      </trkpt>
      <trkpt lat="47.87799" lon="-3.53945">
        <ele>56.62</ele>
        <time>2018-05-30T11:02:20Z</time>
      </trkpt>
      <trkpt lat="47.878" lon="-3.53943">
        <ele>56.77</ele>
        <time>2018-05-30T11:02:21Z</time>
      </trkpt>
      <trkpt lat="47.87811" lon="-3.53912">
        <ele>59.13</ele>
        <time>2018-05-30T11:02:36Z</time>
      </trkpt>
      <trkpt lat="47.87819" lon="-3.53883">
        <ele>60.95</ele>
        <time>2018-05-30T11:02:50Z</time>
      </trkpt>
      <trkpt lat="47.87834" lon="-3.53851">
        <ele>62.4</ele>
        <time>2018-05-30T11:03:06Z</time>
      </trkpt>
      <trkpt lat="47.87853" lon="-3.53816">
        <ele>64.05</ele>
        <time>2018-05-30T11:03:24Z</time>
      </trkpt>
      <trkpt lat="47.87871" lon="-3.53791">
        <ele>64.69</ele>
        <time>2018-05-30T11:03:39Z</time>
      </trkpt>
      <trkpt lat="47.8789" lon="-3.53764">
        <ele>64.67</ele>
        <time>2018-05-30T11:03:54Z</time>
      </trkpt>
      <trkpt lat="47.87909" lon="-3.53736">
        <ele>64.49</ele>
        <time>2018-05-30T11:04:09Z</time>
      </trkpt>
      <trkpt lat="47.87925" lon="-3.53708">
        <ele>64.43</ele>
        <time>2018-05-30T11:04:24Z</time>
      </trkpt>
      <trkpt lat="47.87941" lon="-3.53681">
        <ele>64.87</ele>
        <time>2018-05-30T11:04:39Z</time>
      </trkpt>
      <trkpt lat="47.87956" lon="-3.53656">
        <ele>64.98</ele>
        <time>2018-05-30T11:04:53Z</time>
      </trkpt>
      <trkpt lat="47.8796" lon="-3.53651">
        <ele>65.08</ele>
        <time>2018-05-30T11:04:56Z</time>
      </trkpt>
      <trkpt lat="47.87961" lon="-3.53649">
        <ele>65.08</ele>
        <time>2018-05-30T11:04:57Z</time>
      </trkpt>
      <trkpt lat="47.87985" lon="-3.5362">
        <ele>65.74</ele>
        <time>2018-05-30T11:05:16Z</time>
      </trkpt>
      <trkpt lat="47.88001" lon="-3.53596">
        <ele>66.3</ele>
        <time>2018-05-30T11:05:30Z</time>
      </trkpt>
      <trkpt lat="47.88024" lon="-3.53565">
        <ele>67.47</ele>
        <time>2018-05-30T11:05:49Z</time>
      </trkpt>
      <trkpt lat="47.88046" lon="-3.53535">
        <ele>68.4</ele>
        <time>2018-05-30T11:06:08Z</time>
      </trkpt>
      <trkpt lat="47.88066" lon="-3.53508">
        <ele>69.57</ele>
        <time>2018-05-30T11:06:24Z</time>
      </trkpt>
      <trkpt lat="47.88085" lon="-3.53481">
        <ele>70.13</ele>
        <time>2018-05-30T11:06:40Z</time>
      </trkpt>
      <trkpt lat="47.88104" lon="-3.53455">
        <ele>70.11</ele>
        <time>2018-05-30T11:06:56Z</time>
      </trkpt>
      <trkpt lat="47.88125" lon="-3.53423">
        <ele>69.87</ele>
        <time>2018-05-30T11:07:13Z</time>
      </trkpt>
      <trkpt lat="47.8815" lon="-3.53388">
        <ele>69.49</ele>
        <time>2018-05-30T11:07:32Z</time>
      </trkpt>
      <trkpt lat="47.88167" lon="-3.53359">
        <ele>68.93</ele>
        <time>2018-05-30T11:07:48Z</time>
      </trkpt>
      <trkpt lat="47.88187" lon="-3.5333">
        <ele>68.92</ele>
        <time>2018-05-30T11:08:04Z</time>
      </trkpt>
      <trkpt lat="47.8821" lon="-3.53297">
        <ele>69.35</ele>
        <time>2018-05-30T11:08:23Z</time>
      </trkpt>
      <trkpt lat="47.8823" lon="-3.53269">
        <ele>69.14</ele>
        <time>2018-05-30T11:08:41Z</time>
      </trkpt>
      <trkpt lat="47.88255" lon="-3.5325">
        <ele>68.82</ele>
        <time>2018-05-30T11:08:58Z</time>
      </trkpt>
      <trkpt lat="47.88278" lon="-3.53238">
        <ele>69.19</ele>
        <time>2018-05-30T11:09:14Z</time>
      </trkpt>
      <trkpt lat="47.88298" lon="-3.5323">
        <ele>69.71</ele>
        <time>2018-05-30T11:09:28Z</time>
      </trkpt>
      <trkpt lat="47.88313" lon="-3.53225">
        <ele>70.23</ele>
        <time>2018-05-30T11:09:38Z</time>
      </trkpt>
      <trkpt lat="47.88315" lon="-3.53225">
        <ele>70.27</ele>
        <time>2018-05-30T11:09:39Z</time>
      </trkpt>
      <trkpt lat="47.88317" lon="-3.53224">
        <ele>70.31</ele>
        <time>2018-05-30T11:09:40Z</time>
      </trkpt>
      <trkpt lat="47.88318" lon="-3.53223">
        <ele>70.36</ele>
        <time>2018-05-30T11:09:41Z</time>
      </trkpt>
      <trkpt lat="47.8832" lon="-3.53223">
        <ele>70.4</ele>
        <time>2018-05-30T11:09:42Z</time>
      </trkpt>
      <trkpt lat="47.88322" lon="-3.53222">
        <ele>70.44</ele>
        <time>2018-05-30T11:09:43Z</time>
      </trkpt>
      <trkpt lat="47.88323" lon="-3.53221">
        <ele>70.47</ele>
        <time>2018-05-30T11:09:44Z</time>
      </trkpt>
      <trkpt lat="47.88354" lon="-3.5321">
        <ele>71.78</ele>
        <time>2018-05-30T11:10:03Z</time>
      </trkpt>
      <trkpt lat="47.88372" lon="-3.53201">
        <ele>73.48</ele>
        <time>2018-05-30T11:10:17Z</time>
      </trkpt>
      <trkpt lat="47.88378" lon="-3.53185">
        <ele>75.14</ele>
        <time>2018-05-30T11:10:28Z</time>
      </trkpt>
      <trkpt lat="47.88378" lon="-3.53183">
        <ele>75.29</ele>
        <time>2018-05-30T11:10:29Z</time>
      </trkpt>
      <trkpt lat="47.88372" lon="-3.53154">
        <ele>77.54</ele>
        <time>2018-05-30T11:10:45Z</time>
      </trkpt>
      <trkpt lat="47.8836" lon="-3.53132">
        <ele>78.95</ele>
        <time>2018-05-30T11:10:58Z</time>
      </trkpt>
      <trkpt lat="47.88351" lon="-3.53101">
        <ele>79.8</ele>
        <time>2018-05-30T11:11:15Z</time>
      </trkpt>
      <trkpt lat="47.88348" lon="-3.53071">
        <ele>79.86</ele>
        <time>2018-05-30T11:11:26Z</time>
      </trkpt>
      <trkpt lat="47.88346" lon="-3.53069">
        <ele>79.88</ele>
        <time>2018-05-30T11:11:28Z</time>
      </trkpt>
      <trkpt lat="47.88345" lon="-3.53055">
        <ele>56.72</ele>
        <time>2018-05-30T12:20:40Z</time>
      </trkpt>
      <trkpt lat="47.88345" lon="-3.5305">
        <ele>56.71</ele>
        <time>2018-05-30T12:21:02Z</time>
      </trkpt>
      <trkpt lat="47.88344" lon="-3.5304">
        <ele>56.56</ele>
        <time>2018-05-30T12:21:17Z</time>
      </trkpt>
      <trkpt lat="47.88343" lon="-3.53036">
        <ele>56.51</ele>
        <time>2018-05-30T12:21:20Z</time>
      </trkpt>
      <trkpt lat="47.88341" lon="-3.53014">
        <ele>56</ele>
        <time>2018-05-30T12:21:37Z</time>
      </trkpt>
      <trkpt lat="47.88342" lon="-3.53007">
        <ele>55.84</ele>
        <time>2018-05-30T12:21:42Z</time>
      </trkpt>
      <trkpt lat="47.88342" lon="-3.52969">
        <ele>54.81</ele>
        <time>2018-05-30T12:21:59Z</time>
      </trkpt>
      <trkpt lat="47.88336" lon="-3.52949">
        <ele>54.04</ele>
        <time>2018-05-30T12:22:12Z</time>
      </trkpt>
      <trkpt lat="47.88332" lon="-3.52947">
        <ele>53.76</ele>
        <time>2018-05-30T12:22:15Z</time>
      </trkpt>
      <trkpt lat="47.8832" lon="-3.52948">
        <ele>52.84</ele>
        <time>2018-05-30T12:22:24Z</time>
      </trkpt>
      <trkpt lat="47.88306" lon="-3.52946">
        <ele>51.12</ele>
        <time>2018-05-30T12:22:38Z</time>
      </trkpt>
      <trkpt lat="47.88299" lon="-3.52939">
        <ele>49.95</ele>
        <time>2018-05-30T12:22:47Z</time>
      </trkpt>
      <trkpt lat="47.88294" lon="-3.52935">
        <ele>49.42</ele>
        <time>2018-05-30T12:22:52Z</time>
      </trkpt>
      <trkpt lat="47.8829" lon="-3.52932">
        <ele>49.04</ele>
        <time>2018-05-30T12:22:55Z</time>
      </trkpt>
      <trkpt lat="47.88275" lon="-3.52905">
        <ele>46.84</ele>
        <time>2018-05-30T12:23:08Z</time>
      </trkpt>
      <trkpt lat="47.88255" lon="-3.52882">
        <ele>44.58</ele>
        <time>2018-05-30T12:23:24Z</time>
      </trkpt>
      <trkpt lat="47.88239" lon="-3.5287">
        <ele>42.93</ele>
        <time>2018-05-30T12:23:37Z</time>
      </trkpt>
      <trkpt lat="47.88221" lon="-3.52852">
        <ele>41.37</ele>
        <time>2018-05-30T12:23:51Z</time>
      </trkpt>
      <trkpt lat="47.88213" lon="-3.52847">
        <ele>40.84</ele>
        <time>2018-05-30T12:23:57Z</time>
      </trkpt>
      <trkpt lat="47.88203" lon="-3.52841">
        <ele>39.91</ele>
        <time>2018-05-30T12:24:05Z</time>
      </trkpt>
      <trkpt lat="47.88185" lon="-3.52837">
        <ele>37.51</ele>
        <time>2018-05-30T12:24:19Z</time>
      </trkpt>
      <trkpt lat="47.88159" lon="-3.5283">
        <ele>35.08</ele>
        <time>2018-05-30T12:24:35Z</time>
      </trkpt>
      <trkpt lat="47.88157" lon="-3.5283">
        <ele>34.69</ele>
        <time>2018-05-30T12:24:37Z</time>
      </trkpt>
      <trkpt lat="47.88145" lon="-3.52819">
        <ele>31.49</ele>
        <time>2018-05-30T12:24:51Z</time>
      </trkpt>
      <trkpt lat="47.88145" lon="-3.52817">
        <ele>31.18</ele>
        <time>2018-05-30T12:24:53Z</time>
      </trkpt>
      <trkpt lat="47.88156" lon="-3.52777">
        <ele>29.25</ele>
        <time>2018-05-30T12:25:12Z</time>
      </trkpt>
      <trkpt lat="47.88166" lon="-3.52754">
        <ele>28.57</ele>
        <time>2018-05-30T12:25:25Z</time>
      </trkpt>
      <trkpt lat="47.8817" lon="-3.52748">
        <ele>28.46</ele>
        <time>2018-05-30T12:25:28Z</time>
      </trkpt>
      <trkpt lat="47.88174" lon="-3.52729">
        <ele>28.35</ele>
        <time>2018-05-30T12:25:37Z</time>
      </trkpt>
      <trkpt lat="47.88177" lon="-3.52695">
        <ele>27.31</ele>
        <time>2018-05-30T12:25:51Z</time>
      </trkpt>
      <trkpt lat="47.88185" lon="-3.52678">
        <ele>25.79</ele>
        <time>2018-05-30T12:25:59Z</time>
      </trkpt>
      <trkpt lat="47.88186" lon="-3.52676">
        <ele>25.55</ele>
        <time>2018-05-30T12:26:00Z</time>
      </trkpt>
      <trkpt lat="47.88186" lon="-3.52672">
        <ele>24.82</ele>
        <time>2018-05-30T12:26:02Z</time>
      </trkpt>
      <trkpt lat="47.88186" lon="-3.52661">
        <ele>23.83</ele>
        <time>2018-05-30T12:26:06Z</time>
      </trkpt>
      <trkpt lat="47.88184" lon="-3.52631">
        <ele>20.52</ele>
        <time>2018-05-30T12:26:21Z</time>
      </trkpt>
      <trkpt lat="47.88183" lon="-3.52627">
        <ele>20.11</ele>
        <time>2018-05-30T12:26:23Z</time>
      </trkpt>
      <trkpt lat="47.88172" lon="-3.52598">
        <ele>17.8</ele>
        <time>2018-05-30T12:26:30Z</time>
      </trkpt>
      <trkpt lat="47.88163" lon="-3.52571">
        <ele>14.42</ele>
        <time>2018-05-30T12:26:43Z</time>
      </trkpt>
      <trkpt lat="47.88156" lon="-3.52534">
        <ele>11.36</ele>
        <time>2018-05-30T12:26:57Z</time>
      </trkpt>
      <trkpt lat="47.88157" lon="-3.52524">
        <ele>10.34</ele>
        <time>2018-05-30T12:27:03Z</time>
      </trkpt>
      <trkpt lat="47.88163" lon="-3.52509">
        <ele>9.13</ele>
        <time>2018-05-30T12:27:11Z</time>
      </trkpt>
      <trkpt lat="47.88166" lon="-3.52498">
        <ele>8.11</ele>
        <time>2018-05-30T12:27:16Z</time>
      </trkpt>
      <trkpt lat="47.88175" lon="-3.52455">
        <ele>6</ele>
        <time>2018-05-30T12:27:30Z</time>
      </trkpt>
      <trkpt lat="47.88178" lon="-3.52447">
        <ele>5.44</ele>
        <time>2018-05-30T12:27:34Z</time>
      </trkpt>
      <trkpt lat="47.88181" lon="-3.52438">
        <ele>4.03</ele>
        <time>2018-05-30T12:27:40Z</time>
      </trkpt>
      <trkpt lat="47.88186" lon="-3.52424">
        <ele>1.94</ele>
        <time>2018-05-30T12:27:48Z</time>
      </trkpt>
      <trkpt lat="47.88197" lon="-3.52401">
        <ele>-0.3</ele>
        <time>2018-05-30T12:27:56Z</time>
      </trkpt>
      <trkpt lat="47.88203" lon="-3.52387">
        <ele>-1.83</ele>
        <time>2018-05-30T12:28:01Z</time>
      </trkpt>
      <trkpt lat="47.8822" lon="-3.52366">
        <ele>-3.6</ele>
        <time>2018-05-30T12:28:13Z</time>
      </trkpt>
      <trkpt lat="47.88225" lon="-3.5236">
        <ele>-3.79</ele>
        <time>2018-05-30T12:28:17Z</time>
      </trkpt>
      <trkpt lat="47.88248" lon="-3.52345">
        <ele>-3.84</ele>
        <time>2018-05-30T12:28:32Z</time>
      </trkpt>
      <trkpt lat="47.8825" lon="-3.52345">
        <ele>-3.83</ele>
        <time>2018-05-30T12:28:33Z</time>
      </trkpt>
      <trkpt lat="47.8827" lon="-3.5234">
        <ele>-3.24</ele>
        <time>2018-05-30T12:28:48Z</time>
      </trkpt>
      <trkpt lat="47.88278" lon="-3.52335">
        <ele>-3.31</ele>
        <time>2018-05-30T12:28:53Z</time>
      </trkpt>
      <trkpt lat="47.88298" lon="-3.52323">
        <ele>-3.38</ele>
        <time>2018-05-30T12:29:07Z</time>
      </trkpt>
      <trkpt lat="47.88311" lon="-3.52299">
        <ele>-3.19</ele>
        <time>2018-05-30T12:29:19Z</time>
      </trkpt>
      <trkpt lat="47.88313" lon="-3.52299">
        <ele>-3.11</ele>
        <time>2018-05-30T12:29:21Z</time>
      </trkpt>
      <trkpt lat="47.88323" lon="-3.5229">
        <ele>-2.91</ele>
        <time>2018-05-30T12:29:26Z</time>
      </trkpt>
      <trkpt lat="47.88353" lon="-3.52278">
        <ele>-2.82</ele>
        <time>2018-05-30T12:29:42Z</time>
      </trkpt>
      <trkpt lat="47.88374" lon="-3.52273">
        <ele>-2.88</ele>
        <time>2018-05-30T12:29:54Z</time>
      </trkpt>
      <trkpt lat="47.88392" lon="-3.52277">
        <ele>-3.34</ele>
        <time>2018-05-30T12:30:04Z</time>
      </trkpt>
      <trkpt lat="47.88402" lon="-3.52279">
        <ele>-3.6</ele>
        <time>2018-05-30T12:30:17Z</time>
      </trkpt>
      <trkpt lat="47.88403" lon="-3.52281">
        <ele>-3.37</ele>
        <time>2018-05-30T12:30:24Z</time>
      </trkpt>
      <trkpt lat="47.88412" lon="-3.52288">
        <ele>-3.55</ele>
        <time>2018-05-30T12:30:44Z</time>
      </trkpt>
      <trkpt lat="47.88417" lon="-3.523">
        <ele>-2.82</ele>
        <time>2018-05-30T12:31:04Z</time>
      </trkpt>
      <trkpt lat="47.88418" lon="-3.52302">
        <ele>-1.39</ele>
        <time>2018-05-30T12:31:32Z</time>
      </trkpt>
      <trkpt lat="47.88415" lon="-3.52299">
        <ele>-1.27</ele>
        <time>2018-05-30T12:31:42Z</time>
      </trkpt>
      <trkpt lat="47.8841" lon="-3.52311">
        <ele>-1.18</ele>
        <time>2018-05-30T12:32:16Z</time>
      </trkpt>
      <trkpt lat="47.88411" lon="-3.52316">
        <ele>-1.23</ele>
        <time>2018-05-30T12:32:20Z</time>
      </trkpt>
      <trkpt lat="47.88411" lon="-3.52319">
        <ele>-1.2</ele>
        <time>2018-05-30T12:32:22Z</time>
      </trkpt>
      <trkpt lat="47.88421" lon="-3.52326">
        <ele>0.81</ele>
        <time>2018-05-30T12:32:40Z</time>
      </trkpt>
      <trkpt lat="47.88423" lon="-3.52326">
        <ele>1.05</ele>
        <time>2018-05-30T12:32:42Z</time>
      </trkpt>
      <trkpt lat="47.88429" lon="-3.52332">
        <ele>1.86</ele>
        <time>2018-05-30T12:32:56Z</time>
      </trkpt>
      <trkpt lat="47.88436" lon="-3.52341">
        <ele>3.51</ele>
        <time>2018-05-30T12:33:14Z</time>
      </trkpt>
      <trkpt lat="47.8844" lon="-3.52357">
        <ele>6.7</ele>
        <time>2018-05-30T12:33:30Z</time>
      </trkpt>
      <trkpt lat="47.88444" lon="-3.52366">
        <ele>9.82</ele>
        <time>2018-05-30T12:33:42Z</time>
      </trkpt>
      <trkpt lat="47.88448" lon="-3.52367">
        <ele>11.85</ele>
        <time>2018-05-30T12:33:47Z</time>
      </trkpt>
      <trkpt lat="47.88459" lon="-3.52362">
        <ele>15.52</ele>
        <time>2018-05-30T12:33:58Z</time>
      </trkpt>
      <trkpt lat="47.88465" lon="-3.52356">
        <ele>16.73</ele>
        <time>2018-05-30T12:34:14Z</time>
      </trkpt>
      <trkpt lat="47.88468" lon="-3.52357">
        <ele>16.58</ele>
        <time>2018-05-30T12:34:18Z</time>
      </trkpt>
      <trkpt lat="47.88472" lon="-3.52357">
        <ele>15.89</ele>
        <time>2018-05-30T12:34:26Z</time>
      </trkpt>
      <trkpt lat="47.88474" lon="-3.52357">
        <ele>15.91</ele>
        <time>2018-05-30T12:34:30Z</time>
      </trkpt>
      <trkpt lat="47.88481" lon="-3.5236">
        <ele>15.6</ele>
        <time>2018-05-30T12:34:51Z</time>
      </trkpt>
      <trkpt lat="47.88489" lon="-3.52368">
        <ele>14.64</ele>
        <time>2018-05-30T12:35:18Z</time>
      </trkpt>
      <trkpt lat="47.88496" lon="-3.52372">
        <ele>17.21</ele>
        <time>2018-05-30T12:35:38Z</time>
      </trkpt>
      <trkpt lat="47.88502" lon="-3.52372">
        <ele>17.07</ele>
        <time>2018-05-30T12:35:40Z</time>
      </trkpt>
      <trkpt lat="47.88516" lon="-3.52366">
        <ele>14.71</ele>
        <time>2018-05-30T12:36:08Z</time>
      </trkpt>
      <trkpt lat="47.88521" lon="-3.52357">
        <ele>11.67</ele>
        <time>2018-05-30T12:36:18Z</time>
      </trkpt>
      <trkpt lat="47.8853" lon="-3.52348">
        <ele>8.48</ele>
        <time>2018-05-30T12:36:29Z</time>
      </trkpt>
      <trkpt lat="47.88536" lon="-3.5233">
        <ele>5.32</ele>
        <time>2018-05-30T12:36:41Z</time>
      </trkpt>
      <trkpt lat="47.88544" lon="-3.52314">
        <ele>3.03</ele>
        <time>2018-05-30T12:36:51Z</time>
      </trkpt>
      <trkpt lat="47.88548" lon="-3.52289">
        <ele>-0.3</ele>
        <time>2018-05-30T12:37:06Z</time>
      </trkpt>
      <trkpt lat="47.88558" lon="-3.5225">
        <ele>-0.82</ele>
        <time>2018-05-30T12:37:24Z</time>
      </trkpt>
      <trkpt lat="47.88558" lon="-3.52239">
        <ele>-1.27</ele>
        <time>2018-05-30T12:37:30Z</time>
      </trkpt>
      <trkpt lat="47.88562" lon="-3.52229">
        <ele>-1.23</ele>
        <time>2018-05-30T12:37:37Z</time>
      </trkpt>
      <trkpt lat="47.8856" lon="-3.5221">
        <ele>-1.37</ele>
        <time>2018-05-30T12:37:57Z</time>
      </trkpt>
      <trkpt lat="47.88559" lon="-3.52204">
        <ele>-1.73</ele>
        <time>2018-05-30T12:38:03Z</time>
      </trkpt>
      <trkpt lat="47.88555" lon="-3.52196">
        <ele>-2.19</ele>
        <time>2018-05-30T12:38:08Z</time>
      </trkpt>
      <trkpt lat="47.88557" lon="-3.52183">
        <ele>-1.07</ele>
        <time>2018-05-30T12:38:24Z</time>
      </trkpt>
      <trkpt lat="47.88562" lon="-3.52167">
        <ele>-0.06</ele>
        <time>2018-05-30T12:38:44Z</time>
      </trkpt>
      <trkpt lat="47.88557" lon="-3.52152">
        <ele>0.33</ele>
        <time>2018-05-30T12:38:57Z</time>
      </trkpt>
      <trkpt lat="47.88549" lon="-3.52128">
        <ele>0.59</ele>
        <time>2018-05-30T12:39:13Z</time>
      </trkpt>
      <trkpt lat="47.8854" lon="-3.52103">
        <ele>1.85</ele>
        <time>2018-05-30T12:39:25Z</time>
      </trkpt>
      <trkpt lat="47.88524" lon="-3.5206">
        <ele>2.87</ele>
        <time>2018-05-30T12:39:44Z</time>
      </trkpt>
      <trkpt lat="47.88507" lon="-3.52049">
        <ele>1.89</ele>
        <time>2018-05-30T12:39:57Z</time>
      </trkpt>
      <trkpt lat="47.88494" lon="-3.52042">
        <ele>0.66</ele>
        <time>2018-05-30T12:40:07Z</time>
      </trkpt>
      <trkpt lat="47.88486" lon="-3.5203">
        <ele>0.48</ele>
        <time>2018-05-30T12:40:14Z</time>
      </trkpt>
      <trkpt lat="47.88483" lon="-3.52027">
        <ele>0.47</ele>
        <time>2018-05-30T12:40:16Z</time>
      </trkpt>
      <trkpt lat="47.88456" lon="-3.52001">
        <ele>-1.31</ele>
        <time>2018-05-30T12:40:34Z</time>
      </trkpt>
      <trkpt lat="47.88448" lon="-3.5199">
        <ele>-1.24</ele>
        <time>2018-05-30T12:40:40Z</time>
      </trkpt>
      <trkpt lat="47.88446" lon="-3.51987">
        <ele>-1.29</ele>
        <time>2018-05-30T12:40:42Z</time>
      </trkpt>
      <trkpt lat="47.88435" lon="-3.51969">
        <ele>-1.32</ele>
        <time>2018-05-30T12:40:53Z</time>
      </trkpt>
      <trkpt lat="47.88426" lon="-3.51953">
        <ele>-1.49</ele>
        <time>2018-05-30T12:41:01Z</time>
      </trkpt>
      <trkpt lat="47.88413" lon="-3.51909">
        <ele>-1.36</ele>
        <time>2018-05-30T12:41:23Z</time>
      </trkpt>
      <trkpt lat="47.88394" lon="-3.51868">
        <ele>-0.97</ele>
        <time>2018-05-30T12:41:40Z</time>
      </trkpt>
      <trkpt lat="47.8839" lon="-3.51862">
        <ele>-0.83</ele>
        <time>2018-05-30T12:41:43Z</time>
      </trkpt>
      <trkpt lat="47.88388" lon="-3.51857">
        <ele>-0.76</ele>
        <time>2018-05-30T12:41:46Z</time>
      </trkpt>
      <trkpt lat="47.88377" lon="-3.51837">
        <ele>-0.64</ele>
        <time>2018-05-30T12:41:59Z</time>
      </trkpt>
      <trkpt lat="47.88364" lon="-3.518">
        <ele>-0.13</ele>
        <time>2018-05-30T12:42:19Z</time>
      </trkpt>
      <trkpt lat="47.88349" lon="-3.51754">
        <ele>-0.99</ele>
        <time>2018-05-30T12:42:38Z</time>
      </trkpt>
      <trkpt lat="47.88348" lon="-3.5174">
        <ele>-1.38</ele>
        <time>2018-05-30T12:42:44Z</time>
      </trkpt>
      <trkpt lat="47.88344" lon="-3.51707">
        <ele>-1.29</ele>
        <time>2018-05-30T12:42:58Z</time>
      </trkpt>
      <trkpt lat="47.88341" lon="-3.51691">
        <ele>-1.28</ele>
        <time>2018-05-30T12:43:04Z</time>
      </trkpt>
      <trkpt lat="47.88343" lon="-3.51678">
        <ele>-1.36</ele>
        <time>2018-05-30T12:43:11Z</time>
      </trkpt>
      <trkpt lat="47.88345" lon="-3.51672">
        <ele>-1.28</ele>
        <time>2018-05-30T12:43:14Z</time>
      </trkpt>
      <trkpt lat="47.88348" lon="-3.51667">
        <ele>-0.89</ele>
        <time>2018-05-30T12:43:18Z</time>
      </trkpt>
      <trkpt lat="47.8835" lon="-3.51653">
        <ele>-0.56</ele>
        <time>2018-05-30T12:43:22Z</time>
      </trkpt>
      <trkpt lat="47.88354" lon="-3.51634">
        <ele>0.31</ele>
        <time>2018-05-30T12:43:29Z</time>
      </trkpt>
      <trkpt lat="47.88353" lon="-3.51613">
        <ele>0.88</ele>
        <time>2018-05-30T12:43:35Z</time>
      </trkpt>
      <trkpt lat="47.88351" lon="-3.51587">
        <ele>-0.6</ele>
        <time>2018-05-30T12:43:46Z</time>
      </trkpt>
      <trkpt lat="47.88352" lon="-3.51579">
        <ele>-0.99</ele>
        <time>2018-05-30T12:43:50Z</time>
      </trkpt>
      <trkpt lat="47.88353" lon="-3.51569">
        <ele>-1.11</ele>
        <time>2018-05-30T12:43:54Z</time>
      </trkpt>
      <trkpt lat="47.88359" lon="-3.51545">
        <ele>-1.33</ele>
        <time>2018-05-30T12:44:06Z</time>
      </trkpt>
      <trkpt lat="47.88363" lon="-3.51513">
        <ele>-1.39</ele>
        <time>2018-05-30T12:44:21Z</time>
      </trkpt>
      <trkpt lat="47.88366" lon="-3.51496">
        <ele>-1.49</ele>
        <time>2018-05-30T12:44:27Z</time>
      </trkpt>
      <trkpt lat="47.88372" lon="-3.51477">
        <ele>-1.37</ele>
        <time>2018-05-30T12:44:37Z</time>
      </trkpt>
      <trkpt lat="47.88376" lon="-3.51467">
        <ele>-1.36</ele>
        <time>2018-05-30T12:44:41Z</time>
      </trkpt>
      <trkpt lat="47.8838" lon="-3.51449">
        <ele>-1.17</ele>
        <time>2018-05-30T12:44:49Z</time>
      </trkpt>
      <trkpt lat="47.88383" lon="-3.51441">
        <ele>-1.21</ele>
        <time>2018-05-30T12:44:53Z</time>
      </trkpt>
      <trkpt lat="47.88385" lon="-3.51431">
        <ele>-1.19</ele>
        <time>2018-05-30T12:44:57Z</time>
      </trkpt>
      <trkpt lat="47.88387" lon="-3.51426">
        <ele>-1.2</ele>
        <time>2018-05-30T12:45:00Z</time>
      </trkpt>
      <trkpt lat="47.88388" lon="-3.51416">
        <ele>-1.27</ele>
        <time>2018-05-30T12:45:03Z</time>
      </trkpt>
      <trkpt lat="47.88391" lon="-3.51399">
        <ele>-1.29</ele>
        <time>2018-05-30T12:45:07Z</time>
      </trkpt>
      <trkpt lat="47.88394" lon="-3.51359">
        <ele>-1.44</ele>
        <time>2018-05-30T12:45:19Z</time>
      </trkpt>
      <trkpt lat="47.88399" lon="-3.51339">
        <ele>-1.99</ele>
        <time>2018-05-30T12:45:33Z</time>
      </trkpt>
      <trkpt lat="47.88406" lon="-3.51304">
        <ele>-2.34</ele>
        <time>2018-05-30T12:45:54Z</time>
      </trkpt>
      <trkpt lat="47.88426" lon="-3.51287">
        <ele>-1.34</ele>
        <time>2018-05-30T12:46:12Z</time>
      </trkpt>
      <trkpt lat="47.88432" lon="-3.5127">
        <ele>-0.31</ele>
        <time>2018-05-30T12:46:23Z</time>
      </trkpt>
      <trkpt lat="47.88433" lon="-3.51269">
        <ele>-0.27</ele>
        <time>2018-05-30T12:46:24Z</time>
      </trkpt>
      <trkpt lat="47.88436" lon="-3.51261">
        <ele>-0.38</ele>
        <time>2018-05-30T12:46:28Z</time>
      </trkpt>
      <trkpt lat="47.88445" lon="-3.51232">
        <ele>-0.11</ele>
        <time>2018-05-30T12:46:42Z</time>
      </trkpt>
      <trkpt lat="47.88465" lon="-3.51192">
        <ele>0.51</ele>
        <time>2018-05-30T12:47:02Z</time>
      </trkpt>
      <trkpt lat="47.8847" lon="-3.5118">
        <ele>0.02</ele>
        <time>2018-05-30T12:47:08Z</time>
      </trkpt>
      <trkpt lat="47.88477" lon="-3.5116">
        <ele>-0.76</ele>
        <time>2018-05-30T12:47:20Z</time>
      </trkpt>
      <trkpt lat="47.88478" lon="-3.51159">
        <ele>-0.78</ele>
        <time>2018-05-30T12:47:21Z</time>
      </trkpt>
      <trkpt lat="47.88484" lon="-3.51149">
        <ele>-0.89</ele>
        <time>2018-05-30T12:47:27Z</time>
      </trkpt>
      <trkpt lat="47.88486" lon="-3.51142">
        <ele>-0.96</ele>
        <time>2018-05-30T12:47:31Z</time>
      </trkpt>
      <trkpt lat="47.88501" lon="-3.51092">
        <ele>-1.76</ele>
        <time>2018-05-30T12:47:54Z</time>
      </trkpt>
      <trkpt lat="47.88503" lon="-3.51087">
        <ele>-1.81</ele>
        <time>2018-05-30T12:47:55Z</time>
      </trkpt>
      <trkpt lat="47.88502" lon="-3.51068">
        <ele>-2.09</ele>
        <time>2018-05-30T12:48:02Z</time>
      </trkpt>
      <trkpt lat="47.885" lon="-3.51056">
        <ele>-2.17</ele>
        <time>2018-05-30T12:48:07Z</time>
      </trkpt>
      <trkpt lat="47.88504" lon="-3.51025">
        <ele>-1.33</ele>
        <time>2018-05-30T12:48:25Z</time>
      </trkpt>
      <trkpt lat="47.88514" lon="-3.50996">
        <ele>-0.72</ele>
        <time>2018-05-30T12:48:41Z</time>
      </trkpt>
      <trkpt lat="47.88512" lon="-3.50986">
        <ele>-0.62</ele>
        <time>2018-05-30T12:48:46Z</time>
      </trkpt>
      <trkpt lat="47.88512" lon="-3.50981">
        <ele>-0.78</ele>
        <time>2018-05-30T12:48:49Z</time>
      </trkpt>
      <trkpt lat="47.8851" lon="-3.50949">
        <ele>-1.42</ele>
        <time>2018-05-30T12:49:05Z</time>
      </trkpt>
      <trkpt lat="47.88508" lon="-3.50947">
        <ele>-1.38</ele>
        <time>2018-05-30T12:49:06Z</time>
      </trkpt>
      <trkpt lat="47.88505" lon="-3.50935">
        <ele>-1.32</ele>
        <time>2018-05-30T12:49:11Z</time>
      </trkpt>
      <trkpt lat="47.88499" lon="-3.50898">
        <ele>-1.35</ele>
        <time>2018-05-30T12:49:28Z</time>
      </trkpt>
      <trkpt lat="47.88488" lon="-3.5085">
        <ele>0.05</ele>
        <time>2018-05-30T12:49:48Z</time>
      </trkpt>
      <trkpt lat="47.88485" lon="-3.50844">
        <ele>0.98</ele>
        <time>2018-05-30T12:49:52Z</time>
      </trkpt>
      <trkpt lat="47.88481" lon="-3.50836">
        <ele>1.39</ele>
        <time>2018-05-30T12:49:59Z</time>
      </trkpt>
      <trkpt lat="47.88473" lon="-3.50801">
        <ele>1.19</ele>
        <time>2018-05-30T12:50:15Z</time>
      </trkpt>
      <trkpt lat="47.88468" lon="-3.50775">
        <ele>2.08</ele>
        <time>2018-05-30T12:50:30Z</time>
      </trkpt>
      <trkpt lat="47.88462" lon="-3.50753">
        <ele>3.44</ele>
        <time>2018-05-30T12:50:40Z</time>
      </trkpt>
      <trkpt lat="47.88458" lon="-3.50726">
        <ele>4.08</ele>
        <time>2018-05-30T12:50:52Z</time>
      </trkpt>
      <trkpt lat="47.8845" lon="-3.50687">
        <ele>4.02</ele>
        <time>2018-05-30T12:51:10Z</time>
      </trkpt>
      <trkpt lat="47.88449" lon="-3.5068">
        <ele>4.04</ele>
        <time>2018-05-30T12:51:13Z</time>
      </trkpt>
      <trkpt lat="47.88442" lon="-3.50658">
        <ele>3.53</ele>
        <time>2018-05-30T12:51:25Z</time>
      </trkpt>
      <trkpt lat="47.88438" lon="-3.50647">
        <ele>4.4</ele>
        <time>2018-05-30T12:51:37Z</time>
      </trkpt>
      <trkpt lat="47.88439" lon="-3.50643">
        <ele>4.63</ele>
        <time>2018-05-30T12:51:41Z</time>
      </trkpt>
      <trkpt lat="47.88442" lon="-3.50618">
        <ele>7.66</ele>
        <time>2018-05-30T12:51:57Z</time>
      </trkpt>
      <trkpt lat="47.88437" lon="-3.50614">
        <ele>6.52</ele>
        <time>2018-05-30T12:52:05Z</time>
      </trkpt>
      <trkpt lat="47.88436" lon="-3.50592">
        <ele>4.98</ele>
        <time>2018-05-30T12:52:30Z</time>
      </trkpt>
      <trkpt lat="47.88435" lon="-3.50589">
        <ele>5.15</ele>
        <time>2018-05-30T12:52:56Z</time>
      </trkpt>
      <trkpt lat="47.88436" lon="-3.5058">
        <ele>5.26</ele>
        <time>2018-05-30T12:53:23Z</time>
      </trkpt>
      <trkpt lat="47.88433" lon="-3.50576">
        <ele>5.83</ele>
        <time>2018-05-30T12:53:48Z</time>
      </trkpt>
      <trkpt lat="47.88433" lon="-3.50572">
        <ele>6.48</ele>
        <time>2018-05-30T12:54:09Z</time>
      </trkpt>
      <trkpt lat="47.8843" lon="-3.50572">
        <ele>6.46</ele>
        <time>2018-05-30T12:54:35Z</time>
      </trkpt>
      <trkpt lat="47.88431" lon="-3.50576">
        <ele>6.41</ele>
        <time>2018-05-30T12:54:58Z</time>
      </trkpt>
      <trkpt lat="47.88431" lon="-3.50573">
        <ele>6.57</ele>
        <time>2018-05-30T12:55:13Z</time>
      </trkpt>
      <trkpt lat="47.88429" lon="-3.50561">
        <ele>7.12</ele>
        <time>2018-05-30T12:55:37Z</time>
      </trkpt>
      <trkpt lat="47.88424" lon="-3.50548">
        <ele>7.99</ele>
        <time>2018-05-30T12:55:51Z</time>
      </trkpt>
      <trkpt lat="47.88415" lon="-3.50538">
        <ele>5.96</ele>
        <time>2018-05-30T12:56:03Z</time>
      </trkpt>
      <trkpt lat="47.88403" lon="-3.50522">
        <ele>2.72</ele>
        <time>2018-05-30T12:56:14Z</time>
      </trkpt>
      <trkpt lat="47.88402" lon="-3.50512">
        <ele>1.39</ele>
        <time>2018-05-30T12:56:21Z</time>
      </trkpt>
      <trkpt lat="47.88401" lon="-3.50507">
        <ele>1.34</ele>
        <time>2018-05-30T12:56:27Z</time>
      </trkpt>
      <trkpt lat="47.88399" lon="-3.50503">
        <ele>1.51</ele>
        <time>2018-05-30T12:56:31Z</time>
      </trkpt>
      <trkpt lat="47.88397" lon="-3.50468">
        <ele>1.67</ele>
        <time>2018-05-30T12:56:51Z</time>
      </trkpt>
      <trkpt lat="47.88394" lon="-3.5045">
        <ele>2.18</ele>
        <time>2018-05-30T12:56:56Z</time>
      </trkpt>
      <trkpt lat="47.88397" lon="-3.50412">
        <ele>2.07</ele>
        <time>2018-05-30T12:57:12Z</time>
      </trkpt>
      <trkpt lat="47.88406" lon="-3.50385">
        <ele>2.29</ele>
        <time>2018-05-30T12:57:26Z</time>
      </trkpt>
      <trkpt lat="47.8841" lon="-3.5036">
        <ele>2.09</ele>
        <time>2018-05-30T12:57:39Z</time>
      </trkpt>
      <trkpt lat="47.88414" lon="-3.50347">
        <ele>2.33</ele>
        <time>2018-05-30T12:57:45Z</time>
      </trkpt>
      <trkpt lat="47.88433" lon="-3.50311">
        <ele>2.19</ele>
        <time>2018-05-30T12:58:06Z</time>
      </trkpt>
      <trkpt lat="47.88455" lon="-3.50282">
        <ele>2.39</ele>
        <time>2018-05-30T12:58:27Z</time>
      </trkpt>
      <trkpt lat="47.88477" lon="-3.50266">
        <ele>5.55</ele>
        <time>2018-05-30T12:58:44Z</time>
      </trkpt>
      <trkpt lat="47.88493" lon="-3.50252">
        <ele>8.62</ele>
        <time>2018-05-30T12:59:00Z</time>
      </trkpt>
      <trkpt lat="47.8851" lon="-3.50239">
        <ele>11.91</ele>
        <time>2018-05-30T12:59:13Z</time>
      </trkpt>
      <trkpt lat="47.88525" lon="-3.50229">
        <ele>15.15</ele>
        <time>2018-05-30T12:59:26Z</time>
      </trkpt>
      <trkpt lat="47.88543" lon="-3.50217">
        <ele>18.15</ele>
        <time>2018-05-30T12:59:38Z</time>
      </trkpt>
      <trkpt lat="47.88564" lon="-3.50206">
        <ele>21.24</ele>
        <time>2018-05-30T12:59:54Z</time>
      </trkpt>
      <trkpt lat="47.88591" lon="-3.50194">
        <ele>24.36</ele>
        <time>2018-05-30T13:00:13Z</time>
      </trkpt>
      <trkpt lat="47.88596" lon="-3.5019">
        <ele>25.23</ele>
        <time>2018-05-30T13:00:17Z</time>
      </trkpt>
      <trkpt lat="47.88601" lon="-3.50187">
        <ele>26.29</ele>
        <time>2018-05-30T13:00:21Z</time>
      </trkpt>
      <trkpt lat="47.88621" lon="-3.50176">
        <ele>29.59</ele>
        <time>2018-05-30T13:00:35Z</time>
      </trkpt>
      <trkpt lat="47.88635" lon="-3.50168">
        <ele>32.62</ele>
        <time>2018-05-30T13:00:48Z</time>
      </trkpt>
      <trkpt lat="47.88663" lon="-3.5015">
        <ele>35.64</ele>
        <time>2018-05-30T13:01:07Z</time>
      </trkpt>
      <trkpt lat="47.88688" lon="-3.50144">
        <ele>38.64</ele>
        <time>2018-05-30T13:01:25Z</time>
      </trkpt>
      <trkpt lat="47.887" lon="-3.50139">
        <ele>39.67</ele>
        <time>2018-05-30T13:01:36Z</time>
      </trkpt>
      <trkpt lat="47.8873" lon="-3.50131">
        <ele>41.85</ele>
        <time>2018-05-30T13:01:54Z</time>
      </trkpt>
      <trkpt lat="47.88762" lon="-3.50152">
        <ele>44.49</ele>
        <time>2018-05-30T13:02:13Z</time>
      </trkpt>
      <trkpt lat="47.88777" lon="-3.50163">
        <ele>45.18</ele>
        <time>2018-05-30T13:02:20Z</time>
      </trkpt>
      <trkpt lat="47.88786" lon="-3.50168">
        <ele>45.3</ele>
        <time>2018-05-30T13:02:25Z</time>
      </trkpt>
      <trkpt lat="47.8879" lon="-3.50169">
        <ele>45.3</ele>
        <time>2018-05-30T13:02:28Z</time>
      </trkpt>
      <trkpt lat="47.88809" lon="-3.50188">
        <ele>44.69</ele>
        <time>2018-05-30T13:02:46Z</time>
      </trkpt>
      <trkpt lat="47.88812" lon="-3.502">
        <ele>43.17</ele>
        <time>2018-05-30T13:02:53Z</time>
      </trkpt>
      <trkpt lat="47.88815" lon="-3.50221">
        <ele>41.31</ele>
        <time>2018-05-30T13:03:04Z</time>
      </trkpt>
      <trkpt lat="47.8882" lon="-3.50236">
        <ele>40.45</ele>
        <time>2018-05-30T13:03:10Z</time>
      </trkpt>
      <trkpt lat="47.88826" lon="-3.50246">
        <ele>39.69</ele>
        <time>2018-05-30T13:03:14Z</time>
      </trkpt>
      <trkpt lat="47.88832" lon="-3.50256">
        <ele>38.51</ele>
        <time>2018-05-30T13:03:20Z</time>
      </trkpt>
      <trkpt lat="47.88842" lon="-3.50274">
        <ele>35.28</ele>
        <time>2018-05-30T13:03:31Z</time>
      </trkpt>
      <trkpt lat="47.88848" lon="-3.50291">
        <ele>33.97</ele>
        <time>2018-05-30T13:03:40Z</time>
      </trkpt>
      <trkpt lat="47.88851" lon="-3.50301">
        <ele>33.87</ele>
        <time>2018-05-30T13:03:44Z</time>
      </trkpt>
      <trkpt lat="47.88852" lon="-3.50307">
        <ele>34.06</ele>
        <time>2018-05-30T13:03:47Z</time>
      </trkpt>
      <trkpt lat="47.88854" lon="-3.50314">
        <ele>34.56</ele>
        <time>2018-05-30T13:03:52Z</time>
      </trkpt>
      <trkpt lat="47.88853" lon="-3.50348">
        <ele>34.8</ele>
        <time>2018-05-30T13:04:06Z</time>
      </trkpt>
      <trkpt lat="47.88852" lon="-3.50351">
        <ele>34.97</ele>
        <time>2018-05-30T13:04:07Z</time>
      </trkpt>
      <trkpt lat="47.88849" lon="-3.50363">
        <ele>35.75</ele>
        <time>2018-05-30T13:04:10Z</time>
      </trkpt>
      <trkpt lat="47.88843" lon="-3.50385">
        <ele>38.01</ele>
        <time>2018-05-30T13:04:16Z</time>
      </trkpt>
      <trkpt lat="47.88833" lon="-3.50395">
        <ele>41.75</ele>
        <time>2018-05-30T13:04:27Z</time>
      </trkpt>
      <trkpt lat="47.88818" lon="-3.50391">
        <ele>44.86</ele>
        <time>2018-05-30T13:04:38Z</time>
      </trkpt>
      <trkpt lat="47.88814" lon="-3.50396">
        <ele>45.31</ele>
        <time>2018-05-30T13:04:41Z</time>
      </trkpt>
      <trkpt lat="47.88787" lon="-3.50413">
        <ele>47.63</ele>
        <time>2018-05-30T13:05:01Z</time>
      </trkpt>
      <trkpt lat="47.8878" lon="-3.50419">
        <ele>48.23</ele>
        <time>2018-05-30T13:05:08Z</time>
      </trkpt>
      <trkpt lat="47.88781" lon="-3.50437">
        <ele>48.58</ele>
        <time>2018-05-30T13:05:18Z</time>
      </trkpt>
      <trkpt lat="47.88785" lon="-3.50456">
        <ele>48.82</ele>
        <time>2018-05-30T13:05:29Z</time>
      </trkpt>
      <trkpt lat="47.88791" lon="-3.50482">
        <ele>48.41</ele>
        <time>2018-05-30T13:05:42Z</time>
      </trkpt>
      <trkpt lat="47.88793" lon="-3.50485">
        <ele>48.34</ele>
        <time>2018-05-30T13:05:44Z</time>
      </trkpt>
      <trkpt lat="47.88795" lon="-3.50502">
        <ele>47.2</ele>
        <time>2018-05-30T13:05:56Z</time>
      </trkpt>
      <trkpt lat="47.88803" lon="-3.50558">
        <ele>44.76</ele>
        <time>2018-05-30T13:06:15Z</time>
      </trkpt>
      <trkpt lat="47.88806" lon="-3.5058">
        <ele>44.29</ele>
        <time>2018-05-30T13:06:22Z</time>
      </trkpt>
      <trkpt lat="47.88811" lon="-3.50605">
        <ele>43.87</ele>
        <time>2018-05-30T13:06:32Z</time>
      </trkpt>
      <trkpt lat="47.88815" lon="-3.50614">
        <ele>43.7</ele>
        <time>2018-05-30T13:06:37Z</time>
      </trkpt>
      <trkpt lat="47.88828" lon="-3.50633">
        <ele>43.8</ele>
        <time>2018-05-30T13:06:48Z</time>
      </trkpt>
      <trkpt lat="47.88835" lon="-3.50639">
        <ele>43.87</ele>
        <time>2018-05-30T13:06:52Z</time>
      </trkpt>
      <trkpt lat="47.88849" lon="-3.50642">
        <ele>43.78</ele>
        <time>2018-05-30T13:07:01Z</time>
      </trkpt>
      <trkpt lat="47.88872" lon="-3.50644">
        <ele>44.15</ele>
        <time>2018-05-30T13:07:14Z</time>
      </trkpt>
      <trkpt lat="47.88889" lon="-3.50642">
        <ele>45.35</ele>
        <time>2018-05-30T13:07:25Z</time>
      </trkpt>
      <trkpt lat="47.88891" lon="-3.50642">
        <ele>45.46</ele>
        <time>2018-05-30T13:07:26Z</time>
      </trkpt>
      <trkpt lat="47.88893" lon="-3.50642">
        <ele>45.57</ele>
        <time>2018-05-30T13:07:27Z</time>
      </trkpt>
      <trkpt lat="47.88894" lon="-3.50642">
        <ele>45.66</ele>
        <time>2018-05-30T13:07:28Z</time>
      </trkpt>
      <trkpt lat="47.88896" lon="-3.50642">
        <ele>45.73</ele>
        <time>2018-05-30T13:07:29Z</time>
      </trkpt>
      <trkpt lat="47.88898" lon="-3.50641">
        <ele>45.8</ele>
        <time>2018-05-30T13:07:30Z</time>
      </trkpt>
      <trkpt lat="47.88899" lon="-3.50641">
        <ele>45.87</ele>
        <time>2018-05-30T13:07:31Z</time>
      </trkpt>
      <trkpt lat="47.889" lon="-3.5064">
        <ele>45.99</ele>
        <time>2018-05-30T13:07:32Z</time>
      </trkpt>
      <trkpt lat="47.88902" lon="-3.5064">
        <ele>46.06</ele>
        <time>2018-05-30T13:07:33Z</time>
      </trkpt>
      <trkpt lat="47.88923" lon="-3.50637">
        <ele>47.48</ele>
        <time>2018-05-30T13:07:46Z</time>
      </trkpt>
      <trkpt lat="47.88925" lon="-3.50637">
        <ele>47.58</ele>
        <time>2018-05-30T13:07:47Z</time>
      </trkpt>
      <trkpt lat="47.88927" lon="-3.50637">
        <ele>47.67</ele>
        <time>2018-05-30T13:07:48Z</time>
      </trkpt>
      <trkpt lat="47.88928" lon="-3.50638">
        <ele>47.73</ele>
        <time>2018-05-30T13:07:49Z</time>
      </trkpt>
      <trkpt lat="47.8893" lon="-3.50638">
        <ele>47.79</ele>
        <time>2018-05-30T13:07:50Z</time>
      </trkpt>
      <trkpt lat="47.88955" lon="-3.50636">
        <ele>48.89</ele>
        <time>2018-05-30T13:08:05Z</time>
      </trkpt>
      <trkpt lat="47.88962" lon="-3.50634">
        <ele>49.35</ele>
        <time>2018-05-30T13:08:09Z</time>
      </trkpt>
      <trkpt lat="47.88964" lon="-3.50635">
        <ele>49.48</ele>
        <time>2018-05-30T13:08:10Z</time>
      </trkpt>
      <trkpt lat="47.88991" lon="-3.50634">
        <ele>51.13</ele>
        <time>2018-05-30T13:08:25Z</time>
      </trkpt>
      <trkpt lat="47.89013" lon="-3.5064">
        <ele>52.39</ele>
        <time>2018-05-30T13:08:38Z</time>
      </trkpt>
      <trkpt lat="47.89039" lon="-3.50649">
        <ele>53.35</ele>
        <time>2018-05-30T13:08:52Z</time>
      </trkpt>
      <trkpt lat="47.8904" lon="-3.5065">
        <ele>53.42</ele>
        <time>2018-05-30T13:08:53Z</time>
      </trkpt>
      <trkpt lat="47.89045" lon="-3.50652">
        <ele>53.66</ele>
        <time>2018-05-30T13:08:57Z</time>
      </trkpt>
      <trkpt lat="47.89049" lon="-3.50657">
        <ele>54.13</ele>
        <time>2018-05-30T13:09:03Z</time>
      </trkpt>
      <trkpt lat="47.89052" lon="-3.50652">
        <ele>53.87</ele>
        <time>2018-05-30T13:09:21Z</time>
      </trkpt>
      <trkpt lat="47.89058" lon="-3.50648">
        <ele>53.7</ele>
        <time>2018-05-30T13:09:47Z</time>
      </trkpt>
      <trkpt lat="47.89064" lon="-3.50653">
        <ele>54.29</ele>
        <time>2018-05-30T13:10:08Z</time>
      </trkpt>
      <trkpt lat="47.89067" lon="-3.50653">
        <ele>53.95</ele>
        <time>2018-05-30T13:10:36Z</time>
      </trkpt>
      <trkpt lat="47.89072" lon="-3.50657">
        <ele>54.33</ele>
        <time>2018-05-30T13:10:57Z</time>
      </trkpt>
      <trkpt lat="47.89087" lon="-3.50665">
        <ele>54.64</ele>
        <time>2018-05-30T13:11:17Z</time>
      </trkpt>
      <trkpt lat="47.89097" lon="-3.50669">
        <ele>55.02</ele>
        <time>2018-05-30T13:11:25Z</time>
      </trkpt>
      <trkpt lat="47.89098" lon="-3.50672">
        <ele>55.09</ele>
        <time>2018-05-30T13:11:27Z</time>
      </trkpt>
      <trkpt lat="47.891" lon="-3.50673">
        <ele>55.12</ele>
        <time>2018-05-30T13:11:28Z</time>
      </trkpt>
      <trkpt lat="47.89108" lon="-3.5068">
        <ele>55.49</ele>
        <time>2018-05-30T13:11:36Z</time>
      </trkpt>
      <trkpt lat="47.89109" lon="-3.5068">
        <ele>55.57</ele>
        <time>2018-05-30T13:11:37Z</time>
      </trkpt>
      <trkpt lat="47.89121" lon="-3.50681">
        <ele>56.5</ele>
        <time>2018-05-30T13:11:45Z</time>
      </trkpt>
      <trkpt lat="47.89145" lon="-3.50694">
        <ele>57.88</ele>
        <time>2018-05-30T13:12:01Z</time>
      </trkpt>
      <trkpt lat="47.89168" lon="-3.50709">
        <ele>58.36</ele>
        <time>2018-05-30T13:12:19Z</time>
      </trkpt>
      <trkpt lat="47.89177" lon="-3.50718">
        <ele>57.25</ele>
        <time>2018-05-30T13:12:27Z</time>
      </trkpt>
      <trkpt lat="47.89179" lon="-3.50718">
        <ele>57.14</ele>
        <time>2018-05-30T13:12:28Z</time>
      </trkpt>
      <trkpt lat="47.89182" lon="-3.50721">
        <ele>57.05</ele>
        <time>2018-05-30T13:12:29Z</time>
      </trkpt>
      <trkpt lat="47.89185" lon="-3.50722">
        <ele>56.99</ele>
        <time>2018-05-30T13:12:30Z</time>
      </trkpt>
      <trkpt lat="47.89188" lon="-3.50725">
        <ele>56.93</ele>
        <time>2018-05-30T13:12:31Z</time>
      </trkpt>
      <trkpt lat="47.8919" lon="-3.50726">
        <ele>56.87</ele>
        <time>2018-05-30T13:12:32Z</time>
      </trkpt>
      <trkpt lat="47.89192" lon="-3.50728">
        <ele>56.82</ele>
        <time>2018-05-30T13:12:33Z</time>
      </trkpt>
      <trkpt lat="47.89194" lon="-3.5073">
        <ele>56.78</ele>
        <time>2018-05-30T13:12:34Z</time>
      </trkpt>
      <trkpt lat="47.89198" lon="-3.50731">
        <ele>56.72</ele>
        <time>2018-05-30T13:12:36Z</time>
      </trkpt>
      <trkpt lat="47.892" lon="-3.50732">
        <ele>56.7</ele>
        <time>2018-05-30T13:12:37Z</time>
      </trkpt>
      <trkpt lat="47.89201" lon="-3.50733">
        <ele>56.72</ele>
        <time>2018-05-30T13:12:38Z</time>
      </trkpt>
      <trkpt lat="47.89203" lon="-3.50737">
        <ele>56.77</ele>
        <time>2018-05-30T13:12:39Z</time>
      </trkpt>
      <trkpt lat="47.89209" lon="-3.50739">
        <ele>56.85</ele>
        <time>2018-05-30T13:12:43Z</time>
      </trkpt>
      <trkpt lat="47.8921" lon="-3.5074">
        <ele>56.84</ele>
        <time>2018-05-30T13:12:44Z</time>
      </trkpt>
      <trkpt lat="47.8922" lon="-3.50737">
        <ele>57.19</ele>
        <time>2018-05-30T13:12:53Z</time>
      </trkpt>
      <trkpt lat="47.89246" lon="-3.50748">
        <ele>58.25</ele>
        <time>2018-05-30T13:13:07Z</time>
      </trkpt>
      <trkpt lat="47.89268" lon="-3.50756">
        <ele>58.84</ele>
        <time>2018-05-30T13:13:17Z</time>
      </trkpt>
      <trkpt lat="47.89297" lon="-3.50767">
        <ele>59.49</ele>
        <time>2018-05-30T13:13:35Z</time>
      </trkpt>
      <trkpt lat="47.8932" lon="-3.50776">
        <ele>59.72</ele>
        <time>2018-05-30T13:13:50Z</time>
      </trkpt>
      <trkpt lat="47.8932" lon="-3.50775">
        <ele>59.74</ele>
        <time>2018-05-30T13:13:51Z</time>
      </trkpt>
      <trkpt lat="47.89331" lon="-3.50768">
        <ele>61.21</ele>
        <time>2018-05-30T13:14:02Z</time>
      </trkpt>
      <trkpt lat="47.89355" lon="-3.5077">
        <ele>62.01</ele>
        <time>2018-05-30T13:14:15Z</time>
      </trkpt>
      <trkpt lat="47.89374" lon="-3.50778">
        <ele>62.45</ele>
        <time>2018-05-30T13:14:29Z</time>
      </trkpt>
      <trkpt lat="47.89382" lon="-3.5078">
        <ele>62.56</ele>
        <time>2018-05-30T13:14:33Z</time>
      </trkpt>
      <trkpt lat="47.89395" lon="-3.50787">
        <ele>63.36</ele>
        <time>2018-05-30T13:14:44Z</time>
      </trkpt>
      <trkpt lat="47.89417" lon="-3.50795">
        <ele>64.57</ele>
        <time>2018-05-30T13:14:57Z</time>
      </trkpt>
      <trkpt lat="47.89438" lon="-3.50805">
        <ele>65.53</ele>
        <time>2018-05-30T13:15:11Z</time>
      </trkpt>
      <trkpt lat="47.89456" lon="-3.50812">
        <ele>66.34</ele>
        <time>2018-05-30T13:15:25Z</time>
      </trkpt>
      <trkpt lat="47.89458" lon="-3.50813">
        <ele>66.39</ele>
        <time>2018-05-30T13:15:26Z</time>
      </trkpt>
      <trkpt lat="47.8947" lon="-3.50819">
        <ele>66.95</ele>
        <time>2018-05-30T13:15:34Z</time>
      </trkpt>
      <trkpt lat="47.89487" lon="-3.50824">
        <ele>67.32</ele>
        <time>2018-05-30T13:15:41Z</time>
      </trkpt>
      <trkpt lat="47.89495" lon="-3.50826">
        <ele>67.98</ele>
        <time>2018-05-30T13:15:46Z</time>
      </trkpt>
      <trkpt lat="47.89504" lon="-3.50802">
        <ele>69.14</ele>
        <time>2018-05-30T13:15:59Z</time>
      </trkpt>
      <trkpt lat="47.89504" lon="-3.50791">
        <ele>69.45</ele>
        <time>2018-05-30T13:16:04Z</time>
      </trkpt>
      <trkpt lat="47.89508" lon="-3.50779">
        <ele>70.17</ele>
        <time>2018-05-30T13:16:12Z</time>
      </trkpt>
      <trkpt lat="47.89504" lon="-3.50758">
        <ele>71.29</ele>
        <time>2018-05-30T13:16:27Z</time>
      </trkpt>
      <trkpt lat="47.89503" lon="-3.50751">
        <ele>71.73</ele>
        <time>2018-05-30T13:16:30Z</time>
      </trkpt>
      <trkpt lat="47.89501" lon="-3.50738">
        <ele>72.01</ele>
        <time>2018-05-30T13:16:34Z</time>
      </trkpt>
      <trkpt lat="47.89499" lon="-3.50728">
        <ele>72.28</ele>
        <time>2018-05-30T13:16:39Z</time>
      </trkpt>
      <trkpt lat="47.89497" lon="-3.50711">
        <ele>72.77</ele>
        <time>2018-05-30T13:16:46Z</time>
      </trkpt>
      <trkpt lat="47.89499" lon="-3.50706">
        <ele>73</ele>
        <time>2018-05-30T13:16:49Z</time>
      </trkpt>
      <trkpt lat="47.89506" lon="-3.50696">
        <ele>73.28</ele>
        <time>2018-05-30T13:16:55Z</time>
      </trkpt>
      <trkpt lat="47.89527" lon="-3.50685">
        <ele>74.28</ele>
        <time>2018-05-30T13:17:10Z</time>
      </trkpt>
      <trkpt lat="47.89549" lon="-3.50684">
        <ele>74.77</ele>
        <time>2018-05-30T13:17:23Z</time>
      </trkpt>
      <trkpt lat="47.89563" lon="-3.50691">
        <ele>74.81</ele>
        <time>2018-05-30T13:17:32Z</time>
      </trkpt>
      <trkpt lat="47.89569" lon="-3.50698">
        <ele>74.99</ele>
        <time>2018-05-30T13:17:36Z</time>
      </trkpt>
      <trkpt lat="47.89588" lon="-3.50714">
        <ele>75.28</ele>
        <time>2018-05-30T13:17:49Z</time>
      </trkpt>
      <trkpt lat="47.89609" lon="-3.50734">
        <ele>75.69</ele>
        <time>2018-05-30T13:18:03Z</time>
      </trkpt>
      <trkpt lat="47.89631" lon="-3.50748">
        <ele>75.5</ele>
        <time>2018-05-30T13:18:17Z</time>
      </trkpt>
      <trkpt lat="47.8965" lon="-3.50779">
        <ele>75.61</ele>
        <time>2018-05-30T13:18:36Z</time>
      </trkpt>
      <trkpt lat="47.89641" lon="-3.50803">
        <ele>74.73</ele>
        <time>2018-05-30T13:18:47Z</time>
      </trkpt>
      <trkpt lat="47.8963" lon="-3.50847">
        <ele>74.99</ele>
        <time>2018-05-30T13:19:05Z</time>
      </trkpt>
      <trkpt lat="47.8963" lon="-3.50899">
        <ele>75.75</ele>
        <time>2018-05-30T13:19:27Z</time>
      </trkpt>
      <trkpt lat="47.8963" lon="-3.5094">
        <ele>76.65</ele>
        <time>2018-05-30T13:19:43Z</time>
      </trkpt>
      <trkpt lat="47.8963" lon="-3.50986">
        <ele>77.94</ele>
        <time>2018-05-30T13:20:02Z</time>
      </trkpt>
      <trkpt lat="47.89626" lon="-3.51023">
        <ele>79.29</ele>
        <time>2018-05-30T13:20:17Z</time>
      </trkpt>
      <trkpt lat="47.89618" lon="-3.51056">
        <ele>80.03</ele>
        <time>2018-05-30T13:20:31Z</time>
      </trkpt>
      <trkpt lat="47.89601" lon="-3.51089">
        <ele>80.51</ele>
        <time>2018-05-30T13:20:47Z</time>
      </trkpt>
      <trkpt lat="47.89585" lon="-3.51124">
        <ele>81.03</ele>
        <time>2018-05-30T13:21:02Z</time>
      </trkpt>
      <trkpt lat="47.89567" lon="-3.51166">
        <ele>81.62</ele>
        <time>2018-05-30T13:21:23Z</time>
      </trkpt>
      <trkpt lat="47.89562" lon="-3.51214">
        <ele>81.19</ele>
        <time>2018-05-30T13:21:43Z</time>
      </trkpt>
      <trkpt lat="47.89567" lon="-3.51263">
        <ele>81.26</ele>
        <time>2018-05-30T13:22:02Z</time>
      </trkpt>
      <trkpt lat="47.89577" lon="-3.51318">
        <ele>80.71</ele>
        <time>2018-05-30T13:22:24Z</time>
      </trkpt>
      <trkpt lat="47.89586" lon="-3.51374">
        <ele>79.8</ele>
        <time>2018-05-30T13:22:46Z</time>
      </trkpt>
      <trkpt lat="47.89597" lon="-3.51423">
        <ele>79.22</ele>
        <time>2018-05-30T13:23:06Z</time>
      </trkpt>
      <trkpt lat="47.89607" lon="-3.5147">
        <ele>79.16</ele>
        <time>2018-05-30T13:23:26Z</time>
      </trkpt>
      <trkpt lat="47.89619" lon="-3.5151">
        <ele>79.26</ele>
        <time>2018-05-30T13:23:43Z</time>
      </trkpt>
      <trkpt lat="47.89641" lon="-3.51514">
        <ele>79.01</ele>
        <time>2018-05-30T13:23:58Z</time>
      </trkpt>
      <trkpt lat="47.89673" lon="-3.51507">
        <ele>78.52</ele>
        <time>2018-05-30T13:24:17Z</time>
      </trkpt>
      <trkpt lat="47.897" lon="-3.51502">
        <ele>78.15</ele>
        <time>2018-05-30T13:24:32Z</time>
      </trkpt>
      <trkpt lat="47.89719" lon="-3.51498">
        <ele>77.91</ele>
        <time>2018-05-30T13:24:49Z</time>
      </trkpt>
      <trkpt lat="47.89722" lon="-3.51498">
        <ele>77.71</ele>
        <time>2018-05-30T13:24:54Z</time>
      </trkpt>
      <trkpt lat="47.89724" lon="-3.51498">
        <ele>77.68</ele>
        <time>2018-05-30T13:24:55Z</time>
      </trkpt>
      <trkpt lat="47.89725" lon="-3.51498">
        <ele>77.64</ele>
        <time>2018-05-30T13:24:56Z</time>
      </trkpt>
      <trkpt lat="47.89727" lon="-3.51497">
        <ele>77.6</ele>
        <time>2018-05-30T13:24:57Z</time>
      </trkpt>
      <trkpt lat="47.89728" lon="-3.51497">
        <ele>77.55</ele>
        <time>2018-05-30T13:24:58Z</time>
      </trkpt>
      <trkpt lat="47.8975" lon="-3.51488">
        <ele>76.96</ele>
        <time>2018-05-30T13:25:16Z</time>
      </trkpt>
      <trkpt lat="47.89769" lon="-3.51477">
        <ele>76.22</ele>
        <time>2018-05-30T13:25:29Z</time>
      </trkpt>
      <trkpt lat="47.89788" lon="-3.51465">
        <ele>74.89</ele>
        <time>2018-05-30T13:25:42Z</time>
      </trkpt>
      <trkpt lat="47.89789" lon="-3.51464">
        <ele>74.86</ele>
        <time>2018-05-30T13:25:43Z</time>
      </trkpt>
      <trkpt lat="47.8979" lon="-3.51463">
        <ele>74.82</ele>
        <time>2018-05-30T13:25:44Z</time>
      </trkpt>
      <trkpt lat="47.89791" lon="-3.51463">
        <ele>74.72</ele>
        <time>2018-05-30T13:25:45Z</time>
      </trkpt>
      <trkpt lat="47.89793" lon="-3.51462">
        <ele>74.64</ele>
        <time>2018-05-30T13:25:46Z</time>
      </trkpt>
      <trkpt lat="47.89794" lon="-3.51461">
        <ele>74.58</ele>
        <time>2018-05-30T13:25:47Z</time>
      </trkpt>
      <trkpt lat="47.89817" lon="-3.51456">
        <ele>73.87</ele>
        <time>2018-05-30T13:26:03Z</time>
      </trkpt>
      <trkpt lat="47.8984" lon="-3.51461">
        <ele>73.09</ele>
        <time>2018-05-30T13:26:16Z</time>
      </trkpt>
      <trkpt lat="47.89864" lon="-3.51478">
        <ele>71.37</ele>
        <time>2018-05-30T13:26:33Z</time>
      </trkpt>
      <trkpt lat="47.89882" lon="-3.5148">
        <ele>68.76</ele>
        <time>2018-05-30T13:26:47Z</time>
      </trkpt>
      <trkpt lat="47.89902" lon="-3.51483">
        <ele>65.76</ele>
        <time>2018-05-30T13:27:01Z</time>
      </trkpt>
      <trkpt lat="47.89927" lon="-3.51492">
        <ele>63.75</ele>
        <time>2018-05-30T13:27:15Z</time>
      </trkpt>
      <trkpt lat="47.89952" lon="-3.51501">
        <ele>61.35</ele>
        <time>2018-05-30T13:27:35Z</time>
      </trkpt>
      <trkpt lat="47.8996" lon="-3.51497">
        <ele>60.1</ele>
        <time>2018-05-30T13:27:41Z</time>
      </trkpt>
      <trkpt lat="47.89989" lon="-3.51473">
        <ele>59.1</ele>
        <time>2018-05-30T13:27:57Z</time>
      </trkpt>
      <trkpt lat="47.89995" lon="-3.51464">
        <ele>58.85</ele>
        <time>2018-05-30T13:28:03Z</time>
      </trkpt>
      <trkpt lat="47.90005" lon="-3.51455">
        <ele>58.83</ele>
        <time>2018-05-30T13:28:08Z</time>
      </trkpt>
      <trkpt lat="47.9001" lon="-3.51447">
        <ele>58.65</ele>
        <time>2018-05-30T13:28:12Z</time>
      </trkpt>
      <trkpt lat="47.90014" lon="-3.51437">
        <ele>58.29</ele>
        <time>2018-05-30T13:28:17Z</time>
      </trkpt>
      <trkpt lat="47.90021" lon="-3.51424">
        <ele>57.82</ele>
        <time>2018-05-30T13:28:24Z</time>
      </trkpt>
      <trkpt lat="47.90032" lon="-3.51416">
        <ele>57.3</ele>
        <time>2018-05-30T13:28:31Z</time>
      </trkpt>
      <trkpt lat="47.90037" lon="-3.51405">
        <ele>56.76</ele>
        <time>2018-05-30T13:28:36Z</time>
      </trkpt>
      <trkpt lat="47.90044" lon="-3.51394">
        <ele>56.19</ele>
        <time>2018-05-30T13:28:42Z</time>
      </trkpt>
      <trkpt lat="47.9005" lon="-3.5138">
        <ele>55.76</ele>
        <time>2018-05-30T13:28:49Z</time>
      </trkpt>
      <trkpt lat="47.90058" lon="-3.51359">
        <ele>54.95</ele>
        <time>2018-05-30T13:29:03Z</time>
      </trkpt>
      <trkpt lat="47.90052" lon="-3.51313">
        <ele>54.75</ele>
        <time>2018-05-30T13:29:20Z</time>
      </trkpt>
      <trkpt lat="47.90052" lon="-3.51301">
        <ele>54.58</ele>
        <time>2018-05-30T13:29:25Z</time>
      </trkpt>
      <trkpt lat="47.90051" lon="-3.51284">
        <ele>54.59</ele>
        <time>2018-05-30T13:29:31Z</time>
      </trkpt>
      <trkpt lat="47.90049" lon="-3.51264">
        <ele>54.64</ele>
        <time>2018-05-30T13:29:39Z</time>
      </trkpt>
      <trkpt lat="47.90047" lon="-3.51239">
        <ele>55.07</ele>
        <time>2018-05-30T13:29:49Z</time>
      </trkpt>
      <trkpt lat="47.90045" lon="-3.51228">
        <ele>55.33</ele>
        <time>2018-05-30T13:29:55Z</time>
      </trkpt>
      <trkpt lat="47.90042" lon="-3.51219">
        <ele>55.71</ele>
        <time>2018-05-30T13:29:59Z</time>
      </trkpt>
      <trkpt lat="47.90042" lon="-3.51203">
        <ele>56.24</ele>
        <time>2018-05-30T13:30:07Z</time>
      </trkpt>
      <trkpt lat="47.90049" lon="-3.51185">
        <ele>58.22</ele>
        <time>2018-05-30T13:30:23Z</time>
      </trkpt>
      <trkpt lat="47.90053" lon="-3.51166">
        <ele>59.91</ele>
        <time>2018-05-30T13:30:35Z</time>
      </trkpt>
      <trkpt lat="47.90057" lon="-3.51112">
        <ele>61.96</ele>
        <time>2018-05-30T13:30:57Z</time>
      </trkpt>
      <trkpt lat="47.90055" lon="-3.51091">
        <ele>61.9</ele>
        <time>2018-05-30T13:31:02Z</time>
      </trkpt>
      <trkpt lat="47.90055" lon="-3.51047">
        <ele>61.7</ele>
        <time>2018-05-30T13:31:14Z</time>
      </trkpt>
      <trkpt lat="47.90058" lon="-3.51006">
        <ele>61.02</ele>
        <time>2018-05-30T13:31:28Z</time>
      </trkpt>
      <trkpt lat="47.90067" lon="-3.50974">
        <ele>59.42</ele>
        <time>2018-05-30T13:31:44Z</time>
      </trkpt>
      <trkpt lat="47.90072" lon="-3.50949">
        <ele>58.54</ele>
        <time>2018-05-30T13:31:54Z</time>
      </trkpt>
      <trkpt lat="47.90075" lon="-3.50941">
        <ele>58.27</ele>
        <time>2018-05-30T13:31:58Z</time>
      </trkpt>
      <trkpt lat="47.90083" lon="-3.50913">
        <ele>57.62</ele>
        <time>2018-05-30T13:32:12Z</time>
      </trkpt>
      <trkpt lat="47.90086" lon="-3.50895">
        <ele>57.37</ele>
        <time>2018-05-30T13:32:20Z</time>
      </trkpt>
      <trkpt lat="47.90087" lon="-3.5089">
        <ele>57.32</ele>
        <time>2018-05-30T13:32:22Z</time>
      </trkpt>
      <trkpt lat="47.90091" lon="-3.50873">
        <ele>57.05</ele>
        <time>2018-05-30T13:32:30Z</time>
      </trkpt>
      <trkpt lat="47.90097" lon="-3.50833">
        <ele>56.86</ele>
        <time>2018-05-30T13:32:45Z</time>
      </trkpt>
      <trkpt lat="47.90098" lon="-3.50829">
        <ele>56.87</ele>
        <time>2018-05-30T13:32:47Z</time>
      </trkpt>
      <trkpt lat="47.90103" lon="-3.50802">
        <ele>57.02</ele>
        <time>2018-05-30T13:33:00Z</time>
      </trkpt>
      <trkpt lat="47.90104" lon="-3.50773">
        <ele>58.05</ele>
        <time>2018-05-30T13:33:14Z</time>
      </trkpt>
      <trkpt lat="47.90104" lon="-3.50767">
        <ele>58.53</ele>
        <time>2018-05-30T13:33:17Z</time>
      </trkpt>
      <trkpt lat="47.90106" lon="-3.50735">
        <ele>58.98</ele>
        <time>2018-05-30T13:33:26Z</time>
      </trkpt>
      <trkpt lat="47.90105" lon="-3.50686">
        <ele>60.41</ele>
        <time>2018-05-30T13:33:43Z</time>
      </trkpt>
      <trkpt lat="47.90104" lon="-3.50656">
        <ele>60.46</ele>
        <time>2018-05-30T13:33:55Z</time>
      </trkpt>
      <trkpt lat="47.90102" lon="-3.5065">
        <ele>60.75</ele>
        <time>2018-05-30T13:33:59Z</time>
      </trkpt>
      <trkpt lat="47.90097" lon="-3.50616">
        <ele>60.57</ele>
        <time>2018-05-30T13:34:12Z</time>
      </trkpt>
      <trkpt lat="47.90096" lon="-3.50576">
        <ele>60.53</ele>
        <time>2018-05-30T13:34:27Z</time>
      </trkpt>
      <trkpt lat="47.90095" lon="-3.50542">
        <ele>60.11</ele>
        <time>2018-05-30T13:34:41Z</time>
      </trkpt>
      <trkpt lat="47.90096" lon="-3.50525">
        <ele>59.91</ele>
        <time>2018-05-30T13:34:55Z</time>
      </trkpt>
      <trkpt lat="47.90095" lon="-3.50494">
        <ele>57.71</ele>
        <time>2018-05-30T13:35:16Z</time>
      </trkpt>
      <trkpt lat="47.90088" lon="-3.5047">
        <ele>55.52</ele>
        <time>2018-05-30T13:35:32Z</time>
      </trkpt>
      <trkpt lat="47.90078" lon="-3.50455">
        <ele>53.62</ele>
        <time>2018-05-30T13:35:42Z</time>
      </trkpt>
      <trkpt lat="47.90066" lon="-3.50439">
        <ele>50.29</ele>
        <time>2018-05-30T13:35:58Z</time>
      </trkpt>
      <trkpt lat="47.90058" lon="-3.50416">
        <ele>47.12</ele>
        <time>2018-05-30T13:36:12Z</time>
      </trkpt>
      <trkpt lat="47.90053" lon="-3.50397">
        <ele>44.8</ele>
        <time>2018-05-30T13:36:23Z</time>
      </trkpt>
      <trkpt lat="47.90047" lon="-3.50346">
        <ele>42</ele>
        <time>2018-05-30T13:36:42Z</time>
      </trkpt>
      <trkpt lat="47.90051" lon="-3.50318">
        <ele>40.9</ele>
        <time>2018-05-30T13:36:53Z</time>
      </trkpt>
      <trkpt lat="47.90052" lon="-3.50303">
        <ele>40.67</ele>
        <time>2018-05-30T13:36:57Z</time>
      </trkpt>
      <trkpt lat="47.90055" lon="-3.50293">
        <ele>40.51</ele>
        <time>2018-05-30T13:37:00Z</time>
      </trkpt>
      <trkpt lat="47.90056" lon="-3.50276">
        <ele>39.98</ele>
        <time>2018-05-30T13:37:11Z</time>
      </trkpt>
      <trkpt lat="47.90051" lon="-3.50262">
        <ele>40.18</ele>
        <time>2018-05-30T13:37:30Z</time>
      </trkpt>
      <trkpt lat="47.90036" lon="-3.50249">
        <ele>43.29</ele>
        <time>2018-05-30T13:37:49Z</time>
      </trkpt>
      <trkpt lat="47.90022" lon="-3.50223">
        <ele>44.05</ele>
        <time>2018-05-30T13:38:04Z</time>
      </trkpt>
      <trkpt lat="47.9" lon="-3.50204">
        <ele>43.2</ele>
        <time>2018-05-30T13:38:17Z</time>
      </trkpt>
      <trkpt lat="47.89991" lon="-3.50189">
        <ele>42.24</ele>
        <time>2018-05-30T13:38:25Z</time>
      </trkpt>
      <trkpt lat="47.89979" lon="-3.50168">
        <ele>42.47</ele>
        <time>2018-05-30T13:38:39Z</time>
      </trkpt>
      <trkpt lat="47.89965" lon="-3.50154">
        <ele>42.67</ele>
        <time>2018-05-30T13:38:52Z</time>
      </trkpt>
      <trkpt lat="47.89948" lon="-3.50131">
        <ele>43.15</ele>
        <time>2018-05-30T13:39:02Z</time>
      </trkpt>
      <trkpt lat="47.89944" lon="-3.50122">
        <ele>43.01</ele>
        <time>2018-05-30T13:39:12Z</time>
      </trkpt>
      <trkpt lat="47.89942" lon="-3.5012">
        <ele>42.96</ele>
        <time>2018-05-30T13:39:14Z</time>
      </trkpt>
      <trkpt lat="47.89927" lon="-3.50113">
        <ele>44.27</ele>
        <time>2018-05-30T13:39:30Z</time>
      </trkpt>
      <trkpt lat="47.89912" lon="-3.50102">
        <ele>45.31</ele>
        <time>2018-05-30T13:39:41Z</time>
      </trkpt>
      <trkpt lat="47.89891" lon="-3.50072">
        <ele>46.33</ele>
        <time>2018-05-30T13:40:01Z</time>
      </trkpt>
      <trkpt lat="47.89891" lon="-3.50069">
        <ele>46.36</ele>
        <time>2018-05-30T13:40:02Z</time>
      </trkpt>
      <trkpt lat="47.89898" lon="-3.50067">
        <ele>47.3</ele>
        <time>2018-05-30T13:40:14Z</time>
      </trkpt>
      <trkpt lat="47.89917" lon="-3.50063">
        <ele>47.56</ele>
        <time>2018-05-30T13:40:35Z</time>
      </trkpt>
      <trkpt lat="47.89947" lon="-3.50064">
        <ele>47.77</ele>
        <time>2018-05-30T13:40:51Z</time>
      </trkpt>
      <trkpt lat="47.89958" lon="-3.50059">
        <ele>48.62</ele>
        <time>2018-05-30T13:41:04Z</time>
      </trkpt>
      <trkpt lat="47.89966" lon="-3.50053">
        <ele>49.64</ele>
        <time>2018-05-30T13:41:10Z</time>
      </trkpt>
      <trkpt lat="47.89982" lon="-3.50048">
        <ele>50.9</ele>
        <time>2018-05-30T13:41:18Z</time>
      </trkpt>
      <trkpt lat="47.90007" lon="-3.50043">
        <ele>53.67</ele>
        <time>2018-05-30T13:41:34Z</time>
      </trkpt>
      <trkpt lat="47.90013" lon="-3.5004">
        <ele>54.4</ele>
        <time>2018-05-30T13:41:37Z</time>
      </trkpt>
      <trkpt lat="47.90024" lon="-3.50031">
        <ele>55.09</ele>
        <time>2018-05-30T13:41:42Z</time>
      </trkpt>
      <trkpt lat="47.90054" lon="-3.5">
        <ele>57.21</ele>
        <time>2018-05-30T13:42:00Z</time>
      </trkpt>
      <trkpt lat="47.90065" lon="-3.49995">
        <ele>57.22</ele>
        <time>2018-05-30T13:42:05Z</time>
      </trkpt>
      <trkpt lat="47.90092" lon="-3.49981">
        <ele>57.3</ele>
        <time>2018-05-30T13:42:19Z</time>
      </trkpt>
      <trkpt lat="47.90105" lon="-3.49967">
        <ele>56.43</ele>
        <time>2018-05-30T13:42:31Z</time>
      </trkpt>
      <trkpt lat="47.90107" lon="-3.49958">
        <ele>55.98</ele>
        <time>2018-05-30T13:42:36Z</time>
      </trkpt>
      <trkpt lat="47.90111" lon="-3.49941">
        <ele>55.33</ele>
        <time>2018-05-30T13:42:45Z</time>
      </trkpt>
      <trkpt lat="47.90114" lon="-3.49933">
        <ele>54.84</ele>
        <time>2018-05-30T13:42:50Z</time>
      </trkpt>
      <trkpt lat="47.90118" lon="-3.49928">
        <ele>54.5</ele>
        <time>2018-05-30T13:42:54Z</time>
      </trkpt>
      <trkpt lat="47.90125" lon="-3.49921">
        <ele>53.85</ele>
        <time>2018-05-30T13:43:01Z</time>
      </trkpt>
      <trkpt lat="47.90131" lon="-3.49918">
        <ele>53.35</ele>
        <time>2018-05-30T13:43:05Z</time>
      </trkpt>
      <trkpt lat="47.90141" lon="-3.49918">
        <ele>52.85</ele>
        <time>2018-05-30T13:43:10Z</time>
      </trkpt>
      <trkpt lat="47.90167" lon="-3.49928">
        <ele>52.51</ele>
        <time>2018-05-30T13:43:23Z</time>
      </trkpt>
      <trkpt lat="47.9017" lon="-3.49929">
        <ele>52.51</ele>
        <time>2018-05-30T13:43:25Z</time>
      </trkpt>
      <trkpt lat="47.90185" lon="-3.4994">
        <ele>52.21</ele>
        <time>2018-05-30T13:43:37Z</time>
      </trkpt>
      <trkpt lat="47.90191" lon="-3.49946">
        <ele>52.36</ele>
        <time>2018-05-30T13:43:42Z</time>
      </trkpt>
      <trkpt lat="47.90211" lon="-3.49963">
        <ele>53.05</ele>
        <time>2018-05-30T13:43:57Z</time>
      </trkpt>
      <trkpt lat="47.90218" lon="-3.49968">
        <ele>53.27</ele>
        <time>2018-05-30T13:44:02Z</time>
      </trkpt>
      <trkpt lat="47.90222" lon="-3.49973">
        <ele>53.44</ele>
        <time>2018-05-30T13:44:05Z</time>
      </trkpt>
      <trkpt lat="47.90227" lon="-3.4998">
        <ele>53.72</ele>
        <time>2018-05-30T13:44:09Z</time>
      </trkpt>
      <trkpt lat="47.90234" lon="-3.49989">
        <ele>53.97</ele>
        <time>2018-05-30T13:44:15Z</time>
      </trkpt>
      <trkpt lat="47.90237" lon="-3.49993">
        <ele>54.19</ele>
        <time>2018-05-30T13:44:21Z</time>
      </trkpt>
      <trkpt lat="47.9024" lon="-3.49989">
        <ele>54.05</ele>
        <time>2018-05-30T13:44:27Z</time>
      </trkpt>
      <trkpt lat="47.9024" lon="-3.49985">
        <ele>53.88</ele>
        <time>2018-05-30T13:44:29Z</time>
      </trkpt>
      <trkpt lat="47.9025" lon="-3.49951">
        <ele>51.8</ele>
        <time>2018-05-30T13:44:49Z</time>
      </trkpt>
      <trkpt lat="47.9025" lon="-3.49948">
        <ele>51.68</ele>
        <time>2018-05-30T13:44:50Z</time>
      </trkpt>
      <trkpt lat="47.90249" lon="-3.49933">
        <ele>51.2</ele>
        <time>2018-05-30T13:44:54Z</time>
      </trkpt>
      <trkpt lat="47.90246" lon="-3.49882">
        <ele>49.55</ele>
        <time>2018-05-30T13:45:14Z</time>
      </trkpt>
      <trkpt lat="47.90247" lon="-3.49875">
        <ele>49.36</ele>
        <time>2018-05-30T13:45:17Z</time>
      </trkpt>
      <trkpt lat="47.90244" lon="-3.49824">
        <ele>47.61</ele>
        <time>2018-05-30T13:45:40Z</time>
      </trkpt>
      <trkpt lat="47.90241" lon="-3.49801">
        <ele>46.18</ele>
        <time>2018-05-30T13:45:52Z</time>
      </trkpt>
      <trkpt lat="47.9024" lon="-3.49793">
        <ele>45.76</ele>
        <time>2018-05-30T13:45:55Z</time>
      </trkpt>
      <trkpt lat="47.90236" lon="-3.49767">
        <ele>43.97</ele>
        <time>2018-05-30T13:46:05Z</time>
      </trkpt>
      <trkpt lat="47.90234" lon="-3.49748">
        <ele>43.49</ele>
        <time>2018-05-30T13:46:09Z</time>
      </trkpt>
      <trkpt lat="47.90234" lon="-3.49743">
        <ele>43.2</ele>
        <time>2018-05-30T13:46:11Z</time>
      </trkpt>
      <trkpt lat="47.90241" lon="-3.49732">
        <ele>42.03</ele>
        <time>2018-05-30T13:46:18Z</time>
      </trkpt>
      <trkpt lat="47.9025" lon="-3.49724">
        <ele>40.67</ele>
        <time>2018-05-30T13:46:27Z</time>
      </trkpt>
      <trkpt lat="47.90274" lon="-3.49733">
        <ele>38.86</ele>
        <time>2018-05-30T13:46:45Z</time>
      </trkpt>
      <trkpt lat="47.90286" lon="-3.49763">
        <ele>37.62</ele>
        <time>2018-05-30T13:47:03Z</time>
      </trkpt>
      <trkpt lat="47.9029" lon="-3.49808">
        <ele>36.56</ele>
        <time>2018-05-30T13:47:24Z</time>
      </trkpt>
      <trkpt lat="47.9029" lon="-3.4986">
        <ele>34.53</ele>
        <time>2018-05-30T13:47:45Z</time>
      </trkpt>
      <trkpt lat="47.90292" lon="-3.49875">
        <ele>34.36</ele>
        <time>2018-05-30T13:47:52Z</time>
      </trkpt>
      <trkpt lat="47.90294" lon="-3.49883">
        <ele>34.29</ele>
        <time>2018-05-30T13:47:55Z</time>
      </trkpt>
      <trkpt lat="47.90298" lon="-3.49915">
        <ele>34.37</ele>
        <time>2018-05-30T13:48:04Z</time>
      </trkpt>
      <trkpt lat="47.90302" lon="-3.49934">
        <ele>34.56</ele>
        <time>2018-05-30T13:48:11Z</time>
      </trkpt>
      <trkpt lat="47.90314" lon="-3.49953">
        <ele>33.65</ele>
        <time>2018-05-30T13:48:23Z</time>
      </trkpt>
      <trkpt lat="47.90315" lon="-3.49954">
        <ele>33.47</ele>
        <time>2018-05-30T13:48:24Z</time>
      </trkpt>
      <trkpt lat="47.9033" lon="-3.49974">
        <ele>30.05</ele>
        <time>2018-05-30T13:48:38Z</time>
      </trkpt>
      <trkpt lat="47.90339" lon="-3.49974">
        <ele>27.76</ele>
        <time>2018-05-30T13:48:47Z</time>
      </trkpt>
      <trkpt lat="47.90345" lon="-3.49951">
        <ele>25.11</ele>
        <time>2018-05-30T13:48:57Z</time>
      </trkpt>
      <trkpt lat="47.90362" lon="-3.49947">
        <ele>22.19</ele>
        <time>2018-05-30T13:49:10Z</time>
      </trkpt>
      <trkpt lat="47.90369" lon="-3.49949">
        <ele>21.27</ele>
        <time>2018-05-30T13:49:13Z</time>
      </trkpt>
      <trkpt lat="47.90392" lon="-3.49951">
        <ele>19.74</ele>
        <time>2018-05-30T13:49:23Z</time>
      </trkpt>
      <trkpt lat="47.90397" lon="-3.49946">
        <ele>20.6</ele>
        <time>2018-05-30T13:49:27Z</time>
      </trkpt>
      <trkpt lat="47.90401" lon="-3.49937">
        <ele>20.91</ele>
        <time>2018-05-30T13:49:32Z</time>
      </trkpt>
      <trkpt lat="47.90413" lon="-3.49917">
        <ele>18.54</ele>
        <time>2018-05-30T13:49:45Z</time>
      </trkpt>
      <trkpt lat="47.90416" lon="-3.4991">
        <ele>18.12</ele>
        <time>2018-05-30T13:49:49Z</time>
      </trkpt>
      <trkpt lat="47.9042" lon="-3.49902">
        <ele>17.96</ele>
        <time>2018-05-30T13:49:56Z</time>
      </trkpt>
      <trkpt lat="47.9043" lon="-3.4987">
        <ele>15.7</ele>
        <time>2018-05-30T13:50:11Z</time>
      </trkpt>
      <trkpt lat="47.90435" lon="-3.49857">
        <ele>14.92</ele>
        <time>2018-05-30T13:50:18Z</time>
      </trkpt>
      <trkpt lat="47.90446" lon="-3.49821">
        <ele>13.18</ele>
        <time>2018-05-30T13:50:36Z</time>
      </trkpt>
      <trkpt lat="47.90453" lon="-3.49805">
        <ele>12.93</ele>
        <time>2018-05-30T13:50:45Z</time>
      </trkpt>
      <trkpt lat="47.90485" lon="-3.49785">
        <ele>13.15</ele>
        <time>2018-05-30T13:51:06Z</time>
      </trkpt>
      <trkpt lat="47.90504" lon="-3.49782">
        <ele>13.02</ele>
        <time>2018-05-30T13:51:19Z</time>
      </trkpt>
      <trkpt lat="47.90511" lon="-3.49781">
        <ele>12.93</ele>
        <time>2018-05-30T13:51:23Z</time>
      </trkpt>
      <trkpt lat="47.90529" lon="-3.49789">
        <ele>13</ele>
        <time>2018-05-30T13:51:36Z</time>
      </trkpt>
      <trkpt lat="47.90546" lon="-3.49798">
        <ele>12.65</ele>
        <time>2018-05-30T13:51:46Z</time>
      </trkpt>
      <trkpt lat="47.90561" lon="-3.49815">
        <ele>13.42</ele>
        <time>2018-05-30T13:51:57Z</time>
      </trkpt>
      <trkpt lat="47.90583" lon="-3.49841">
        <ele>14.35</ele>
        <time>2018-05-30T13:52:13Z</time>
      </trkpt>
      <trkpt lat="47.90586" lon="-3.49846">
        <ele>14.5</ele>
        <time>2018-05-30T13:52:15Z</time>
      </trkpt>
      <trkpt lat="47.90596" lon="-3.49865">
        <ele>15.04</ele>
        <time>2018-05-30T13:52:23Z</time>
      </trkpt>
      <trkpt lat="47.90599" lon="-3.49869">
        <ele>15.18</ele>
        <time>2018-05-30T13:52:25Z</time>
      </trkpt>
      <trkpt lat="47.90603" lon="-3.49881">
        <ele>15.73</ele>
        <time>2018-05-30T13:52:32Z</time>
      </trkpt>
      <trkpt lat="47.90604" lon="-3.4989">
        <ele>15.73</ele>
        <time>2018-05-30T13:52:36Z</time>
      </trkpt>
      <trkpt lat="47.90608" lon="-3.49902">
        <ele>15.64</ele>
        <time>2018-05-30T13:52:42Z</time>
      </trkpt>
      <trkpt lat="47.90617" lon="-3.49934">
        <ele>16.13</ele>
        <time>2018-05-30T13:53:00Z</time>
      </trkpt>
      <trkpt lat="47.90631" lon="-3.49967">
        <ele>16.44</ele>
        <time>2018-05-30T13:53:18Z</time>
      </trkpt>
      <trkpt lat="47.90631" lon="-3.49969">
        <ele>16.43</ele>
        <time>2018-05-30T13:53:19Z</time>
      </trkpt>
      <trkpt lat="47.9064" lon="-3.50005">
        <ele>17.03</ele>
        <time>2018-05-30T13:53:40Z</time>
      </trkpt>
      <trkpt lat="47.90645" lon="-3.50026">
        <ele>17.09</ele>
        <time>2018-05-30T13:53:50Z</time>
      </trkpt>
      <trkpt lat="47.90649" lon="-3.50037">
        <ele>17.1</ele>
        <time>2018-05-30T13:53:54Z</time>
      </trkpt>
      <trkpt lat="47.90653" lon="-3.50055">
        <ele>17.72</ele>
        <time>2018-05-30T13:54:01Z</time>
      </trkpt>
      <trkpt lat="47.90674" lon="-3.50089">
        <ele>18.38</ele>
        <time>2018-05-30T13:54:17Z</time>
      </trkpt>
      <trkpt lat="47.90678" lon="-3.50096">
        <ele>18.33</ele>
        <time>2018-05-30T13:54:20Z</time>
      </trkpt>
      <trkpt lat="47.90687" lon="-3.50107">
        <ele>18.49</ele>
        <time>2018-05-30T13:54:28Z</time>
      </trkpt>
      <trkpt lat="47.90693" lon="-3.50116">
        <ele>18.73</ele>
        <time>2018-05-30T13:54:33Z</time>
      </trkpt>
      <trkpt lat="47.90703" lon="-3.50127">
        <ele>19.05</ele>
        <time>2018-05-30T13:54:40Z</time>
      </trkpt>
      <trkpt lat="47.90705" lon="-3.50129">
        <ele>19.11</ele>
        <time>2018-05-30T13:54:42Z</time>
      </trkpt>
      <trkpt lat="47.90716" lon="-3.50144">
        <ele>19.36</ele>
        <time>2018-05-30T13:54:50Z</time>
      </trkpt>
      <trkpt lat="47.90727" lon="-3.50161">
        <ele>19.66</ele>
        <time>2018-05-30T13:54:59Z</time>
      </trkpt>
      <trkpt lat="47.90738" lon="-3.50181">
        <ele>21.82</ele>
        <time>2018-05-30T13:55:11Z</time>
      </trkpt>
      <trkpt lat="47.90742" lon="-3.5019">
        <ele>22.8</ele>
        <time>2018-05-30T13:55:16Z</time>
      </trkpt>
      <trkpt lat="47.90745" lon="-3.50201">
        <ele>23.33</ele>
        <time>2018-05-30T13:55:21Z</time>
      </trkpt>
      <trkpt lat="47.90746" lon="-3.50207">
        <ele>23.44</ele>
        <time>2018-05-30T13:55:24Z</time>
      </trkpt>
      <trkpt lat="47.90756" lon="-3.5023">
        <ele>23.66</ele>
        <time>2018-05-30T13:55:36Z</time>
      </trkpt>
      <trkpt lat="47.90763" lon="-3.5024">
        <ele>23.46</ele>
        <time>2018-05-30T13:55:41Z</time>
      </trkpt>
      <trkpt lat="47.90778" lon="-3.50242">
        <ele>23.04</ele>
        <time>2018-05-30T13:55:49Z</time>
      </trkpt>
      <trkpt lat="47.9079" lon="-3.50233">
        <ele>22.72</ele>
        <time>2018-05-30T13:55:59Z</time>
      </trkpt>
      <trkpt lat="47.90795" lon="-3.50234">
        <ele>22.82</ele>
        <time>2018-05-30T13:56:02Z</time>
      </trkpt>
      <trkpt lat="47.90809" lon="-3.50237">
        <ele>22.56</ele>
        <time>2018-05-30T13:56:13Z</time>
      </trkpt>
      <trkpt lat="47.90825" lon="-3.50245">
        <ele>23.91</ele>
        <time>2018-05-30T13:56:27Z</time>
      </trkpt>
      <trkpt lat="47.90829" lon="-3.50248">
        <ele>24.13</ele>
        <time>2018-05-30T13:56:29Z</time>
      </trkpt>
      <trkpt lat="47.90836" lon="-3.50259">
        <ele>25.63</ele>
        <time>2018-05-30T13:56:34Z</time>
      </trkpt>
      <trkpt lat="47.90841" lon="-3.50268">
        <ele>27.49</ele>
        <time>2018-05-30T13:56:39Z</time>
      </trkpt>
      <trkpt lat="47.90851" lon="-3.50278">
        <ele>29.42</ele>
        <time>2018-05-30T13:56:45Z</time>
      </trkpt>
      <trkpt lat="47.90853" lon="-3.50285">
        <ele>30.31</ele>
        <time>2018-05-30T13:56:49Z</time>
      </trkpt>
      <trkpt lat="47.90856" lon="-3.50294">
        <ele>31.48</ele>
        <time>2018-05-30T13:56:55Z</time>
      </trkpt>
      <trkpt lat="47.90862" lon="-3.50317">
        <ele>33.15</ele>
        <time>2018-05-30T13:57:07Z</time>
      </trkpt>
      <trkpt lat="47.90872" lon="-3.5034">
        <ele>31.68</ele>
        <time>2018-05-30T13:57:22Z</time>
      </trkpt>
      <trkpt lat="47.90886" lon="-3.50369">
        <ele>29.81</ele>
        <time>2018-05-30T13:57:41Z</time>
      </trkpt>
      <trkpt lat="47.90906" lon="-3.50406">
        <ele>27.41</ele>
        <time>2018-05-30T13:58:01Z</time>
      </trkpt>
      <trkpt lat="47.90934" lon="-3.50438">
        <ele>26.27</ele>
        <time>2018-05-30T13:58:21Z</time>
      </trkpt>
      <trkpt lat="47.90944" lon="-3.50454">
        <ele>26.27</ele>
        <time>2018-05-30T13:58:30Z</time>
      </trkpt>
      <trkpt lat="47.90946" lon="-3.5046">
        <ele>26.35</ele>
        <time>2018-05-30T13:58:34Z</time>
      </trkpt>
      <trkpt lat="47.9095" lon="-3.50468">
        <ele>26.78</ele>
        <time>2018-05-30T13:58:39Z</time>
      </trkpt>
      <trkpt lat="47.90959" lon="-3.50487">
        <ele>27.16</ele>
        <time>2018-05-30T13:58:47Z</time>
      </trkpt>
      <trkpt lat="47.9096" lon="-3.50489">
        <ele>27.18</ele>
        <time>2018-05-30T13:58:49Z</time>
      </trkpt>
      <trkpt lat="47.90961" lon="-3.50493">
        <ele>27.21</ele>
        <time>2018-05-30T13:58:51Z</time>
      </trkpt>
      <trkpt lat="47.90964" lon="-3.50512">
        <ele>28.19</ele>
        <time>2018-05-30T13:59:01Z</time>
      </trkpt>
      <trkpt lat="47.90966" lon="-3.50522">
        <ele>28.3</ele>
        <time>2018-05-30T13:59:05Z</time>
      </trkpt>
      <trkpt lat="47.9099" lon="-3.50563">
        <ele>29.52</ele>
        <time>2018-05-30T13:59:26Z</time>
      </trkpt>
      <trkpt lat="47.90995" lon="-3.5061">
        <ele>30.2</ele>
        <time>2018-05-30T13:59:46Z</time>
      </trkpt>
      <trkpt lat="47.91001" lon="-3.50609">
        <ele>30.09</ele>
        <time>2018-05-30T13:59:55Z</time>
      </trkpt>
      <trkpt lat="47.9101" lon="-3.50601">
        <ele>29.89</ele>
        <time>2018-05-30T13:59:59Z</time>
      </trkpt>
      <trkpt lat="47.9104" lon="-3.50578">
        <ele>29.39</ele>
        <time>2018-05-30T14:00:09Z</time>
      </trkpt>
      <trkpt lat="47.91048" lon="-3.50568">
        <ele>29.39</ele>
        <time>2018-05-30T14:00:13Z</time>
      </trkpt>
      <trkpt lat="47.9105" lon="-3.50555">
        <ele>29.45</ele>
        <time>2018-05-30T14:00:19Z</time>
      </trkpt>
      <trkpt lat="47.91048" lon="-3.50508">
        <ele>30.6</ele>
        <time>2018-05-30T14:00:36Z</time>
      </trkpt>
      <trkpt lat="47.91043" lon="-3.50473">
        <ele>31.87</ele>
        <time>2018-05-30T14:00:51Z</time>
      </trkpt>
      <trkpt lat="47.91041" lon="-3.50453">
        <ele>32.62</ele>
        <time>2018-05-30T14:00:59Z</time>
      </trkpt>
      <trkpt lat="47.91039" lon="-3.50443">
        <ele>33.17</ele>
        <time>2018-05-30T14:01:03Z</time>
      </trkpt>
      <trkpt lat="47.91035" lon="-3.50415">
        <ele>34.83</ele>
        <time>2018-05-30T14:01:15Z</time>
      </trkpt>
      <trkpt lat="47.91033" lon="-3.50404">
        <ele>35.63</ele>
        <time>2018-05-30T14:01:21Z</time>
      </trkpt>
      <trkpt lat="47.91028" lon="-3.50373">
        <ele>38.05</ele>
        <time>2018-05-30T14:01:36Z</time>
      </trkpt>
      <trkpt lat="47.91027" lon="-3.50369">
        <ele>38.31</ele>
        <time>2018-05-30T14:01:38Z</time>
      </trkpt>
      <trkpt lat="47.91022" lon="-3.50335">
        <ele>41.23</ele>
        <time>2018-05-30T14:01:53Z</time>
      </trkpt>
      <trkpt lat="47.91019" lon="-3.50327">
        <ele>41.7</ele>
        <time>2018-05-30T14:01:56Z</time>
      </trkpt>
      <trkpt lat="47.91016" lon="-3.50315">
        <ele>42.89</ele>
        <time>2018-05-30T14:02:02Z</time>
      </trkpt>
      <trkpt lat="47.91017" lon="-3.50306">
        <ele>43.86</ele>
        <time>2018-05-30T14:02:06Z</time>
      </trkpt>
      <trkpt lat="47.91016" lon="-3.50293">
        <ele>44.76</ele>
        <time>2018-05-30T14:02:11Z</time>
      </trkpt>
      <trkpt lat="47.91017" lon="-3.50262">
        <ele>47</ele>
        <time>2018-05-30T14:02:24Z</time>
      </trkpt>
      <trkpt lat="47.91019" lon="-3.50224">
        <ele>48.79</ele>
        <time>2018-05-30T14:02:39Z</time>
      </trkpt>
      <trkpt lat="47.91026" lon="-3.50191">
        <ele>50.18</ele>
        <time>2018-05-30T14:02:52Z</time>
      </trkpt>
      <trkpt lat="47.91029" lon="-3.50173">
        <ele>50.71</ele>
        <time>2018-05-30T14:02:57Z</time>
      </trkpt>
      <trkpt lat="47.9103" lon="-3.50171">
        <ele>50.87</ele>
        <time>2018-05-30T14:02:58Z</time>
      </trkpt>
      <trkpt lat="47.91031" lon="-3.50163">
        <ele>51.4</ele>
        <time>2018-05-30T14:03:01Z</time>
      </trkpt>
      <trkpt lat="47.91031" lon="-3.5016">
        <ele>51.57</ele>
        <time>2018-05-30T14:03:02Z</time>
      </trkpt>
      <trkpt lat="47.91032" lon="-3.50158">
        <ele>51.72</ele>
        <time>2018-05-30T14:03:03Z</time>
      </trkpt>
      <trkpt lat="47.91032" lon="-3.50155">
        <ele>51.85</ele>
        <time>2018-05-30T14:03:04Z</time>
      </trkpt>
      <trkpt lat="47.91033" lon="-3.50152">
        <ele>51.99</ele>
        <time>2018-05-30T14:03:05Z</time>
      </trkpt>
      <trkpt lat="47.91034" lon="-3.5015">
        <ele>52.26</ele>
        <time>2018-05-30T14:03:06Z</time>
      </trkpt>
      <trkpt lat="47.91034" lon="-3.50147">
        <ele>52.38</ele>
        <time>2018-05-30T14:03:07Z</time>
      </trkpt>
      <trkpt lat="47.91041" lon="-3.50118">
        <ele>54.16</ele>
        <time>2018-05-30T14:03:20Z</time>
      </trkpt>
      <trkpt lat="47.91043" lon="-3.50114">
        <ele>54.55</ele>
        <time>2018-05-30T14:03:23Z</time>
      </trkpt>
      <trkpt lat="47.91043" lon="-3.50112">
        <ele>54.7</ele>
        <time>2018-05-30T14:03:24Z</time>
      </trkpt>
      <trkpt lat="47.91044" lon="-3.5011">
        <ele>54.86</ele>
        <time>2018-05-30T14:03:25Z</time>
      </trkpt>
      <trkpt lat="47.91044" lon="-3.50107">
        <ele>55.02</ele>
        <time>2018-05-30T14:03:26Z</time>
      </trkpt>
      <trkpt lat="47.91045" lon="-3.50101">
        <ele>55.4</ele>
        <time>2018-05-30T14:03:29Z</time>
      </trkpt>
      <trkpt lat="47.91045" lon="-3.50099">
        <ele>55.51</ele>
        <time>2018-05-30T14:03:30Z</time>
      </trkpt>
      <trkpt lat="47.91045" lon="-3.50097">
        <ele>55.75</ele>
        <time>2018-05-30T14:03:31Z</time>
      </trkpt>
      <trkpt lat="47.91049" lon="-3.50081">
        <ele>56.61</ele>
        <time>2018-05-30T14:03:39Z</time>
      </trkpt>
      <trkpt lat="47.91054" lon="-3.50055">
        <ele>58.06</ele>
        <time>2018-05-30T14:03:51Z</time>
      </trkpt>
      <trkpt lat="47.91059" lon="-3.50037">
        <ele>59.26</ele>
        <time>2018-05-30T14:04:00Z</time>
      </trkpt>
      <trkpt lat="47.91061" lon="-3.5003">
        <ele>59.45</ele>
        <time>2018-05-30T14:04:03Z</time>
      </trkpt>
      <trkpt lat="47.91061" lon="-3.50027">
        <ele>59.53</ele>
        <time>2018-05-30T14:04:04Z</time>
      </trkpt>
      <trkpt lat="47.91062" lon="-3.50026">
        <ele>59.63</ele>
        <time>2018-05-30T14:04:05Z</time>
      </trkpt>
      <trkpt lat="47.91063" lon="-3.50024">
        <ele>59.79</ele>
        <time>2018-05-30T14:04:06Z</time>
      </trkpt>
      <trkpt lat="47.91064" lon="-3.50022">
        <ele>59.89</ele>
        <time>2018-05-30T14:04:07Z</time>
      </trkpt>
      <trkpt lat="47.91064" lon="-3.5002">
        <ele>60.03</ele>
        <time>2018-05-30T14:04:08Z</time>
      </trkpt>
      <trkpt lat="47.91064" lon="-3.50015">
        <ele>60.3</ele>
        <time>2018-05-30T14:04:10Z</time>
      </trkpt>
      <trkpt lat="47.91065" lon="-3.50012">
        <ele>60.39</ele>
        <time>2018-05-30T14:04:11Z</time>
      </trkpt>
      <trkpt lat="47.91066" lon="-3.5001">
        <ele>60.47</ele>
        <time>2018-05-30T14:04:12Z</time>
      </trkpt>
      <trkpt lat="47.91067" lon="-3.50008">
        <ele>60.54</ele>
        <time>2018-05-30T14:04:13Z</time>
      </trkpt>
      <trkpt lat="47.91068" lon="-3.50005">
        <ele>60.63</ele>
        <time>2018-05-30T14:04:14Z</time>
      </trkpt>
      <trkpt lat="47.91074" lon="-3.49991">
        <ele>61.32</ele>
        <time>2018-05-30T14:04:20Z</time>
      </trkpt>
      <trkpt lat="47.91075" lon="-3.49989">
        <ele>61.4</ele>
        <time>2018-05-30T14:04:21Z</time>
      </trkpt>
      <trkpt lat="47.91076" lon="-3.49987">
        <ele>61.48</ele>
        <time>2018-05-30T14:04:22Z</time>
      </trkpt>
      <trkpt lat="47.91077" lon="-3.49985">
        <ele>61.56</ele>
        <time>2018-05-30T14:04:23Z</time>
      </trkpt>
      <trkpt lat="47.91077" lon="-3.49983">
        <ele>61.63</ele>
        <time>2018-05-30T14:04:24Z</time>
      </trkpt>
      <trkpt lat="47.91078" lon="-3.49981">
        <ele>61.7</ele>
        <time>2018-05-30T14:04:25Z</time>
      </trkpt>
      <trkpt lat="47.91078" lon="-3.49979">
        <ele>61.75</ele>
        <time>2018-05-30T14:04:26Z</time>
      </trkpt>
      <trkpt lat="47.91078" lon="-3.49976">
        <ele>61.81</ele>
        <time>2018-05-30T14:04:27Z</time>
      </trkpt>
      <trkpt lat="47.91078" lon="-3.49973">
        <ele>61.9</ele>
        <time>2018-05-30T14:04:28Z</time>
      </trkpt>
      <trkpt lat="47.91078" lon="-3.4997">
        <ele>62.02</ele>
        <time>2018-05-30T14:04:29Z</time>
      </trkpt>
      <trkpt lat="47.91078" lon="-3.49968">
        <ele>62.12</ele>
        <time>2018-05-30T14:04:30Z</time>
      </trkpt>
      <trkpt lat="47.91082" lon="-3.49946">
        <ele>62.8</ele>
        <time>2018-05-30T14:04:39Z</time>
      </trkpt>
      <trkpt lat="47.91082" lon="-3.49944">
        <ele>62.89</ele>
        <time>2018-05-30T14:04:40Z</time>
      </trkpt>
      <trkpt lat="47.91083" lon="-3.49942">
        <ele>62.99</ele>
        <time>2018-05-30T14:04:41Z</time>
      </trkpt>
      <trkpt lat="47.91084" lon="-3.4994">
        <ele>63.08</ele>
        <time>2018-05-30T14:04:42Z</time>
      </trkpt>
      <trkpt lat="47.91085" lon="-3.49938">
        <ele>63.29</ele>
        <time>2018-05-30T14:04:43Z</time>
      </trkpt>
      <trkpt lat="47.91086" lon="-3.49936">
        <ele>63.43</ele>
        <time>2018-05-30T14:04:44Z</time>
      </trkpt>
      <trkpt lat="47.91086" lon="-3.49933">
        <ele>63.43</ele>
        <time>2018-05-30T14:04:45Z</time>
      </trkpt>
      <trkpt lat="47.91087" lon="-3.49931">
        <ele>63.7</ele>
        <time>2018-05-30T14:04:46Z</time>
      </trkpt>
      <trkpt lat="47.91088" lon="-3.49923">
        <ele>64.12</ele>
        <time>2018-05-30T14:04:50Z</time>
      </trkpt>
      <trkpt lat="47.91088" lon="-3.49921">
        <ele>64.24</ele>
        <time>2018-05-30T14:04:51Z</time>
      </trkpt>
      <trkpt lat="47.91088" lon="-3.49919">
        <ele>64.35</ele>
        <time>2018-05-30T14:04:52Z</time>
      </trkpt>
      <trkpt lat="47.91099" lon="-3.49877">
        <ele>65.84</ele>
        <time>2018-05-30T14:05:08Z</time>
      </trkpt>
      <trkpt lat="47.91107" lon="-3.4984">
        <ele>67.47</ele>
        <time>2018-05-30T14:05:23Z</time>
      </trkpt>
      <trkpt lat="47.9111" lon="-3.49832">
        <ele>67.83</ele>
        <time>2018-05-30T14:05:27Z</time>
      </trkpt>
      <trkpt lat="47.91115" lon="-3.49813">
        <ele>68.8</ele>
        <time>2018-05-30T14:05:36Z</time>
      </trkpt>
      <trkpt lat="47.91116" lon="-3.4981">
        <ele>69</ele>
        <time>2018-05-30T14:05:37Z</time>
      </trkpt>
      <trkpt lat="47.91116" lon="-3.49806">
        <ele>69.1</ele>
        <time>2018-05-30T14:05:38Z</time>
      </trkpt>
      <trkpt lat="47.91116" lon="-3.49803">
        <ele>69.22</ele>
        <time>2018-05-30T14:05:39Z</time>
      </trkpt>
      <trkpt lat="47.91116" lon="-3.49801">
        <ele>69.35</ele>
        <time>2018-05-30T14:05:40Z</time>
      </trkpt>
      <trkpt lat="47.91119" lon="-3.4978">
        <ele>70.81</ele>
        <time>2018-05-30T14:05:51Z</time>
      </trkpt>
      <trkpt lat="47.91119" lon="-3.49778">
        <ele>70.91</ele>
        <time>2018-05-30T14:05:52Z</time>
      </trkpt>
      <trkpt lat="47.9112" lon="-3.49776">
        <ele>70.99</ele>
        <time>2018-05-30T14:05:53Z</time>
      </trkpt>
      <trkpt lat="47.91121" lon="-3.49775">
        <ele>71.07</ele>
        <time>2018-05-30T14:05:54Z</time>
      </trkpt>
      <trkpt lat="47.91122" lon="-3.49773">
        <ele>71.14</ele>
        <time>2018-05-30T14:05:55Z</time>
      </trkpt>
      <trkpt lat="47.9113" lon="-3.49764">
        <ele>71.97</ele>
        <time>2018-05-30T14:06:03Z</time>
      </trkpt>
      <trkpt lat="47.91136" lon="-3.49763">
        <ele>72.69</ele>
        <time>2018-05-30T14:06:08Z</time>
      </trkpt>
      <trkpt lat="47.91137" lon="-3.49764">
        <ele>72.86</ele>
        <time>2018-05-30T14:06:09Z</time>
      </trkpt>
      <trkpt lat="47.91139" lon="-3.49764">
        <ele>73.04</ele>
        <time>2018-05-30T14:06:10Z</time>
      </trkpt>
      <trkpt lat="47.9114" lon="-3.49764">
        <ele>73.19</ele>
        <time>2018-05-30T14:06:11Z</time>
      </trkpt>
      <trkpt lat="47.91141" lon="-3.49765">
        <ele>73.34</ele>
        <time>2018-05-30T14:06:12Z</time>
      </trkpt>
      <trkpt lat="47.9116" lon="-3.49773">
        <ele>75.22</ele>
        <time>2018-05-30T14:06:26Z</time>
      </trkpt>
      <trkpt lat="47.91187" lon="-3.49782">
        <ele>76.18</ele>
        <time>2018-05-30T14:06:42Z</time>
      </trkpt>
      <trkpt lat="47.91208" lon="-3.4979">
        <ele>75.71</ele>
        <time>2018-05-30T14:06:55Z</time>
      </trkpt>
      <trkpt lat="47.91229" lon="-3.49801">
        <ele>75.13</ele>
        <time>2018-05-30T14:07:09Z</time>
      </trkpt>
      <trkpt lat="47.91261" lon="-3.49813">
        <ele>73.64</ele>
        <time>2018-05-30T14:07:28Z</time>
      </trkpt>
      <trkpt lat="47.91287" lon="-3.49825">
        <ele>72.51</ele>
        <time>2018-05-30T14:07:44Z</time>
      </trkpt>
      <trkpt lat="47.91294" lon="-3.49821">
        <ele>72.09</ele>
        <time>2018-05-30T14:07:50Z</time>
      </trkpt>
      <trkpt lat="47.91295" lon="-3.49818">
        <ele>72.03</ele>
        <time>2018-05-30T14:07:51Z</time>
      </trkpt>
      <trkpt lat="47.91295" lon="-3.49816">
        <ele>71.94</ele>
        <time>2018-05-30T14:07:52Z</time>
      </trkpt>
      <trkpt lat="47.91295" lon="-3.49814">
        <ele>71.85</ele>
        <time>2018-05-30T14:07:53Z</time>
      </trkpt>
      <trkpt lat="47.91295" lon="-3.49811">
        <ele>71.78</ele>
        <time>2018-05-30T14:07:54Z</time>
      </trkpt>
      <trkpt lat="47.91295" lon="-3.49777">
        <ele>72.07</ele>
        <time>2018-05-30T14:08:08Z</time>
      </trkpt>
      <trkpt lat="47.91296" lon="-3.4974">
        <ele>71.78</ele>
        <time>2018-05-30T14:08:24Z</time>
      </trkpt>
      <trkpt lat="47.91302" lon="-3.49709">
        <ele>70.83</ele>
        <time>2018-05-30T14:08:38Z</time>
      </trkpt>
      <trkpt lat="47.91302" lon="-3.49699">
        <ele>70.55</ele>
        <time>2018-05-30T14:08:43Z</time>
      </trkpt>
      <trkpt lat="47.91303" lon="-3.49696">
        <ele>70.51</ele>
        <time>2018-05-30T14:08:44Z</time>
      </trkpt>
      <trkpt lat="47.91302" lon="-3.49694">
        <ele>70.47</ele>
        <time>2018-05-30T14:08:45Z</time>
      </trkpt>
      <trkpt lat="47.91303" lon="-3.4969">
        <ele>70.4</ele>
        <time>2018-05-30T14:08:47Z</time>
      </trkpt>
      <trkpt lat="47.91304" lon="-3.49688">
        <ele>70.37</ele>
        <time>2018-05-30T14:08:48Z</time>
      </trkpt>
      <trkpt lat="47.91304" lon="-3.49686">
        <ele>70.31</ele>
        <time>2018-05-30T14:08:49Z</time>
      </trkpt>
      <trkpt lat="47.91305" lon="-3.4966">
        <ele>69.5</ele>
        <time>2018-05-30T14:09:01Z</time>
      </trkpt>
      <trkpt lat="47.91304" lon="-3.49655">
        <ele>69.39</ele>
        <time>2018-05-30T14:09:03Z</time>
      </trkpt>
      <trkpt lat="47.91304" lon="-3.49653">
        <ele>69.3</ele>
        <time>2018-05-30T14:09:04Z</time>
      </trkpt>
      <trkpt lat="47.91305" lon="-3.49626">
        <ele>68.11</ele>
        <time>2018-05-30T14:09:16Z</time>
      </trkpt>
      <trkpt lat="47.91306" lon="-3.49614">
        <ele>67.85</ele>
        <time>2018-05-30T14:09:22Z</time>
      </trkpt>
      <trkpt lat="47.91306" lon="-3.49611">
        <ele>67.82</ele>
        <time>2018-05-30T14:09:23Z</time>
      </trkpt>
      <trkpt lat="47.91306" lon="-3.49609">
        <ele>67.76</ele>
        <time>2018-05-30T14:09:24Z</time>
      </trkpt>
      <trkpt lat="47.91307" lon="-3.49575">
        <ele>67.15</ele>
        <time>2018-05-30T14:09:37Z</time>
      </trkpt>
      <trkpt lat="47.91306" lon="-3.49554">
        <ele>66.6</ele>
        <time>2018-05-30T14:09:45Z</time>
      </trkpt>
      <trkpt lat="47.91306" lon="-3.49551">
        <ele>66.49</ele>
        <time>2018-05-30T14:09:46Z</time>
      </trkpt>
      <trkpt lat="47.91306" lon="-3.49549">
        <ele>66.42</ele>
        <time>2018-05-30T14:09:47Z</time>
      </trkpt>
      <trkpt lat="47.91306" lon="-3.49547">
        <ele>66.34</ele>
        <time>2018-05-30T14:09:48Z</time>
      </trkpt>
      <trkpt lat="47.91307" lon="-3.49522">
        <ele>65.64</ele>
        <time>2018-05-30T14:09:59Z</time>
      </trkpt>
      <trkpt lat="47.91307" lon="-3.49478">
        <ele>64.49</ele>
        <time>2018-05-30T14:10:17Z</time>
      </trkpt>
      <trkpt lat="47.91307" lon="-3.49476">
        <ele>64.41</ele>
        <time>2018-05-30T14:10:18Z</time>
      </trkpt>
      <trkpt lat="47.91303" lon="-3.49437">
        <ele>63.82</ele>
        <time>2018-05-30T14:10:31Z</time>
      </trkpt>
      <trkpt lat="47.91299" lon="-3.49403">
        <ele>62.9</ele>
        <time>2018-05-30T14:10:44Z</time>
      </trkpt>
      <trkpt lat="47.91295" lon="-3.49384">
        <ele>62.36</ele>
        <time>2018-05-30T14:10:53Z</time>
      </trkpt>
      <trkpt lat="47.91296" lon="-3.49382">
        <ele>62.31</ele>
        <time>2018-05-30T14:10:54Z</time>
      </trkpt>
      <trkpt lat="47.91296" lon="-3.49379">
        <ele>62.26</ele>
        <time>2018-05-30T14:10:55Z</time>
      </trkpt>
      <trkpt lat="47.91296" lon="-3.49377">
        <ele>62.21</ele>
        <time>2018-05-30T14:10:56Z</time>
      </trkpt>
      <trkpt lat="47.91296" lon="-3.49375">
        <ele>62.16</ele>
        <time>2018-05-30T14:10:57Z</time>
      </trkpt>
      <trkpt lat="47.91295" lon="-3.49372">
        <ele>62.1</ele>
        <time>2018-05-30T14:10:58Z</time>
      </trkpt>
      <trkpt lat="47.91296" lon="-3.49337">
        <ele>61.56</ele>
        <time>2018-05-30T14:11:11Z</time>
      </trkpt>
      <trkpt lat="47.91295" lon="-3.49332">
        <ele>61.39</ele>
        <time>2018-05-30T14:11:13Z</time>
      </trkpt>
      <trkpt lat="47.91295" lon="-3.4933">
        <ele>61.33</ele>
        <time>2018-05-30T14:11:14Z</time>
      </trkpt>
      <trkpt lat="47.91295" lon="-3.49295">
        <ele>60.41</ele>
        <time>2018-05-30T14:11:28Z</time>
      </trkpt>
      <trkpt lat="47.91294" lon="-3.49292">
        <ele>60.32</ele>
        <time>2018-05-30T14:11:29Z</time>
      </trkpt>
      <trkpt lat="47.91294" lon="-3.49269">
        <ele>59.2</ele>
        <time>2018-05-30T14:11:43Z</time>
      </trkpt>
      <trkpt lat="47.91299" lon="-3.49224">
        <ele>58.41</ele>
        <time>2018-05-30T14:12:04Z</time>
      </trkpt>
      <trkpt lat="47.91303" lon="-3.49202">
        <ele>58.53</ele>
        <time>2018-05-30T14:12:13Z</time>
      </trkpt>
      <trkpt lat="47.91303" lon="-3.492">
        <ele>58.54</ele>
        <time>2018-05-30T14:12:14Z</time>
      </trkpt>
      <trkpt lat="47.91313" lon="-3.4918">
        <ele>58.77</ele>
        <time>2018-05-30T14:12:28Z</time>
      </trkpt>
      <trkpt lat="47.91315" lon="-3.49179">
        <ele>58.8</ele>
        <time>2018-05-30T14:12:29Z</time>
      </trkpt>
      <trkpt lat="47.91349" lon="-3.49156">
        <ele>61.45</ele>
        <time>2018-05-30T14:12:48Z</time>
      </trkpt>
      <trkpt lat="47.91372" lon="-3.49128">
        <ele>64.51</ele>
        <time>2018-05-30T14:12:58Z</time>
      </trkpt>
      <trkpt lat="47.91384" lon="-3.49077">
        <ele>66.74</ele>
        <time>2018-05-30T14:13:11Z</time>
      </trkpt>
      <trkpt lat="47.91408" lon="-3.48973">
        <ele>69.84</ele>
        <time>2018-05-30T14:13:27Z</time>
      </trkpt>
      <trkpt lat="47.91426" lon="-3.48898">
        <ele>72.36</ele>
        <time>2018-05-30T14:13:41Z</time>
      </trkpt>
      <trkpt lat="47.91443" lon="-3.48812">
        <ele>72.5</ele>
        <time>2018-05-30T14:13:55Z</time>
      </trkpt>
      <trkpt lat="47.9146" lon="-3.48744">
        <ele>72.64</ele>
        <time>2018-05-30T14:14:09Z</time>
      </trkpt>
      <trkpt lat="47.91477" lon="-3.48734">
        <ele>72.89</ele>
        <time>2018-05-30T14:14:19Z</time>
      </trkpt>
      <trkpt lat="47.91492" lon="-3.48749">
        <ele>72.74</ele>
        <time>2018-05-30T14:14:32Z</time>
      </trkpt>
      <trkpt lat="47.91512" lon="-3.48766">
        <ele>72.19</ele>
        <time>2018-05-30T14:14:46Z</time>
      </trkpt>
      <trkpt lat="47.91512" lon="-3.48768">
        <ele>72.13</ele>
        <time>2018-05-30T14:14:47Z</time>
      </trkpt>
      <trkpt lat="47.91513" lon="-3.48769">
        <ele>72.08</ele>
        <time>2018-05-30T14:14:48Z</time>
      </trkpt>
      <trkpt lat="47.91514" lon="-3.48771">
        <ele>72.03</ele>
        <time>2018-05-30T14:14:49Z</time>
      </trkpt>
      <trkpt lat="47.91531" lon="-3.48792">
        <ele>71.02</ele>
        <time>2018-05-30T14:15:04Z</time>
      </trkpt>
      <trkpt lat="47.91555" lon="-3.48818">
        <ele>69.97</ele>
        <time>2018-05-30T14:15:21Z</time>
      </trkpt>
      <trkpt lat="47.91573" lon="-3.4884">
        <ele>69.29</ele>
        <time>2018-05-30T14:15:35Z</time>
      </trkpt>
      <trkpt lat="47.91594" lon="-3.48855">
        <ele>68.25</ele>
        <time>2018-05-30T14:15:50Z</time>
      </trkpt>
      <trkpt lat="47.91624" lon="-3.48869">
        <ele>67.75</ele>
        <time>2018-05-30T14:16:07Z</time>
      </trkpt>
      <trkpt lat="47.91656" lon="-3.48872">
        <ele>67.16</ele>
        <time>2018-05-30T14:16:25Z</time>
      </trkpt>
      <trkpt lat="47.91686" lon="-3.48869">
        <ele>67.42</ele>
        <time>2018-05-30T14:16:42Z</time>
      </trkpt>
      <trkpt lat="47.91712" lon="-3.48867">
        <ele>67.61</ele>
        <time>2018-05-30T14:16:58Z</time>
      </trkpt>
      <trkpt lat="47.91733" lon="-3.48864">
        <ele>68.11</ele>
        <time>2018-05-30T14:17:14Z</time>
      </trkpt>
      <trkpt lat="47.91754" lon="-3.48864">
        <ele>68.35</ele>
        <time>2018-05-30T14:17:27Z</time>
      </trkpt>
      <trkpt lat="47.91771" lon="-3.48867">
        <ele>68.63</ele>
        <time>2018-05-30T14:17:41Z</time>
      </trkpt>
      <trkpt lat="47.91786" lon="-3.48871">
        <ele>69.12</ele>
        <time>2018-05-30T14:17:52Z</time>
      </trkpt>
      <trkpt lat="47.91817" lon="-3.48878">
        <ele>70.28</ele>
        <time>2018-05-30T14:18:08Z</time>
      </trkpt>
      <trkpt lat="47.91848" lon="-3.48859">
        <ele>71.21</ele>
        <time>2018-05-30T14:18:27Z</time>
      </trkpt>
      <trkpt lat="47.91876" lon="-3.48851">
        <ele>71.6</ele>
        <time>2018-05-30T14:18:44Z</time>
      </trkpt>
      <trkpt lat="47.91907" lon="-3.48837">
        <ele>71.4</ele>
        <time>2018-05-30T14:19:03Z</time>
      </trkpt>
      <trkpt lat="47.91935" lon="-3.48831">
        <ele>71.37</ele>
        <time>2018-05-30T14:19:21Z</time>
      </trkpt>
      <trkpt lat="47.91958" lon="-3.48831">
        <ele>72.25</ele>
        <time>2018-05-30T14:19:36Z</time>
      </trkpt>
      <trkpt lat="47.91959" lon="-3.48831">
        <ele>72.29</ele>
        <time>2018-05-30T14:19:37Z</time>
      </trkpt>
      <trkpt lat="47.91961" lon="-3.48831">
        <ele>72.32</ele>
        <time>2018-05-30T14:19:38Z</time>
      </trkpt>
      <trkpt lat="47.91992" lon="-3.48829">
        <ele>72.86</ele>
        <time>2018-05-30T14:19:57Z</time>
      </trkpt>
      <trkpt lat="47.92014" lon="-3.48828">
        <ele>73.7</ele>
        <time>2018-05-30T14:20:12Z</time>
      </trkpt>
      <trkpt lat="47.92044" lon="-3.48827">
        <ele>74.91</ele>
        <time>2018-05-30T14:20:31Z</time>
      </trkpt>
      <trkpt lat="47.92071" lon="-3.48832">
        <ele>76.23</ele>
        <time>2018-05-30T14:20:49Z</time>
      </trkpt>
      <trkpt lat="47.92106" lon="-3.48841">
        <ele>78.48</ele>
        <time>2018-05-30T14:21:10Z</time>
      </trkpt>
      <trkpt lat="47.92143" lon="-3.48851">
        <ele>80.14</ele>
        <time>2018-05-30T14:21:34Z</time>
      </trkpt>
      <trkpt lat="47.92171" lon="-3.48861">
        <ele>81.22</ele>
        <time>2018-05-30T14:21:53Z</time>
      </trkpt>
      <trkpt lat="47.92197" lon="-3.48871">
        <ele>81.64</ele>
        <time>2018-05-30T14:22:11Z</time>
      </trkpt>
      <trkpt lat="47.9222" lon="-3.48885">
        <ele>81.71</ele>
        <time>2018-05-30T14:22:28Z</time>
      </trkpt>
      <trkpt lat="47.92243" lon="-3.48899">
        <ele>80.85</ele>
        <time>2018-05-30T14:22:45Z</time>
      </trkpt>
      <trkpt lat="47.92273" lon="-3.48911">
        <ele>78.75</ele>
        <time>2018-05-30T14:23:04Z</time>
      </trkpt>
      <trkpt lat="47.92301" lon="-3.48918">
        <ele>76.3</ele>
        <time>2018-05-30T14:23:21Z</time>
      </trkpt>
      <trkpt lat="47.92327" lon="-3.48929">
        <ele>73.88</ele>
        <time>2018-05-30T14:23:37Z</time>
      </trkpt>
      <trkpt lat="47.92354" lon="-3.48936">
        <ele>70.86</ele>
        <time>2018-05-30T14:23:54Z</time>
      </trkpt>
      <trkpt lat="47.92375" lon="-3.48939">
        <ele>68.16</ele>
        <time>2018-05-30T14:24:06Z</time>
      </trkpt>
      <trkpt lat="47.92376" lon="-3.48939">
        <ele>67.64</ele>
        <time>2018-05-30T14:24:07Z</time>
      </trkpt>
      <trkpt lat="47.92377" lon="-3.48939">
        <ele>67.4</ele>
        <time>2018-05-30T14:24:08Z</time>
      </trkpt>
      <trkpt lat="47.92379" lon="-3.48939">
        <ele>67.16</ele>
        <time>2018-05-30T14:24:09Z</time>
      </trkpt>
      <trkpt lat="47.9238" lon="-3.48939">
        <ele>66.91</ele>
        <time>2018-05-30T14:24:10Z</time>
      </trkpt>
      <trkpt lat="47.92381" lon="-3.48939">
        <ele>66.67</ele>
        <time>2018-05-30T14:24:11Z</time>
      </trkpt>
      <trkpt lat="47.92402" lon="-3.48937">
        <ele>63.47</ele>
        <time>2018-05-30T14:24:25Z</time>
      </trkpt>
      <trkpt lat="47.92421" lon="-3.48936">
        <ele>60.44</ele>
        <time>2018-05-30T14:24:37Z</time>
      </trkpt>
      <trkpt lat="47.92447" lon="-3.48927">
        <ele>57.82</ele>
        <time>2018-05-30T14:24:51Z</time>
      </trkpt>
      <trkpt lat="47.9247" lon="-3.48917">
        <ele>55.15</ele>
        <time>2018-05-30T14:25:06Z</time>
      </trkpt>
      <trkpt lat="47.92488" lon="-3.48902">
        <ele>54.65</ele>
        <time>2018-05-30T14:25:21Z</time>
      </trkpt>
      <trkpt lat="47.92505" lon="-3.48884">
        <ele>55.02</ele>
        <time>2018-05-30T14:25:35Z</time>
      </trkpt>
      <trkpt lat="47.92517" lon="-3.48855">
        <ele>55.86</ele>
        <time>2018-05-30T14:25:49Z</time>
      </trkpt>
      <trkpt lat="47.92527" lon="-3.48828">
        <ele>55.79</ele>
        <time>2018-05-30T14:26:02Z</time>
      </trkpt>
      <trkpt lat="47.92527" lon="-3.48826">
        <ele>55.79</ele>
        <time>2018-05-30T14:26:03Z</time>
      </trkpt>
      <trkpt lat="47.92528" lon="-3.48823">
        <ele>55.78</ele>
        <time>2018-05-30T14:26:04Z</time>
      </trkpt>
      <trkpt lat="47.92528" lon="-3.48821">
        <ele>55.76</ele>
        <time>2018-05-30T14:26:05Z</time>
      </trkpt>
      <trkpt lat="47.92529" lon="-3.48819">
        <ele>55.76</ele>
        <time>2018-05-30T14:26:06Z</time>
      </trkpt>
      <trkpt lat="47.92534" lon="-3.48803">
        <ele>55.4</ele>
        <time>2018-05-30T14:26:16Z</time>
      </trkpt>
      <trkpt lat="47.9255" lon="-3.48787">
        <ele>55.57</ele>
        <time>2018-05-30T14:26:29Z</time>
      </trkpt>
      <trkpt lat="47.9257" lon="-3.48778">
        <ele>56.42</ele>
        <time>2018-05-30T14:26:42Z</time>
      </trkpt>
      <trkpt lat="47.92578" lon="-3.48774">
        <ele>56.85</ele>
        <time>2018-05-30T14:26:50Z</time>
      </trkpt>
      <trkpt lat="47.9258" lon="-3.48773">
        <ele>56.91</ele>
        <time>2018-05-30T14:26:51Z</time>
      </trkpt>
      <trkpt lat="47.92582" lon="-3.48773">
        <ele>57.04</ele>
        <time>2018-05-30T14:26:53Z</time>
      </trkpt>
      <trkpt lat="47.92605" lon="-3.4877">
        <ele>58.05</ele>
        <time>2018-05-30T14:27:09Z</time>
      </trkpt>
      <trkpt lat="47.92632" lon="-3.48766">
        <ele>58.67</ele>
        <time>2018-05-30T14:27:26Z</time>
      </trkpt>
      <trkpt lat="47.92644" lon="-3.48762">
        <ele>59.19</ele>
        <time>2018-05-30T14:27:38Z</time>
      </trkpt>
      <trkpt lat="47.9265" lon="-3.48757">
        <ele>58.81</ele>
        <time>2018-05-30T14:27:54Z</time>
      </trkpt>
      <trkpt lat="47.92654" lon="-3.48756">
        <ele>59.03</ele>
        <time>2018-05-30T14:28:10Z</time>
      </trkpt>
      <trkpt lat="47.92654" lon="-3.48748">
        <ele>59.14</ele>
        <time>2018-05-30T14:28:26Z</time>
      </trkpt>
      <trkpt lat="47.92654" lon="-3.48749">
        <ele>59.14</ele>
        <time>2018-05-30T14:28:31Z</time>
      </trkpt>
      <trkpt lat="47.92651" lon="-3.48754">
        <ele>58.83</ele>
        <time>2018-05-30T14:28:42Z</time>
      </trkpt>
      <trkpt lat="47.92654" lon="-3.48757">
        <ele>59.03</ele>
        <time>2018-05-30T14:28:59Z</time>
      </trkpt>
      <trkpt lat="47.92653" lon="-3.48755">
        <ele>59.27</ele>
        <time>2018-05-30T14:29:14Z</time>
      </trkpt>
      <trkpt lat="47.92654" lon="-3.48748">
        <ele>59.17</ele>
        <time>2018-05-30T14:29:26Z</time>
      </trkpt>
      <trkpt lat="47.92654" lon="-3.48739">
        <ele>59.69</ele>
        <time>2018-05-30T14:29:36Z</time>
      </trkpt>
      <trkpt lat="47.92654" lon="-3.4873">
        <ele>59.88</ele>
        <time>2018-05-30T14:29:41Z</time>
      </trkpt>
      <trkpt lat="47.92652" lon="-3.48702">
        <ele>60.74</ele>
        <time>2018-05-30T14:29:57Z</time>
      </trkpt>
      <trkpt lat="47.92644" lon="-3.48667">
        <ele>61.04</ele>
        <time>2018-05-30T14:30:13Z</time>
      </trkpt>
      <trkpt lat="47.92639" lon="-3.48633">
        <ele>61.13</ele>
        <time>2018-05-30T14:30:28Z</time>
      </trkpt>
      <trkpt lat="47.92636" lon="-3.48607">
        <ele>60.87</ele>
        <time>2018-05-30T14:30:41Z</time>
      </trkpt>
      <trkpt lat="47.92635" lon="-3.48603">
        <ele>60.82</ele>
        <time>2018-05-30T14:30:43Z</time>
      </trkpt>
      <trkpt lat="47.92632" lon="-3.48593">
        <ele>60.72</ele>
        <time>2018-05-30T14:30:47Z</time>
      </trkpt>
      <trkpt lat="47.92628" lon="-3.48568">
        <ele>60.26</ele>
        <time>2018-05-30T14:30:57Z</time>
      </trkpt>
      <trkpt lat="47.92615" lon="-3.48536">
        <ele>58.94</ele>
        <time>2018-05-30T14:31:12Z</time>
      </trkpt>
      <trkpt lat="47.92606" lon="-3.48507">
        <ele>56.76</ele>
        <time>2018-05-30T14:31:26Z</time>
      </trkpt>
      <trkpt lat="47.92603" lon="-3.48495">
        <ele>55.6</ele>
        <time>2018-05-30T14:31:31Z</time>
      </trkpt>
      <trkpt lat="47.92603" lon="-3.48474">
        <ele>53.28</ele>
        <time>2018-05-30T14:31:41Z</time>
      </trkpt>
      <trkpt lat="47.92606" lon="-3.48458">
        <ele>51.81</ele>
        <time>2018-05-30T14:31:50Z</time>
      </trkpt>
      <trkpt lat="47.926" lon="-3.48433">
        <ele>51.44</ele>
        <time>2018-05-30T14:32:05Z</time>
      </trkpt>
      <trkpt lat="47.92597" lon="-3.48417">
        <ele>51.79</ele>
        <time>2018-05-30T14:32:16Z</time>
      </trkpt>
      <trkpt lat="47.92595" lon="-3.48402">
        <ele>52.3</ele>
        <time>2018-05-30T14:32:22Z</time>
      </trkpt>
      <trkpt lat="47.92593" lon="-3.48391">
        <ele>52.83</ele>
        <time>2018-05-30T14:32:27Z</time>
      </trkpt>
      <trkpt lat="47.92587" lon="-3.48373">
        <ele>53.55</ele>
        <time>2018-05-30T14:32:33Z</time>
      </trkpt>
      <trkpt lat="47.92585" lon="-3.48356">
        <ele>54.01</ele>
        <time>2018-05-30T14:32:37Z</time>
      </trkpt>
      <trkpt lat="47.92584" lon="-3.48353">
        <ele>54.12</ele>
        <time>2018-05-30T14:32:38Z</time>
      </trkpt>
      <trkpt lat="47.92582" lon="-3.48317">
        <ele>55.87</ele>
        <time>2018-05-30T14:32:48Z</time>
      </trkpt>
      <trkpt lat="47.92582" lon="-3.48314">
        <ele>56.02</ele>
        <time>2018-05-30T14:32:49Z</time>
      </trkpt>
      <trkpt lat="47.92578" lon="-3.48277">
        <ele>57.71</ele>
        <time>2018-05-30T14:33:01Z</time>
      </trkpt>
      <trkpt lat="47.92577" lon="-3.48259">
        <ele>58.66</ele>
        <time>2018-05-30T14:33:09Z</time>
      </trkpt>
      <trkpt lat="47.92577" lon="-3.48257">
        <ele>58.83</ele>
        <time>2018-05-30T14:33:10Z</time>
      </trkpt>
      <trkpt lat="47.92574" lon="-3.48213">
        <ele>59.84</ele>
        <time>2018-05-30T14:33:24Z</time>
      </trkpt>
      <trkpt lat="47.92575" lon="-3.48186">
        <ele>60.43</ele>
        <time>2018-05-30T14:33:37Z</time>
      </trkpt>
      <trkpt lat="47.92576" lon="-3.48183">
        <ele>60.45</ele>
        <time>2018-05-30T14:33:38Z</time>
      </trkpt>
      <trkpt lat="47.92579" lon="-3.48139">
        <ele>60.3</ele>
        <time>2018-05-30T14:33:55Z</time>
      </trkpt>
      <trkpt lat="47.92584" lon="-3.48102">
        <ele>60.38</ele>
        <time>2018-05-30T14:34:10Z</time>
      </trkpt>
      <trkpt lat="47.92586" lon="-3.48096">
        <ele>60.3</ele>
        <time>2018-05-30T14:34:13Z</time>
      </trkpt>
      <trkpt lat="47.926" lon="-3.48083">
        <ele>59.94</ele>
        <time>2018-05-30T14:34:26Z</time>
      </trkpt>
      <trkpt lat="47.92601" lon="-3.48082">
        <ele>59.89</ele>
        <time>2018-05-30T14:34:27Z</time>
      </trkpt>
      <trkpt lat="47.92603" lon="-3.48082">
        <ele>59.83</ele>
        <time>2018-05-30T14:34:28Z</time>
      </trkpt>
      <trkpt lat="47.92624" lon="-3.48093">
        <ele>58.97</ele>
        <time>2018-05-30T14:34:42Z</time>
      </trkpt>
      <trkpt lat="47.92645" lon="-3.48114">
        <ele>58.18</ele>
        <time>2018-05-30T14:34:58Z</time>
      </trkpt>
      <trkpt lat="47.92646" lon="-3.48115">
        <ele>58.12</ele>
        <time>2018-05-30T14:34:59Z</time>
      </trkpt>
      <trkpt lat="47.92647" lon="-3.48116">
        <ele>58.05</ele>
        <time>2018-05-30T14:35:00Z</time>
      </trkpt>
      <trkpt lat="47.92648" lon="-3.48116">
        <ele>57.99</ele>
        <time>2018-05-30T14:35:01Z</time>
      </trkpt>
      <trkpt lat="47.9265" lon="-3.48117">
        <ele>57.93</ele>
        <time>2018-05-30T14:35:02Z</time>
      </trkpt>
      <trkpt lat="47.92674" lon="-3.4813">
        <ele>57.13</ele>
        <time>2018-05-30T14:35:18Z</time>
      </trkpt>
      <trkpt lat="47.92694" lon="-3.48136">
        <ele>56.95</ele>
        <time>2018-05-30T14:35:30Z</time>
      </trkpt>
      <trkpt lat="47.92716" lon="-3.48141">
        <ele>56.98</ele>
        <time>2018-05-30T14:35:45Z</time>
      </trkpt>
      <trkpt lat="47.92732" lon="-3.48147">
        <ele>57.16</ele>
        <time>2018-05-30T14:35:59Z</time>
      </trkpt>
      <trkpt lat="47.92733" lon="-3.48148">
        <ele>57.21</ele>
        <time>2018-05-30T14:36:00Z</time>
      </trkpt>
      <trkpt lat="47.92734" lon="-3.48148">
        <ele>57.26</ele>
        <time>2018-05-30T14:36:01Z</time>
      </trkpt>
      <trkpt lat="47.92737" lon="-3.48149">
        <ele>57.39</ele>
        <time>2018-05-30T14:36:03Z</time>
      </trkpt>
      <trkpt lat="47.92738" lon="-3.48148">
        <ele>57.43</ele>
        <time>2018-05-30T14:36:04Z</time>
      </trkpt>
      <trkpt lat="47.92762" lon="-3.48158">
        <ele>58.13</ele>
        <time>2018-05-30T14:36:19Z</time>
      </trkpt>
      <trkpt lat="47.92777" lon="-3.48164">
        <ele>58.5</ele>
        <time>2018-05-30T14:36:28Z</time>
      </trkpt>
      <trkpt lat="47.92778" lon="-3.48165">
        <ele>58.56</ele>
        <time>2018-05-30T14:36:29Z</time>
      </trkpt>
      <trkpt lat="47.9278" lon="-3.48165">
        <ele>58.66</ele>
        <time>2018-05-30T14:36:30Z</time>
      </trkpt>
      <trkpt lat="47.92781" lon="-3.48167">
        <ele>58.73</ele>
        <time>2018-05-30T14:36:31Z</time>
      </trkpt>
      <trkpt lat="47.92783" lon="-3.48167">
        <ele>58.82</ele>
        <time>2018-05-30T14:36:32Z</time>
      </trkpt>
      <trkpt lat="47.92784" lon="-3.48168">
        <ele>58.89</ele>
        <time>2018-05-30T14:36:33Z</time>
      </trkpt>
      <trkpt lat="47.92786" lon="-3.48169">
        <ele>58.95</ele>
        <time>2018-05-30T14:36:34Z</time>
      </trkpt>
      <trkpt lat="47.92788" lon="-3.4817">
        <ele>58.97</ele>
        <time>2018-05-30T14:36:35Z</time>
      </trkpt>
      <trkpt lat="47.92811" lon="-3.48179">
        <ele>59.19</ele>
        <time>2018-05-30T14:36:50Z</time>
      </trkpt>
      <trkpt lat="47.92834" lon="-3.48186">
        <ele>59.39</ele>
        <time>2018-05-30T14:37:04Z</time>
      </trkpt>
      <trkpt lat="47.92856" lon="-3.48193">
        <ele>59.93</ele>
        <time>2018-05-30T14:37:18Z</time>
      </trkpt>
      <trkpt lat="47.9287" lon="-3.48198">
        <ele>60.38</ele>
        <time>2018-05-30T14:37:28Z</time>
      </trkpt>
      <trkpt lat="47.92871" lon="-3.48198">
        <ele>60.44</ele>
        <time>2018-05-30T14:37:29Z</time>
      </trkpt>
      <trkpt lat="47.92873" lon="-3.48199">
        <ele>60.5</ele>
        <time>2018-05-30T14:37:30Z</time>
      </trkpt>
      <trkpt lat="47.92874" lon="-3.48199">
        <ele>60.54</ele>
        <time>2018-05-30T14:37:31Z</time>
      </trkpt>
      <trkpt lat="47.92875" lon="-3.482">
        <ele>60.57</ele>
        <time>2018-05-30T14:37:32Z</time>
      </trkpt>
      <trkpt lat="47.92877" lon="-3.482">
        <ele>60.59</ele>
        <time>2018-05-30T14:37:33Z</time>
      </trkpt>
      <trkpt lat="47.92878" lon="-3.482">
        <ele>60.6</ele>
        <time>2018-05-30T14:37:34Z</time>
      </trkpt>
      <trkpt lat="47.92879" lon="-3.48201">
        <ele>60.63</ele>
        <time>2018-05-30T14:37:35Z</time>
      </trkpt>
      <trkpt lat="47.92899" lon="-3.48207">
        <ele>60.84</ele>
        <time>2018-05-30T14:37:47Z</time>
      </trkpt>
      <trkpt lat="47.92923" lon="-3.48215">
        <ele>61.14</ele>
        <time>2018-05-30T14:38:02Z</time>
      </trkpt>
      <trkpt lat="47.92936" lon="-3.4822">
        <ele>60.86</ele>
        <time>2018-05-30T14:38:12Z</time>
      </trkpt>
      <trkpt lat="47.92938" lon="-3.4822">
        <ele>60.87</ele>
        <time>2018-05-30T14:38:13Z</time>
      </trkpt>
      <trkpt lat="47.92957" lon="-3.48222">
        <ele>61.06</ele>
        <time>2018-05-30T14:38:26Z</time>
      </trkpt>
      <trkpt lat="47.92958" lon="-3.48224">
        <ele>61.05</ele>
        <time>2018-05-30T14:38:27Z</time>
      </trkpt>
      <trkpt lat="47.92959" lon="-3.48226">
        <ele>61.03</ele>
        <time>2018-05-30T14:38:28Z</time>
      </trkpt>
      <trkpt lat="47.9296" lon="-3.48228">
        <ele>60.99</ele>
        <time>2018-05-30T14:38:29Z</time>
      </trkpt>
      <trkpt lat="47.92966" lon="-3.48239">
        <ele>60.92</ele>
        <time>2018-05-30T14:38:45Z</time>
      </trkpt>
      <trkpt lat="47.92967" lon="-3.48243">
        <ele>60.75</ele>
        <time>2018-05-30T14:38:48Z</time>
      </trkpt>
      <trkpt lat="47.92967" lon="-3.48249">
        <ele>60.5</ele>
        <time>2018-05-30T14:38:53Z</time>
      </trkpt>
      <trkpt lat="47.92967" lon="-3.48251">
        <ele>60.36</ele>
        <time>2018-05-30T14:38:54Z</time>
      </trkpt>
      <trkpt lat="47.92967" lon="-3.48253">
        <ele>60.29</ele>
        <time>2018-05-30T14:38:55Z</time>
      </trkpt>
      <trkpt lat="47.92967" lon="-3.48255">
        <ele>60.22</ele>
        <time>2018-05-30T14:38:56Z</time>
      </trkpt>
      <trkpt lat="47.92967" lon="-3.48264">
        <ele>60.18</ele>
        <time>2018-05-30T14:39:01Z</time>
      </trkpt>
      <trkpt lat="47.92968" lon="-3.48266">
        <ele>60.18</ele>
        <time>2018-05-30T14:39:02Z</time>
      </trkpt>
      <trkpt lat="47.92969" lon="-3.48267">
        <ele>60.18</ele>
        <time>2018-05-30T14:39:03Z</time>
      </trkpt>
      <trkpt lat="47.9297" lon="-3.48268">
        <ele>60.19</ele>
        <time>2018-05-30T14:39:04Z</time>
      </trkpt>
      <trkpt lat="47.92983" lon="-3.48275">
        <ele>60.7</ele>
        <time>2018-05-30T14:39:17Z</time>
      </trkpt>
      <trkpt lat="47.92985" lon="-3.48277">
        <ele>60.74</ele>
        <time>2018-05-30T14:39:18Z</time>
      </trkpt>
      <trkpt lat="47.9299" lon="-3.48278">
        <ele>61.07</ele>
        <time>2018-05-30T14:39:22Z</time>
      </trkpt>
      <trkpt lat="47.92992" lon="-3.48278">
        <ele>61.14</ele>
        <time>2018-05-30T14:39:23Z</time>
      </trkpt>
      <trkpt lat="47.93005" lon="-3.4828">
        <ele>61.7</ele>
        <time>2018-05-30T14:39:34Z</time>
      </trkpt>
      <trkpt lat="47.93006" lon="-3.48281">
        <ele>61.78</ele>
        <time>2018-05-30T14:39:35Z</time>
      </trkpt>
      <trkpt lat="47.93008" lon="-3.48281">
        <ele>61.86</ele>
        <time>2018-05-30T14:39:36Z</time>
      </trkpt>
      <trkpt lat="47.93033" lon="-3.48285">
        <ele>63.55</ele>
        <time>2018-05-30T14:39:52Z</time>
      </trkpt>
      <trkpt lat="47.9306" lon="-3.48291">
        <ele>66.72</ele>
        <time>2018-05-30T14:40:07Z</time>
      </trkpt>
      <trkpt lat="47.93081" lon="-3.48298">
        <ele>69.8</ele>
        <time>2018-05-30T14:40:19Z</time>
      </trkpt>
      <trkpt lat="47.93106" lon="-3.48304">
        <ele>72.94</ele>
        <time>2018-05-30T14:40:36Z</time>
      </trkpt>
      <trkpt lat="47.93134" lon="-3.48308">
        <ele>75.82</ele>
        <time>2018-05-30T14:40:54Z</time>
      </trkpt>
      <trkpt lat="47.9316" lon="-3.48306">
        <ele>78.29</ele>
        <time>2018-05-30T14:41:11Z</time>
      </trkpt>
      <trkpt lat="47.93182" lon="-3.48298">
        <ele>80.98</ele>
        <time>2018-05-30T14:41:27Z</time>
      </trkpt>
      <trkpt lat="47.93184" lon="-3.48297">
        <ele>81.37</ele>
        <time>2018-05-30T14:41:29Z</time>
      </trkpt>
      <trkpt lat="47.93186" lon="-3.48297">
        <ele>81.54</ele>
        <time>2018-05-30T14:41:30Z</time>
      </trkpt>
      <trkpt lat="47.93188" lon="-3.48297">
        <ele>81.69</ele>
        <time>2018-05-30T14:41:31Z</time>
      </trkpt>
      <trkpt lat="47.93189" lon="-3.48296">
        <ele>81.8</ele>
        <time>2018-05-30T14:41:32Z</time>
      </trkpt>
      <trkpt lat="47.93193" lon="-3.48295">
        <ele>82.17</ele>
        <time>2018-05-30T14:41:35Z</time>
      </trkpt>
      <trkpt lat="47.93194" lon="-3.48294">
        <ele>82.31</ele>
        <time>2018-05-30T14:41:36Z</time>
      </trkpt>
      <trkpt lat="47.932" lon="-3.48293">
        <ele>82.77</ele>
        <time>2018-05-30T14:41:40Z</time>
      </trkpt>
      <trkpt lat="47.93201" lon="-3.48293">
        <ele>82.89</ele>
        <time>2018-05-30T14:41:41Z</time>
      </trkpt>
      <trkpt lat="47.93202" lon="-3.48292">
        <ele>82.98</ele>
        <time>2018-05-30T14:41:42Z</time>
      </trkpt>
      <trkpt lat="47.93203" lon="-3.48292">
        <ele>83.08</ele>
        <time>2018-05-30T14:41:43Z</time>
      </trkpt>
      <trkpt lat="47.93205" lon="-3.48291">
        <ele>83.18</ele>
        <time>2018-05-30T14:41:44Z</time>
      </trkpt>
      <trkpt lat="47.93206" lon="-3.4829">
        <ele>83.29</ele>
        <time>2018-05-30T14:41:45Z</time>
      </trkpt>
      <trkpt lat="47.93208" lon="-3.48289">
        <ele>83.4</ele>
        <time>2018-05-30T14:41:46Z</time>
      </trkpt>
      <trkpt lat="47.93209" lon="-3.48289">
        <ele>83.5</ele>
        <time>2018-05-30T14:41:47Z</time>
      </trkpt>
      <trkpt lat="47.9321" lon="-3.48287">
        <ele>83.6</ele>
        <time>2018-05-30T14:41:48Z</time>
      </trkpt>
      <trkpt lat="47.93212" lon="-3.48286">
        <ele>83.76</ele>
        <time>2018-05-30T14:41:49Z</time>
      </trkpt>
      <trkpt lat="47.93213" lon="-3.48286">
        <ele>83.82</ele>
        <time>2018-05-30T14:41:50Z</time>
      </trkpt>
      <trkpt lat="47.93215" lon="-3.48286">
        <ele>83.88</ele>
        <time>2018-05-30T14:41:51Z</time>
      </trkpt>
      <trkpt lat="47.9324" lon="-3.48273">
        <ele>84.68</ele>
        <time>2018-05-30T14:42:09Z</time>
      </trkpt>
      <trkpt lat="47.93255" lon="-3.48257">
        <ele>84.53</ele>
        <time>2018-05-30T14:42:21Z</time>
      </trkpt>
      <trkpt lat="47.93256" lon="-3.48255">
        <ele>84.55</ele>
        <time>2018-05-30T14:42:22Z</time>
      </trkpt>
      <trkpt lat="47.93272" lon="-3.48239">
        <ele>84.19</ele>
        <time>2018-05-30T14:42:35Z</time>
      </trkpt>
      <trkpt lat="47.93288" lon="-3.48229">
        <ele>83.93</ele>
        <time>2018-05-30T14:42:47Z</time>
      </trkpt>
      <trkpt lat="47.93305" lon="-3.48213">
        <ele>83.67</ele>
        <time>2018-05-30T14:43:00Z</time>
      </trkpt>
      <trkpt lat="47.93324" lon="-3.48184">
        <ele>83.5</ele>
        <time>2018-05-30T14:43:16Z</time>
      </trkpt>
      <trkpt lat="47.93329" lon="-3.4818">
        <ele>83.62</ele>
        <time>2018-05-30T14:43:20Z</time>
      </trkpt>
      <trkpt lat="47.9333" lon="-3.48178">
        <ele>83.64</ele>
        <time>2018-05-30T14:43:21Z</time>
      </trkpt>
      <trkpt lat="47.93331" lon="-3.48177">
        <ele>83.65</ele>
        <time>2018-05-30T14:43:22Z</time>
      </trkpt>
      <trkpt lat="47.93332" lon="-3.48176">
        <ele>83.69</ele>
        <time>2018-05-30T14:43:23Z</time>
      </trkpt>
      <trkpt lat="47.93334" lon="-3.48175">
        <ele>83.7</ele>
        <time>2018-05-30T14:43:24Z</time>
      </trkpt>
      <trkpt lat="47.93335" lon="-3.48174">
        <ele>83.67</ele>
        <time>2018-05-30T14:43:25Z</time>
      </trkpt>
      <trkpt lat="47.93336" lon="-3.48173">
        <ele>83.68</ele>
        <time>2018-05-30T14:43:26Z</time>
      </trkpt>
      <trkpt lat="47.93354" lon="-3.48153">
        <ele>83.79</ele>
        <time>2018-05-30T14:43:43Z</time>
      </trkpt>
      <trkpt lat="47.93358" lon="-3.48149">
        <ele>83.69</ele>
        <time>2018-05-30T14:43:51Z</time>
      </trkpt>
      <trkpt lat="47.93359" lon="-3.48146">
        <ele>83.65</ele>
        <time>2018-05-30T14:43:53Z</time>
      </trkpt>
      <trkpt lat="47.9336" lon="-3.48145">
        <ele>83.67</ele>
        <time>2018-05-30T14:43:54Z</time>
      </trkpt>
      <trkpt lat="47.93364" lon="-3.48142">
        <ele>83.79</ele>
        <time>2018-05-30T14:43:57Z</time>
      </trkpt>
      <trkpt lat="47.93365" lon="-3.4814">
        <ele>83.84</ele>
        <time>2018-05-30T14:43:58Z</time>
      </trkpt>
      <trkpt lat="47.93381" lon="-3.48109">
        <ele>84.49</ele>
        <time>2018-05-30T14:44:14Z</time>
      </trkpt>
      <trkpt lat="47.93388" lon="-3.48098">
        <ele>84.83</ele>
        <time>2018-05-30T14:44:20Z</time>
      </trkpt>
      <trkpt lat="47.93389" lon="-3.48096">
        <ele>84.88</ele>
        <time>2018-05-30T14:44:21Z</time>
      </trkpt>
      <trkpt lat="47.93391" lon="-3.48094">
        <ele>84.89</ele>
        <time>2018-05-30T14:44:22Z</time>
      </trkpt>
      <trkpt lat="47.93403" lon="-3.48066">
        <ele>85.11</ele>
        <time>2018-05-30T14:44:37Z</time>
      </trkpt>
      <trkpt lat="47.93404" lon="-3.48055">
        <ele>85.4</ele>
        <time>2018-05-30T14:44:42Z</time>
      </trkpt>
      <trkpt lat="47.93404" lon="-3.48053">
        <ele>85.41</ele>
        <time>2018-05-30T14:44:43Z</time>
      </trkpt>
      <trkpt lat="47.93404" lon="-3.48051">
        <ele>85.4</ele>
        <time>2018-05-30T14:44:44Z</time>
      </trkpt>
      <trkpt lat="47.93404" lon="-3.48048">
        <ele>85.36</ele>
        <time>2018-05-30T14:44:45Z</time>
      </trkpt>
      <trkpt lat="47.93404" lon="-3.48046">
        <ele>85.31</ele>
        <time>2018-05-30T14:44:46Z</time>
      </trkpt>
      <trkpt lat="47.934" lon="-3.48012">
        <ele>84.74</ele>
        <time>2018-05-30T14:45:01Z</time>
      </trkpt>
      <trkpt lat="47.93394" lon="-3.47973">
        <ele>83.54</ele>
        <time>2018-05-30T14:45:18Z</time>
      </trkpt>
      <trkpt lat="47.93401" lon="-3.47952">
        <ele>82.61</ele>
        <time>2018-05-30T14:45:30Z</time>
      </trkpt>
      <trkpt lat="47.9342" lon="-3.47946">
        <ele>82.66</ele>
        <time>2018-05-30T14:45:42Z</time>
      </trkpt>
      <trkpt lat="47.93445" lon="-3.47939">
        <ele>83.11</ele>
        <time>2018-05-30T14:45:58Z</time>
      </trkpt>
      <trkpt lat="47.93475" lon="-3.47929">
        <ele>83.41</ele>
        <time>2018-05-30T14:46:16Z</time>
      </trkpt>
      <trkpt lat="47.935" lon="-3.47914">
        <ele>82.92</ele>
        <time>2018-05-30T14:46:33Z</time>
      </trkpt>
      <trkpt lat="47.93532" lon="-3.47901">
        <ele>82.46</ele>
        <time>2018-05-30T14:46:51Z</time>
      </trkpt>
      <trkpt lat="47.93553" lon="-3.47887">
        <ele>82.22</ele>
        <time>2018-05-30T14:47:05Z</time>
      </trkpt>
      <trkpt lat="47.93575" lon="-3.47878">
        <ele>82.94</ele>
        <time>2018-05-30T14:47:19Z</time>
      </trkpt>
      <trkpt lat="47.93596" lon="-3.47869">
        <ele>85.01</ele>
        <time>2018-05-30T14:47:32Z</time>
      </trkpt>
      <trkpt lat="47.93617" lon="-3.47866">
        <ele>86.69</ele>
        <time>2018-05-30T14:47:46Z</time>
      </trkpt>
      <trkpt lat="47.93632" lon="-3.47862">
        <ele>87.74</ele>
        <time>2018-05-30T14:47:58Z</time>
      </trkpt>
      <trkpt lat="47.93638" lon="-3.4786">
        <ele>88.28</ele>
        <time>2018-05-30T14:48:05Z</time>
      </trkpt>
      <trkpt lat="47.93639" lon="-3.4786">
        <ele>88.32</ele>
        <time>2018-05-30T14:48:06Z</time>
      </trkpt>
      <trkpt lat="47.93641" lon="-3.4786">
        <ele>88.36</ele>
        <time>2018-05-30T14:48:07Z</time>
      </trkpt>
      <trkpt lat="47.93642" lon="-3.4786">
        <ele>88.38</ele>
        <time>2018-05-30T14:48:08Z</time>
      </trkpt>
      <trkpt lat="47.93644" lon="-3.47859">
        <ele>88.42</ele>
        <time>2018-05-30T14:48:09Z</time>
      </trkpt>
      <trkpt lat="47.93646" lon="-3.47854">
        <ele>89.19</ele>
        <time>2018-05-30T14:54:46Z</time>
      </trkpt>
      <trkpt lat="47.93645" lon="-3.47853">
        <ele>89.1</ele>
        <time>2018-05-30T14:54:47Z</time>
      </trkpt>
      <trkpt lat="47.93636" lon="-3.4784">
        <ele>88.81</ele>
        <time>2018-05-30T14:54:57Z</time>
      </trkpt>
      <trkpt lat="47.93629" lon="-3.47828">
        <ele>88.7</ele>
        <time>2018-05-30T14:55:06Z</time>
      </trkpt>
      <trkpt lat="47.93628" lon="-3.47827">
        <ele>88.62</ele>
        <time>2018-05-30T14:55:07Z</time>
      </trkpt>
      <trkpt lat="47.93626" lon="-3.47824">
        <ele>88.5</ele>
        <time>2018-05-30T14:55:09Z</time>
      </trkpt>
      <trkpt lat="47.93625" lon="-3.47822">
        <ele>88.43</ele>
        <time>2018-05-30T14:55:10Z</time>
      </trkpt>
      <trkpt lat="47.93624" lon="-3.4782">
        <ele>88.35</ele>
        <time>2018-05-30T14:55:11Z</time>
      </trkpt>
      <trkpt lat="47.93624" lon="-3.47819">
        <ele>88.25</ele>
        <time>2018-05-30T14:55:12Z</time>
      </trkpt>
      <trkpt lat="47.93623" lon="-3.47818">
        <ele>88.17</ele>
        <time>2018-05-30T14:55:13Z</time>
      </trkpt>
      <trkpt lat="47.93622" lon="-3.47817">
        <ele>88.1</ele>
        <time>2018-05-30T14:55:14Z</time>
      </trkpt>
      <trkpt lat="47.93621" lon="-3.47816">
        <ele>88.03</ele>
        <time>2018-05-30T14:55:15Z</time>
      </trkpt>
      <trkpt lat="47.93617" lon="-3.47814">
        <ele>87.75</ele>
        <time>2018-05-30T14:55:19Z</time>
      </trkpt>
      <trkpt lat="47.93616" lon="-3.47813">
        <ele>87.65</ele>
        <time>2018-05-30T14:55:20Z</time>
      </trkpt>
      <trkpt lat="47.93614" lon="-3.47813">
        <ele>87.54</ele>
        <time>2018-05-30T14:55:21Z</time>
      </trkpt>
      <trkpt lat="47.93599" lon="-3.47804">
        <ele>86.11</ele>
        <time>2018-05-30T14:55:34Z</time>
      </trkpt>
      <trkpt lat="47.93592" lon="-3.47786">
        <ele>85.09</ele>
        <time>2018-05-30T14:55:44Z</time>
      </trkpt>
      <trkpt lat="47.93592" lon="-3.47784">
        <ele>85.01</ele>
        <time>2018-05-30T14:55:45Z</time>
      </trkpt>
      <trkpt lat="47.9359" lon="-3.47758">
        <ele>84.79</ele>
        <time>2018-05-30T14:55:57Z</time>
      </trkpt>
      <trkpt lat="47.9359" lon="-3.47756">
        <ele>84.83</ele>
        <time>2018-05-30T14:55:58Z</time>
      </trkpt>
      <trkpt lat="47.93589" lon="-3.47754">
        <ele>84.86</ele>
        <time>2018-05-30T14:55:59Z</time>
      </trkpt>
      <trkpt lat="47.93589" lon="-3.47752">
        <ele>84.85</ele>
        <time>2018-05-30T14:56:00Z</time>
      </trkpt>
      <trkpt lat="47.93589" lon="-3.47749">
        <ele>84.79</ele>
        <time>2018-05-30T14:56:01Z</time>
      </trkpt>
      <trkpt lat="47.93589" lon="-3.47747">
        <ele>84.79</ele>
        <time>2018-05-30T14:56:02Z</time>
      </trkpt>
      <trkpt lat="47.93589" lon="-3.47745">
        <ele>84.74</ele>
        <time>2018-05-30T14:56:03Z</time>
      </trkpt>
      <trkpt lat="47.93588" lon="-3.47743">
        <ele>84.73</ele>
        <time>2018-05-30T14:56:04Z</time>
      </trkpt>
      <trkpt lat="47.93588" lon="-3.47742">
        <ele>84.78</ele>
        <time>2018-05-30T14:56:05Z</time>
      </trkpt>
      <trkpt lat="47.93588" lon="-3.4774">
        <ele>84.76</ele>
        <time>2018-05-30T14:56:06Z</time>
      </trkpt>
      <trkpt lat="47.93588" lon="-3.47738">
        <ele>84.79</ele>
        <time>2018-05-30T14:56:07Z</time>
      </trkpt>
      <trkpt lat="47.93588" lon="-3.47736">
        <ele>84.85</ele>
        <time>2018-05-30T14:56:08Z</time>
      </trkpt>
      <trkpt lat="47.93589" lon="-3.47703">
        <ele>85.25</ele>
        <time>2018-05-30T14:56:24Z</time>
      </trkpt>
      <trkpt lat="47.93592" lon="-3.47683">
        <ele>85.56</ele>
        <time>2018-05-30T14:56:32Z</time>
      </trkpt>
      <trkpt lat="47.93593" lon="-3.47681">
        <ele>85.69</ele>
        <time>2018-05-30T14:56:33Z</time>
      </trkpt>
      <trkpt lat="47.93593" lon="-3.47678">
        <ele>85.8</ele>
        <time>2018-05-30T14:56:34Z</time>
      </trkpt>
      <trkpt lat="47.93594" lon="-3.47676">
        <ele>85.88</ele>
        <time>2018-05-30T14:56:35Z</time>
      </trkpt>
      <trkpt lat="47.93595" lon="-3.47674">
        <ele>85.96</ele>
        <time>2018-05-30T14:56:36Z</time>
      </trkpt>
      <trkpt lat="47.93598" lon="-3.47665">
        <ele>86.18</ele>
        <time>2018-05-30T14:56:41Z</time>
      </trkpt>
      <trkpt lat="47.93611" lon="-3.47635">
        <ele>87.74</ele>
        <time>2018-05-30T14:56:57Z</time>
      </trkpt>
      <trkpt lat="47.93618" lon="-3.47613">
        <ele>88.97</ele>
        <time>2018-05-30T14:57:10Z</time>
      </trkpt>
      <trkpt lat="47.93624" lon="-3.47574">
        <ele>89.54</ele>
        <time>2018-05-30T14:57:27Z</time>
      </trkpt>
      <trkpt lat="47.93627" lon="-3.47539">
        <ele>89.8</ele>
        <time>2018-05-30T14:57:43Z</time>
      </trkpt>
      <trkpt lat="47.93627" lon="-3.47537">
        <ele>89.87</ele>
        <time>2018-05-30T14:57:44Z</time>
      </trkpt>
      <trkpt lat="47.93628" lon="-3.47535">
        <ele>89.98</ele>
        <time>2018-05-30T14:57:45Z</time>
      </trkpt>
      <trkpt lat="47.93628" lon="-3.47533">
        <ele>90.07</ele>
        <time>2018-05-30T14:57:46Z</time>
      </trkpt>
      <trkpt lat="47.93632" lon="-3.47506">
        <ele>90.63</ele>
        <time>2018-05-30T14:57:58Z</time>
      </trkpt>
      <trkpt lat="47.93633" lon="-3.47504">
        <ele>90.68</ele>
        <time>2018-05-30T14:57:59Z</time>
      </trkpt>
      <trkpt lat="47.93633" lon="-3.47502">
        <ele>90.81</ele>
        <time>2018-05-30T14:58:00Z</time>
      </trkpt>
      <trkpt lat="47.93637" lon="-3.47493">
        <ele>91.06</ele>
        <time>2018-05-30T14:58:05Z</time>
      </trkpt>
      <trkpt lat="47.93648" lon="-3.4746">
        <ele>91.7</ele>
        <time>2018-05-30T14:58:20Z</time>
      </trkpt>
      <trkpt lat="47.93658" lon="-3.47429">
        <ele>92.51</ele>
        <time>2018-05-30T14:58:36Z</time>
      </trkpt>
      <trkpt lat="47.93661" lon="-3.47427">
        <ele>92.63</ele>
        <time>2018-05-30T14:58:46Z</time>
      </trkpt>
      <trkpt lat="47.93662" lon="-3.47426">
        <ele>92.66</ele>
        <time>2018-05-30T14:58:47Z</time>
      </trkpt>
      <trkpt lat="47.93663" lon="-3.47425">
        <ele>92.7</ele>
        <time>2018-05-30T14:58:48Z</time>
      </trkpt>
      <trkpt lat="47.93664" lon="-3.47424">
        <ele>92.75</ele>
        <time>2018-05-30T14:58:49Z</time>
      </trkpt>
      <trkpt lat="47.93665" lon="-3.47423">
        <ele>92.78</ele>
        <time>2018-05-30T14:58:50Z</time>
      </trkpt>
      <trkpt lat="47.93683" lon="-3.47389">
        <ele>92.69</ele>
        <time>2018-05-30T14:59:09Z</time>
      </trkpt>
      <trkpt lat="47.93694" lon="-3.47375">
        <ele>92.72</ele>
        <time>2018-05-30T14:59:18Z</time>
      </trkpt>
      <trkpt lat="47.93696" lon="-3.47369">
        <ele>92.73</ele>
        <time>2018-05-30T14:59:21Z</time>
      </trkpt>
      <trkpt lat="47.93711" lon="-3.47341">
        <ele>92.02</ele>
        <time>2018-05-30T14:59:37Z</time>
      </trkpt>
      <trkpt lat="47.93729" lon="-3.47316">
        <ele>90.27</ele>
        <time>2018-05-30T14:59:53Z</time>
      </trkpt>
      <trkpt lat="47.93745" lon="-3.47293">
        <ele>88.94</ele>
        <time>2018-05-30T15:00:07Z</time>
      </trkpt>
      <trkpt lat="47.93759" lon="-3.47268">
        <ele>87.42</ele>
        <time>2018-05-30T15:00:22Z</time>
      </trkpt>
      <trkpt lat="47.9378" lon="-3.47236">
        <ele>85.25</ele>
        <time>2018-05-30T15:00:38Z</time>
      </trkpt>
      <trkpt lat="47.93802" lon="-3.47205">
        <ele>82.65</ele>
        <time>2018-05-30T15:00:55Z</time>
      </trkpt>
      <trkpt lat="47.9382" lon="-3.47186">
        <ele>80.59</ele>
        <time>2018-05-30T15:01:09Z</time>
      </trkpt>
      <trkpt lat="47.93829" lon="-3.47177">
        <ele>79.19</ele>
        <time>2018-05-30T15:01:17Z</time>
      </trkpt>
      <trkpt lat="47.9383" lon="-3.47176">
        <ele>78.83</ele>
        <time>2018-05-30T15:01:18Z</time>
      </trkpt>
      <trkpt lat="47.93831" lon="-3.47176">
        <ele>78.66</ele>
        <time>2018-05-30T15:01:19Z</time>
      </trkpt>
      <trkpt lat="47.93833" lon="-3.47175">
        <ele>78.51</ele>
        <time>2018-05-30T15:01:20Z</time>
      </trkpt>
      <trkpt lat="47.93834" lon="-3.47174">
        <ele>78.36</ele>
        <time>2018-05-30T15:01:21Z</time>
      </trkpt>
      <trkpt lat="47.93835" lon="-3.47173">
        <ele>78.18</ele>
        <time>2018-05-30T15:01:22Z</time>
      </trkpt>
      <trkpt lat="47.93837" lon="-3.47172">
        <ele>77.99</ele>
        <time>2018-05-30T15:01:23Z</time>
      </trkpt>
      <trkpt lat="47.93838" lon="-3.47172">
        <ele>77.82</ele>
        <time>2018-05-30T15:01:24Z</time>
      </trkpt>
      <trkpt lat="47.93855" lon="-3.47169">
        <ele>75.67</ele>
        <time>2018-05-30T15:01:39Z</time>
      </trkpt>
      <trkpt lat="47.93872" lon="-3.47159">
        <ele>72.91</ele>
        <time>2018-05-30T15:01:55Z</time>
      </trkpt>
      <trkpt lat="47.93888" lon="-3.4715">
        <ele>70.64</ele>
        <time>2018-05-30T15:02:07Z</time>
      </trkpt>
      <trkpt lat="47.9389" lon="-3.4715">
        <ele>70.48</ele>
        <time>2018-05-30T15:02:08Z</time>
      </trkpt>
      <trkpt lat="47.93908" lon="-3.47143">
        <ele>68.54</ele>
        <time>2018-05-30T15:02:17Z</time>
      </trkpt>
      <trkpt lat="47.93927" lon="-3.47125">
        <ele>65.38</ele>
        <time>2018-05-30T15:02:31Z</time>
      </trkpt>
      <trkpt lat="47.93939" lon="-3.4711">
        <ele>63.14</ele>
        <time>2018-05-30T15:02:43Z</time>
      </trkpt>
      <trkpt lat="47.93942" lon="-3.47106">
        <ele>62.65</ele>
        <time>2018-05-30T15:02:45Z</time>
      </trkpt>
      <trkpt lat="47.93944" lon="-3.47105">
        <ele>62.45</ele>
        <time>2018-05-30T15:02:46Z</time>
      </trkpt>
      <trkpt lat="47.93949" lon="-3.47097">
        <ele>61.64</ele>
        <time>2018-05-30T15:02:51Z</time>
      </trkpt>
      <trkpt lat="47.9395" lon="-3.47095">
        <ele>61.48</ele>
        <time>2018-05-30T15:02:52Z</time>
      </trkpt>
      <trkpt lat="47.93952" lon="-3.47094">
        <ele>61.32</ele>
        <time>2018-05-30T15:02:53Z</time>
      </trkpt>
      <trkpt lat="47.9396" lon="-3.47079">
        <ele>60.25</ele>
        <time>2018-05-30T15:03:00Z</time>
      </trkpt>
      <trkpt lat="47.93962" lon="-3.47078">
        <ele>60.06</ele>
        <time>2018-05-30T15:03:01Z</time>
      </trkpt>
      <trkpt lat="47.93963" lon="-3.47077">
        <ele>59.85</ele>
        <time>2018-05-30T15:03:02Z</time>
      </trkpt>
      <trkpt lat="47.93964" lon="-3.47075">
        <ele>59.66</ele>
        <time>2018-05-30T15:03:03Z</time>
      </trkpt>
      <trkpt lat="47.93965" lon="-3.47073">
        <ele>59.51</ele>
        <time>2018-05-30T15:03:04Z</time>
      </trkpt>
      <trkpt lat="47.93966" lon="-3.47071">
        <ele>59.36</ele>
        <time>2018-05-30T15:03:05Z</time>
      </trkpt>
      <trkpt lat="47.93967" lon="-3.47069">
        <ele>59.2</ele>
        <time>2018-05-30T15:03:06Z</time>
      </trkpt>
      <trkpt lat="47.93967" lon="-3.47067">
        <ele>59.03</ele>
        <time>2018-05-30T15:03:07Z</time>
      </trkpt>
      <trkpt lat="47.93968" lon="-3.47065">
        <ele>58.87</ele>
        <time>2018-05-30T15:03:08Z</time>
      </trkpt>
      <trkpt lat="47.9398" lon="-3.4704">
        <ele>57.09</ele>
        <time>2018-05-30T15:03:19Z</time>
      </trkpt>
      <trkpt lat="47.94002" lon="-3.47023">
        <ele>54.79</ele>
        <time>2018-05-30T15:03:32Z</time>
      </trkpt>
      <trkpt lat="47.94009" lon="-3.47019">
        <ele>53.98</ele>
        <time>2018-05-30T15:03:37Z</time>
      </trkpt>
      <trkpt lat="47.94011" lon="-3.47018">
        <ele>53.8</ele>
        <time>2018-05-30T15:03:38Z</time>
      </trkpt>
      <trkpt lat="47.94012" lon="-3.47018">
        <ele>53.61</ele>
        <time>2018-05-30T15:03:39Z</time>
      </trkpt>
      <trkpt lat="47.94013" lon="-3.47019">
        <ele>53.44</ele>
        <time>2018-05-30T15:03:40Z</time>
      </trkpt>
      <trkpt lat="47.94019" lon="-3.4702">
        <ele>52.95</ele>
        <time>2018-05-30T15:03:43Z</time>
      </trkpt>
      <trkpt lat="47.94021" lon="-3.47019">
        <ele>52.77</ele>
        <time>2018-05-30T15:03:44Z</time>
      </trkpt>
      <trkpt lat="47.94023" lon="-3.47018">
        <ele>52.34</ele>
        <time>2018-05-30T15:03:45Z</time>
      </trkpt>
      <trkpt lat="47.94025" lon="-3.47017">
        <ele>52.1</ele>
        <time>2018-05-30T15:03:46Z</time>
      </trkpt>
      <trkpt lat="47.94028" lon="-3.47016">
        <ele>51.86</ele>
        <time>2018-05-30T15:03:47Z</time>
      </trkpt>
      <trkpt lat="47.94029" lon="-3.47015">
        <ele>51.61</ele>
        <time>2018-05-30T15:03:48Z</time>
      </trkpt>
      <trkpt lat="47.9403" lon="-3.47012">
        <ele>51.32</ele>
        <time>2018-05-30T15:03:49Z</time>
      </trkpt>
      <trkpt lat="47.94032" lon="-3.47013">
        <ele>51.05</ele>
        <time>2018-05-30T15:03:50Z</time>
      </trkpt>
      <trkpt lat="47.94034" lon="-3.47013">
        <ele>50.81</ele>
        <time>2018-05-30T15:03:51Z</time>
      </trkpt>
      <trkpt lat="47.94037" lon="-3.47005">
        <ele>49.83</ele>
        <time>2018-05-30T15:03:56Z</time>
      </trkpt>
      <trkpt lat="47.94041" lon="-3.46993">
        <ele>48.5</ele>
        <time>2018-05-30T15:04:04Z</time>
      </trkpt>
      <trkpt lat="47.94041" lon="-3.46991">
        <ele>48.33</ele>
        <time>2018-05-30T15:04:05Z</time>
      </trkpt>
      <trkpt lat="47.94041" lon="-3.46971">
        <ele>45.98</ele>
        <time>2018-05-30T15:04:18Z</time>
      </trkpt>
      <trkpt lat="47.9404" lon="-3.46943">
        <ele>43.57</ele>
        <time>2018-05-30T15:04:33Z</time>
      </trkpt>
      <trkpt lat="47.94035" lon="-3.46895">
        <ele>41.12</ele>
        <time>2018-05-30T15:04:50Z</time>
      </trkpt>
      <trkpt lat="47.94036" lon="-3.46837">
        <ele>38.02</ele>
        <time>2018-05-30T15:05:08Z</time>
      </trkpt>
      <trkpt lat="47.9404" lon="-3.46798">
        <ele>35.5</ele>
        <time>2018-05-30T15:05:22Z</time>
      </trkpt>
      <trkpt lat="47.94049" lon="-3.46756">
        <ele>32.79</ele>
        <time>2018-05-30T15:05:38Z</time>
      </trkpt>
      <trkpt lat="47.94053" lon="-3.46727">
        <ele>30.74</ele>
        <time>2018-05-30T15:05:50Z</time>
      </trkpt>
      <trkpt lat="47.94052" lon="-3.46698">
        <ele>28.49</ele>
        <time>2018-05-30T15:06:02Z</time>
      </trkpt>
      <trkpt lat="47.94045" lon="-3.46672">
        <ele>26.61</ele>
        <time>2018-05-30T15:06:14Z</time>
      </trkpt>
      <trkpt lat="47.94046" lon="-3.46669">
        <ele>26.44</ele>
        <time>2018-05-30T15:06:15Z</time>
      </trkpt>
      <trkpt lat="47.94046" lon="-3.46666">
        <ele>26.26</ele>
        <time>2018-05-30T15:06:16Z</time>
      </trkpt>
      <trkpt lat="47.94045" lon="-3.46638">
        <ele>25.26</ele>
        <time>2018-05-30T15:06:24Z</time>
      </trkpt>
      <trkpt lat="47.94046" lon="-3.46637">
        <ele>25.09</ele>
        <time>2018-05-30T15:06:25Z</time>
      </trkpt>
      <trkpt lat="47.94065" lon="-3.4661">
        <ele>23.37</ele>
        <time>2018-05-30T15:06:39Z</time>
      </trkpt>
      <trkpt lat="47.94075" lon="-3.46597">
        <ele>22.94</ele>
        <time>2018-05-30T15:06:46Z</time>
      </trkpt>
      <trkpt lat="47.94075" lon="-3.46594">
        <ele>22.87</ele>
        <time>2018-05-30T15:06:47Z</time>
      </trkpt>
      <trkpt lat="47.94076" lon="-3.46592">
        <ele>22.81</ele>
        <time>2018-05-30T15:06:48Z</time>
      </trkpt>
      <trkpt lat="47.9408" lon="-3.4658">
        <ele>22.49</ele>
        <time>2018-05-30T15:06:53Z</time>
      </trkpt>
      <trkpt lat="47.9408" lon="-3.46578">
        <ele>22.44</ele>
        <time>2018-05-30T15:06:54Z</time>
      </trkpt>
      <trkpt lat="47.94081" lon="-3.46575">
        <ele>22.4</ele>
        <time>2018-05-30T15:06:55Z</time>
      </trkpt>
      <trkpt lat="47.94082" lon="-3.46573">
        <ele>22.36</ele>
        <time>2018-05-30T15:06:56Z</time>
      </trkpt>
      <trkpt lat="47.94082" lon="-3.4657">
        <ele>22.3</ele>
        <time>2018-05-30T15:06:57Z</time>
      </trkpt>
      <trkpt lat="47.94082" lon="-3.46566">
        <ele>22.28</ele>
        <time>2018-05-30T15:06:58Z</time>
      </trkpt>
      <trkpt lat="47.94083" lon="-3.4656">
        <ele>22.24</ele>
        <time>2018-05-30T15:06:59Z</time>
      </trkpt>
      <trkpt lat="47.94083" lon="-3.46554">
        <ele>22.2</ele>
        <time>2018-05-30T15:07:00Z</time>
      </trkpt>
      <trkpt lat="47.94083" lon="-3.46547">
        <ele>22.19</ele>
        <time>2018-05-30T15:07:01Z</time>
      </trkpt>
      <trkpt lat="47.94078" lon="-3.46509">
        <ele>22.68</ele>
        <time>2018-05-30T15:07:10Z</time>
      </trkpt>
      <trkpt lat="47.94067" lon="-3.46471">
        <ele>23.69</ele>
        <time>2018-05-30T15:07:20Z</time>
      </trkpt>
      <trkpt lat="47.94066" lon="-3.46466">
        <ele>24.1</ele>
        <time>2018-05-30T15:07:22Z</time>
      </trkpt>
      <trkpt lat="47.94066" lon="-3.46464">
        <ele>24.28</ele>
        <time>2018-05-30T15:07:23Z</time>
      </trkpt>
      <trkpt lat="47.94066" lon="-3.46458">
        <ele>24.8</ele>
        <time>2018-05-30T15:07:26Z</time>
      </trkpt>
      <trkpt lat="47.94067" lon="-3.46456">
        <ele>25.07</ele>
        <time>2018-05-30T15:07:27Z</time>
      </trkpt>
      <trkpt lat="47.94067" lon="-3.46452">
        <ele>25.28</ele>
        <time>2018-05-30T15:07:29Z</time>
      </trkpt>
      <trkpt lat="47.94066" lon="-3.46451">
        <ele>25.37</ele>
        <time>2018-05-30T15:07:30Z</time>
      </trkpt>
      <trkpt lat="47.94066" lon="-3.46449">
        <ele>25.49</ele>
        <time>2018-05-30T15:07:31Z</time>
      </trkpt>
      <trkpt lat="47.94065" lon="-3.46442">
        <ele>25.98</ele>
        <time>2018-05-30T15:07:35Z</time>
      </trkpt>
      <trkpt lat="47.94065" lon="-3.46439">
        <ele>26.12</ele>
        <time>2018-05-30T15:07:36Z</time>
      </trkpt>
      <trkpt lat="47.94063" lon="-3.4643">
        <ele>26.48</ele>
        <time>2018-05-30T15:07:39Z</time>
      </trkpt>
      <trkpt lat="47.94063" lon="-3.46426">
        <ele>26.6</ele>
        <time>2018-05-30T15:07:40Z</time>
      </trkpt>
      <trkpt lat="47.94064" lon="-3.46422">
        <ele>26.72</ele>
        <time>2018-05-30T15:07:41Z</time>
      </trkpt>
      <trkpt lat="47.94064" lon="-3.46418">
        <ele>26.86</ele>
        <time>2018-05-30T15:07:42Z</time>
      </trkpt>
      <trkpt lat="47.94063" lon="-3.46415">
        <ele>26.99</ele>
        <time>2018-05-30T15:07:43Z</time>
      </trkpt>
      <trkpt lat="47.94063" lon="-3.46411">
        <ele>27.11</ele>
        <time>2018-05-30T15:07:44Z</time>
      </trkpt>
      <trkpt lat="47.94062" lon="-3.46408">
        <ele>27.23</ele>
        <time>2018-05-30T15:07:45Z</time>
      </trkpt>
      <trkpt lat="47.94062" lon="-3.46404">
        <ele>27.34</ele>
        <time>2018-05-30T15:07:46Z</time>
      </trkpt>
      <trkpt lat="47.94062" lon="-3.46401">
        <ele>27.45</ele>
        <time>2018-05-30T15:07:47Z</time>
      </trkpt>
      <trkpt lat="47.94062" lon="-3.46398">
        <ele>27.53</ele>
        <time>2018-05-30T15:07:48Z</time>
      </trkpt>
      <trkpt lat="47.94063" lon="-3.46394">
        <ele>27.62</ele>
        <time>2018-05-30T15:07:49Z</time>
      </trkpt>
      <trkpt lat="47.94064" lon="-3.46354">
        <ele>29.59</ele>
        <time>2018-05-30T15:08:01Z</time>
      </trkpt>
      <trkpt lat="47.94066" lon="-3.46345">
        <ele>30.24</ele>
        <time>2018-05-30T15:08:05Z</time>
      </trkpt>
      <trkpt lat="47.94066" lon="-3.46342">
        <ele>30.39</ele>
        <time>2018-05-30T15:08:06Z</time>
      </trkpt>
      <trkpt lat="47.94065" lon="-3.46339">
        <ele>30.54</ele>
        <time>2018-05-30T15:08:07Z</time>
      </trkpt>
      <trkpt lat="47.94065" lon="-3.46337">
        <ele>30.68</ele>
        <time>2018-05-30T15:08:08Z</time>
      </trkpt>
      <trkpt lat="47.94065" lon="-3.46334">
        <ele>30.8</ele>
        <time>2018-05-30T15:08:09Z</time>
      </trkpt>
      <trkpt lat="47.94066" lon="-3.46332">
        <ele>30.94</ele>
        <time>2018-05-30T15:08:10Z</time>
      </trkpt>
      <trkpt lat="47.94066" lon="-3.4633">
        <ele>31.07</ele>
        <time>2018-05-30T15:08:11Z</time>
      </trkpt>
      <trkpt lat="47.94065" lon="-3.46327">
        <ele>31.18</ele>
        <time>2018-05-30T15:08:12Z</time>
      </trkpt>
      <trkpt lat="47.94065" lon="-3.46325">
        <ele>31.27</ele>
        <time>2018-05-30T15:08:13Z</time>
      </trkpt>
      <trkpt lat="47.94064" lon="-3.46322">
        <ele>31.43</ele>
        <time>2018-05-30T15:08:15Z</time>
      </trkpt>
      <trkpt lat="47.94063" lon="-3.4632">
        <ele>31.5</ele>
        <time>2018-05-30T15:08:16Z</time>
      </trkpt>
      <trkpt lat="47.94062" lon="-3.46317">
        <ele>31.61</ele>
        <time>2018-05-30T15:08:17Z</time>
      </trkpt>
      <trkpt lat="47.94059" lon="-3.46294">
        <ele>33</ele>
        <time>2018-05-30T15:08:26Z</time>
      </trkpt>
      <trkpt lat="47.94058" lon="-3.46292">
        <ele>33.13</ele>
        <time>2018-05-30T15:08:27Z</time>
      </trkpt>
      <trkpt lat="47.94058" lon="-3.4629">
        <ele>33.27</ele>
        <time>2018-05-30T15:08:28Z</time>
      </trkpt>
      <trkpt lat="47.94057" lon="-3.46287">
        <ele>33.4</ele>
        <time>2018-05-30T15:08:29Z</time>
      </trkpt>
      <trkpt lat="47.94057" lon="-3.46285">
        <ele>33.51</ele>
        <time>2018-05-30T15:08:30Z</time>
      </trkpt>
      <trkpt lat="47.94058" lon="-3.46283">
        <ele>33.62</ele>
        <time>2018-05-30T15:08:31Z</time>
      </trkpt>
      <trkpt lat="47.94059" lon="-3.4628">
        <ele>33.73</ele>
        <time>2018-05-30T15:08:32Z</time>
      </trkpt>
      <trkpt lat="47.94059" lon="-3.46278">
        <ele>33.86</ele>
        <time>2018-05-30T15:08:33Z</time>
      </trkpt>
      <trkpt lat="47.94058" lon="-3.46276">
        <ele>34</ele>
        <time>2018-05-30T15:08:34Z</time>
      </trkpt>
      <trkpt lat="47.94058" lon="-3.46273">
        <ele>34.13</ele>
        <time>2018-05-30T15:08:35Z</time>
      </trkpt>
      <trkpt lat="47.94057" lon="-3.46271">
        <ele>34.24</ele>
        <time>2018-05-30T15:08:36Z</time>
      </trkpt>
      <trkpt lat="47.94056" lon="-3.46268">
        <ele>34.43</ele>
        <time>2018-05-30T15:08:38Z</time>
      </trkpt>
      <trkpt lat="47.94056" lon="-3.46266">
        <ele>34.49</ele>
        <time>2018-05-30T15:08:39Z</time>
      </trkpt>
      <trkpt lat="47.94053" lon="-3.46247">
        <ele>35.13</ele>
        <time>2018-05-30T15:08:50Z</time>
      </trkpt>
      <trkpt lat="47.94052" lon="-3.46245">
        <ele>35.2</ele>
        <time>2018-05-30T15:08:51Z</time>
      </trkpt>
      <trkpt lat="47.94053" lon="-3.46241">
        <ele>35.28</ele>
        <time>2018-05-30T15:08:53Z</time>
      </trkpt>
      <trkpt lat="47.94053" lon="-3.46217">
        <ele>35.54</ele>
        <time>2018-05-30T15:09:04Z</time>
      </trkpt>
      <trkpt lat="47.94053" lon="-3.46205">
        <ele>35.7</ele>
        <time>2018-05-30T15:09:08Z</time>
      </trkpt>
      <trkpt lat="47.94053" lon="-3.46202">
        <ele>35.73</ele>
        <time>2018-05-30T15:09:09Z</time>
      </trkpt>
      <trkpt lat="47.94052" lon="-3.462">
        <ele>35.75</ele>
        <time>2018-05-30T15:09:10Z</time>
      </trkpt>
      <trkpt lat="47.94052" lon="-3.46197">
        <ele>35.78</ele>
        <time>2018-05-30T15:09:11Z</time>
      </trkpt>
      <trkpt lat="47.94052" lon="-3.46194">
        <ele>35.79</ele>
        <time>2018-05-30T15:09:12Z</time>
      </trkpt>
      <trkpt lat="47.94052" lon="-3.4619">
        <ele>35.79</ele>
        <time>2018-05-30T15:09:13Z</time>
      </trkpt>
      <trkpt lat="47.9405" lon="-3.46164">
        <ele>36.07</ele>
        <time>2018-05-30T15:09:24Z</time>
      </trkpt>
      <trkpt lat="47.94046" lon="-3.46145">
        <ele>36.77</ele>
        <time>2018-05-30T15:09:33Z</time>
      </trkpt>
      <trkpt lat="47.94045" lon="-3.46143">
        <ele>36.91</ele>
        <time>2018-05-30T15:09:34Z</time>
      </trkpt>
      <trkpt lat="47.94045" lon="-3.4614">
        <ele>37.05</ele>
        <time>2018-05-30T15:09:35Z</time>
      </trkpt>
      <trkpt lat="47.94045" lon="-3.46138">
        <ele>37.17</ele>
        <time>2018-05-30T15:09:36Z</time>
      </trkpt>
      <trkpt lat="47.94045" lon="-3.46136">
        <ele>37.27</ele>
        <time>2018-05-30T15:09:37Z</time>
      </trkpt>
      <trkpt lat="47.94045" lon="-3.46134">
        <ele>37.35</ele>
        <time>2018-05-30T15:09:38Z</time>
      </trkpt>
      <trkpt lat="47.94045" lon="-3.46131">
        <ele>37.43</ele>
        <time>2018-05-30T15:09:39Z</time>
      </trkpt>
      <trkpt lat="47.94044" lon="-3.46129">
        <ele>37.52</ele>
        <time>2018-05-30T15:09:40Z</time>
      </trkpt>
      <trkpt lat="47.94043" lon="-3.46126">
        <ele>37.61</ele>
        <time>2018-05-30T15:09:41Z</time>
      </trkpt>
      <trkpt lat="47.94043" lon="-3.46124">
        <ele>37.68</ele>
        <time>2018-05-30T15:09:42Z</time>
      </trkpt>
      <trkpt lat="47.94043" lon="-3.46117">
        <ele>37.86</ele>
        <time>2018-05-30T15:09:45Z</time>
      </trkpt>
      <trkpt lat="47.94042" lon="-3.46114">
        <ele>37.96</ele>
        <time>2018-05-30T15:09:46Z</time>
      </trkpt>
      <trkpt lat="47.94042" lon="-3.46111">
        <ele>38.1</ele>
        <time>2018-05-30T15:09:47Z</time>
      </trkpt>
      <trkpt lat="47.94042" lon="-3.46108">
        <ele>38.23</ele>
        <time>2018-05-30T15:09:48Z</time>
      </trkpt>
      <trkpt lat="47.94042" lon="-3.461">
        <ele>38.65</ele>
        <time>2018-05-30T15:09:52Z</time>
      </trkpt>
      <trkpt lat="47.94041" lon="-3.46087">
        <ele>39.04</ele>
        <time>2018-05-30T15:09:58Z</time>
      </trkpt>
      <trkpt lat="47.9404" lon="-3.46081">
        <ele>39.64</ele>
        <time>2018-05-30T15:10:11Z</time>
      </trkpt>
      <trkpt lat="47.94039" lon="-3.4608">
        <ele>39.64</ele>
        <time>2018-05-30T15:10:13Z</time>
      </trkpt>
      <trkpt lat="47.94042" lon="-3.46074">
        <ele>39.54</ele>
        <time>2018-05-30T15:10:28Z</time>
      </trkpt>
      <trkpt lat="47.94043" lon="-3.46072">
        <ele>39.54</ele>
        <time>2018-05-30T15:10:29Z</time>
      </trkpt>
      <trkpt lat="47.94043" lon="-3.46069">
        <ele>39.55</ele>
        <time>2018-05-30T15:10:30Z</time>
      </trkpt>
      <trkpt lat="47.94043" lon="-3.46067">
        <ele>39.57</ele>
        <time>2018-05-30T15:10:31Z</time>
      </trkpt>
      <trkpt lat="47.94044" lon="-3.46065">
        <ele>39.59</ele>
        <time>2018-05-30T15:10:32Z</time>
      </trkpt>
      <trkpt lat="47.94045" lon="-3.46063">
        <ele>39.68</ele>
        <time>2018-05-30T15:10:34Z</time>
      </trkpt>
      <trkpt lat="47.94045" lon="-3.46061">
        <ele>39.72</ele>
        <time>2018-05-30T15:10:35Z</time>
      </trkpt>
      <trkpt lat="47.94045" lon="-3.4606">
        <ele>39.75</ele>
        <time>2018-05-30T15:10:36Z</time>
      </trkpt>
      <trkpt lat="47.94045" lon="-3.46058">
        <ele>39.78</ele>
        <time>2018-05-30T15:10:37Z</time>
      </trkpt>
      <trkpt lat="47.94045" lon="-3.46055">
        <ele>39.81</ele>
        <time>2018-05-30T15:10:38Z</time>
      </trkpt>
      <trkpt lat="47.94043" lon="-3.46028">
        <ele>40.33</ele>
        <time>2018-05-30T15:10:50Z</time>
      </trkpt>
      <trkpt lat="47.94042" lon="-3.45998">
        <ele>40.29</ele>
        <time>2018-05-30T15:11:03Z</time>
      </trkpt>
      <trkpt lat="47.94042" lon="-3.45995">
        <ele>40.3</ele>
        <time>2018-05-30T15:11:05Z</time>
      </trkpt>
      <trkpt lat="47.94042" lon="-3.45992">
        <ele>40.33</ele>
        <time>2018-05-30T15:11:06Z</time>
      </trkpt>
      <trkpt lat="47.94042" lon="-3.45977">
        <ele>40.46</ele>
        <time>2018-05-30T15:11:13Z</time>
      </trkpt>
      <trkpt lat="47.94042" lon="-3.45971">
        <ele>40.46</ele>
        <time>2018-05-30T15:11:15Z</time>
      </trkpt>
      <trkpt lat="47.94042" lon="-3.45962">
        <ele>40.58</ele>
        <time>2018-05-30T15:11:19Z</time>
      </trkpt>
      <trkpt lat="47.94042" lon="-3.45959">
        <ele>40.61</ele>
        <time>2018-05-30T15:11:20Z</time>
      </trkpt>
      <trkpt lat="47.94042" lon="-3.45957">
        <ele>40.63</ele>
        <time>2018-05-30T15:11:21Z</time>
      </trkpt>
      <trkpt lat="47.94042" lon="-3.45949">
        <ele>40.64</ele>
        <time>2018-05-30T15:11:24Z</time>
      </trkpt>
      <trkpt lat="47.94042" lon="-3.45946">
        <ele>40.64</ele>
        <time>2018-05-30T15:11:25Z</time>
      </trkpt>
      <trkpt lat="47.94042" lon="-3.45944">
        <ele>40.63</ele>
        <time>2018-05-30T15:11:26Z</time>
      </trkpt>
      <trkpt lat="47.94043" lon="-3.45941">
        <ele>40.61</ele>
        <time>2018-05-30T15:11:27Z</time>
      </trkpt>
      <trkpt lat="47.94043" lon="-3.45938">
        <ele>40.6</ele>
        <time>2018-05-30T15:11:28Z</time>
      </trkpt>
      <trkpt lat="47.94043" lon="-3.45936">
        <ele>40.59</ele>
        <time>2018-05-30T15:11:29Z</time>
      </trkpt>
      <trkpt lat="47.94042" lon="-3.45933">
        <ele>40.59</ele>
        <time>2018-05-30T15:11:30Z</time>
      </trkpt>
      <trkpt lat="47.94042" lon="-3.4593">
        <ele>40.57</ele>
        <time>2018-05-30T15:11:31Z</time>
      </trkpt>
      <trkpt lat="47.9404" lon="-3.45901">
        <ele>41.06</ele>
        <time>2018-05-30T15:11:44Z</time>
      </trkpt>
      <trkpt lat="47.9404" lon="-3.45893">
        <ele>41.05</ele>
        <time>2018-05-30T15:11:47Z</time>
      </trkpt>
      <trkpt lat="47.9404" lon="-3.45891">
        <ele>41.04</ele>
        <time>2018-05-30T15:11:48Z</time>
      </trkpt>
      <trkpt lat="47.9404" lon="-3.45889">
        <ele>41.01</ele>
        <time>2018-05-30T15:11:49Z</time>
      </trkpt>
      <trkpt lat="47.9404" lon="-3.45886">
        <ele>40.99</ele>
        <time>2018-05-30T15:11:50Z</time>
      </trkpt>
      <trkpt lat="47.94041" lon="-3.45883">
        <ele>41</ele>
        <time>2018-05-30T15:11:51Z</time>
      </trkpt>
      <trkpt lat="47.94041" lon="-3.4588">
        <ele>41.03</ele>
        <time>2018-05-30T15:11:52Z</time>
      </trkpt>
      <trkpt lat="47.94041" lon="-3.45877">
        <ele>41.07</ele>
        <time>2018-05-30T15:11:53Z</time>
      </trkpt>
      <trkpt lat="47.94042" lon="-3.45875">
        <ele>41.11</ele>
        <time>2018-05-30T15:11:54Z</time>
      </trkpt>
      <trkpt lat="47.94042" lon="-3.45872">
        <ele>41.13</ele>
        <time>2018-05-30T15:11:55Z</time>
      </trkpt>
      <trkpt lat="47.94043" lon="-3.4587">
        <ele>41.16</ele>
        <time>2018-05-30T15:11:56Z</time>
      </trkpt>
      <trkpt lat="47.94044" lon="-3.45866">
        <ele>41.18</ele>
        <time>2018-05-30T15:11:58Z</time>
      </trkpt>
      <trkpt lat="47.94045" lon="-3.45864">
        <ele>41.18</ele>
        <time>2018-05-30T15:11:59Z</time>
      </trkpt>
      <trkpt lat="47.94046" lon="-3.45862">
        <ele>41.18</ele>
        <time>2018-05-30T15:12:00Z</time>
      </trkpt>
      <trkpt lat="47.94046" lon="-3.45861">
        <ele>41.12</ele>
        <time>2018-05-30T15:12:01Z</time>
      </trkpt>
      <trkpt lat="47.94047" lon="-3.45858">
        <ele>41.08</ele>
        <time>2018-05-30T15:12:02Z</time>
      </trkpt>
      <trkpt lat="47.94048" lon="-3.45852">
        <ele>40.97</ele>
        <time>2018-05-30T15:12:05Z</time>
      </trkpt>
      <trkpt lat="47.94048" lon="-3.4585">
        <ele>40.96</ele>
        <time>2018-05-30T15:12:06Z</time>
      </trkpt>
      <trkpt lat="47.94048" lon="-3.45848">
        <ele>40.96</ele>
        <time>2018-05-30T15:12:07Z</time>
      </trkpt>
      <trkpt lat="47.94049" lon="-3.45846">
        <ele>40.98</ele>
        <time>2018-05-30T15:12:08Z</time>
      </trkpt>
      <trkpt lat="47.94049" lon="-3.45843">
        <ele>41.02</ele>
        <time>2018-05-30T15:12:09Z</time>
      </trkpt>
      <trkpt lat="47.94049" lon="-3.4584">
        <ele>41.08</ele>
        <time>2018-05-30T15:12:10Z</time>
      </trkpt>
      <trkpt lat="47.94049" lon="-3.45837">
        <ele>41.12</ele>
        <time>2018-05-30T15:12:11Z</time>
      </trkpt>
      <trkpt lat="47.9405" lon="-3.45835">
        <ele>41.16</ele>
        <time>2018-05-30T15:12:12Z</time>
      </trkpt>
      <trkpt lat="47.9405" lon="-3.45833">
        <ele>41.2</ele>
        <time>2018-05-30T15:12:13Z</time>
      </trkpt>
      <trkpt lat="47.9405" lon="-3.4583">
        <ele>41.24</ele>
        <time>2018-05-30T15:12:14Z</time>
      </trkpt>
      <trkpt lat="47.9405" lon="-3.45827">
        <ele>41.27</ele>
        <time>2018-05-30T15:12:15Z</time>
      </trkpt>
      <trkpt lat="47.9405" lon="-3.45823">
        <ele>41.3</ele>
        <time>2018-05-30T15:12:16Z</time>
      </trkpt>
      <trkpt lat="47.9405" lon="-3.4582">
        <ele>41.33</ele>
        <time>2018-05-30T15:12:17Z</time>
      </trkpt>
      <trkpt lat="47.9405" lon="-3.45818">
        <ele>41.36</ele>
        <time>2018-05-30T15:12:18Z</time>
      </trkpt>
      <trkpt lat="47.94048" lon="-3.45798">
        <ele>41.79</ele>
        <time>2018-05-30T15:12:25Z</time>
      </trkpt>
      <trkpt lat="47.94048" lon="-3.45796">
        <ele>41.96</ele>
        <time>2018-05-30T15:12:26Z</time>
      </trkpt>
      <trkpt lat="47.94049" lon="-3.45793">
        <ele>42.06</ele>
        <time>2018-05-30T15:12:27Z</time>
      </trkpt>
      <trkpt lat="47.94049" lon="-3.4579">
        <ele>42.16</ele>
        <time>2018-05-30T15:12:28Z</time>
      </trkpt>
      <trkpt lat="47.94049" lon="-3.45788">
        <ele>42.28</ele>
        <time>2018-05-30T15:12:29Z</time>
      </trkpt>
      <trkpt lat="47.9405" lon="-3.45786">
        <ele>42.43</ele>
        <time>2018-05-30T15:12:30Z</time>
      </trkpt>
      <trkpt lat="47.9405" lon="-3.45784">
        <ele>42.59</ele>
        <time>2018-05-30T15:12:31Z</time>
      </trkpt>
      <trkpt lat="47.9405" lon="-3.45782">
        <ele>42.75</ele>
        <time>2018-05-30T15:12:32Z</time>
      </trkpt>
      <trkpt lat="47.9405" lon="-3.45779">
        <ele>42.92</ele>
        <time>2018-05-30T15:12:33Z</time>
      </trkpt>
      <trkpt lat="47.9405" lon="-3.45777">
        <ele>43.07</ele>
        <time>2018-05-30T15:12:34Z</time>
      </trkpt>
      <trkpt lat="47.94051" lon="-3.45775">
        <ele>43.22</ele>
        <time>2018-05-30T15:12:35Z</time>
      </trkpt>
      <trkpt lat="47.94051" lon="-3.45772">
        <ele>43.37</ele>
        <time>2018-05-30T15:12:36Z</time>
      </trkpt>
      <trkpt lat="47.94052" lon="-3.4577">
        <ele>43.5</ele>
        <time>2018-05-30T15:12:37Z</time>
      </trkpt>
      <trkpt lat="47.94053" lon="-3.45754">
        <ele>44.38</ele>
        <time>2018-05-30T15:12:42Z</time>
      </trkpt>
      <trkpt lat="47.94053" lon="-3.45752">
        <ele>44.59</ele>
        <time>2018-05-30T15:12:43Z</time>
      </trkpt>
      <trkpt lat="47.94053" lon="-3.45749">
        <ele>44.78</ele>
        <time>2018-05-30T15:12:44Z</time>
      </trkpt>
      <trkpt lat="47.94053" lon="-3.45746">
        <ele>44.99</ele>
        <time>2018-05-30T15:12:45Z</time>
      </trkpt>
      <trkpt lat="47.94053" lon="-3.45743">
        <ele>45.21</ele>
        <time>2018-05-30T15:12:46Z</time>
      </trkpt>
      <trkpt lat="47.94053" lon="-3.4574">
        <ele>45.44</ele>
        <time>2018-05-30T15:12:47Z</time>
      </trkpt>
      <trkpt lat="47.94053" lon="-3.45737">
        <ele>45.86</ele>
        <time>2018-05-30T15:12:48Z</time>
      </trkpt>
      <trkpt lat="47.94052" lon="-3.45734">
        <ele>45.86</ele>
        <time>2018-05-30T15:12:49Z</time>
      </trkpt>
      <trkpt lat="47.94052" lon="-3.45731">
        <ele>46.33</ele>
        <time>2018-05-30T15:12:50Z</time>
      </trkpt>
      <trkpt lat="47.94051" lon="-3.45729">
        <ele>46.59</ele>
        <time>2018-05-30T15:12:51Z</time>
      </trkpt>
      <trkpt lat="47.94045" lon="-3.45701">
        <ele>48.93</ele>
        <time>2018-05-30T15:13:00Z</time>
      </trkpt>
      <trkpt lat="47.94043" lon="-3.45691">
        <ele>49.97</ele>
        <time>2018-05-30T15:13:05Z</time>
      </trkpt>
      <trkpt lat="47.94042" lon="-3.45689">
        <ele>50.16</ele>
        <time>2018-05-30T15:13:06Z</time>
      </trkpt>
      <trkpt lat="47.94042" lon="-3.45687">
        <ele>50.34</ele>
        <time>2018-05-30T15:13:07Z</time>
      </trkpt>
      <trkpt lat="47.94042" lon="-3.45685">
        <ele>50.51</ele>
        <time>2018-05-30T15:13:08Z</time>
      </trkpt>
      <trkpt lat="47.94042" lon="-3.45682">
        <ele>50.7</ele>
        <time>2018-05-30T15:13:09Z</time>
      </trkpt>
      <trkpt lat="47.94042" lon="-3.45679">
        <ele>50.96</ele>
        <time>2018-05-30T15:13:10Z</time>
      </trkpt>
      <trkpt lat="47.94042" lon="-3.45677">
        <ele>51.23</ele>
        <time>2018-05-30T15:13:11Z</time>
      </trkpt>
      <trkpt lat="47.94042" lon="-3.45673">
        <ele>51.45</ele>
        <time>2018-05-30T15:13:12Z</time>
      </trkpt>
      <trkpt lat="47.94041" lon="-3.45671">
        <ele>51.9</ele>
        <time>2018-05-30T15:13:13Z</time>
      </trkpt>
      <trkpt lat="47.9404" lon="-3.45668">
        <ele>51.9</ele>
        <time>2018-05-30T15:13:14Z</time>
      </trkpt>
      <trkpt lat="47.9404" lon="-3.45665">
        <ele>52.31</ele>
        <time>2018-05-30T15:13:15Z</time>
      </trkpt>
      <trkpt lat="47.9404" lon="-3.45662">
        <ele>52.52</ele>
        <time>2018-05-30T15:13:16Z</time>
      </trkpt>
      <trkpt lat="47.94039" lon="-3.4566">
        <ele>52.74</ele>
        <time>2018-05-30T15:13:17Z</time>
      </trkpt>
      <trkpt lat="47.94029" lon="-3.45625">
        <ele>55.9</ele>
        <time>2018-05-30T15:13:33Z</time>
      </trkpt>
      <trkpt lat="47.94018" lon="-3.45606">
        <ele>58.95</ele>
        <time>2018-05-30T15:13:46Z</time>
      </trkpt>
      <trkpt lat="47.94005" lon="-3.45591">
        <ele>61.51</ele>
        <time>2018-05-30T15:14:00Z</time>
      </trkpt>
      <trkpt lat="47.93986" lon="-3.45566">
        <ele>63.28</ele>
        <time>2018-05-30T15:14:08Z</time>
      </trkpt>
      <trkpt lat="47.9396" lon="-3.45533">
        <ele>66.52</ele>
        <time>2018-05-30T15:14:16Z</time>
      </trkpt>
      <trkpt lat="47.9394" lon="-3.4551">
        <ele>69.6</ele>
        <time>2018-05-30T15:14:24Z</time>
      </trkpt>
      <trkpt lat="47.93925" lon="-3.45492">
        <ele>72.8</ele>
        <time>2018-05-30T15:14:33Z</time>
      </trkpt>
      <trkpt lat="47.93914" lon="-3.45454">
        <ele>74.38</ele>
        <time>2018-05-30T15:14:49Z</time>
      </trkpt>
      <trkpt lat="47.93913" lon="-3.45424">
        <ele>74.53</ele>
        <time>2018-05-30T15:15:02Z</time>
      </trkpt>
      <trkpt lat="47.93913" lon="-3.45422">
        <ele>74.52</ele>
        <time>2018-05-30T15:15:03Z</time>
      </trkpt>
      <trkpt lat="47.93913" lon="-3.4542">
        <ele>74.52</ele>
        <time>2018-05-30T15:15:04Z</time>
      </trkpt>
      <trkpt lat="47.93913" lon="-3.45417">
        <ele>74.52</ele>
        <time>2018-05-30T15:15:05Z</time>
      </trkpt>
      <trkpt lat="47.93913" lon="-3.45415">
        <ele>74.51</ele>
        <time>2018-05-30T15:15:06Z</time>
      </trkpt>
      <trkpt lat="47.93913" lon="-3.45413">
        <ele>74.49</ele>
        <time>2018-05-30T15:15:07Z</time>
      </trkpt>
      <trkpt lat="47.93913" lon="-3.45409">
        <ele>74.5</ele>
        <time>2018-05-30T15:15:09Z</time>
      </trkpt>
      <trkpt lat="47.93915" lon="-3.45373">
        <ele>73.79</ele>
        <time>2018-05-30T15:15:25Z</time>
      </trkpt>
      <trkpt lat="47.93918" lon="-3.45333">
        <ele>73.07</ele>
        <time>2018-05-30T15:15:42Z</time>
      </trkpt>
      <trkpt lat="47.9392" lon="-3.45295">
        <ele>72.69</ele>
        <time>2018-05-30T15:15:57Z</time>
      </trkpt>
      <trkpt lat="47.93924" lon="-3.45265">
        <ele>72.63</ele>
        <time>2018-05-30T15:16:10Z</time>
      </trkpt>
      <trkpt lat="47.93924" lon="-3.45252">
        <ele>72.71</ele>
        <time>2018-05-30T15:16:16Z</time>
      </trkpt>
      <trkpt lat="47.93925" lon="-3.4525">
        <ele>72.74</ele>
        <time>2018-05-30T15:16:17Z</time>
      </trkpt>
      <trkpt lat="47.93925" lon="-3.45248">
        <ele>72.77</ele>
        <time>2018-05-30T15:16:18Z</time>
      </trkpt>
      <trkpt lat="47.93926" lon="-3.45246">
        <ele>72.78</ele>
        <time>2018-05-30T15:16:19Z</time>
      </trkpt>
      <trkpt lat="47.93926" lon="-3.45244">
        <ele>72.78</ele>
        <time>2018-05-30T15:16:20Z</time>
      </trkpt>
      <trkpt lat="47.93927" lon="-3.45237">
        <ele>72.77</ele>
        <time>2018-05-30T15:16:24Z</time>
      </trkpt>
      <trkpt lat="47.9393" lon="-3.452">
        <ele>72.95</ele>
        <time>2018-05-30T15:16:40Z</time>
      </trkpt>
      <trkpt lat="47.93932" lon="-3.45184">
        <ele>73.01</ele>
        <time>2018-05-30T15:16:47Z</time>
      </trkpt>
      <trkpt lat="47.93932" lon="-3.45182">
        <ele>73.06</ele>
        <time>2018-05-30T15:16:48Z</time>
      </trkpt>
      <trkpt lat="47.93937" lon="-3.45146">
        <ele>73.32</ele>
        <time>2018-05-30T15:17:02Z</time>
      </trkpt>
      <trkpt lat="47.9394" lon="-3.45122">
        <ele>73.47</ele>
        <time>2018-05-30T15:17:12Z</time>
      </trkpt>
      <trkpt lat="47.9394" lon="-3.4512">
        <ele>73.47</ele>
        <time>2018-05-30T15:17:13Z</time>
      </trkpt>
      <trkpt lat="47.9394" lon="-3.45118">
        <ele>73.47</ele>
        <time>2018-05-30T15:17:14Z</time>
      </trkpt>
      <trkpt lat="47.93943" lon="-3.4509">
        <ele>73.89</ele>
        <time>2018-05-30T15:17:28Z</time>
      </trkpt>
      <trkpt lat="47.93947" lon="-3.45068">
        <ele>74.48</ele>
        <time>2018-05-30T15:17:39Z</time>
      </trkpt>
      <trkpt lat="47.93947" lon="-3.45065">
        <ele>74.49</ele>
        <time>2018-05-30T15:17:40Z</time>
      </trkpt>
      <trkpt lat="47.93948" lon="-3.45063">
        <ele>74.48</ele>
        <time>2018-05-30T15:17:41Z</time>
      </trkpt>
      <trkpt lat="47.93948" lon="-3.4506">
        <ele>74.47</ele>
        <time>2018-05-30T15:17:42Z</time>
      </trkpt>
      <trkpt lat="47.93948" lon="-3.45057">
        <ele>74.48</ele>
        <time>2018-05-30T15:17:43Z</time>
      </trkpt>
      <trkpt lat="47.93949" lon="-3.45053">
        <ele>74.51</ele>
        <time>2018-05-30T15:17:44Z</time>
      </trkpt>
      <trkpt lat="47.93949" lon="-3.45051">
        <ele>74.55</ele>
        <time>2018-05-30T15:17:45Z</time>
      </trkpt>
      <trkpt lat="47.93958" lon="-3.45002">
        <ele>75.24</ele>
        <time>2018-05-30T15:17:59Z</time>
      </trkpt>
      <trkpt lat="47.93965" lon="-3.4495">
        <ele>77.48</ele>
        <time>2018-05-30T15:18:11Z</time>
      </trkpt>
      <trkpt lat="47.93966" lon="-3.44912">
        <ele>79.88</ele>
        <time>2018-05-30T15:18:24Z</time>
      </trkpt>
      <trkpt lat="47.93963" lon="-3.44895">
        <ele>80.82</ele>
        <time>2018-05-30T15:18:32Z</time>
      </trkpt>
      <trkpt lat="47.93961" lon="-3.44894">
        <ele>80.88</ele>
        <time>2018-05-30T15:18:33Z</time>
      </trkpt>
      <trkpt lat="47.9396" lon="-3.44894">
        <ele>80.88</ele>
        <time>2018-05-30T15:18:34Z</time>
      </trkpt>
      <trkpt lat="47.9395" lon="-3.44892">
        <ele>80.79</ele>
        <time>2018-05-30T15:18:50Z</time>
      </trkpt>
      <trkpt lat="47.93947" lon="-3.44891">
        <ele>80.78</ele>
        <time>2018-05-30T15:18:53Z</time>
      </trkpt>
      <trkpt lat="47.93922" lon="-3.44887">
        <ele>79.67</ele>
        <time>2018-05-30T15:19:10Z</time>
      </trkpt>
      <trkpt lat="47.93912" lon="-3.44887">
        <ele>78.39</ele>
        <time>2018-05-30T15:19:22Z</time>
      </trkpt>
      <trkpt lat="47.93897" lon="-3.44891">
        <ele>76.97</ele>
        <time>2018-05-30T15:19:35Z</time>
      </trkpt>
      <trkpt lat="47.93896" lon="-3.44892">
        <ele>76.93</ele>
        <time>2018-05-30T15:19:36Z</time>
      </trkpt>
      <trkpt lat="47.93891" lon="-3.44895">
        <ele>76.69</ele>
        <time>2018-05-30T15:19:40Z</time>
      </trkpt>
      <trkpt lat="47.93881" lon="-3.44907">
        <ele>76.54</ele>
        <time>2018-05-30T15:19:53Z</time>
      </trkpt>
      <trkpt lat="47.9387" lon="-3.4493">
        <ele>77.09</ele>
        <time>2018-05-30T15:20:08Z</time>
      </trkpt>
      <trkpt lat="47.93867" lon="-3.44938">
        <ele>77.42</ele>
        <time>2018-05-30T15:20:13Z</time>
      </trkpt>
      <trkpt lat="47.93867" lon="-3.4494">
        <ele>77.48</ele>
        <time>2018-05-30T15:20:14Z</time>
      </trkpt>
      <trkpt lat="47.93866" lon="-3.44947">
        <ele>77.69</ele>
        <time>2018-05-30T15:20:18Z</time>
      </trkpt>
      <trkpt lat="47.93866" lon="-3.44949">
        <ele>77.74</ele>
        <time>2018-05-30T15:20:19Z</time>
      </trkpt>
      <trkpt lat="47.93865" lon="-3.44951">
        <ele>77.79</ele>
        <time>2018-05-30T15:20:20Z</time>
      </trkpt>
      <trkpt lat="47.93863" lon="-3.44956">
        <ele>78.01</ele>
        <time>2018-05-30T15:20:24Z</time>
      </trkpt>
      <trkpt lat="47.93862" lon="-3.44958">
        <ele>78.08</ele>
        <time>2018-05-30T15:20:25Z</time>
      </trkpt>
      <trkpt lat="47.93862" lon="-3.4496">
        <ele>78.16</ele>
        <time>2018-05-30T15:20:26Z</time>
      </trkpt>
      <trkpt lat="47.93861" lon="-3.44963">
        <ele>78.24</ele>
        <time>2018-05-30T15:20:27Z</time>
      </trkpt>
      <trkpt lat="47.9386" lon="-3.44965">
        <ele>78.33</ele>
        <time>2018-05-30T15:20:28Z</time>
      </trkpt>
      <trkpt lat="47.9386" lon="-3.44968">
        <ele>78.43</ele>
        <time>2018-05-30T15:20:29Z</time>
      </trkpt>
      <trkpt lat="47.9386" lon="-3.44971">
        <ele>78.52</ele>
        <time>2018-05-30T15:20:30Z</time>
      </trkpt>
      <trkpt lat="47.93859" lon="-3.44973">
        <ele>78.62</ele>
        <time>2018-05-30T15:20:31Z</time>
      </trkpt>
      <trkpt lat="47.93858" lon="-3.44975">
        <ele>78.71</ele>
        <time>2018-05-30T15:20:32Z</time>
      </trkpt>
      <trkpt lat="47.93857" lon="-3.44977">
        <ele>78.8</ele>
        <time>2018-05-30T15:20:33Z</time>
      </trkpt>
      <trkpt lat="47.93856" lon="-3.44983">
        <ele>79.52</ele>
        <time>2018-05-30T15:20:38Z</time>
      </trkpt>
      <trkpt lat="47.93855" lon="-3.44985">
        <ele>79.65</ele>
        <time>2018-05-30T15:20:39Z</time>
      </trkpt>
      <trkpt lat="47.93854" lon="-3.44987">
        <ele>79.76</ele>
        <time>2018-05-30T15:20:40Z</time>
      </trkpt>
      <trkpt lat="47.93853" lon="-3.44989">
        <ele>79.87</ele>
        <time>2018-05-30T15:20:41Z</time>
      </trkpt>
      <trkpt lat="47.93852" lon="-3.4499">
        <ele>79.95</ele>
        <time>2018-05-30T15:20:42Z</time>
      </trkpt>
      <trkpt lat="47.93852" lon="-3.44992">
        <ele>80.02</ele>
        <time>2018-05-30T15:20:43Z</time>
      </trkpt>
      <trkpt lat="47.93852" lon="-3.44994">
        <ele>80.11</ele>
        <time>2018-05-30T15:20:44Z</time>
      </trkpt>
      <trkpt lat="47.93841" lon="-3.45006">
        <ele>80.83</ele>
        <time>2018-05-30T15:20:55Z</time>
      </trkpt>
      <trkpt lat="47.93835" lon="-3.45014">
        <ele>81.12</ele>
        <time>2018-05-30T15:21:02Z</time>
      </trkpt>
      <trkpt lat="47.93818" lon="-3.45037">
        <ele>82.45</ele>
        <time>2018-05-30T15:21:21Z</time>
      </trkpt>
      <trkpt lat="47.93815" lon="-3.45046">
        <ele>82.68</ele>
        <time>2018-05-30T15:21:41Z</time>
      </trkpt>
    </trkseg>
  </trk>
</gpx>